<?xml version="1.0" encoding="UTF-8" standalone="no" ?><gpx xmlns="http://www.topografix.com/GPX/1/1" xmlns:gpxx="http://www.garmin.com/xmlschemas/GpxExtensions/v3" xmlns:wptx1="http://www.garmin.com/xmlschemas/WaypointExtension/v1" xmlns:gpxtpx="http://www.garmin.com/xmlschemas/TrackPointExtension/v1" creator="eTrex 30" version="1.1" xmlns:xsi="http://www.w3.org/2001/XMLSchema-instance" xsi:schemaLocation="http://www.topografix.com/GPX/1/1 http://www.topografix.com/GPX/1/1/gpx.xsd http://www.garmin.com/xmlschemas/GpxExtensions/v3 http://www8.garmin.com/xmlschemas/GpxExtensionsv3.xsd http://www.garmin.com/xmlschemas/WaypointExtension/v1 http://www8.garmin.com/xmlschemas/WaypointExtensionv1.xsd http://www.garmin.com/xmlschemas/TrackPointExtension/v1 http://www.garmin.com/xmlschemas/TrackPointExtensionv1.xsd"><metadata><link href="http://www.garmin.com"><text>Garmin International</text></link><time>2012-09-22T19:28:49Z</time></metadata><trk><name>НАЛИБОКИ ЛАЙТ  РЕАЛ</name><extensions><gpxx:TrackExtension><gpxx:DisplayColor>Cyan</gpxx:DisplayColor></gpxx:TrackExtension></extensions><trkseg><trkpt lat="54.2239178158" lon="26.6571062990"><ele>182.31</ele><time>2012-09-22T06:19:34Z</time></trkpt><trkpt lat="54.2239433806" lon="26.6570974980"><ele>182.31</ele><time>2012-09-22T06:19:48Z</time></trkpt><trkpt lat="54.2239412013" lon="26.6571196262"><ele>182.31</ele><time>2012-09-22T06:20:09Z</time></trkpt><trkpt lat="54.2239383515" lon="26.6571233142"><ele>182.31</ele><time>2012-09-22T06:20:11Z</time></trkpt><trkpt lat="54.2238192447" lon="26.6571654752"><ele>182.31</ele><time>2012-09-22T06:20:17Z</time></trkpt><trkpt lat="54.2234660313" lon="26.6572864261"><ele>181.35</ele><time>2012-09-22T06:20:25Z</time></trkpt><trkpt lat="54.2232511193" lon="26.6572996695"><ele>180.38</ele><time>2012-09-22T06:20:29Z</time></trkpt><trkpt lat="54.2225254979" lon="26.6575108096"><ele>178.94</ele><time>2012-09-22T06:20:43Z</time></trkpt><trkpt lat="54.2219047341" lon="26.6576956306"><ele>177.02</ele><time>2012-09-22T06:20:55Z</time></trkpt><trkpt lat="54.2218603939" lon="26.6576773580"><ele>176.54</ele><time>2012-09-22T06:20:56Z</time></trkpt><trkpt lat="54.2218286265" lon="26.6576259769"><ele>176.54</ele><time>2012-09-22T06:20:57Z</time></trkpt><trkpt lat="54.2218142934" lon="26.6575564910"><ele>176.06</ele><time>2012-09-22T06:20:58Z</time></trkpt><trkpt lat="54.2218073364" lon="26.6574815568"><ele>176.06</ele><time>2012-09-22T06:20:59Z</time></trkpt><trkpt lat="54.2218012176" lon="26.6574005038"><ele>176.06</ele><time>2012-09-22T06:21:00Z</time></trkpt><trkpt lat="54.2217120342" lon="26.6562560387"><ele>173.17</ele><time>2012-09-22T06:21:11Z</time></trkpt><trkpt lat="54.2216052487" lon="26.6549395770"><ele>172.21</ele><time>2012-09-22T06:21:23Z</time></trkpt><trkpt lat="54.2215426359" lon="26.6540236026"><ele>175.10</ele><time>2012-09-22T06:21:35Z</time></trkpt><trkpt lat="54.2214969546" lon="26.6528704204"><ele>176.54</ele><time>2012-09-22T06:21:51Z</time></trkpt><trkpt lat="54.2214635946" lon="26.6519786697"><ele>173.66</ele><time>2012-09-22T06:22:00Z</time></trkpt><trkpt lat="54.2214421369" lon="26.6517286375"><ele>173.17</ele><time>2012-09-22T06:22:02Z</time></trkpt><trkpt lat="54.2213989701" lon="26.6514748335"><ele>171.73</ele><time>2012-09-22T06:22:04Z</time></trkpt><trkpt lat="54.2213647719" lon="26.6513537988"><ele>171.25</ele><time>2012-09-22T06:22:05Z</time></trkpt><trkpt lat="54.2213211861" lon="26.6512398049"><ele>171.25</ele><time>2012-09-22T06:22:06Z</time></trkpt><trkpt lat="54.2212721519" lon="26.6511326842"><ele>170.77</ele><time>2012-09-22T06:22:07Z</time></trkpt><trkpt lat="54.2212187592" lon="26.6510309279"><ele>170.29</ele><time>2012-09-22T06:22:08Z</time></trkpt><trkpt lat="54.2211612593" lon="26.6509384755"><ele>170.29</ele><time>2012-09-22T06:22:09Z</time></trkpt><trkpt lat="54.2211014964" lon="26.6508518066"><ele>169.81</ele><time>2012-09-22T06:22:10Z</time></trkpt><trkpt lat="54.2210403085" lon="26.6507704183"><ele>169.81</ele><time>2012-09-22T06:22:11Z</time></trkpt><trkpt lat="54.2201783974" lon="26.6497115325"><ele>166.45</ele><time>2012-09-22T06:22:26Z</time></trkpt><trkpt lat="54.2194236908" lon="26.6490241326"><ele>165.00</ele><time>2012-09-22T06:22:39Z</time></trkpt><trkpt lat="54.2185772862" lon="26.6487619467"><ele>164.04</ele><time>2012-09-22T06:22:53Z</time></trkpt><trkpt lat="54.2174676899" lon="26.6485282592"><ele>163.08</ele><time>2012-09-22T06:23:12Z</time></trkpt><trkpt lat="54.2162435967" lon="26.6482721083"><ele>162.60</ele><time>2012-09-22T06:23:33Z</time></trkpt><trkpt lat="54.2152267043" lon="26.6480556037"><ele>161.64</ele><time>2012-09-22T06:23:51Z</time></trkpt><trkpt lat="54.2141344585" lon="26.6478216648"><ele>162.12</ele><time>2012-09-22T06:24:11Z</time></trkpt><trkpt lat="54.2130749859" lon="26.6475929227"><ele>162.60</ele><time>2012-09-22T06:24:30Z</time></trkpt><trkpt lat="54.2119091470" lon="26.6473466624"><ele>163.08</ele><time>2012-09-22T06:24:51Z</time></trkpt><trkpt lat="54.2108765803" lon="26.6471252963"><ele>163.56</ele><time>2012-09-22T06:25:09Z</time></trkpt><trkpt lat="54.2097100709" lon="26.6468797904"><ele>164.04</ele><time>2012-09-22T06:25:29Z</time></trkpt><trkpt lat="54.2086132988" lon="26.6466671415"><ele>164.52</ele><time>2012-09-22T06:25:49Z</time></trkpt><trkpt lat="54.2077404074" lon="26.6466307640"><ele>164.52</ele><time>2012-09-22T06:26:05Z</time></trkpt><trkpt lat="54.2068567872" lon="26.6466485336"><ele>165.48</ele><time>2012-09-22T06:26:22Z</time></trkpt><trkpt lat="54.2061294056" lon="26.6466563288"><ele>165.96</ele><time>2012-09-22T06:26:35Z</time></trkpt><trkpt lat="54.2049250100" lon="26.6466392297"><ele>165.48</ele><time>2012-09-22T06:26:55Z</time></trkpt><trkpt lat="54.2038963828" lon="26.6464222223"><ele>166.93</ele><time>2012-09-22T06:27:13Z</time></trkpt><trkpt lat="54.2030535825" lon="26.6460255906"><ele>168.85</ele><time>2012-09-22T06:27:30Z</time></trkpt><trkpt lat="54.2021525279" lon="26.6456788313"><ele>169.33</ele><time>2012-09-22T06:27:47Z</time></trkpt><trkpt lat="54.2011466157" lon="26.6453726403"><ele>168.85</ele><time>2012-09-22T06:28:04Z</time></trkpt><trkpt lat="54.2003497481" lon="26.6451307386"><ele>168.85</ele><time>2012-09-22T06:28:18Z</time></trkpt><trkpt lat="54.1992321052" lon="26.6447878350"><ele>169.33</ele><time>2012-09-22T06:28:37Z</time></trkpt><trkpt lat="54.1979430523" lon="26.6443912033"><ele>169.81</ele><time>2012-09-22T06:28:58Z</time></trkpt><trkpt lat="54.1967161093" lon="26.6440195497"><ele>169.81</ele><time>2012-09-22T06:29:18Z</time></trkpt><trkpt lat="54.1955619212" lon="26.6436661687"><ele>170.77</ele><time>2012-09-22T06:29:38Z</time></trkpt><trkpt lat="54.1944899596" lon="26.6433412023"><ele>171.25</ele><time>2012-09-22T06:29:58Z</time></trkpt><trkpt lat="54.1935295612" lon="26.6430341732"><ele>172.21</ele><time>2012-09-22T06:30:16Z</time></trkpt><trkpt lat="54.1924695857" lon="26.6427009087"><ele>172.69</ele><time>2012-09-22T06:30:36Z</time></trkpt><trkpt lat="54.1914983746" lon="26.6423995793"><ele>171.73</ele><time>2012-09-22T06:30:53Z</time></trkpt><trkpt lat="54.1909178440" lon="26.6422220506"><ele>171.25</ele><time>2012-09-22T06:31:03Z</time></trkpt><trkpt lat="54.1905695759" lon="26.6421176959"><ele>170.77</ele><time>2012-09-22T06:31:13Z</time></trkpt><trkpt lat="54.1901516542" lon="26.6419919673"><ele>170.77</ele><time>2012-09-22T06:31:25Z</time></trkpt><trkpt lat="54.1894604824" lon="26.6417690925"><ele>170.29</ele><time>2012-09-22T06:31:41Z</time></trkpt><trkpt lat="54.1888004914" lon="26.6415580362"><ele>169.33</ele><time>2012-09-22T06:31:55Z</time></trkpt><trkpt lat="54.1880234890" lon="26.6412780806"><ele>168.85</ele><time>2012-09-22T06:32:10Z</time></trkpt><trkpt lat="54.1871942673" lon="26.6409480851"><ele>167.89</ele><time>2012-09-22T06:32:26Z</time></trkpt><trkpt lat="54.1864777822" lon="26.6406615078"><ele>168.37</ele><time>2012-09-22T06:32:41Z</time></trkpt><trkpt lat="54.1856594570" lon="26.6403445043"><ele>168.85</ele><time>2012-09-22T06:32:59Z</time></trkpt><trkpt lat="54.1851303075" lon="26.6401265748"><ele>169.33</ele><time>2012-09-22T06:33:11Z</time></trkpt><trkpt lat="54.1850878950" lon="26.6401033569"><ele>169.33</ele><time>2012-09-22T06:33:12Z</time></trkpt><trkpt lat="54.1843331046" lon="26.6398008540"><ele>169.81</ele><time>2012-09-22T06:33:29Z</time></trkpt><trkpt lat="54.1838961560" lon="26.6396329645"><ele>169.81</ele><time>2012-09-22T06:33:39Z</time></trkpt><trkpt lat="54.1835970059" lon="26.6395050567"><ele>169.81</ele><time>2012-09-22T06:33:47Z</time></trkpt><trkpt lat="54.1829811875" lon="26.6392478161"><ele>170.29</ele><time>2012-09-22T06:34:02Z</time></trkpt><trkpt lat="54.1823788639" lon="26.6390155535"><ele>170.29</ele><time>2012-09-22T06:34:16Z</time></trkpt><trkpt lat="54.1816663183" lon="26.6387342568"><ele>170.77</ele><time>2012-09-22T06:34:33Z</time></trkpt><trkpt lat="54.1813600436" lon="26.6386125516"><ele>171.25</ele><time>2012-09-22T06:34:40Z</time></trkpt><trkpt lat="54.1812726203" lon="26.6385772638"><ele>171.25</ele><time>2012-09-22T06:34:42Z</time></trkpt><trkpt lat="54.1812266037" lon="26.6385526210"><ele>171.25</ele><time>2012-09-22T06:34:43Z</time></trkpt><trkpt lat="54.1806169041" lon="26.6383194365"><ele>171.73</ele><time>2012-09-22T06:34:56Z</time></trkpt><trkpt lat="54.1803864017" lon="26.6382199433"><ele>171.73</ele><time>2012-09-22T06:35:01Z</time></trkpt><trkpt lat="54.1803390440" lon="26.6381972283"><ele>171.73</ele><time>2012-09-22T06:35:02Z</time></trkpt><trkpt lat="54.1794568487" lon="26.6378397401"><ele>172.69</ele><time>2012-09-22T06:35:21Z</time></trkpt><trkpt lat="54.1787317302" lon="26.6375427693"><ele>173.17</ele><time>2012-09-22T06:35:37Z</time></trkpt><trkpt lat="54.1778802127" lon="26.6371958423"><ele>174.14</ele><time>2012-09-22T06:35:56Z</time></trkpt><trkpt lat="54.1769254301" lon="26.6368189082"><ele>175.58</ele><time>2012-09-22T06:36:17Z</time></trkpt><trkpt lat="54.1763771698" lon="26.6365988832"><ele>176.06</ele><time>2012-09-22T06:36:30Z</time></trkpt><trkpt lat="54.1758025065" lon="26.6363586579"><ele>177.02</ele><time>2012-09-22T06:36:43Z</time></trkpt><trkpt lat="54.1750486381" lon="26.6360537242"><ele>177.98</ele><time>2012-09-22T06:37:00Z</time></trkpt><trkpt lat="54.1742573865" lon="26.6357311048"><ele>179.42</ele><time>2012-09-22T06:37:18Z</time></trkpt><trkpt lat="54.1735372134" lon="26.6354385763"><ele>180.87</ele><time>2012-09-22T06:37:34Z</time></trkpt><trkpt lat="54.1727798246" lon="26.6351351514"><ele>181.35</ele><time>2012-09-22T06:37:51Z</time></trkpt><trkpt lat="54.1719594877" lon="26.6348023061"><ele>182.79</ele><time>2012-09-22T06:38:09Z</time></trkpt><trkpt lat="54.1710511409" lon="26.6344408784"><ele>183.75</ele><time>2012-09-22T06:38:28Z</time></trkpt><trkpt lat="54.1700483300" lon="26.6340369545"><ele>184.23</ele><time>2012-09-22T06:38:48Z</time></trkpt><trkpt lat="54.1693685576" lon="26.6337677278"><ele>184.71</ele><time>2012-09-22T06:39:01Z</time></trkpt><trkpt lat="54.1684768070" lon="26.6334099881"><ele>185.67</ele><time>2012-09-22T06:39:19Z</time></trkpt><trkpt lat="54.1677627526" lon="26.6331188846"><ele>186.15</ele><time>2012-09-22T06:39:34Z</time></trkpt><trkpt lat="54.1670285817" lon="26.6328178905"><ele>187.11</ele><time>2012-09-22T06:39:50Z</time></trkpt><trkpt lat="54.1661468893" lon="26.6324680299"><ele>189.04</ele><time>2012-09-22T06:40:10Z</time></trkpt><trkpt lat="54.1655428056" lon="26.6322032455"><ele>190.96</ele><time>2012-09-22T06:40:24Z</time></trkpt><trkpt lat="54.1649730038" lon="26.6319732461"><ele>192.40</ele><time>2012-09-22T06:40:37Z</time></trkpt><trkpt lat="54.1643033735" lon="26.6316861659"><ele>194.32</ele><time>2012-09-22T06:40:53Z</time></trkpt><trkpt lat="54.1637287941" lon="26.6314713378"><ele>196.25</ele><time>2012-09-22T06:41:07Z</time></trkpt><trkpt lat="54.1630460043" lon="26.6312582698"><ele>198.17</ele><time>2012-09-22T06:41:23Z</time></trkpt><trkpt lat="54.1624005977" lon="26.6311012767"><ele>200.09</ele><time>2012-09-22T06:41:38Z</time></trkpt><trkpt lat="54.1622299422" lon="26.6310669947"><ele>200.09</ele><time>2012-09-22T06:41:42Z</time></trkpt><trkpt lat="54.1614704579" lon="26.6308893822"><ele>202.01</ele><time>2012-09-22T06:41:59Z</time></trkpt><trkpt lat="54.1607933678" lon="26.6307777353"><ele>203.46</ele><time>2012-09-22T06:42:14Z</time></trkpt><trkpt lat="54.1600940656" lon="26.6307008732"><ele>204.42</ele><time>2012-09-22T06:42:29Z</time></trkpt><trkpt lat="54.1591980401" lon="26.6306302138"><ele>205.38</ele><time>2012-09-22T06:42:47Z</time></trkpt><trkpt lat="54.1585011687" lon="26.6305887233"><ele>205.86</ele><time>2012-09-22T06:43:01Z</time></trkpt><trkpt lat="54.1576507408" lon="26.6305444669"><ele>206.34</ele><time>2012-09-22T06:43:18Z</time></trkpt><trkpt lat="54.1567884106" lon="26.6304849554"><ele>207.30</ele><time>2012-09-22T06:43:37Z</time></trkpt><trkpt lat="54.1561320238" lon="26.6304438002"><ele>208.26</ele><time>2012-09-22T06:43:52Z</time></trkpt><trkpt lat="54.1557501443" lon="26.6304022260"><ele>209.22</ele><time>2012-09-22T06:44:01Z</time></trkpt><trkpt lat="54.1553061549" lon="26.6303509288"><ele>210.67</ele><time>2012-09-22T06:44:13Z</time></trkpt><trkpt lat="54.1547514405" lon="26.6303281300"><ele>212.11</ele><time>2012-09-22T06:44:29Z</time></trkpt><trkpt lat="54.1542610992" lon="26.6302848794"><ele>213.55</ele><time>2012-09-22T06:44:43Z</time></trkpt><trkpt lat="54.1537406668" lon="26.6302616615"><ele>214.99</ele><time>2012-09-22T06:44:58Z</time></trkpt><trkpt lat="54.1531527601" lon="26.6302446462"><ele>216.91</ele><time>2012-09-22T06:45:14Z</time></trkpt><trkpt lat="54.1524452437" lon="26.6302268766"><ele>218.36</ele><time>2012-09-22T06:45:33Z</time></trkpt><trkpt lat="54.1518665571" lon="26.6302070953"><ele>219.80</ele><time>2012-09-22T06:45:48Z</time></trkpt><trkpt lat="54.1512335557" lon="26.6301572230"><ele>221.24</ele><time>2012-09-22T06:46:05Z</time></trkpt><trkpt lat="54.1506410390" lon="26.6301261261"><ele>222.68</ele><time>2012-09-22T06:46:21Z</time></trkpt><trkpt lat="54.1501777712" lon="26.6300930176"><ele>224.61</ele><time>2012-09-22T06:46:35Z</time></trkpt><trkpt lat="54.1497308481" lon="26.6300643515"><ele>226.53</ele><time>2012-09-22T06:46:49Z</time></trkpt><trkpt lat="54.1493213084" lon="26.6300356016"><ele>227.97</ele><time>2012-09-22T06:47:02Z</time></trkpt><trkpt lat="54.1488177236" lon="26.6299910098"><ele>230.37</ele><time>2012-09-22T06:47:18Z</time></trkpt><trkpt lat="54.1483600717" lon="26.6299633496"><ele>232.78</ele><time>2012-09-22T06:47:33Z</time></trkpt><trkpt lat="54.1478498653" lon="26.6299284808"><ele>235.18</ele><time>2012-09-22T06:47:50Z</time></trkpt><trkpt lat="54.1473592725" lon="26.6298893373"><ele>237.58</ele><time>2012-09-22T06:48:06Z</time></trkpt><trkpt lat="54.1469692625" lon="26.6298624314"><ele>239.51</ele><time>2012-09-22T06:48:19Z</time></trkpt><trkpt lat="54.1465146281" lon="26.6298225336"><ele>241.43</ele><time>2012-09-22T06:48:34Z</time></trkpt><trkpt lat="54.1460326687" lon="26.6297876649"><ele>243.83</ele><time>2012-09-22T06:48:49Z</time></trkpt><trkpt lat="54.1455406509" lon="26.6297485214"><ele>246.23</ele><time>2012-09-22T06:49:05Z</time></trkpt><trkpt lat="54.1450662352" lon="26.6297126468"><ele>248.16</ele><time>2012-09-22T06:49:21Z</time></trkpt><trkpt lat="54.1446827631" lon="26.6296875011"><ele>250.08</ele><time>2012-09-22T06:49:34Z</time></trkpt><trkpt lat="54.1441144701" lon="26.6296465136"><ele>253.44</ele><time>2012-09-22T06:49:53Z</time></trkpt><trkpt lat="54.1436367854" lon="26.6295955516"><ele>255.85</ele><time>2012-09-22T06:50:09Z</time></trkpt><trkpt lat="54.1431895271" lon="26.6295566596"><ele>258.25</ele><time>2012-09-22T06:50:24Z</time></trkpt><trkpt lat="54.1427373234" lon="26.6295289993"><ele>260.65</ele><time>2012-09-22T06:50:39Z</time></trkpt><trkpt lat="54.1422719602" lon="26.6294957232"><ele>263.54</ele><time>2012-09-22T06:50:55Z</time></trkpt><trkpt lat="54.1417967062" lon="26.6294512991"><ele>265.94</ele><time>2012-09-22T06:51:10Z</time></trkpt><trkpt lat="54.1412668861" lon="26.6294105630"><ele>268.83</ele><time>2012-09-22T06:51:26Z</time></trkpt><trkpt lat="54.1407381557" lon="26.6293854173"><ele>271.71</ele><time>2012-09-22T06:51:42Z</time></trkpt><trkpt lat="54.1401673481" lon="26.6293276660"><ele>274.59</ele><time>2012-09-22T06:51:59Z</time></trkpt><trkpt lat="54.1396001447" lon="26.6292589344"><ele>277.00</ele><time>2012-09-22T06:52:16Z</time></trkpt><trkpt lat="54.1390250623" lon="26.6291732714"><ele>278.92</ele><time>2012-09-22T06:52:33Z</time></trkpt><trkpt lat="54.1384089086" lon="26.6290559247"><ele>281.80</ele><time>2012-09-22T06:52:51Z</time></trkpt><trkpt lat="54.1379857063" lon="26.6289664898"><ele>282.28</ele><time>2012-09-22T06:53:03Z</time></trkpt><trkpt lat="54.1373120528" lon="26.6288280208"><ele>283.73</ele><time>2012-09-22T06:53:22Z</time></trkpt><trkpt lat="54.1367682349" lon="26.6286830977"><ele>284.69</ele><time>2012-09-22T06:53:36Z</time></trkpt><trkpt lat="54.1363694239" lon="26.6285666730"><ele>285.17</ele><time>2012-09-22T06:53:46Z</time></trkpt><trkpt lat="54.1359569505" lon="26.6283917427"><ele>285.65</ele><time>2012-09-22T06:53:58Z</time></trkpt><trkpt lat="54.1357405297" lon="26.6283448040"><ele>285.65</ele><time>2012-09-22T06:54:07Z</time></trkpt><trkpt lat="54.1355098598" lon="26.6282919981"><ele>285.17</ele><time>2012-09-22T06:54:18Z</time></trkpt><trkpt lat="54.1352171637" lon="26.6282456461"><ele>285.17</ele><time>2012-09-22T06:54:30Z</time></trkpt><trkpt lat="54.1350314207" lon="26.6281705443"><ele>285.17</ele><time>2012-09-22T06:54:40Z</time></trkpt><trkpt lat="54.1349636950" lon="26.6281545348"><ele>285.17</ele><time>2012-09-22T06:54:44Z</time></trkpt><trkpt lat="54.1349444166" lon="26.6281464882"><ele>285.17</ele><time>2012-09-22T06:54:45Z</time></trkpt><trkpt lat="54.1346927918" lon="26.6280885693"><ele>285.17</ele><time>2012-09-22T06:54:57Z</time></trkpt><trkpt lat="54.1344553325" lon="26.6280329973"><ele>285.17</ele><time>2012-09-22T06:55:09Z</time></trkpt><trkpt lat="54.1341053043" lon="26.6279273853"><ele>285.17</ele><time>2012-09-22T06:55:24Z</time></trkpt><trkpt lat="54.1336719599" lon="26.6277351882"><ele>284.69</ele><time>2012-09-22T06:55:38Z</time></trkpt><trkpt lat="54.1333293077" lon="26.6275667958"><ele>283.73</ele><time>2012-09-22T06:55:49Z</time></trkpt><trkpt lat="54.1329608392" lon="26.6273318511"><ele>283.73</ele><time>2012-09-22T06:56:00Z</time></trkpt><trkpt lat="54.1323772911" lon="26.6268489696"><ele>282.28</ele><time>2012-09-22T06:56:14Z</time></trkpt><trkpt lat="54.1317347344" lon="26.6261365078"><ele>281.32</ele><time>2012-09-22T06:56:30Z</time></trkpt><trkpt lat="54.1312039085" lon="26.6253441665"><ele>280.36</ele><time>2012-09-22T06:56:44Z</time></trkpt><trkpt lat="54.1307659540" lon="26.6245035455"><ele>279.40</ele><time>2012-09-22T06:56:57Z</time></trkpt><trkpt lat="54.1303825658" lon="26.6236156505"><ele>278.92</ele><time>2012-09-22T06:57:09Z</time></trkpt><trkpt lat="54.1299337987" lon="26.6225493886"><ele>277.00</ele><time>2012-09-22T06:57:21Z</time></trkpt><trkpt lat="54.1294752248" lon="26.6214392893"><ele>275.07</ele><time>2012-09-22T06:57:33Z</time></trkpt><trkpt lat="54.1290028207" lon="26.6200583708"><ele>274.11</ele><time>2012-09-22T06:57:47Z</time></trkpt><trkpt lat="54.1284822207" lon="26.6183993407"><ele>271.23</ele><time>2012-09-22T06:58:03Z</time></trkpt><trkpt lat="54.1280299332" lon="26.6169179231"><ele>270.27</ele><time>2012-09-22T06:58:18Z</time></trkpt><trkpt lat="54.1277541686" lon="26.6160468757"><ele>270.27</ele><time>2012-09-22T06:58:29Z</time></trkpt><trkpt lat="54.1274686810" lon="26.6151404567"><ele>270.75</ele><time>2012-09-22T06:58:41Z</time></trkpt><trkpt lat="54.1270586383" lon="26.6138608754"><ele>271.23</ele><time>2012-09-22T06:58:58Z</time></trkpt><trkpt lat="54.1266724840" lon="26.6126518697"><ele>271.71</ele><time>2012-09-22T06:59:14Z</time></trkpt><trkpt lat="54.1262278240" lon="26.6112327296"><ele>270.27</ele><time>2012-09-22T06:59:31Z</time></trkpt><trkpt lat="54.1257955693" lon="26.6098487936"><ele>268.35</ele><time>2012-09-22T06:59:46Z</time></trkpt><trkpt lat="54.1254261788" lon="26.6086042486"><ele>265.94</ele><time>2012-09-22T06:59:59Z</time></trkpt><trkpt lat="54.1250113584" lon="26.6072525829"><ele>263.54</ele><time>2012-09-22T07:00:13Z</time></trkpt><trkpt lat="54.1246465780" lon="26.6060814634"><ele>260.17</ele><time>2012-09-22T07:00:24Z</time></trkpt><trkpt lat="54.1243258864" lon="26.6050950810"><ele>256.81</ele><time>2012-09-22T07:00:32Z</time></trkpt><trkpt lat="54.1240507085" lon="26.6042760853"><ele>253.44</ele><time>2012-09-22T07:00:38Z</time></trkpt><trkpt lat="54.1237895284" lon="26.6035627853"><ele>250.56</ele><time>2012-09-22T07:00:43Z</time></trkpt><trkpt lat="54.1230942495" lon="26.6016989015"><ele>247.68</ele><time>2012-09-22T07:00:57Z</time></trkpt><trkpt lat="54.1226463206" lon="26.6003163904"><ele>246.72</ele><time>2012-09-22T07:01:10Z</time></trkpt><trkpt lat="54.1222396307" lon="26.5989084821"><ele>246.23</ele><time>2012-09-22T07:01:25Z</time></trkpt><trkpt lat="54.1218007542" lon="26.5973714087"><ele>245.75</ele><time>2012-09-22T07:01:43Z</time></trkpt><trkpt lat="54.1214667354" lon="26.5961276181"><ele>245.27</ele><time>2012-09-22T07:01:58Z</time></trkpt><trkpt lat="54.1212864406" lon="26.5955303237"><ele>244.79</ele><time>2012-09-22T07:02:07Z</time></trkpt><trkpt lat="54.1212715209" lon="26.5954664536"><ele>244.79</ele><time>2012-09-22T07:02:08Z</time></trkpt><trkpt lat="54.1212574393" lon="26.5954040084"><ele>245.27</ele><time>2012-09-22T07:02:09Z</time></trkpt><trkpt lat="54.1209542658" lon="26.5943488106"><ele>244.79</ele><time>2012-09-22T07:02:26Z</time></trkpt><trkpt lat="54.1206167266" lon="26.5931931976"><ele>243.83</ele><time>2012-09-22T07:02:43Z</time></trkpt><trkpt lat="54.1202744935" lon="26.5919983573"><ele>243.83</ele><time>2012-09-22T07:03:00Z</time></trkpt><trkpt lat="54.1199869942" lon="26.5908800438"><ele>243.35</ele><time>2012-09-22T07:03:15Z</time></trkpt><trkpt lat="54.1197594255" lon="26.5897313878"><ele>243.35</ele><time>2012-09-22T07:03:30Z</time></trkpt><trkpt lat="54.1197585873" lon="26.5896505024"><ele>242.87</ele><time>2012-09-22T07:03:31Z</time></trkpt><trkpt lat="54.1197699029" lon="26.5894199163"><ele>243.35</ele><time>2012-09-22T07:03:34Z</time></trkpt><trkpt lat="54.1197802965" lon="26.5893457364"><ele>243.35</ele><time>2012-09-22T07:03:35Z</time></trkpt><trkpt lat="54.1199865751" lon="26.5886314306"><ele>244.79</ele><time>2012-09-22T07:03:47Z</time></trkpt><trkpt lat="54.1203594860" lon="26.5881848428"><ele>247.20</ele><time>2012-09-22T07:04:01Z</time></trkpt><trkpt lat="54.1207234282" lon="26.5881406702"><ele>249.60</ele><time>2012-09-22T07:04:13Z</time></trkpt><trkpt lat="54.1211468820" lon="26.5884304326"><ele>251.52</ele><time>2012-09-22T07:04:27Z</time></trkpt><trkpt lat="54.1214501392" lon="26.5890226979"><ele>252.48</ele><time>2012-09-22T07:04:42Z</time></trkpt><trkpt lat="54.1215054598" lon="26.5896099340"><ele>252.48</ele><time>2012-09-22T07:04:53Z</time></trkpt><trkpt lat="54.1214248259" lon="26.5903442726"><ele>252.48</ele><time>2012-09-22T07:05:06Z</time></trkpt><trkpt lat="54.1211224068" lon="26.5909206122"><ele>252.48</ele><time>2012-09-22T07:05:17Z</time></trkpt><trkpt lat="54.1205840372" lon="26.5918964334"><ele>251.52</ele><time>2012-09-22T07:05:33Z</time></trkpt><trkpt lat="54.1199626867" lon="26.5930356178"><ele>250.56</ele><time>2012-09-22T07:05:50Z</time></trkpt><trkpt lat="54.1193312779" lon="26.5942016244"><ele>249.60</ele><time>2012-09-22T07:06:07Z</time></trkpt><trkpt lat="54.1187451314" lon="26.5952470992"><ele>248.64</ele><time>2012-09-22T07:06:22Z</time></trkpt><trkpt lat="54.1180264670" lon="26.5965457074"><ele>248.16</ele><time>2012-09-22T07:06:41Z</time></trkpt><trkpt lat="54.1174373031" lon="26.5976331756"><ele>248.64</ele><time>2012-09-22T07:06:57Z</time></trkpt><trkpt lat="54.1168939881" lon="26.5986221563"><ele>248.16</ele><time>2012-09-22T07:07:12Z</time></trkpt><trkpt lat="54.1162606515" lon="26.5997861512"><ele>248.64</ele><time>2012-09-22T07:07:30Z</time></trkpt><trkpt lat="54.1155508719" lon="26.6010855138"><ele>249.12</ele><time>2012-09-22T07:07:50Z</time></trkpt><trkpt lat="54.1150218900" lon="26.6020247061"><ele>249.60</ele><time>2012-09-22T07:08:04Z</time></trkpt><trkpt lat="54.1144762281" lon="26.6030236613"><ele>248.64</ele><time>2012-09-22T07:08:19Z</time></trkpt><trkpt lat="54.1138993017" lon="26.6040848941"><ele>248.64</ele><time>2012-09-22T07:08:35Z</time></trkpt><trkpt lat="54.1134184320" lon="26.6049630661"><ele>248.64</ele><time>2012-09-22T07:08:49Z</time></trkpt><trkpt lat="54.1129617020" lon="26.6057978198"><ele>249.60</ele><time>2012-09-22T07:09:03Z</time></trkpt><trkpt lat="54.1125226580" lon="26.6065806057"><ele>250.56</ele><time>2012-09-22T07:09:17Z</time></trkpt><trkpt lat="54.1121030599" lon="26.6073304508"><ele>252.00</ele><time>2012-09-22T07:09:31Z</time></trkpt><trkpt lat="54.1117307357" lon="26.6079671402"><ele>253.44</ele><time>2012-09-22T07:09:45Z</time></trkpt><trkpt lat="54.1113607585" lon="26.6086480021"><ele>255.37</ele><time>2012-09-22T07:10:00Z</time></trkpt><trkpt lat="54.1109502129" lon="26.6093845200"><ele>256.81</ele><time>2012-09-22T07:10:17Z</time></trkpt><trkpt lat="54.1104936507" lon="26.6102113947"><ele>258.73</ele><time>2012-09-22T07:10:35Z</time></trkpt><trkpt lat="54.1101001203" lon="26.6109188274"><ele>260.17</ele><time>2012-09-22T07:10:50Z</time></trkpt><trkpt lat="54.1096377745" lon="26.6117565148"><ele>262.10</ele><time>2012-09-22T07:11:07Z</time></trkpt><trkpt lat="54.1092284862" lon="26.6124919429"><ele>263.54</ele><time>2012-09-22T07:11:22Z</time></trkpt><trkpt lat="54.1089565773" lon="26.6129836254"><ele>264.02</ele><time>2012-09-22T07:11:32Z</time></trkpt><trkpt lat="54.1085266694" lon="26.6137687583"><ele>265.46</ele><time>2012-09-22T07:11:48Z</time></trkpt><trkpt lat="54.1079522576" lon="26.6148299072"><ele>267.38</ele><time>2012-09-22T07:12:09Z</time></trkpt><trkpt lat="54.1074489243" lon="26.6157474741"><ele>267.86</ele><time>2012-09-22T07:12:27Z</time></trkpt><trkpt lat="54.1069167573" lon="26.6167180985"><ele>269.31</ele><time>2012-09-22T07:12:44Z</time></trkpt><trkpt lat="54.1064161062" lon="26.6176333185"><ele>269.79</ele><time>2012-09-22T07:13:00Z</time></trkpt><trkpt lat="54.1057229228" lon="26.6189096309"><ele>271.23</ele><time>2012-09-22T07:13:21Z</time></trkpt><trkpt lat="54.1052297316" lon="26.6197961848"><ele>272.19</ele><time>2012-09-22T07:13:36Z</time></trkpt><trkpt lat="54.1047057789" lon="26.6207315214"><ele>271.71</ele><time>2012-09-22T07:13:51Z</time></trkpt><trkpt lat="54.1041729413" lon="26.6216562968"><ele>271.23</ele><time>2012-09-22T07:14:05Z</time></trkpt><trkpt lat="54.1036787443" lon="26.6225576866"><ele>271.23</ele><time>2012-09-22T07:14:17Z</time></trkpt><trkpt lat="54.1032665223" lon="26.6232527979"><ele>270.75</ele><time>2012-09-22T07:14:28Z</time></trkpt><trkpt lat="54.1031178273" lon="26.6235669516"><ele>270.27</ele><time>2012-09-22T07:14:33Z</time></trkpt><trkpt lat="54.1025823914" lon="26.6245543398"><ele>269.31</ele><time>2012-09-22T07:14:48Z</time></trkpt><trkpt lat="54.1020340472" lon="26.6256194282"><ele>268.35</ele><time>2012-09-22T07:15:04Z</time></trkpt><trkpt lat="54.1019099951" lon="26.6258321609"><ele>267.86</ele><time>2012-09-22T07:15:07Z</time></trkpt><trkpt lat="54.1018131841" lon="26.6259490885"><ele>267.38</ele><time>2012-09-22T07:15:09Z</time></trkpt><trkpt lat="54.1017582826" lon="26.6259938478"><ele>267.38</ele><time>2012-09-22T07:15:10Z</time></trkpt><trkpt lat="54.1017000284" lon="26.6260234360"><ele>267.38</ele><time>2012-09-22T07:15:11Z</time></trkpt><trkpt lat="54.1016380861" lon="26.6260339133"><ele>266.90</ele><time>2012-09-22T07:15:12Z</time></trkpt><trkpt lat="54.1015744675" lon="26.6260197479"><ele>266.42</ele><time>2012-09-22T07:15:13Z</time></trkpt><trkpt lat="54.1015103459" lon="26.6259808559"><ele>265.94</ele><time>2012-09-22T07:15:14Z</time></trkpt><trkpt lat="54.1014447156" lon="26.6259350069"><ele>265.46</ele><time>2012-09-22T07:15:15Z</time></trkpt><trkpt lat="54.1013751458" lon="26.6259028204"><ele>265.46</ele><time>2012-09-22T07:15:16Z</time></trkpt><trkpt lat="54.1012986191" lon="26.6258954443"><ele>264.98</ele><time>2012-09-22T07:15:17Z</time></trkpt><trkpt lat="54.1012185719" lon="26.6259091068"><ele>264.98</ele><time>2012-09-22T07:15:18Z</time></trkpt><trkpt lat="54.1011380218" lon="26.6259338334"><ele>264.02</ele><time>2012-09-22T07:15:19Z</time></trkpt><trkpt lat="54.1010582261" lon="26.6259700432"><ele>263.54</ele><time>2012-09-22T07:15:20Z</time></trkpt><trkpt lat="54.1009796876" lon="26.6260159761"><ele>263.54</ele><time>2012-09-22T07:15:21Z</time></trkpt><trkpt lat="54.1003694851" lon="26.6264208220"><ele>260.17</ele><time>2012-09-22T07:15:30Z</time></trkpt><trkpt lat="54.0997486375" lon="26.6268508974"><ele>258.25</ele><time>2012-09-22T07:15:41Z</time></trkpt><trkpt lat="54.0990501735" lon="26.6272934619"><ele>256.33</ele><time>2012-09-22T07:15:55Z</time></trkpt><trkpt lat="54.0988368541" lon="26.6274288297"><ele>255.85</ele><time>2012-09-22T07:16:00Z</time></trkpt><trkpt lat="54.0987246204" lon="26.6275197733"><ele>255.85</ele><time>2012-09-22T07:16:03Z</time></trkpt><trkpt lat="54.0986550506" lon="26.6275993176"><ele>255.85</ele><time>2012-09-22T07:16:05Z</time></trkpt><trkpt lat="54.0986222774" lon="26.6276389640"><ele>255.37</ele><time>2012-09-22T07:16:06Z</time></trkpt><trkpt lat="54.0985846426" lon="26.6276710667"><ele>255.37</ele><time>2012-09-22T07:16:07Z</time></trkpt><trkpt lat="54.0980433393" lon="26.6280258726"><ele>254.89</ele><time>2012-09-22T07:16:20Z</time></trkpt><trkpt lat="54.0977006871" lon="26.6282557882"><ele>254.41</ele><time>2012-09-22T07:16:28Z</time></trkpt><trkpt lat="54.0973704401" lon="26.6284329817"><ele>254.41</ele><time>2012-09-22T07:16:38Z</time></trkpt><trkpt lat="54.0970884729" lon="26.6286319681"><ele>254.41</ele><time>2012-09-22T07:16:48Z</time></trkpt><trkpt lat="54.0967223514" lon="26.6288984288"><ele>255.37</ele><time>2012-09-22T07:16:59Z</time></trkpt><trkpt lat="54.0964043420" lon="26.6291094851"><ele>256.33</ele><time>2012-09-22T07:17:10Z</time></trkpt><trkpt lat="54.0959171019" lon="26.6294339485"><ele>256.33</ele><time>2012-09-22T07:17:25Z</time></trkpt><trkpt lat="54.0955196321" lon="26.6296952125"><ele>255.85</ele><time>2012-09-22T07:17:39Z</time></trkpt><trkpt lat="54.0950926580" lon="26.6299678758"><ele>255.37</ele><time>2012-09-22T07:17:52Z</time></trkpt><trkpt lat="54.0945671126" lon="26.6301761661"><ele>254.89</ele><time>2012-09-22T07:18:05Z</time></trkpt><trkpt lat="54.0939730871" lon="26.6302348394"><ele>254.41</ele><time>2012-09-22T07:18:18Z</time></trkpt><trkpt lat="54.0939292498" lon="26.6302231885"><ele>253.93</ele><time>2012-09-22T07:18:19Z</time></trkpt><trkpt lat="54.0938885137" lon="26.6301955283"><ele>253.93</ele><time>2012-09-22T07:18:20Z</time></trkpt><trkpt lat="54.0938487835" lon="26.6301568039"><ele>253.93</ele><time>2012-09-22T07:18:21Z</time></trkpt><trkpt lat="54.0938104782" lon="26.6301082727"><ele>253.93</ele><time>2012-09-22T07:18:22Z</time></trkpt><trkpt lat="54.0937773697" lon="26.6300515272"><ele>253.44</ele><time>2012-09-22T07:18:23Z</time></trkpt><trkpt lat="54.0937511344" lon="26.6299870703"><ele>253.44</ele><time>2012-09-22T07:18:24Z</time></trkpt><trkpt lat="54.0937342029" lon="26.6299153212"><ele>253.44</ele><time>2012-09-22T07:18:25Z</time></trkpt><trkpt lat="54.0937245637" lon="26.6298398841"><ele>253.44</ele><time>2012-09-22T07:18:26Z</time></trkpt><trkpt lat="54.0937197860" lon="26.6297635250"><ele>253.44</ele><time>2012-09-22T07:18:27Z</time></trkpt><trkpt lat="54.0937163495" lon="26.6296858247"><ele>253.44</ele><time>2012-09-22T07:18:28Z</time></trkpt><trkpt lat="54.0936727636" lon="26.6284834407"><ele>251.52</ele><time>2012-09-22T07:18:42Z</time></trkpt><trkpt lat="54.0936175268" lon="26.6269809846"><ele>250.08</ele><time>2012-09-22T07:18:58Z</time></trkpt><trkpt lat="54.0935332049" lon="26.6258284729"><ele>251.04</ele><time>2012-09-22T07:19:13Z</time></trkpt><trkpt lat="54.0934668202" lon="26.6247674916"><ele>251.52</ele><time>2012-09-22T07:19:27Z</time></trkpt><trkpt lat="54.0932402574" lon="26.6236433946"><ele>251.52</ele><time>2012-09-22T07:19:42Z</time></trkpt><trkpt lat="54.0930583701" lon="26.6225976683"><ele>251.52</ele><time>2012-09-22T07:19:56Z</time></trkpt><trkpt lat="54.0929355752" lon="26.6213168297"><ele>251.04</ele><time>2012-09-22T07:20:11Z</time></trkpt><trkpt lat="54.0928306337" lon="26.6201726999"><ele>250.56</ele><time>2012-09-22T07:20:24Z</time></trkpt><trkpt lat="54.0926883928" lon="26.6189112235"><ele>250.08</ele><time>2012-09-22T07:20:39Z</time></trkpt><trkpt lat="54.0925903246" lon="26.6179638170"><ele>249.12</ele><time>2012-09-22T07:20:50Z</time></trkpt><trkpt lat="54.0925807692" lon="26.6178802494"><ele>249.12</ele><time>2012-09-22T07:20:51Z</time></trkpt><trkpt lat="54.0924901608" lon="26.6170792747"><ele>248.16</ele><time>2012-09-22T07:21:01Z</time></trkpt><trkpt lat="54.0924781747" lon="26.6169252153"><ele>247.68</ele><time>2012-09-22T07:21:03Z</time></trkpt><trkpt lat="54.0924177412" lon="26.6164294258"><ele>247.68</ele><time>2012-09-22T07:21:09Z</time></trkpt><trkpt lat="54.0924605727" lon="26.6155243479"><ele>248.16</ele><time>2012-09-22T07:21:21Z</time></trkpt><trkpt lat="54.0925769974" lon="26.6147356946"><ele>248.64</ele><time>2012-09-22T07:21:32Z</time></trkpt><trkpt lat="54.0925739799" lon="26.6145944595"><ele>248.64</ele><time>2012-09-22T07:21:34Z</time></trkpt><trkpt lat="54.0925633349" lon="26.6145246383"><ele>248.64</ele><time>2012-09-22T07:21:35Z</time></trkpt><trkpt lat="54.0925470740" lon="26.6144580860"><ele>248.64</ele><time>2012-09-22T07:21:36Z</time></trkpt><trkpt lat="54.0925254487" lon="26.6144008376"><ele>248.64</ele><time>2012-09-22T07:21:37Z</time></trkpt><trkpt lat="54.0924951900" lon="26.6143517196"><ele>248.64</ele><time>2012-09-22T07:21:38Z</time></trkpt><trkpt lat="54.0924588125" lon="26.6143069603"><ele>248.16</ele><time>2012-09-22T07:21:39Z</time></trkpt><trkpt lat="54.0924222674" lon="26.6142658889"><ele>248.64</ele><time>2012-09-22T07:21:40Z</time></trkpt><trkpt lat="54.0922628436" lon="26.6140740272"><ele>247.68</ele><time>2012-09-22T07:21:44Z</time></trkpt><trkpt lat="54.0922167432" lon="26.6140325367"><ele>247.68</ele><time>2012-09-22T07:21:45Z</time></trkpt><trkpt lat="54.0921699721" lon="26.6139913816"><ele>247.20</ele><time>2012-09-22T07:21:46Z</time></trkpt><trkpt lat="54.0921239555" lon="26.6139435209"><ele>247.20</ele><time>2012-09-22T07:21:47Z</time></trkpt><trkpt lat="54.0920782741" lon="26.6138949897"><ele>247.20</ele><time>2012-09-22T07:21:48Z</time></trkpt><trkpt lat="54.0918456763" lon="26.6136355698"><ele>246.72</ele><time>2012-09-22T07:21:53Z</time></trkpt><trkpt lat="54.0912480466" lon="26.6129780933"><ele>243.35</ele><time>2012-09-22T07:22:05Z</time></trkpt><trkpt lat="54.0905924141" lon="26.6122916155"><ele>242.87</ele><time>2012-09-22T07:22:18Z</time></trkpt><trkpt lat="54.0900918469" lon="26.6117301956"><ele>245.27</ele><time>2012-09-22T07:22:31Z</time></trkpt><trkpt lat="54.0896858275" lon="26.6112188995"><ele>244.31</ele><time>2012-09-22T07:22:42Z</time></trkpt><trkpt lat="54.0892438497" lon="26.6106164921"><ele>243.83</ele><time>2012-09-22T07:22:53Z</time></trkpt><trkpt lat="54.0889493097" lon="26.6100384761"><ele>243.83</ele><time>2012-09-22T07:23:03Z</time></trkpt><trkpt lat="54.0886339825" lon="26.6091080010"><ele>243.83</ele><time>2012-09-22T07:23:17Z</time></trkpt><trkpt lat="54.0883307252" lon="26.6082412284"><ele>243.83</ele><time>2012-09-22T07:23:29Z</time></trkpt><trkpt lat="54.0879968740" lon="26.6072714422"><ele>243.35</ele><time>2012-09-22T07:23:42Z</time></trkpt><trkpt lat="54.0879121330" lon="26.6070668399"><ele>242.87</ele><time>2012-09-22T07:23:45Z</time></trkpt><trkpt lat="54.0878757555" lon="26.6070051491"><ele>242.87</ele><time>2012-09-22T07:23:46Z</time></trkpt><trkpt lat="54.0878329240" lon="26.6069482360"><ele>242.39</ele><time>2012-09-22T07:23:47Z</time></trkpt><trkpt lat="54.0877856500" lon="26.6068964358"><ele>242.39</ele><time>2012-09-22T07:23:48Z</time></trkpt><trkpt lat="54.0877371188" lon="26.6068502516"><ele>242.39</ele><time>2012-09-22T07:23:49Z</time></trkpt><trkpt lat="54.0871073026" lon="26.6063739080"><ele>239.99</ele><time>2012-09-22T07:24:01Z</time></trkpt><trkpt lat="54.0863060765" lon="26.6057632864"><ele>237.10</ele><time>2012-09-22T07:24:15Z</time></trkpt><trkpt lat="54.0856232867" lon="26.6052513197"><ele>236.62</ele><time>2012-09-22T07:24:28Z</time></trkpt><trkpt lat="54.0851993300" lon="26.6049179714"><ele>239.02</ele><time>2012-09-22T07:24:39Z</time></trkpt><trkpt lat="54.0846338030" lon="26.6044926737"><ele>240.95</ele><time>2012-09-22T07:24:54Z</time></trkpt><trkpt lat="54.0840691980" lon="26.6040911805"><ele>243.35</ele><time>2012-09-22T07:25:09Z</time></trkpt><trkpt lat="54.0835452452" lon="26.6036929563"><ele>243.83</ele><time>2012-09-22T07:25:21Z</time></trkpt><trkpt lat="54.0830982383" lon="26.6033615358"><ele>242.39</ele><time>2012-09-22T07:25:30Z</time></trkpt><trkpt lat="54.0830483660" lon="26.6033468675"><ele>241.91</ele><time>2012-09-22T07:25:31Z</time></trkpt><trkpt lat="54.0830061212" lon="26.6033499688"><ele>241.91</ele><time>2012-09-22T07:25:32Z</time></trkpt><trkpt lat="54.0829748567" lon="26.6033681575"><ele>241.43</ele><time>2012-09-22T07:25:33Z</time></trkpt><trkpt lat="54.0829525609" lon="26.6033930518"><ele>241.91</ele><time>2012-09-22T07:25:34Z</time></trkpt><trkpt lat="54.0829388984" lon="26.6034217179"><ele>241.43</ele><time>2012-09-22T07:25:35Z</time></trkpt><trkpt lat="54.0829313546" lon="26.6034469474"><ele>241.43</ele><time>2012-09-22T07:25:36Z</time></trkpt><trkpt lat="54.0829243977" lon="26.6034674831"><ele>241.43</ele><time>2012-09-22T07:25:37Z</time></trkpt><trkpt lat="54.0829179436" lon="26.6034839116"><ele>241.43</ele><time>2012-09-22T07:25:38Z</time></trkpt><trkpt lat="54.0829122439" lon="26.6035022680"><ele>241.43</ele><time>2012-09-22T07:25:39Z</time></trkpt><trkpt lat="54.0829076339" lon="26.6035257373"><ele>241.43</ele><time>2012-09-22T07:25:40Z</time></trkpt><trkpt lat="54.0829031914" lon="26.6035511345"><ele>241.43</ele><time>2012-09-22T07:25:41Z</time></trkpt><trkpt lat="54.0828992520" lon="26.6035742685"><ele>241.43</ele><time>2012-09-22T07:25:42Z</time></trkpt><trkpt lat="54.0828979947" lon="26.6035944689"><ele>241.43</ele><time>2012-09-22T07:25:49Z</time></trkpt><trkpt lat="54.0829026885" lon="26.6035528108"><ele>241.43</ele><time>2012-09-22T07:25:53Z</time></trkpt><trkpt lat="54.0829052869" lon="26.6035267431"><ele>241.43</ele><time>2012-09-22T07:25:54Z</time></trkpt><trkpt lat="54.0829098970" lon="26.6034957301"><ele>241.43</ele><time>2012-09-22T07:25:55Z</time></trkpt><trkpt lat="54.0829714201" lon="26.6031518206"><ele>241.43</ele><time>2012-09-22T07:26:06Z</time></trkpt><trkpt lat="54.0830344521" lon="26.6028444562"><ele>240.95</ele><time>2012-09-22T07:26:15Z</time></trkpt><trkpt lat="54.0830800496" lon="26.6022185795"><ele>240.95</ele><time>2012-09-22T07:26:29Z</time></trkpt><trkpt lat="54.0830903593" lon="26.6017902642"><ele>240.95</ele><time>2012-09-22T07:26:39Z</time></trkpt><trkpt lat="54.0831275750" lon="26.6015367955"><ele>239.99</ele><time>2012-09-22T07:26:47Z</time></trkpt><trkpt lat="54.0831258148" lon="26.6015229654"><ele>239.99</ele><time>2012-09-22T07:26:49Z</time></trkpt><trkpt lat="54.0831421595" lon="26.6013300139"><ele>240.95</ele><time>2012-09-22T07:26:55Z</time></trkpt><trkpt lat="54.0831858292" lon="26.6009182949"><ele>240.95</ele><time>2012-09-22T07:27:07Z</time></trkpt><trkpt lat="54.0832333546" lon="26.6005034745"><ele>240.95</ele><time>2012-09-22T07:27:20Z</time></trkpt><trkpt lat="54.0833564848" lon="26.5997325908"><ele>240.95</ele><time>2012-09-22T07:27:37Z</time></trkpt><trkpt lat="54.0833253879" lon="26.5992182773"><ele>240.95</ele><time>2012-09-22T07:27:48Z</time></trkpt><trkpt lat="54.0830331109" lon="26.5985462163"><ele>240.95</ele><time>2012-09-22T07:28:04Z</time></trkpt><trkpt lat="54.0827174485" lon="26.5979681164"><ele>240.95</ele><time>2012-09-22T07:28:19Z</time></trkpt><trkpt lat="54.0824465454" lon="26.5974709019"><ele>240.47</ele><time>2012-09-22T07:28:31Z</time></trkpt><trkpt lat="54.0821720380" lon="26.5970385633"><ele>240.47</ele><time>2012-09-22T07:28:42Z</time></trkpt><trkpt lat="54.0819250233" lon="26.5968529880"><ele>240.47</ele><time>2012-09-22T07:28:53Z</time></trkpt><trkpt lat="54.0816641785" lon="26.5971191972"><ele>240.95</ele><time>2012-09-22T07:29:05Z</time></trkpt><trkpt lat="54.0813892521" lon="26.5974521264"><ele>240.95</ele><time>2012-09-22T07:29:17Z</time></trkpt><trkpt lat="54.0811037645" lon="26.5974995680"><ele>240.95</ele><time>2012-09-22T07:29:28Z</time></trkpt><trkpt lat="54.0808587614" lon="26.5976359416"><ele>240.95</ele><time>2012-09-22T07:29:39Z</time></trkpt><trkpt lat="54.0806672350" lon="26.5976865683"><ele>240.95</ele><time>2012-09-22T07:29:49Z</time></trkpt><trkpt lat="54.0804405045" lon="26.5977851395"><ele>241.43</ele><time>2012-09-22T07:29:59Z</time></trkpt><trkpt lat="54.0802044701" lon="26.5978502668"><ele>242.39</ele><time>2012-09-22T07:30:10Z</time></trkpt><trkpt lat="54.0799602214" lon="26.5979240276"><ele>242.39</ele><time>2012-09-22T07:30:22Z</time></trkpt><trkpt lat="54.0796307288" lon="26.5979857184"><ele>242.39</ele><time>2012-09-22T07:30:37Z</time></trkpt><trkpt lat="54.0793675371" lon="26.5980531089"><ele>242.87</ele><time>2012-09-22T07:30:47Z</time></trkpt><trkpt lat="54.0791439079" lon="26.5981635824"><ele>241.91</ele><time>2012-09-22T07:30:56Z</time></trkpt><trkpt lat="54.0788741782" lon="26.5983073320"><ele>240.47</ele><time>2012-09-22T07:31:06Z</time></trkpt><trkpt lat="54.0786984097" lon="26.5983618144"><ele>239.99</ele><time>2012-09-22T07:31:13Z</time></trkpt><trkpt lat="54.0784399118" lon="26.5984704439"><ele>239.51</ele><time>2012-09-22T07:31:23Z</time></trkpt><trkpt lat="54.0781186335" lon="26.5986023750"><ele>239.02</ele><time>2012-09-22T07:31:35Z</time></trkpt><trkpt lat="54.0778235067" lon="26.5987190511"><ele>239.02</ele><time>2012-09-22T07:31:47Z</time></trkpt><trkpt lat="54.0775580518" lon="26.5988578554"><ele>239.02</ele><time>2012-09-22T07:31:57Z</time></trkpt><trkpt lat="54.0772221051" lon="26.5990006831"><ele>239.51</ele><time>2012-09-22T07:32:11Z</time></trkpt><trkpt lat="54.0770591609" lon="26.5990991704"><ele>239.51</ele><time>2012-09-22T07:32:19Z</time></trkpt><trkpt lat="54.0768650360" lon="26.5992326103"><ele>238.54</ele><time>2012-09-22T07:32:28Z</time></trkpt><trkpt lat="54.0766060352" lon="26.5995124821"><ele>238.54</ele><time>2012-09-22T07:32:38Z</time></trkpt><trkpt lat="54.0762872715" lon="26.5998403821"><ele>239.51</ele><time>2012-09-22T07:32:50Z</time></trkpt><trkpt lat="54.0759857744" lon="26.6001944337"><ele>239.99</ele><time>2012-09-22T07:33:02Z</time></trkpt><trkpt lat="54.0757516678" lon="26.6005104315"><ele>240.47</ele><time>2012-09-22T07:33:13Z</time></trkpt><trkpt lat="54.0754238516" lon="26.6009042133"><ele>238.54</ele><time>2012-09-22T07:33:25Z</time></trkpt><trkpt lat="54.0753539465" lon="26.6009845119"><ele>238.06</ele><time>2012-09-22T07:33:27Z</time></trkpt><trkpt lat="54.0749118011" lon="26.6013997514"><ele>234.70</ele><time>2012-09-22T07:33:39Z</time></trkpt><trkpt lat="54.0746610984" lon="26.6016696487"><ele>233.26</ele><time>2012-09-22T07:33:48Z</time></trkpt><trkpt lat="54.0743197873" lon="26.6020289809"><ele>231.33</ele><time>2012-09-22T07:33:59Z</time></trkpt><trkpt lat="54.0741145983" lon="26.6022282187"><ele>230.37</ele><time>2012-09-22T07:34:05Z</time></trkpt><trkpt lat="54.0739528276" lon="26.6023164801"><ele>229.89</ele><time>2012-09-22T07:34:09Z</time></trkpt><trkpt lat="54.0739110019" lon="26.6023232695"><ele>229.89</ele><time>2012-09-22T07:34:10Z</time></trkpt><trkpt lat="54.0738689248" lon="26.6023250297"><ele>229.89</ele><time>2012-09-22T07:34:11Z</time></trkpt><trkpt lat="54.0738250874" lon="26.6023226827"><ele>229.89</ele><time>2012-09-22T07:34:12Z</time></trkpt><trkpt lat="54.0737809148" lon="26.6023165639"><ele>229.89</ele><time>2012-09-22T07:34:13Z</time></trkpt><trkpt lat="54.0735006239" lon="26.6022586450"><ele>229.41</ele><time>2012-09-22T07:34:19Z</time></trkpt><trkpt lat="54.0729992185" lon="26.6022091080"><ele>229.41</ele><time>2012-09-22T07:34:29Z</time></trkpt><trkpt lat="54.0729475021" lon="26.6021879017"><ele>229.41</ele><time>2012-09-22T07:34:30Z</time></trkpt><trkpt lat="54.0728939418" lon="26.6021669470"><ele>228.93</ele><time>2012-09-22T07:34:31Z</time></trkpt><trkpt lat="54.0723571647" lon="26.6019459162"><ele>229.41</ele><time>2012-09-22T07:34:42Z</time></trkpt><trkpt lat="54.0716550127" lon="26.6016747616"><ele>229.41</ele><time>2012-09-22T07:34:56Z</time></trkpt><trkpt lat="54.0709913336" lon="26.6014723387"><ele>228.93</ele><time>2012-09-22T07:35:08Z</time></trkpt><trkpt lat="54.0699817333" lon="26.6011570115"><ele>227.01</ele><time>2012-09-22T07:35:24Z</time></trkpt><trkpt lat="54.0689182375" lon="26.6008201428"><ele>226.05</ele><time>2012-09-22T07:35:40Z</time></trkpt><trkpt lat="54.0678631235" lon="26.6006731242"><ele>225.09</ele><time>2012-09-22T07:35:56Z</time></trkpt><trkpt lat="54.0672140289" lon="26.6005781572"><ele>225.57</ele><time>2012-09-22T07:36:06Z</time></trkpt><trkpt lat="54.0665384475" lon="26.6005052347"><ele>224.61</ele><time>2012-09-22T07:36:17Z</time></trkpt><trkpt lat="54.0658699907" lon="26.6004331503"><ele>223.64</ele><time>2012-09-22T07:36:29Z</time></trkpt><trkpt lat="54.0658568311" lon="26.6004471481"><ele>223.64</ele><time>2012-09-22T07:36:37Z</time></trkpt><trkpt lat="54.0658433363" lon="26.6004411131"><ele>223.64</ele><time>2012-09-22T07:36:48Z</time></trkpt><trkpt lat="54.0658383910" lon="26.6004400235"><ele>223.64</ele><time>2012-09-22T07:37:07Z</time></trkpt><trkpt lat="54.0658373851" lon="26.6004360002"><ele>223.64</ele><time>2012-09-22T07:37:35Z</time></trkpt><trkpt lat="54.0658392292" lon="26.6004344076"><ele>223.64</ele><time>2012-09-22T07:37:58Z</time></trkpt><trkpt lat="54.0658152569" lon="26.6004045680"><ele>223.64</ele><time>2012-09-22T07:38:19Z</time></trkpt><trkpt lat="54.0658076294" lon="26.6003939230"><ele>223.64</ele><time>2012-09-22T07:38:20Z</time></trkpt><trkpt lat="54.0657997504" lon="26.6003808472"><ele>223.16</ele><time>2012-09-22T07:38:21Z</time></trkpt><trkpt lat="54.0657922067" lon="26.6003711242"><ele>223.16</ele><time>2012-09-22T07:38:22Z</time></trkpt><trkpt lat="54.0657858364" lon="26.6003528517"><ele>222.68</ele><time>2012-09-22T07:38:32Z</time></trkpt><trkpt lat="54.0657855850" lon="26.6003677715"><ele>223.16</ele><time>2012-09-22T07:39:00Z</time></trkpt><trkpt lat="54.0657838248" lon="26.6003753990"><ele>223.64</ele><time>2012-09-22T07:39:24Z</time></trkpt><trkpt lat="54.0657826513" lon="26.6003691126"><ele>224.12</ele><time>2012-09-22T07:39:53Z</time></trkpt><trkpt lat="54.0657875966" lon="26.6003752314"><ele>223.64</ele><time>2012-09-22T07:40:19Z</time></trkpt><trkpt lat="54.0657906979" lon="26.6003787518"><ele>223.64</ele><time>2012-09-22T07:40:49Z</time></trkpt><trkpt lat="54.0657939669" lon="26.6003791708"><ele>224.12</ele><time>2012-09-22T07:41:14Z</time></trkpt><trkpt lat="54.0657896921" lon="26.6004131176"><ele>224.12</ele><time>2012-09-22T07:41:33Z</time></trkpt><trkpt lat="54.0657622833" lon="26.6004110221"><ele>224.12</ele><time>2012-09-22T07:41:42Z</time></trkpt><trkpt lat="54.0657457709" lon="26.6004138719"><ele>224.12</ele><time>2012-09-22T07:41:43Z</time></trkpt><trkpt lat="54.0657241456" lon="26.6004132852"><ele>224.12</ele><time>2012-09-22T07:41:44Z</time></trkpt><trkpt lat="54.0656993352" lon="26.6004083399"><ele>224.12</ele><time>2012-09-22T07:41:45Z</time></trkpt><trkpt lat="54.0656712558" lon="26.6004024725"><ele>224.12</ele><time>2012-09-22T07:41:46Z</time></trkpt><trkpt lat="54.0651474707" lon="26.6003314778"><ele>223.16</ele><time>2012-09-22T07:41:59Z</time></trkpt><trkpt lat="54.0644098632" lon="26.6002357565"><ele>221.24</ele><time>2012-09-22T07:42:14Z</time></trkpt><trkpt lat="54.0636549890" lon="26.6001517698"><ele>220.76</ele><time>2012-09-22T07:42:30Z</time></trkpt><trkpt lat="54.0629543457" lon="26.6000620835"><ele>219.80</ele><time>2012-09-22T07:42:44Z</time></trkpt><trkpt lat="54.0622637607" lon="26.6000065953"><ele>219.32</ele><time>2012-09-22T07:42:58Z</time></trkpt><trkpt lat="54.0617542248" lon="26.5999699663"><ele>220.28</ele><time>2012-09-22T07:43:10Z</time></trkpt><trkpt lat="54.0611805674" lon="26.5999262966"><ele>221.72</ele><time>2012-09-22T07:43:24Z</time></trkpt><trkpt lat="54.0606270265" lon="26.5998347662"><ele>220.28</ele><time>2012-09-22T07:43:35Z</time></trkpt><trkpt lat="54.0596257243" lon="26.5996557288"><ele>216.91</ele><time>2012-09-22T07:43:50Z</time></trkpt><trkpt lat="54.0587731171" lon="26.5995041840"><ele>215.95</ele><time>2012-09-22T07:44:04Z</time></trkpt><trkpt lat="54.0581933409" lon="26.5994693991"><ele>216.43</ele><time>2012-09-22T07:44:15Z</time></trkpt><trkpt lat="54.0575357806" lon="26.5994561557"><ele>217.88</ele><time>2012-09-22T07:44:29Z</time></trkpt><trkpt lat="54.0569795575" lon="26.5994222928"><ele>217.40</ele><time>2012-09-22T07:44:42Z</time></trkpt><trkpt lat="54.0566330496" lon="26.5993813053"><ele>216.43</ele><time>2012-09-22T07:44:53Z</time></trkpt><trkpt lat="54.0566331334" lon="26.5993917827"><ele>216.91</ele><time>2012-09-22T07:45:11Z</time></trkpt><trkpt lat="54.0566219017" lon="26.5993802156"><ele>216.43</ele><time>2012-09-22T07:45:38Z</time></trkpt><trkpt lat="54.0566068143" lon="26.5993724205"><ele>216.43</ele><time>2012-09-22T07:45:46Z</time></trkpt><trkpt lat="54.0565897152" lon="26.5993675590"><ele>216.43</ele><time>2012-09-22T07:45:47Z</time></trkpt><trkpt lat="54.0565667488" lon="26.5993619431"><ele>216.43</ele><time>2012-09-22T07:45:48Z</time></trkpt><trkpt lat="54.0561686084" lon="26.5993165970"><ele>214.99</ele><time>2012-09-22T07:45:58Z</time></trkpt><trkpt lat="54.0555863176" lon="26.5995424055"><ele>212.59</ele><time>2012-09-22T07:46:08Z</time></trkpt><trkpt lat="54.0549583454" lon="26.5999898314"><ele>209.22</ele><time>2012-09-22T07:46:19Z</time></trkpt><trkpt lat="54.0541017987" lon="26.6005402710"><ele>208.26</ele><time>2012-09-22T07:46:36Z</time></trkpt><trkpt lat="54.0534472559" lon="26.6008405946"><ele>208.74</ele><time>2012-09-22T07:46:48Z</time></trkpt><trkpt lat="54.0531315096" lon="26.6010144353"><ele>207.30</ele><time>2012-09-22T07:46:54Z</time></trkpt><trkpt lat="54.0526016057" lon="26.6013589315"><ele>203.94</ele><time>2012-09-22T07:47:03Z</time></trkpt><trkpt lat="54.0522423573" lon="26.6015978158"><ele>201.53</ele><time>2012-09-22T07:47:09Z</time></trkpt><trkpt lat="54.0519578755" lon="26.6018013284"><ele>198.65</ele><time>2012-09-22T07:47:14Z</time></trkpt><trkpt lat="54.0516836196" lon="26.6020426434"><ele>195.77</ele><time>2012-09-22T07:47:19Z</time></trkpt><trkpt lat="54.0515541192" lon="26.6022252850"><ele>194.32</ele><time>2012-09-22T07:47:22Z</time></trkpt><trkpt lat="54.0511876624" lon="26.6027441248"><ele>191.92</ele><time>2012-09-22T07:47:32Z</time></trkpt><trkpt lat="54.0506648831" lon="26.6032494698"><ele>189.52</ele><time>2012-09-22T07:47:44Z</time></trkpt><trkpt lat="54.0502258390" lon="26.6035191994"><ele>188.08</ele><time>2012-09-22T07:47:55Z</time></trkpt><trkpt lat="54.0500590391" lon="26.6036813054"><ele>188.56</ele><time>2012-09-22T07:48:01Z</time></trkpt><trkpt lat="54.0499789082" lon="26.6037152521"><ele>188.56</ele><time>2012-09-22T07:48:03Z</time></trkpt><trkpt lat="54.0495159756" lon="26.6036835685"><ele>190.96</ele><time>2012-09-22T07:48:16Z</time></trkpt><trkpt lat="54.0492510237" lon="26.6037165932"><ele>191.44</ele><time>2012-09-22T07:48:28Z</time></trkpt><trkpt lat="54.0488914400" lon="26.6037017573"><ele>192.40</ele><time>2012-09-22T07:48:39Z</time></trkpt><trkpt lat="54.0484513901" lon="26.6036879271"><ele>192.88</ele><time>2012-09-22T07:48:51Z</time></trkpt><trkpt lat="54.0478548501" lon="26.6036513820"><ele>190.00</ele><time>2012-09-22T07:49:03Z</time></trkpt><trkpt lat="54.0477880463" lon="26.6036405694"><ele>189.52</ele><time>2012-09-22T07:49:04Z</time></trkpt><trkpt lat="54.0472068451" lon="26.6036600154"><ele>188.56</ele><time>2012-09-22T07:49:14Z</time></trkpt><trkpt lat="54.0471262950" lon="26.6036699899"><ele>189.04</ele><time>2012-09-22T07:49:16Z</time></trkpt><trkpt lat="54.0470013209" lon="26.6039505322"><ele>189.04</ele><time>2012-09-22T07:49:24Z</time></trkpt><trkpt lat="54.0470476728" lon="26.6049075779"><ele>187.11</ele><time>2012-09-22T07:49:37Z</time></trkpt><trkpt lat="54.0470256284" lon="26.6049781535"><ele>187.11</ele><time>2012-09-22T07:49:39Z</time></trkpt><trkpt lat="54.0470013209" lon="26.6049912293"><ele>187.11</ele><time>2012-09-22T07:49:40Z</time></trkpt><trkpt lat="54.0469722357" lon="26.6049950011"><ele>187.11</ele><time>2012-09-22T07:49:41Z</time></trkpt><trkpt lat="54.0465860814" lon="26.6050367430"><ele>189.04</ele><time>2012-09-22T07:49:53Z</time></trkpt><trkpt lat="54.0461763740" lon="26.6050524171"><ele>190.96</ele><time>2012-09-22T07:50:05Z</time></trkpt><trkpt lat="54.0457877889" lon="26.6050566081"><ele>189.52</ele><time>2012-09-22T07:50:14Z</time></trkpt><trkpt lat="54.0449893288" lon="26.6050255951"><ele>187.59</ele><time>2012-09-22T07:50:28Z</time></trkpt><trkpt lat="54.0445263963" lon="26.6049742978"><ele>187.59</ele><time>2012-09-22T07:50:38Z</time></trkpt><trkpt lat="54.0439210553" lon="26.6049261019"><ele>189.04</ele><time>2012-09-22T07:50:52Z</time></trkpt><trkpt lat="54.0436960850" lon="26.6049474757"><ele>188.56</ele><time>2012-09-22T07:50:57Z</time></trkpt><trkpt lat="54.0429351758" lon="26.6049054824"><ele>187.11</ele><time>2012-09-22T07:51:13Z</time></trkpt><trkpt lat="54.0423946269" lon="26.6048784927"><ele>185.67</ele><time>2012-09-22T07:51:25Z</time></trkpt><trkpt lat="54.0417835861" lon="26.6048797499"><ele>183.75</ele><time>2012-09-22T07:51:37Z</time></trkpt><trkpt lat="54.0411193203" lon="26.6048043128"><ele>181.83</ele><time>2012-09-22T07:51:50Z</time></trkpt><trkpt lat="54.0405691322" lon="26.6047245171"><ele>179.42</ele><time>2012-09-22T07:52:01Z</time></trkpt><trkpt lat="54.0399458539" lon="26.6047764011"><ele>178.46</ele><time>2012-09-22T07:52:16Z</time></trkpt><trkpt lat="54.0396994259" lon="26.6047303844"><ele>177.50</ele><time>2012-09-22T07:52:24Z</time></trkpt><trkpt lat="54.0396579355" lon="26.6047438793"><ele>177.50</ele><time>2012-09-22T07:52:32Z</time></trkpt><trkpt lat="54.0396406688" lon="26.6047424544"><ele>177.98</ele><time>2012-09-22T07:52:51Z</time></trkpt><trkpt lat="54.0396322031" lon="26.6047378443"><ele>177.98</ele><time>2012-09-22T07:52:52Z</time></trkpt><trkpt lat="54.0396181215" lon="26.6047245171"><ele>177.98</ele><time>2012-09-22T07:52:53Z</time></trkpt><trkpt lat="54.0395990945" lon="26.6047080886"><ele>177.50</ele><time>2012-09-22T07:52:54Z</time></trkpt><trkpt lat="54.0395714343" lon="26.6046940908"><ele>177.50</ele><time>2012-09-22T07:52:55Z</time></trkpt><trkpt lat="54.0395365655" lon="26.6046848707"><ele>177.98</ele><time>2012-09-22T07:52:56Z</time></trkpt><trkpt lat="54.0394959971" lon="26.6046818532"><ele>177.98</ele><time>2012-09-22T07:52:57Z</time></trkpt><trkpt lat="54.0394522436" lon="26.6046827752"><ele>177.98</ele><time>2012-09-22T07:52:58Z</time></trkpt><trkpt lat="54.0391546860" lon="26.6047059093"><ele>177.02</ele><time>2012-09-22T07:53:04Z</time></trkpt><trkpt lat="54.0384656936" lon="26.6046827752"><ele>175.58</ele><time>2012-09-22T07:53:17Z</time></trkpt><trkpt lat="54.0379093867" lon="26.6046742257"><ele>175.58</ele><time>2012-09-22T07:53:29Z</time></trkpt><trkpt lat="54.0378171019" lon="26.6046641674"><ele>175.58</ele><time>2012-09-22T07:53:31Z</time></trkpt><trkpt lat="54.0371793229" lon="26.6046879720"><ele>174.14</ele><time>2012-09-22T07:53:43Z</time></trkpt><trkpt lat="54.0362634324" lon="26.6046685260"><ele>172.21</ele><time>2012-09-22T07:53:58Z</time></trkpt><trkpt lat="54.0352098271" lon="26.6046481580"><ele>171.25</ele><time>2012-09-22T07:54:15Z</time></trkpt><trkpt lat="54.0340860654" lon="26.6046284605"><ele>170.29</ele><time>2012-09-22T07:54:33Z</time></trkpt><trkpt lat="54.0331448615" lon="26.6045853775"><ele>169.81</ele><time>2012-09-22T07:54:49Z</time></trkpt><trkpt lat="54.0329878684" lon="26.6045881435"><ele>169.81</ele><time>2012-09-22T07:54:52Z</time></trkpt><trkpt lat="54.0329361521" lon="26.6045954358"><ele>169.81</ele><time>2012-09-22T07:54:53Z</time></trkpt><trkpt lat="54.0328852739" lon="26.6045980342"><ele>169.81</ele><time>2012-09-22T07:54:54Z</time></trkpt><trkpt lat="54.0320779290" lon="26.6045391094"><ele>169.33</ele><time>2012-09-22T07:55:09Z</time></trkpt><trkpt lat="54.0311559197" lon="26.6043091100"><ele>168.85</ele><time>2012-09-22T07:55:26Z</time></trkpt><trkpt lat="54.0302585531" lon="26.6039621830"><ele>168.37</ele><time>2012-09-22T07:55:43Z</time></trkpt><trkpt lat="54.0294602606" lon="26.6036607698"><ele>168.85</ele><time>2012-09-22T07:55:59Z</time></trkpt><trkpt lat="54.0287622996" lon="26.6034141742"><ele>168.85</ele><time>2012-09-22T07:56:14Z</time></trkpt><trkpt lat="54.0286171250" lon="26.6033796407"><ele>168.85</ele><time>2012-09-22T07:56:17Z</time></trkpt><trkpt lat="54.0279953554" lon="26.6034645494"><ele>169.33</ele><time>2012-09-22T07:56:30Z</time></trkpt><trkpt lat="54.0275263879" lon="26.6036208719"><ele>168.85</ele><time>2012-09-22T07:56:40Z</time></trkpt><trkpt lat="54.0271610208" lon="26.6037532222"><ele>168.37</ele><time>2012-09-22T07:56:48Z</time></trkpt><trkpt lat="54.0271154232" lon="26.6037667170"><ele>168.85</ele><time>2012-09-22T07:56:49Z</time></trkpt><trkpt lat="54.0270712506" lon="26.6037819721"><ele>168.85</ele><time>2012-09-22T07:56:50Z</time></trkpt><trkpt lat="54.0264827572" lon="26.6039322596"><ele>169.33</ele><time>2012-09-22T07:57:02Z</time></trkpt><trkpt lat="54.0259092674" lon="26.6038811300"><ele>169.33</ele><time>2012-09-22T07:57:13Z</time></trkpt><trkpt lat="54.0251187701" lon="26.6037417389"><ele>167.89</ele><time>2012-09-22T07:57:26Z</time></trkpt><trkpt lat="54.0244119242" lon="26.6036218777"><ele>167.89</ele><time>2012-09-22T07:57:38Z</time></trkpt><trkpt lat="54.0235708002" lon="26.6035112366"><ele>167.41</ele><time>2012-09-22T07:57:52Z</time></trkpt><trkpt lat="54.0225907043" lon="26.6034357157"><ele>166.93</ele><time>2012-09-22T07:58:08Z</time></trkpt><trkpt lat="54.0216811839" lon="26.6032917984"><ele>165.96</ele><time>2012-09-22T07:58:23Z</time></trkpt><trkpt lat="54.0208849870" lon="26.6029638145"><ele>165.00</ele><time>2012-09-22T07:58:36Z</time></trkpt><trkpt lat="54.0200125147" lon="26.6025707033"><ele>164.52</ele><time>2012-09-22T07:58:51Z</time></trkpt><trkpt lat="54.0193303954" lon="26.6025203280"><ele>165.00</ele><time>2012-09-22T07:59:03Z</time></trkpt><trkpt lat="54.0185772814" lon="26.6028577834"><ele>165.00</ele><time>2012-09-22T07:59:16Z</time></trkpt><trkpt lat="54.0177364927" lon="26.6033601947"><ele>164.52</ele><time>2012-09-22T07:59:31Z</time></trkpt><trkpt lat="54.0169506893" lon="26.6038693953"><ele>164.52</ele><time>2012-09-22T07:59:46Z</time></trkpt><trkpt lat="54.0162031073" lon="26.6044075135"><ele>164.04</ele><time>2012-09-22T08:00:01Z</time></trkpt><trkpt lat="54.0154393483" lon="26.6049450450"><ele>164.04</ele><time>2012-09-22T08:00:17Z</time></trkpt><trkpt lat="54.0147841349" lon="26.6052073147"><ele>165.00</ele><time>2012-09-22T08:00:30Z</time></trkpt><trkpt lat="54.0139762033" lon="26.6054924671"><ele>165.96</ele><time>2012-09-22T08:00:46Z</time></trkpt><trkpt lat="54.0134425275" lon="26.6056943871"><ele>165.48</ele><time>2012-09-22T08:00:59Z</time></trkpt><trkpt lat="54.0129084326" lon="26.6058774479"><ele>165.48</ele><time>2012-09-22T08:01:10Z</time></trkpt><trkpt lat="54.0121828113" lon="26.6061371192"><ele>165.00</ele><time>2012-09-22T08:01:24Z</time></trkpt><trkpt lat="54.0115787275" lon="26.6063620895"><ele>165.00</ele><time>2012-09-22T08:01:36Z</time></trkpt><trkpt lat="54.0115301963" lon="26.6063634306"><ele>165.00</ele><time>2012-09-22T08:01:37Z</time></trkpt><trkpt lat="54.0114823356" lon="26.6063547134"><ele>164.52</ele><time>2012-09-22T08:01:38Z</time></trkpt><trkpt lat="54.0114350617" lon="26.6063296515"><ele>164.52</ele><time>2012-09-22T08:01:39Z</time></trkpt><trkpt lat="54.0113903861" lon="26.6062839702"><ele>164.04</ele><time>2012-09-22T08:01:40Z</time></trkpt><trkpt lat="54.0113570262" lon="26.6062203515"><ele>164.04</ele><time>2012-09-22T08:01:41Z</time></trkpt><trkpt lat="54.0113341436" lon="26.6061495245"><ele>164.04</ele><time>2012-09-22T08:01:42Z</time></trkpt><trkpt lat="54.0113218222" lon="26.6060775239"><ele>164.04</ele><time>2012-09-22T08:01:43Z</time></trkpt><trkpt lat="54.0113189723" lon="26.6060020030"><ele>164.04</ele><time>2012-09-22T08:01:44Z</time></trkpt><trkpt lat="54.0113205649" lon="26.6059257276"><ele>164.04</ele><time>2012-09-22T08:01:45Z</time></trkpt><trkpt lat="54.0113031305" lon="26.6047521774"><ele>164.04</ele><time>2012-09-22T08:02:00Z</time></trkpt><trkpt lat="54.0112836007" lon="26.6034256574"><ele>164.04</ele><time>2012-09-22T08:02:16Z</time></trkpt><trkpt lat="54.0112881269" lon="26.6025483236"><ele>163.56</ele><time>2012-09-22T08:02:28Z</time></trkpt><trkpt lat="54.0112897195" lon="26.6020947788"><ele>163.56</ele><time>2012-09-22T08:02:34Z</time></trkpt><trkpt lat="54.0112925693" lon="26.6011323687"><ele>163.08</ele><time>2012-09-22T08:02:47Z</time></trkpt><trkpt lat="54.0112918988" lon="26.6010583565"><ele>163.56</ele><time>2012-09-22T08:02:48Z</time></trkpt><trkpt lat="54.0112950839" lon="26.6002565436"><ele>163.08</ele><time>2012-09-22T08:02:59Z</time></trkpt><trkpt lat="54.0113024600" lon="26.6001834534"><ele>163.56</ele><time>2012-09-22T08:03:00Z</time></trkpt><trkpt lat="54.0113075729" lon="26.6001090221"><ele>163.08</ele><time>2012-09-22T08:03:01Z</time></trkpt><trkpt lat="54.0113054775" lon="26.5990841668"><ele>163.56</ele><time>2012-09-22T08:03:15Z</time></trkpt><trkpt lat="54.0112932399" lon="26.5978769213"><ele>163.08</ele><time>2012-09-22T08:03:32Z</time></trkpt><trkpt lat="54.0112914797" lon="26.5970407426"><ele>163.08</ele><time>2012-09-22T08:03:44Z</time></trkpt><trkpt lat="54.0112281963" lon="26.5962800011"><ele>163.08</ele><time>2012-09-22T08:03:56Z</time></trkpt><trkpt lat="54.0110708680" lon="26.5955198463"><ele>163.56</ele><time>2012-09-22T08:04:09Z</time></trkpt><trkpt lat="54.0108364262" lon="26.5948658064"><ele>164.04</ele><time>2012-09-22T08:04:21Z</time></trkpt><trkpt lat="54.0104603302" lon="26.5942781512"><ele>163.56</ele><time>2012-09-22T08:04:34Z</time></trkpt><trkpt lat="54.0099632833" lon="26.5936907474"><ele>163.08</ele><time>2012-09-22T08:04:48Z</time></trkpt><trkpt lat="54.0095749497" lon="26.5933030006"><ele>163.08</ele><time>2012-09-22T08:04:59Z</time></trkpt><trkpt lat="54.0090846084" lon="26.5926980786"><ele>163.08</ele><time>2012-09-22T08:05:13Z</time></trkpt><trkpt lat="54.0087097697" lon="26.5919245128"><ele>162.60</ele><time>2012-09-22T08:05:26Z</time></trkpt><trkpt lat="54.0085340012" lon="26.5913362708"><ele>162.60</ele><time>2012-09-22T08:05:35Z</time></trkpt><trkpt lat="54.0084068477" lon="26.5904116631"><ele>162.60</ele><time>2012-09-22T08:05:48Z</time></trkpt><trkpt lat="54.0083449893" lon="26.5898056515"><ele>162.60</ele><time>2012-09-22T08:05:57Z</time></trkpt><trkpt lat="54.0082322527" lon="26.5886847395"><ele>162.12</ele><time>2012-09-22T08:06:12Z</time></trkpt><trkpt lat="54.0081478469" lon="26.5878720302"><ele>162.12</ele><time>2012-09-22T08:06:24Z</time></trkpt><trkpt lat="54.0080465097" lon="26.5869025793"><ele>162.12</ele><time>2012-09-22T08:06:38Z</time></trkpt><trkpt lat="54.0079832263" lon="26.5860895347"><ele>162.12</ele><time>2012-09-22T08:06:50Z</time></trkpt><trkpt lat="54.0078842361" lon="26.5850609075"><ele>161.64</ele><time>2012-09-22T08:07:05Z</time></trkpt><trkpt lat="54.0077641234" lon="26.5839185379"><ele>161.64</ele><time>2012-09-22T08:07:21Z</time></trkpt><trkpt lat="54.0076635405" lon="26.5829228517"><ele>161.16</ele><time>2012-09-22T08:07:35Z</time></trkpt><trkpt lat="54.0075261611" lon="26.5816435218"><ele>161.16</ele><time>2012-09-22T08:07:53Z</time></trkpt><trkpt lat="54.0074359719" lon="26.5807725582"><ele>161.16</ele><time>2012-09-22T08:08:06Z</time></trkpt><trkpt lat="54.0073287673" lon="26.5797121637"><ele>161.16</ele><time>2012-09-22T08:08:21Z</time></trkpt><trkpt lat="54.0073245764" lon="26.5796425100"><ele>160.68</ele><time>2012-09-22T08:08:22Z</time></trkpt><trkpt lat="54.0073244087" lon="26.5795755386"><ele>160.68</ele><time>2012-09-22T08:08:23Z</time></trkpt><trkpt lat="54.0073230676" lon="26.5795087349"><ele>160.68</ele><time>2012-09-22T08:08:24Z</time></trkpt><trkpt lat="54.0073177870" lon="26.5794408415"><ele>160.68</ele><time>2012-09-22T08:08:25Z</time></trkpt><trkpt lat="54.0073111653" lon="26.5793714393"><ele>160.68</ele><time>2012-09-22T08:08:26Z</time></trkpt><trkpt lat="54.0071940701" lon="26.5782763436"><ele>161.16</ele><time>2012-09-22T08:08:42Z</time></trkpt><trkpt lat="54.0070784837" lon="26.5771524142"><ele>161.16</ele><time>2012-09-22T08:08:58Z</time></trkpt><trkpt lat="54.0069763083" lon="26.5762221906"><ele>161.16</ele><time>2012-09-22T08:09:11Z</time></trkpt><trkpt lat="54.0068778209" lon="26.5753247403"><ele>161.16</ele><time>2012-09-22T08:09:24Z</time></trkpt><trkpt lat="54.0067801718" lon="26.5744746476"><ele>161.16</ele><time>2012-09-22T08:09:36Z</time></trkpt><trkpt lat="54.0067095961" lon="26.5737389680"><ele>161.16</ele><time>2012-09-22T08:09:46Z</time></trkpt><trkpt lat="54.0065982845" lon="26.5726539306"><ele>161.16</ele><time>2012-09-22T08:10:01Z</time></trkpt><trkpt lat="54.0065055806" lon="26.5718425624"><ele>161.16</ele><time>2012-09-22T08:10:14Z</time></trkpt><trkpt lat="54.0064344183" lon="26.5713740140"><ele>161.64</ele><time>2012-09-22T08:10:26Z</time></trkpt><trkpt lat="54.0064276289" lon="26.5713650454"><ele>161.64</ele><time>2012-09-22T08:10:43Z</time></trkpt><trkpt lat="54.0064351726" lon="26.5713679790"><ele>161.64</ele><time>2012-09-22T08:11:03Z</time></trkpt><trkpt lat="54.0064152237" lon="26.5713688172"><ele>161.64</ele><time>2012-09-22T08:11:15Z</time></trkpt><trkpt lat="54.0064032376" lon="26.5713673085"><ele>161.64</ele><time>2012-09-22T08:11:16Z</time></trkpt><trkpt lat="54.0063872281" lon="26.5713673923"><ele>161.64</ele><time>2012-09-22T08:11:17Z</time></trkpt><trkpt lat="54.0063670278" lon="26.5713729244"><ele>161.64</ele><time>2012-09-22T08:11:18Z</time></trkpt><trkpt lat="54.0063414630" lon="26.5713846590"><ele>161.16</ele><time>2012-09-22T08:11:19Z</time></trkpt><trkpt lat="54.0063122939" lon="26.5713999141"><ele>161.16</ele><time>2012-09-22T08:11:20Z</time></trkpt><trkpt lat="54.0062076040" lon="26.5713942144"><ele>161.16</ele><time>2012-09-22T08:11:23Z</time></trkpt><trkpt lat="54.0061693825" lon="26.5713685658"><ele>161.16</ele><time>2012-09-22T08:11:24Z</time></trkpt><trkpt lat="54.0061302390" lon="26.5713429172"><ele>161.64</ele><time>2012-09-22T08:11:25Z</time></trkpt><trkpt lat="54.0060884971" lon="26.5713245608"><ele>161.16</ele><time>2012-09-22T08:11:26Z</time></trkpt><trkpt lat="54.0060456656" lon="26.5713139158"><ele>161.16</ele><time>2012-09-22T08:11:27Z</time></trkpt><trkpt lat="54.0060021635" lon="26.5713087190"><ele>161.16</ele><time>2012-09-22T08:11:28Z</time></trkpt><trkpt lat="54.0059584938" lon="26.5713047795"><ele>161.64</ele><time>2012-09-22T08:11:29Z</time></trkpt><trkpt lat="54.0053601936" lon="26.5712166857"><ele>161.16</ele><time>2012-09-22T08:11:42Z</time></trkpt><trkpt lat="54.0046064928" lon="26.5710832458"><ele>161.16</ele><time>2012-09-22T08:11:58Z</time></trkpt><trkpt lat="54.0040185023" lon="26.5710042045"><ele>161.16</ele><time>2012-09-22T08:12:11Z</time></trkpt><trkpt lat="54.0034181066" lon="26.5709443577"><ele>161.64</ele><time>2012-09-22T08:12:24Z</time></trkpt><trkpt lat="54.0026337281" lon="26.5707592014"><ele>161.64</ele><time>2012-09-22T08:12:41Z</time></trkpt><trkpt lat="54.0022594761" lon="26.5707150288"><ele>162.12</ele><time>2012-09-22T08:12:51Z</time></trkpt><trkpt lat="54.0018196777" lon="26.5706705209"><ele>162.60</ele><time>2012-09-22T08:13:03Z</time></trkpt><trkpt lat="54.0014185198" lon="26.5704061557"><ele>162.60</ele><time>2012-09-22T08:13:14Z</time></trkpt><trkpt lat="54.0011409950" lon="26.5701321512"><ele>162.60</ele><time>2012-09-22T08:13:22Z</time></trkpt><trkpt lat="54.0007835906" lon="26.5697410516"><ele>162.60</ele><time>2012-09-22T08:13:32Z</time></trkpt><trkpt lat="54.0006354824" lon="26.5695677139"><ele>162.60</ele><time>2012-09-22T08:13:36Z</time></trkpt><trkpt lat="54.0005994402" lon="26.5695243794"><ele>162.60</ele><time>2012-09-22T08:13:37Z</time></trkpt><trkpt lat="54.0005634818" lon="26.5694821347"><ele>162.60</ele><time>2012-09-22T08:13:38Z</time></trkpt><trkpt lat="54.0002005454" lon="26.5691113193"><ele>163.08</ele><time>2012-09-22T08:13:48Z</time></trkpt><trkpt lat="53.9998871461" lon="26.5687149391"><ele>163.08</ele><time>2012-09-22T08:13:59Z</time></trkpt><trkpt lat="53.9996807836" lon="26.5685166232"><ele>162.60</ele><time>2012-09-22T08:14:08Z</time></trkpt><trkpt lat="53.9994697273" lon="26.5682921559"><ele>162.60</ele><time>2012-09-22T08:14:16Z</time></trkpt><trkpt lat="53.9990241453" lon="26.5677961148"><ele>163.08</ele><time>2012-09-22T08:14:27Z</time></trkpt><trkpt lat="53.9986034576" lon="26.5673618484"><ele>162.60</ele><time>2012-09-22T08:14:37Z</time></trkpt><trkpt lat="53.9980974421" lon="26.5668367222"><ele>163.08</ele><time>2012-09-22T08:14:50Z</time></trkpt><trkpt lat="53.9978828654" lon="26.5666033700"><ele>163.08</ele><time>2012-09-22T08:15:00Z</time></trkpt><trkpt lat="53.9978609048" lon="26.5665829182"><ele>163.08</ele><time>2012-09-22T08:15:10Z</time></trkpt><trkpt lat="53.9978567138" lon="26.5666576847"><ele>162.60</ele><time>2012-09-22T08:15:21Z</time></trkpt><trkpt lat="53.9978505112" lon="26.5666697547"><ele>162.60</ele><time>2012-09-22T08:15:23Z</time></trkpt><trkpt lat="53.9978437219" lon="26.5667666495"><ele>161.16</ele><time>2012-09-22T08:15:30Z</time></trkpt><trkpt lat="53.9978405368" lon="26.5669026040"><ele>162.12</ele><time>2012-09-22T08:15:40Z</time></trkpt><trkpt lat="53.9978234377" lon="26.5669971518"><ele>162.12</ele><time>2012-09-22T08:15:51Z</time></trkpt><trkpt lat="53.9978070930" lon="26.5670009237"><ele>162.12</ele><time>2012-09-22T08:16:27Z</time></trkpt><trkpt lat="53.9978076797" lon="26.5669904463"><ele>162.12</ele><time>2012-09-22T08:17:03Z</time></trkpt><trkpt lat="53.9978198335" lon="26.5669886023"><ele>162.12</ele><time>2012-09-22T08:17:28Z</time></trkpt><trkpt lat="53.9978111163" lon="26.5670202859"><ele>162.12</ele><time>2012-09-22T08:17:56Z</time></trkpt><trkpt lat="53.9978029858" lon="26.5670203697"><ele>162.12</ele><time>2012-09-22T08:18:19Z</time></trkpt><trkpt lat="53.9977870602" lon="26.5670196991"><ele>162.12</ele><time>2012-09-22T08:18:41Z</time></trkpt><trkpt lat="53.9977719728" lon="26.5669896919"><ele>162.12</ele><time>2012-09-22T08:19:09Z</time></trkpt><trkpt lat="53.9977959450" lon="26.5669900272"><ele>162.60</ele><time>2012-09-22T08:19:48Z</time></trkpt><trkpt lat="53.9977995493" lon="26.5669781249"><ele>162.60</ele><time>2012-09-22T08:20:29Z</time></trkpt><trkpt lat="53.9977882337" lon="26.5670007560"><ele>162.60</ele><time>2012-09-22T08:21:08Z</time></trkpt><trkpt lat="53.9977806900" lon="26.5669973195"><ele>162.60</ele><time>2012-09-22T08:21:36Z</time></trkpt><trkpt lat="53.9977620821" lon="26.5669855848"><ele>162.60</ele><time>2012-09-22T08:22:10Z</time></trkpt><trkpt lat="53.9977741521" lon="26.5669879317"><ele>163.08</ele><time>2012-09-22T08:22:41Z</time></trkpt><trkpt lat="53.9977932628" lon="26.5669930447"><ele>163.08</ele><time>2012-09-22T08:23:14Z</time></trkpt><trkpt lat="53.9977911673" lon="26.5669853333"><ele>163.08</ele><time>2012-09-22T08:23:38Z</time></trkpt><trkpt lat="53.9978102781" lon="26.5669948887"><ele>163.56</ele><time>2012-09-22T08:24:17Z</time></trkpt><trkpt lat="53.9978017285" lon="26.5669890214"><ele>163.56</ele><time>2012-09-22T08:24:51Z</time></trkpt><trkpt lat="53.9978023153" lon="26.5669721738"><ele>163.56</ele><time>2012-09-22T08:25:34Z</time></trkpt><trkpt lat="53.9978190791" lon="26.5670108143"><ele>163.56</ele><time>2012-09-22T08:26:15Z</time></trkpt><trkpt lat="53.9978086017" lon="26.5670175198"><ele>163.56</ele><time>2012-09-22T08:27:04Z</time></trkpt><trkpt lat="53.9978095237" lon="26.5670039412"><ele>163.56</ele><time>2012-09-22T08:27:36Z</time></trkpt><trkpt lat="53.9978106134" lon="26.5670017619"><ele>164.04</ele><time>2012-09-22T08:28:07Z</time></trkpt><trkpt lat="53.9978044946" lon="26.5669833217"><ele>164.04</ele><time>2012-09-22T08:28:36Z</time></trkpt><trkpt lat="53.9978008065" lon="26.5669956431"><ele>164.04</ele><time>2012-09-22T08:29:09Z</time></trkpt><trkpt lat="53.9977977052" lon="26.5669860039"><ele>164.04</ele><time>2012-09-22T08:29:41Z</time></trkpt><trkpt lat="53.9977860544" lon="26.5669730119"><ele>164.04</ele><time>2012-09-22T08:30:11Z</time></trkpt><trkpt lat="53.9977786783" lon="26.5669896919"><ele>164.04</ele><time>2012-09-22T08:30:44Z</time></trkpt><trkpt lat="53.9978132118" lon="26.5669891890"><ele>164.52</ele><time>2012-09-22T08:31:15Z</time></trkpt><trkpt lat="53.9977978729" lon="26.5670130774"><ele>164.52</ele><time>2012-09-22T08:31:54Z</time></trkpt><trkpt lat="53.9978057519" lon="26.5670072939"><ele>164.52</ele><time>2012-09-22T08:32:31Z</time></trkpt><trkpt lat="53.9978173189" lon="26.5670000017"><ele>164.52</ele><time>2012-09-22T08:32:44Z</time></trkpt><trkpt lat="53.9978212584" lon="26.5669899434"><ele>164.52</ele><time>2012-09-22T08:32:51Z</time></trkpt><trkpt lat="53.9978432190" lon="26.5668693278"><ele>164.52</ele><time>2012-09-22T08:33:02Z</time></trkpt><trkpt lat="53.9978530258" lon="26.5667648893"><ele>164.04</ele><time>2012-09-22T08:33:12Z</time></trkpt><trkpt lat="53.9978537802" lon="26.5667534061"><ele>164.04</ele><time>2012-09-22T08:33:13Z</time></trkpt><trkpt lat="53.9978619106" lon="26.5666523203"><ele>165.96</ele><time>2012-09-22T08:33:21Z</time></trkpt><trkpt lat="53.9978314005" lon="26.5665675793"><ele>165.48</ele><time>2012-09-22T08:33:31Z</time></trkpt><trkpt lat="53.9978197496" lon="26.5665446967"><ele>165.48</ele><time>2012-09-22T08:33:45Z</time></trkpt><trkpt lat="53.9978086017" lon="26.5665493067"><ele>165.48</ele><time>2012-09-22T08:34:00Z</time></trkpt><trkpt lat="53.9978096075" lon="26.5665553417"><ele>165.48</ele><time>2012-09-22T08:34:21Z</time></trkpt><trkpt lat="53.9977796003" lon="26.5665251669"><ele>165.96</ele><time>2012-09-22T08:34:41Z</time></trkpt><trkpt lat="53.9977650158" lon="26.5664523281"><ele>165.96</ele><time>2012-09-22T08:34:44Z</time></trkpt><trkpt lat="53.9977469109" lon="26.5664216504"><ele>165.96</ele><time>2012-09-22T08:34:45Z</time></trkpt><trkpt lat="53.9977236092" lon="26.5663897991"><ele>165.96</ele><time>2012-09-22T08:34:46Z</time></trkpt><trkpt lat="53.9976978768" lon="26.5663545113"><ele>165.96</ele><time>2012-09-22T08:34:47Z</time></trkpt><trkpt lat="53.9976718929" lon="26.5663126018"><ele>165.96</ele><time>2012-09-22T08:34:48Z</time></trkpt><trkpt lat="53.9976454061" lon="26.5662673395"><ele>165.96</ele><time>2012-09-22T08:34:49Z</time></trkpt><trkpt lat="53.9976181649" lon="26.5662214067"><ele>165.96</ele><time>2012-09-22T08:34:50Z</time></trkpt><trkpt lat="53.9975926001" lon="26.5661722049"><ele>165.96</ele><time>2012-09-22T08:34:51Z</time></trkpt><trkpt lat="53.9972924441" lon="26.5654458292"><ele>165.96</ele><time>2012-09-22T08:35:03Z</time></trkpt><trkpt lat="53.9970558230" lon="26.5645613708"><ele>165.96</ele><time>2012-09-22T08:35:16Z</time></trkpt><trkpt lat="53.9970348682" lon="26.5644890349"><ele>166.45</ele><time>2012-09-22T08:35:17Z</time></trkpt><trkpt lat="53.9967746101" lon="26.5636015590"><ele>165.96</ele><time>2012-09-22T08:35:29Z</time></trkpt><trkpt lat="53.9967313595" lon="26.5634481702"><ele>165.96</ele><time>2012-09-22T08:35:31Z</time></trkpt><trkpt lat="53.9964428544" lon="26.5624808986"><ele>165.96</ele><time>2012-09-22T08:35:44Z</time></trkpt><trkpt lat="53.9960546885" lon="26.5614478290"><ele>165.96</ele><time>2012-09-22T08:35:58Z</time></trkpt><trkpt lat="53.9956919197" lon="26.5604904480"><ele>165.96</ele><time>2012-09-22T08:36:11Z</time></trkpt><trkpt lat="53.9952745009" lon="26.5594860446"><ele>165.96</ele><time>2012-09-22T08:36:25Z</time></trkpt><trkpt lat="53.9948632009" lon="26.5586281568"><ele>165.96</ele><time>2012-09-22T08:36:38Z</time></trkpt><trkpt lat="53.9944744483" lon="26.5578638949"><ele>165.48</ele><time>2012-09-22T08:36:50Z</time></trkpt><trkpt lat="53.9940100908" lon="26.5570223518"><ele>165.96</ele><time>2012-09-22T08:37:04Z</time></trkpt><trkpt lat="53.9935780037" lon="26.5561715048"><ele>166.93</ele><time>2012-09-22T08:37:18Z</time></trkpt><trkpt lat="53.9931295719" lon="26.5554079972"><ele>166.45</ele><time>2012-09-22T08:37:32Z</time></trkpt><trkpt lat="53.9927705750" lon="26.5548059251"><ele>166.45</ele><time>2012-09-22T08:37:43Z</time></trkpt><trkpt lat="53.9923867676" lon="26.5539238136"><ele>165.96</ele><time>2012-09-22T08:37:57Z</time></trkpt><trkpt lat="53.9922508970" lon="26.5531831887"><ele>165.96</ele><time>2012-09-22T08:38:07Z</time></trkpt><trkpt lat="53.9921521582" lon="26.5525920130"><ele>165.96</ele><time>2012-09-22T08:38:15Z</time></trkpt><trkpt lat="53.9921417646" lon="26.5525197610"><ele>165.96</ele><time>2012-09-22T08:38:16Z</time></trkpt><trkpt lat="53.9919386711" lon="26.5514531638"><ele>165.48</ele><time>2012-09-22T08:38:30Z</time></trkpt><trkpt lat="53.9917421155" lon="26.5503619239"><ele>165.48</ele><time>2012-09-22T08:38:44Z</time></trkpt><trkpt lat="53.9917265251" lon="26.5502827987"><ele>165.96</ele><time>2012-09-22T08:38:45Z</time></trkpt><trkpt lat="53.9915799256" lon="26.5495786350"><ele>165.00</ele><time>2012-09-22T08:38:54Z</time></trkpt><trkpt lat="53.9915686939" lon="26.5494978335"><ele>165.00</ele><time>2012-09-22T08:38:55Z</time></trkpt><trkpt lat="53.9915404469" lon="26.5493457019"><ele>165.00</ele><time>2012-09-22T08:38:57Z</time></trkpt><trkpt lat="53.9913412929" lon="26.5484351758"><ele>165.00</ele><time>2012-09-22T08:39:09Z</time></trkpt><trkpt lat="53.9911946096" lon="26.5475690737"><ele>165.00</ele><time>2012-09-22T08:39:20Z</time></trkpt><trkpt lat="53.9911324997" lon="26.5468592942"><ele>165.00</ele><time>2012-09-22T08:39:29Z</time></trkpt><trkpt lat="53.9911407139" lon="26.5466966853"><ele>165.00</ele><time>2012-09-22T08:39:31Z</time></trkpt><trkpt lat="53.9911507722" lon="26.5466180630"><ele>165.00</ele><time>2012-09-22T08:39:32Z</time></trkpt><trkpt lat="53.9911783487" lon="26.5464632493"><ele>165.00</ele><time>2012-09-22T08:39:34Z</time></trkpt><trkpt lat="53.9911975432" lon="26.5463889018"><ele>165.00</ele><time>2012-09-22T08:39:35Z</time></trkpt><trkpt lat="53.9912199229" lon="26.5463185776"><ele>165.48</ele><time>2012-09-22T08:39:36Z</time></trkpt><trkpt lat="53.9916139562" lon="26.5453188680"><ele>165.48</ele><time>2012-09-22T08:39:51Z</time></trkpt><trkpt lat="53.9919863641" lon="26.5442783386"><ele>165.96</ele><time>2012-09-22T08:40:06Z</time></trkpt><trkpt lat="53.9921069797" lon="26.5433344524"><ele>166.45</ele><time>2012-09-22T08:40:18Z</time></trkpt><trkpt lat="53.9921273477" lon="26.5426079091"><ele>166.45</ele><time>2012-09-22T08:40:27Z</time></trkpt><trkpt lat="53.9921260066" lon="26.5423524287"><ele>166.45</ele><time>2012-09-22T08:40:30Z</time></trkpt><trkpt lat="53.9921850152" lon="26.5410207119"><ele>165.96</ele><time>2012-09-22T08:40:46Z</time></trkpt><trkpt lat="53.9922576025" lon="26.5394964628"><ele>165.48</ele><time>2012-09-22T08:41:05Z</time></trkpt><trkpt lat="53.9922046289" lon="26.5383723658"><ele>165.48</ele><time>2012-09-22T08:41:19Z</time></trkpt><trkpt lat="53.9919738751" lon="26.5372478496"><ele>164.52</ele><time>2012-09-22T08:41:33Z</time></trkpt><trkpt lat="53.9917613938" lon="26.5363110043"><ele>164.52</ele><time>2012-09-22T08:41:46Z</time></trkpt><trkpt lat="53.9915641677" lon="26.5354153141"><ele>164.04</ele><time>2012-09-22T08:41:58Z</time></trkpt><trkpt lat="53.9912974555" lon="26.5342167858"><ele>164.52</ele><time>2012-09-22T08:42:14Z</time></trkpt><trkpt lat="53.9911473356" lon="26.5335334931"><ele>164.52</ele><time>2012-09-22T08:42:23Z</time></trkpt><trkpt lat="53.9908762649" lon="26.5323039517"><ele>164.52</ele><time>2012-09-22T08:42:39Z</time></trkpt><trkpt lat="53.9906730037" lon="26.5312937647"><ele>164.52</ele><time>2012-09-22T08:42:53Z</time></trkpt><trkpt lat="53.9904837403" lon="26.5302650537"><ele>165.00</ele><time>2012-09-22T08:43:08Z</time></trkpt><trkpt lat="53.9904750232" lon="26.5301948972"><ele>165.00</ele><time>2012-09-22T08:43:09Z</time></trkpt><trkpt lat="53.9903011825" lon="26.5293477383"><ele>165.00</ele><time>2012-09-22T08:43:21Z</time></trkpt><trkpt lat="53.9902077243" lon="26.5288563911"><ele>165.48</ele><time>2012-09-22T08:43:28Z</time></trkpt><trkpt lat="53.9901399985" lon="26.5285149962"><ele>165.48</ele><time>2012-09-22T08:43:33Z</time></trkpt><trkpt lat="53.9901260845" lon="26.5284471866"><ele>165.48</ele><time>2012-09-22T08:43:34Z</time></trkpt><trkpt lat="53.9899911359" lon="26.5277402569"><ele>165.96</ele><time>2012-09-22T08:43:44Z</time></trkpt><trkpt lat="53.9899779763" lon="26.5276654065"><ele>165.96</ele><time>2012-09-22T08:43:45Z</time></trkpt><trkpt lat="53.9899298642" lon="26.5274307132"><ele>165.48</ele><time>2012-09-22T08:43:48Z</time></trkpt><trkpt lat="53.9895901456" lon="26.5264477674"><ele>164.52</ele><time>2012-09-22T08:44:01Z</time></trkpt><trkpt lat="53.9892722201" lon="26.5257758740"><ele>164.52</ele><time>2012-09-22T08:44:12Z</time></trkpt><trkpt lat="53.9890058432" lon="26.5252354927"><ele>164.52</ele><time>2012-09-22T08:44:21Z</time></trkpt><trkpt lat="53.9885553997" lon="26.5242839791"><ele>164.04</ele><time>2012-09-22T08:44:37Z</time></trkpt><trkpt lat="53.9881534036" lon="26.5234530810"><ele>163.56</ele><time>2012-09-22T08:44:50Z</time></trkpt><trkpt lat="53.9877502341" lon="26.5226113703"><ele>163.56</ele><time>2012-09-22T08:45:03Z</time></trkpt><trkpt lat="53.9874282014" lon="26.5219158400"><ele>164.52</ele><time>2012-09-22T08:45:15Z</time></trkpt><trkpt lat="53.9870852139" lon="26.5211310424"><ele>165.00</ele><time>2012-09-22T08:45:28Z</time></trkpt><trkpt lat="53.9866774343" lon="26.5204754937"><ele>164.52</ele><time>2012-09-22T08:45:40Z</time></trkpt><trkpt lat="53.9861592650" lon="26.5198472701"><ele>165.48</ele><time>2012-09-22T08:45:55Z</time></trkpt><trkpt lat="53.9856835082" lon="26.5192534123"><ele>166.45</ele><time>2012-09-22T08:46:09Z</time></trkpt><trkpt lat="53.9854664169" lon="26.5189435333"><ele>166.93</ele><time>2012-09-22T08:46:16Z</time></trkpt><trkpt lat="53.9849869721" lon="26.5180702228"><ele>166.45</ele><time>2012-09-22T08:46:31Z</time></trkpt><trkpt lat="53.9845527057" lon="26.5172226448"><ele>164.52</ele><time>2012-09-22T08:46:44Z</time></trkpt><trkpt lat="53.9841050282" lon="26.5163507592"><ele>164.04</ele><time>2012-09-22T08:46:57Z</time></trkpt><trkpt lat="53.9836568478" lon="26.5154779516"><ele>163.56</ele><time>2012-09-22T08:47:11Z</time></trkpt><trkpt lat="53.9834862761" lon="26.5151773766"><ele>163.56</ele><time>2012-09-22T08:47:16Z</time></trkpt><trkpt lat="53.9834429417" lon="26.5151280910"><ele>163.56</ele><time>2012-09-22T08:47:17Z</time></trkpt><trkpt lat="53.9830340724" lon="26.5148616303"><ele>162.60</ele><time>2012-09-22T08:47:26Z</time></trkpt><trkpt lat="53.9826979581" lon="26.5146648232"><ele>162.60</ele><time>2012-09-22T08:47:34Z</time></trkpt><trkpt lat="53.9826552942" lon="26.5146359894"><ele>162.60</ele><time>2012-09-22T08:47:35Z</time></trkpt><trkpt lat="53.9826116245" lon="26.5146149509"><ele>162.60</ele><time>2012-09-22T08:47:36Z</time></trkpt><trkpt lat="53.9821327664" lon="26.5143489931"><ele>163.56</ele><time>2012-09-22T08:47:47Z</time></trkpt><trkpt lat="53.9815707598" lon="26.5140380245"><ele>163.08</ele><time>2012-09-22T08:48:00Z</time></trkpt><trkpt lat="53.9812114276" lon="26.5138558857"><ele>162.60</ele><time>2012-09-22T08:48:08Z</time></trkpt><trkpt lat="53.9808924124" lon="26.5137306601"><ele>163.08</ele><time>2012-09-22T08:48:15Z</time></trkpt><trkpt lat="53.9806777518" lon="26.5136253834"><ele>163.08</ele><time>2012-09-22T08:48:20Z</time></trkpt><trkpt lat="53.9802436531" lon="26.5134146623"><ele>163.08</ele><time>2012-09-22T08:48:30Z</time></trkpt><trkpt lat="53.9797343686" lon="26.5131620318"><ele>163.08</ele><time>2012-09-22T08:48:41Z</time></trkpt><trkpt lat="53.9792192169" lon="26.5128840040"><ele>164.52</ele><time>2012-09-22T08:48:54Z</time></trkpt><trkpt lat="53.9787567873" lon="26.5126293618"><ele>163.56</ele><time>2012-09-22T08:49:04Z</time></trkpt><trkpt lat="53.9782946929" lon="26.5123921540"><ele>162.60</ele><time>2012-09-22T08:49:13Z</time></trkpt><trkpt lat="53.9782017376" lon="26.5123333130"><ele>162.60</ele><time>2012-09-22T08:49:15Z</time></trkpt><trkpt lat="53.9781126380" lon="26.5122780763"><ele>163.08</ele><time>2012-09-22T08:49:17Z</time></trkpt><trkpt lat="53.9780278970" lon="26.5122099314"><ele>163.08</ele><time>2012-09-22T08:49:19Z</time></trkpt><trkpt lat="53.9779829700" lon="26.5121830255"><ele>163.56</ele><time>2012-09-22T08:49:20Z</time></trkpt><trkpt lat="53.9775330294" lon="26.5119217616"><ele>165.00</ele><time>2012-09-22T08:49:31Z</time></trkpt><trkpt lat="53.9770202246" lon="26.5116115473"><ele>165.00</ele><time>2012-09-22T08:49:44Z</time></trkpt><trkpt lat="53.9767373353" lon="26.5114320070"><ele>164.04</ele><time>2012-09-22T08:49:50Z</time></trkpt><trkpt lat="53.9766834397" lon="26.5114005748"><ele>164.04</ele><time>2012-09-22T08:49:51Z</time></trkpt><trkpt lat="53.9759665355" lon="26.5109570045"><ele>162.12</ele><time>2012-09-22T08:50:04Z</time></trkpt><trkpt lat="53.9755657967" lon="26.5106847603"><ele>161.64</ele><time>2012-09-22T08:50:12Z</time></trkpt><trkpt lat="53.9753307682" lon="26.5105327964"><ele>161.64</ele><time>2012-09-22T08:50:17Z</time></trkpt><trkpt lat="53.9752826560" lon="26.5105053037"><ele>162.12</ele><time>2012-09-22T08:50:18Z</time></trkpt><trkpt lat="53.9747380838" lon="26.5101599693"><ele>161.64</ele><time>2012-09-22T08:50:29Z</time></trkpt><trkpt lat="53.9743504208" lon="26.5099194925"><ele>161.16</ele><time>2012-09-22T08:50:37Z</time></trkpt><trkpt lat="53.9741221815" lon="26.5098222625"><ele>161.16</ele><time>2012-09-22T08:50:42Z</time></trkpt><trkpt lat="53.9740831219" lon="26.5097888187"><ele>161.16</ele><time>2012-09-22T08:50:43Z</time></trkpt><trkpt lat="53.9740417991" lon="26.5097551234"><ele>161.16</ele><time>2012-09-22T08:50:44Z</time></trkpt><trkpt lat="53.9735169243" lon="26.5094294865"><ele>162.12</ele><time>2012-09-22T08:50:56Z</time></trkpt><trkpt lat="53.9729811531" lon="26.5090944618"><ele>162.60</ele><time>2012-09-22T08:51:09Z</time></trkpt><trkpt lat="53.9725252613" lon="26.5086518973"><ele>164.04</ele><time>2012-09-22T08:51:21Z</time></trkpt><trkpt lat="53.9721605647" lon="26.5081283636"><ele>166.45</ele><time>2012-09-22T08:51:34Z</time></trkpt><trkpt lat="53.9718984626" lon="26.5076577198"><ele>165.96</ele><time>2012-09-22T08:51:43Z</time></trkpt><trkpt lat="53.9714804571" lon="26.5069753490"><ele>165.00</ele><time>2012-09-22T08:51:54Z</time></trkpt><trkpt lat="53.9712624438" lon="26.5066844132"><ele>164.52</ele><time>2012-09-22T08:51:59Z</time></trkpt><trkpt lat="53.9712127391" lon="26.5066404920"><ele>164.04</ele><time>2012-09-22T08:52:00Z</time></trkpt><trkpt lat="53.9711586758" lon="26.5066036955"><ele>164.04</ele><time>2012-09-22T08:52:01Z</time></trkpt><trkpt lat="53.9709843323" lon="26.5065347124"><ele>163.08</ele><time>2012-09-22T08:52:04Z</time></trkpt><trkpt lat="53.9703780692" lon="26.5066119935"><ele>160.68</ele><time>2012-09-22T08:52:14Z</time></trkpt><trkpt lat="53.9698719699" lon="26.5068374667"><ele>161.16</ele><time>2012-09-22T08:52:24Z</time></trkpt><trkpt lat="53.9693924412" lon="26.5071788616"><ele>163.56</ele><time>2012-09-22T08:52:36Z</time></trkpt><trkpt lat="53.9690524712" lon="26.5074750781"><ele>162.60</ele><time>2012-09-22T08:52:43Z</time></trkpt><trkpt lat="53.9689986594" lon="26.5075210109"><ele>162.60</ele><time>2012-09-22T08:52:44Z</time></trkpt><trkpt lat="53.9684307855" lon="26.5080273617"><ele>162.12</ele><time>2012-09-22T08:52:55Z</time></trkpt><trkpt lat="53.9680422843" lon="26.5083007794"><ele>164.04</ele><time>2012-09-22T08:53:05Z</time></trkpt><trkpt lat="53.9674718957" lon="26.5086153522"><ele>163.56</ele><time>2012-09-22T08:53:18Z</time></trkpt><trkpt lat="53.9670889266" lon="26.5087568387"><ele>162.60</ele><time>2012-09-22T08:53:25Z</time></trkpt><trkpt lat="53.9670334384" lon="26.5087724291"><ele>162.12</ele><time>2012-09-22T08:53:26Z</time></trkpt><trkpt lat="53.9669787046" lon="26.5087777097"><ele>162.12</ele><time>2012-09-22T08:53:27Z</time></trkpt><trkpt lat="53.9668671414" lon="26.5087720100"><ele>161.64</ele><time>2012-09-22T08:53:29Z</time></trkpt><trkpt lat="53.9668132458" lon="26.5087576769"><ele>162.12</ele><time>2012-09-22T08:53:30Z</time></trkpt><trkpt lat="53.9667620324" lon="26.5087358840"><ele>161.64</ele><time>2012-09-22T08:53:31Z</time></trkpt><trkpt lat="53.9667138364" lon="26.5087057929"><ele>161.64</ele><time>2012-09-22T08:53:32Z</time></trkpt><trkpt lat="53.9666672330" lon="26.5086630452"><ele>161.64</ele><time>2012-09-22T08:53:33Z</time></trkpt><trkpt lat="53.9666213840" lon="26.5086142626"><ele>161.64</ele><time>2012-09-22T08:53:34Z</time></trkpt><trkpt lat="53.9665797260" lon="26.5085545834"><ele>161.64</ele><time>2012-09-22T08:53:35Z</time></trkpt><trkpt lat="53.9665420074" lon="26.5084866900"><ele>161.64</ele><time>2012-09-22T08:53:36Z</time></trkpt><trkpt lat="53.9661683422" lon="26.5077056643"><ele>162.60</ele><time>2012-09-22T08:53:47Z</time></trkpt><trkpt lat="53.9656611532" lon="26.5067352075"><ele>162.12</ele><time>2012-09-22T08:54:02Z</time></trkpt><trkpt lat="53.9654334169" lon="26.5063063893"><ele>163.08</ele><time>2012-09-22T08:54:09Z</time></trkpt><trkpt lat="53.9652189240" lon="26.5059195645"><ele>163.56</ele><time>2012-09-22T08:54:16Z</time></trkpt><trkpt lat="53.9651929401" lon="26.5058649983"><ele>163.56</ele><time>2012-09-22T08:54:17Z</time></trkpt><trkpt lat="53.9651057683" lon="26.5056980308"><ele>163.56</ele><time>2012-09-22T08:54:20Z</time></trkpt><trkpt lat="53.9650744200" lon="26.5056417044"><ele>163.56</ele><time>2012-09-22T08:54:21Z</time></trkpt><trkpt lat="53.9647520520" lon="26.5049299132"><ele>162.12</ele><time>2012-09-22T08:54:32Z</time></trkpt><trkpt lat="53.9644888602" lon="26.5041579399"><ele>162.60</ele><time>2012-09-22T08:54:43Z</time></trkpt><trkpt lat="53.9643957373" lon="26.5038514975"><ele>162.60</ele><time>2012-09-22T08:54:47Z</time></trkpt><trkpt lat="53.9641081542" lon="26.5030635986"><ele>162.12</ele><time>2012-09-22T08:54:58Z</time></trkpt><trkpt lat="53.9636484906" lon="26.5020496398"><ele>162.60</ele><time>2012-09-22T08:55:14Z</time></trkpt><trkpt lat="53.9633751567" lon="26.5015230048"><ele>163.08</ele><time>2012-09-22T08:55:23Z</time></trkpt><trkpt lat="53.9633413777" lon="26.5014665108"><ele>163.08</ele><time>2012-09-22T08:55:24Z</time></trkpt><trkpt lat="53.9629025850" lon="26.5006425697"><ele>162.12</ele><time>2012-09-22T08:55:37Z</time></trkpt><trkpt lat="53.9624010958" lon="26.4997226559"><ele>161.64</ele><time>2012-09-22T08:55:51Z</time></trkpt><trkpt lat="53.9620237425" lon="26.4990152232"><ele>161.16</ele><time>2012-09-22T08:56:02Z</time></trkpt><trkpt lat="53.9618997741" lon="26.4987633470"><ele>161.16</ele><time>2012-09-22T08:56:06Z</time></trkpt><trkpt lat="53.9618676715" lon="26.4987064339"><ele>161.16</ele><time>2012-09-22T08:56:07Z</time></trkpt><trkpt lat="53.9617737103" lon="26.4985275641"><ele>161.16</ele><time>2012-09-22T08:56:10Z</time></trkpt><trkpt lat="53.9613655955" lon="26.4977736119"><ele>161.64</ele><time>2012-09-22T08:56:23Z</time></trkpt><trkpt lat="53.9609477576" lon="26.4969791751"><ele>162.12</ele><time>2012-09-22T08:56:36Z</time></trkpt><trkpt lat="53.9605847374" lon="26.4963159990"><ele>162.12</ele><time>2012-09-22T08:56:47Z</time></trkpt><trkpt lat="53.9602114074" lon="26.4956355561"><ele>161.64</ele><time>2012-09-22T08:56:59Z</time></trkpt><trkpt lat="53.9598868601" lon="26.4950297959"><ele>162.12</ele><time>2012-09-22T08:57:10Z</time></trkpt><trkpt lat="53.9594089240" lon="26.4941526297"><ele>162.12</ele><time>2012-09-22T08:57:26Z</time></trkpt><trkpt lat="53.9590196684" lon="26.4934512321"><ele>162.12</ele><time>2012-09-22T08:57:39Z</time></trkpt><trkpt lat="53.9587103762" lon="26.4928556979"><ele>163.56</ele><time>2012-09-22T08:57:51Z</time></trkpt><trkpt lat="53.9583382197" lon="26.4921631012"><ele>163.56</ele><time>2012-09-22T08:58:04Z</time></trkpt><trkpt lat="53.9581798017" lon="26.4918899350"><ele>163.56</ele><time>2012-09-22T08:58:09Z</time></trkpt><trkpt lat="53.9581485372" lon="26.4918333571"><ele>163.56</ele><time>2012-09-22T08:58:10Z</time></trkpt><trkpt lat="53.9581166860" lon="26.4917783719"><ele>163.56</ele><time>2012-09-22T08:58:11Z</time></trkpt><trkpt lat="53.9580889419" lon="26.4917229675"><ele>163.56</ele><time>2012-09-22T08:58:12Z</time></trkpt><trkpt lat="53.9580621198" lon="26.4916692395"><ele>163.56</ele><time>2012-09-22T08:58:13Z</time></trkpt><trkpt lat="53.9577578567" lon="26.4910730347"><ele>165.00</ele><time>2012-09-22T08:58:25Z</time></trkpt><trkpt lat="53.9574871212" lon="26.4905938413"><ele>166.45</ele><time>2012-09-22T08:58:35Z</time></trkpt><trkpt lat="53.9574560244" lon="26.4905375149"><ele>165.96</ele><time>2012-09-22T08:58:36Z</time></trkpt><trkpt lat="53.9570137113" lon="26.4897073712"><ele>164.04</ele><time>2012-09-22T08:58:48Z</time></trkpt><trkpt lat="53.9566547144" lon="26.4890244976"><ele>162.12</ele><time>2012-09-22T08:58:58Z</time></trkpt><trkpt lat="53.9562239684" lon="26.4882519376"><ele>161.64</ele><time>2012-09-22T08:59:10Z</time></trkpt><trkpt lat="53.9557824936" lon="26.4874626976"><ele>161.16</ele><time>2012-09-22T08:59:22Z</time></trkpt><trkpt lat="53.9553283621" lon="26.4866307937"><ele>160.68</ele><time>2012-09-22T08:59:35Z</time></trkpt><trkpt lat="53.9549279585" lon="26.4858832117"><ele>160.68</ele><time>2012-09-22T08:59:47Z</time></trkpt><trkpt lat="53.9545457438" lon="26.4850744419"><ele>160.20</ele><time>2012-09-22T09:00:00Z</time></trkpt><trkpt lat="53.9545211010" lon="26.4850100689"><ele>160.68</ele><time>2012-09-22T09:00:01Z</time></trkpt><trkpt lat="53.9545022417" lon="26.4849391580"><ele>160.20</ele><time>2012-09-22T09:00:02Z</time></trkpt><trkpt lat="53.9542874135" lon="26.4839798491"><ele>160.20</ele><time>2012-09-22T09:00:15Z</time></trkpt><trkpt lat="53.9540731721" lon="26.4830922894"><ele>159.72</ele><time>2012-09-22T09:00:27Z</time></trkpt><trkpt lat="53.9540176000" lon="26.4828591887"><ele>159.72</ele><time>2012-09-22T09:00:30Z</time></trkpt><trkpt lat="53.9538257383" lon="26.4820748940"><ele>160.20</ele><time>2012-09-22T09:00:41Z</time></trkpt><trkpt lat="53.9537888579" lon="26.4819365088"><ele>160.20</ele><time>2012-09-22T09:00:43Z</time></trkpt><trkpt lat="53.9537326992" lon="26.4817111194"><ele>160.20</ele><time>2012-09-22T09:00:46Z</time></trkpt><trkpt lat="53.9536802284" lon="26.4815518633"><ele>159.72</ele><time>2012-09-22T09:00:48Z</time></trkpt><trkpt lat="53.9535208046" lon="26.4808912016"><ele>158.75</ele><time>2012-09-22T09:00:57Z</time></trkpt><trkpt lat="53.9533191361" lon="26.4800418634"><ele>158.27</ele><time>2012-09-22T09:01:07Z</time></trkpt><trkpt lat="53.9531790745" lon="26.4793731552"><ele>157.79</ele><time>2012-09-22T09:01:15Z</time></trkpt><trkpt lat="53.9531608857" lon="26.4792944491"><ele>157.79</ele><time>2012-09-22T09:01:16Z</time></trkpt><trkpt lat="53.9529110212" lon="26.4782299474"><ele>157.79</ele><time>2012-09-22T09:01:29Z</time></trkpt><trkpt lat="53.9526950195" lon="26.4772445709"><ele>158.27</ele><time>2012-09-22T09:01:42Z</time></trkpt><trkpt lat="53.9524627570" lon="26.4762234036"><ele>157.79</ele><time>2012-09-22T09:01:55Z</time></trkpt><trkpt lat="53.9522845577" lon="26.4753887337"><ele>157.79</ele><time>2012-09-22T09:02:06Z</time></trkpt><trkpt lat="53.9520845655" lon="26.4745262358"><ele>158.27</ele><time>2012-09-22T09:02:18Z</time></trkpt><trkpt lat="53.9518840704" lon="26.4736384246"><ele>157.31</ele><time>2012-09-22T09:02:30Z</time></trkpt><trkpt lat="53.9516809769" lon="26.4727143198"><ele>157.31</ele><time>2012-09-22T09:02:43Z</time></trkpt><trkpt lat="53.9514977485" lon="26.4719470404"><ele>157.79</ele><time>2012-09-22T09:02:54Z</time></trkpt><trkpt lat="53.9512937330" lon="26.4711492509"><ele>157.79</ele><time>2012-09-22T09:03:06Z</time></trkpt><trkpt lat="53.9510579500" lon="26.4703833126"><ele>157.79</ele><time>2012-09-22T09:03:17Z</time></trkpt><trkpt lat="53.9507841133" lon="26.4695232455"><ele>156.83</ele><time>2012-09-22T09:03:29Z</time></trkpt><trkpt lat="53.9505145513" lon="26.4686892461"><ele>155.87</ele><time>2012-09-22T09:03:40Z</time></trkpt><trkpt lat="53.9501859806" lon="26.4676737785"><ele>155.87</ele><time>2012-09-22T09:03:53Z</time></trkpt><trkpt lat="53.9498917758" lon="26.4667440578"><ele>155.39</ele><time>2012-09-22T09:04:05Z</time></trkpt><trkpt lat="53.9495689049" lon="26.4656270854"><ele>154.91</ele><time>2012-09-22T09:04:19Z</time></trkpt><trkpt lat="53.9493221417" lon="26.4647861291"><ele>154.91</ele><time>2012-09-22T09:04:30Z</time></trkpt><trkpt lat="53.9490026236" lon="26.4637269080"><ele>154.91</ele><time>2012-09-22T09:04:44Z</time></trkpt><trkpt lat="53.9487340674" lon="26.4628528431"><ele>154.91</ele><time>2012-09-22T09:04:56Z</time></trkpt><trkpt lat="53.9484287146" lon="26.4619216137"><ele>154.91</ele><time>2012-09-22T09:05:09Z</time></trkpt><trkpt lat="53.9484037366" lon="26.4618505351"><ele>154.43</ele><time>2012-09-22T09:05:10Z</time></trkpt><trkpt lat="53.9483785070" lon="26.4617803786"><ele>154.43</ele><time>2012-09-22T09:05:11Z</time></trkpt><trkpt lat="53.9481518604" lon="26.4609559346"><ele>154.43</ele><time>2012-09-22T09:05:22Z</time></trkpt><trkpt lat="53.9481300674" lon="26.4608805813"><ele>154.43</ele><time>2012-09-22T09:05:23Z</time></trkpt><trkpt lat="53.9478490222" lon="26.4599724021"><ele>154.43</ele><time>2012-09-22T09:05:35Z</time></trkpt><trkpt lat="53.9475893509" lon="26.4590546675"><ele>154.43</ele><time>2012-09-22T09:05:47Z</time></trkpt><trkpt lat="53.9473184478" lon="26.4580874797"><ele>153.95</ele><time>2012-09-22T09:06:00Z</time></trkpt><trkpt lat="53.9470029529" lon="26.4569628797"><ele>154.43</ele><time>2012-09-22T09:06:15Z</time></trkpt><trkpt lat="53.9469814114" lon="26.4568909630"><ele>154.43</ele><time>2012-09-22T09:06:16Z</time></trkpt><trkpt lat="53.9467244223" lon="26.4560346678"><ele>153.47</ele><time>2012-09-22T09:06:28Z</time></trkpt><trkpt lat="53.9464584645" lon="26.4552113973"><ele>153.95</ele><time>2012-09-22T09:06:40Z</time></trkpt><trkpt lat="53.9461852144" lon="26.4543343149"><ele>153.95</ele><time>2012-09-22T09:06:53Z</time></trkpt><trkpt lat="53.9459478389" lon="26.4535248745"><ele>153.95</ele><time>2012-09-22T09:07:05Z</time></trkpt><trkpt lat="53.9456623513" lon="26.4525829162"><ele>153.95</ele><time>2012-09-22T09:07:19Z</time></trkpt><trkpt lat="53.9453725889" lon="26.4516072627"><ele>153.95</ele><time>2012-09-22T09:07:33Z</time></trkpt><trkpt lat="53.9451085590" lon="26.4506658074"><ele>153.95</ele><time>2012-09-22T09:07:47Z</time></trkpt><trkpt lat="53.9448610414" lon="26.4498179778"><ele>153.95</ele><time>2012-09-22T09:07:59Z</time></trkpt><trkpt lat="53.9447243325" lon="26.4493703004"><ele>154.43</ele><time>2012-09-22T09:08:06Z</time></trkpt><trkpt lat="53.9447026234" lon="26.4493053406"><ele>154.91</ele><time>2012-09-22T09:08:07Z</time></trkpt><trkpt lat="53.9446842670" lon="26.4492355194"><ele>154.43</ele><time>2012-09-22T09:08:08Z</time></trkpt><trkpt lat="53.9446488954" lon="26.4490897581"><ele>154.43</ele><time>2012-09-22T09:08:10Z</time></trkpt><trkpt lat="53.9446321316" lon="26.4490139857"><ele>154.43</ele><time>2012-09-22T09:08:11Z</time></trkpt><trkpt lat="53.9444516692" lon="26.4479454607"><ele>153.47</ele><time>2012-09-22T09:08:24Z</time></trkpt><trkpt lat="53.9443380944" lon="26.4468550589"><ele>152.99</ele><time>2012-09-22T09:08:37Z</time></trkpt><trkpt lat="53.9442559518" lon="26.4458954986"><ele>152.99</ele><time>2012-09-22T09:08:49Z</time></trkpt><trkpt lat="53.9441857953" lon="26.4450922608"><ele>152.99</ele><time>2012-09-22T09:08:59Z</time></trkpt><trkpt lat="53.9441774134" lon="26.4449335914"><ele>152.99</ele><time>2012-09-22T09:09:01Z</time></trkpt><trkpt lat="53.9441655111" lon="26.4447027538"><ele>152.51</ele><time>2012-09-22T09:09:04Z</time></trkpt><trkpt lat="53.9440775011" lon="26.4437458757"><ele>152.51</ele><time>2012-09-22T09:09:16Z</time></trkpt><trkpt lat="53.9440203365" lon="26.4429348428"><ele>152.51</ele><time>2012-09-22T09:09:26Z</time></trkpt><trkpt lat="53.9439411275" lon="26.4420935512"><ele>152.99</ele><time>2012-09-22T09:09:37Z</time></trkpt><trkpt lat="53.9438098669" lon="26.4410165604"><ele>152.99</ele><time>2012-09-22T09:09:51Z</time></trkpt><trkpt lat="53.9437499363" lon="26.4404879976"><ele>152.99</ele><time>2012-09-22T09:09:58Z</time></trkpt><trkpt lat="53.9436848089" lon="26.4402074553"><ele>152.99</ele><time>2012-09-22T09:10:02Z</time></trkpt><trkpt lat="53.9433429111" lon="26.4394723624"><ele>153.47</ele><time>2012-09-22T09:10:14Z</time></trkpt><trkpt lat="53.9429705869" lon="26.4386965334"><ele>152.99</ele><time>2012-09-22T09:10:27Z</time></trkpt><trkpt lat="53.9429420885" lon="26.4386348426"><ele>152.99</ele><time>2012-09-22T09:10:28Z</time></trkpt><trkpt lat="53.9426130988" lon="26.4379126579"><ele>152.51</ele><time>2012-09-22T09:10:40Z</time></trkpt><trkpt lat="53.9421625715" lon="26.4369571209"><ele>152.99</ele><time>2012-09-22T09:10:56Z</time></trkpt><trkpt lat="53.9420730527" lon="26.4367709588"><ele>152.99</ele><time>2012-09-22T09:10:59Z</time></trkpt><trkpt lat="53.9417636767" lon="26.4360680524"><ele>152.51</ele><time>2012-09-22T09:11:10Z</time></trkpt><trkpt lat="53.9417365193" lon="26.4360036794"><ele>152.51</ele><time>2012-09-22T09:11:11Z</time></trkpt><trkpt lat="53.9416475035" lon="26.4358184393"><ele>152.51</ele><time>2012-09-22T09:11:14Z</time></trkpt><trkpt lat="53.9416200109" lon="26.4357566647"><ele>152.51</ele><time>2012-09-22T09:11:15Z</time></trkpt><trkpt lat="53.9413034264" lon="26.4350718632"><ele>152.51</ele><time>2012-09-22T09:11:26Z</time></trkpt><trkpt lat="53.9412129857" lon="26.4348922390"><ele>152.51</ele><time>2012-09-22T09:11:29Z</time></trkpt><trkpt lat="53.9411836490" lon="26.4348313026"><ele>152.51</ele><time>2012-09-22T09:11:30Z</time></trkpt><trkpt lat="53.9411538094" lon="26.4347733837"><ele>152.51</ele><time>2012-09-22T09:11:31Z</time></trkpt><trkpt lat="53.9407907892" lon="26.4340710640"><ele>152.51</ele><time>2012-09-22T09:11:43Z</time></trkpt><trkpt lat="53.9404695109" lon="26.4334196225"><ele>152.03</ele><time>2012-09-22T09:11:54Z</time></trkpt><trkpt lat="53.9402266871" lon="26.4329068176"><ele>151.54</ele><time>2012-09-22T09:12:03Z</time></trkpt><trkpt lat="53.9398346655" lon="26.4322340861"><ele>151.54</ele><time>2012-09-22T09:12:15Z</time></trkpt><trkpt lat="53.9393967949" lon="26.4317018352"><ele>151.06</ele><time>2012-09-22T09:12:26Z</time></trkpt><trkpt lat="53.9389280789" lon="26.4311948977"><ele>150.58</ele><time>2012-09-22T09:12:38Z</time></trkpt><trkpt lat="53.9385344647" lon="26.4307283610"><ele>150.58</ele><time>2012-09-22T09:12:49Z</time></trkpt><trkpt lat="53.9381363243" lon="26.4302774984"><ele>151.06</ele><time>2012-09-22T09:13:00Z</time></trkpt><trkpt lat="53.9377458952" lon="26.4297954552"><ele>151.06</ele><time>2012-09-22T09:13:11Z</time></trkpt><trkpt lat="53.9375469927" lon="26.4294407330"><ele>151.06</ele><time>2012-09-22T09:13:17Z</time></trkpt><trkpt lat="53.9375155605" lon="26.4293835685"><ele>151.06</ele><time>2012-09-22T09:13:18Z</time></trkpt><trkpt lat="53.9371831343" lon="26.4286817517"><ele>150.58</ele><time>2012-09-22T09:13:30Z</time></trkpt><trkpt lat="53.9371320885" lon="26.4285724517"><ele>150.58</ele><time>2012-09-22T09:13:32Z</time></trkpt><trkpt lat="53.9371056017" lon="26.4285143651"><ele>150.58</ele><time>2012-09-22T09:13:33Z</time></trkpt><trkpt lat="53.9368352015" lon="26.4279308170"><ele>150.10</ele><time>2012-09-22T09:13:44Z</time></trkpt><trkpt lat="53.9367294218" lon="26.4277336746"><ele>150.10</ele><time>2012-09-22T09:13:48Z</time></trkpt><trkpt lat="53.9367018454" lon="26.4276717324"><ele>150.10</ele><time>2012-09-22T09:13:49Z</time></trkpt><trkpt lat="53.9363382384" lon="26.4268310275"><ele>150.10</ele><time>2012-09-22T09:14:02Z</time></trkpt><trkpt lat="53.9361646492" lon="26.4264716953"><ele>150.10</ele><time>2012-09-22T09:14:08Z</time></trkpt><trkpt lat="53.9361337200" lon="26.4264119323"><ele>150.10</ele><time>2012-09-22T09:14:09Z</time></trkpt><trkpt lat="53.9361067303" lon="26.4263479784"><ele>150.10</ele><time>2012-09-22T09:14:10Z</time></trkpt><trkpt lat="53.9358679298" lon="26.4257628378"><ele>149.62</ele><time>2012-09-22T09:14:20Z</time></trkpt><trkpt lat="53.9356386848" lon="26.4252538048"><ele>150.10</ele><time>2012-09-22T09:14:29Z</time></trkpt><trkpt lat="53.9352963679" lon="26.4245277643"><ele>150.10</ele><time>2012-09-22T09:14:42Z</time></trkpt><trkpt lat="53.9351446554" lon="26.4241858665"><ele>149.62</ele><time>2012-09-22T09:14:48Z</time></trkpt><trkpt lat="53.9348578267" lon="26.4235403761"><ele>149.62</ele><time>2012-09-22T09:14:59Z</time></trkpt><trkpt lat="53.9346043579" lon="26.4229466021"><ele>149.62</ele><time>2012-09-22T09:15:10Z</time></trkpt><trkpt lat="53.9343539905" lon="26.4222524129"><ele>149.62</ele><time>2012-09-22T09:15:22Z</time></trkpt><trkpt lat="53.9341149386" lon="26.4215281326"><ele>149.62</ele><time>2012-09-22T09:15:34Z</time></trkpt><trkpt lat="53.9339888748" lon="26.4211196825"><ele>149.62</ele><time>2012-09-22T09:15:42Z</time></trkpt><trkpt lat="53.9337621443" lon="26.4207632840"><ele>149.62</ele><time>2012-09-22T09:15:50Z</time></trkpt><trkpt lat="53.9334453084" lon="26.4206910320"><ele>149.62</ele><time>2012-09-22T09:15:58Z</time></trkpt><trkpt lat="53.9331158996" lon="26.4208759367"><ele>149.62</ele><time>2012-09-22T09:16:07Z</time></trkpt><trkpt lat="53.9325155877" lon="26.4213310741"><ele>148.66</ele><time>2012-09-22T09:16:21Z</time></trkpt><trkpt lat="53.9321612008" lon="26.4215929247"><ele>148.66</ele><time>2012-09-22T09:16:30Z</time></trkpt><trkpt lat="53.9317558520" lon="26.4219087549"><ele>149.14</ele><time>2012-09-22T09:16:40Z</time></trkpt><trkpt lat="53.9314392675" lon="26.4221434481"><ele>149.14</ele><time>2012-09-22T09:16:48Z</time></trkpt><trkpt lat="53.9313209150" lon="26.4222491439"><ele>149.14</ele><time>2012-09-22T09:16:51Z</time></trkpt><trkpt lat="53.9312780835" lon="26.4222727809"><ele>149.14</ele><time>2012-09-22T09:16:52Z</time></trkpt><trkpt lat="53.9312370121" lon="26.4222980943"><ele>149.14</ele><time>2012-09-22T09:16:53Z</time></trkpt><trkpt lat="53.9311972819" lon="26.4223293588"><ele>149.14</ele><time>2012-09-22T09:16:54Z</time></trkpt><trkpt lat="53.9311566297" lon="26.4223625511"><ele>149.14</ele><time>2012-09-22T09:16:55Z</time></trkpt><trkpt lat="53.9307217766" lon="26.4226696640"><ele>149.62</ele><time>2012-09-22T09:17:06Z</time></trkpt><trkpt lat="53.9302629512" lon="26.4230357017"><ele>149.14</ele><time>2012-09-22T09:17:18Z</time></trkpt><trkpt lat="53.9298539143" lon="26.4233539626"><ele>149.62</ele><time>2012-09-22T09:17:29Z</time></trkpt><trkpt lat="53.9294603001" lon="26.4236631710"><ele>149.14</ele><time>2012-09-22T09:17:39Z</time></trkpt><trkpt lat="53.9290746488" lon="26.4239786658"><ele>149.62</ele><time>2012-09-22T09:17:50Z</time></trkpt><trkpt lat="53.9288112056" lon="26.4241903089"><ele>150.10</ele><time>2012-09-22T09:17:58Z</time></trkpt><trkpt lat="53.9287340082" lon="26.4242495690"><ele>150.10</ele><time>2012-09-22T09:18:00Z</time></trkpt><trkpt lat="53.9286941104" lon="26.4242756367"><ele>150.10</ele><time>2012-09-22T09:18:01Z</time></trkpt><trkpt lat="53.9282429963" lon="26.4246748667"><ele>150.58</ele><time>2012-09-22T09:18:14Z</time></trkpt><trkpt lat="53.9278091490" lon="26.4250429161"><ele>151.06</ele><time>2012-09-22T09:18:26Z</time></trkpt><trkpt lat="53.9272320550" lon="26.4255004004"><ele>150.10</ele><time>2012-09-22T09:18:40Z</time></trkpt><trkpt lat="53.9271471463" lon="26.4255729038"><ele>150.10</ele><time>2012-09-22T09:18:42Z</time></trkpt><trkpt lat="53.9271029737" lon="26.4256070182"><ele>150.10</ele><time>2012-09-22T09:18:43Z</time></trkpt><trkpt lat="53.9265034162" lon="26.4260959346"><ele>151.54</ele><time>2012-09-22T09:18:58Z</time></trkpt><trkpt lat="53.9260652103" lon="26.4263888821"><ele>150.58</ele><time>2012-09-22T09:19:08Z</time></trkpt><trkpt lat="53.9258898608" lon="26.4264238346"><ele>150.10</ele><time>2012-09-22T09:19:12Z</time></trkpt><trkpt lat="53.9257560018" lon="26.4264157880"><ele>150.10</ele><time>2012-09-22T09:19:15Z</time></trkpt><trkpt lat="53.9251853619" lon="26.4262924064"><ele>149.62</ele><time>2012-09-22T09:19:28Z</time></trkpt><trkpt lat="53.9247150533" lon="26.4262007922"><ele>150.10</ele><time>2012-09-22T09:19:39Z</time></trkpt><trkpt lat="53.9242853969" lon="26.4261122793"><ele>150.10</ele><time>2012-09-22T09:19:49Z</time></trkpt><trkpt lat="53.9238239732" lon="26.4259965252"><ele>150.10</ele><time>2012-09-22T09:20:00Z</time></trkpt><trkpt lat="53.9235943928" lon="26.4259924181"><ele>150.10</ele><time>2012-09-22T09:20:06Z</time></trkpt><trkpt lat="53.9234609529" lon="26.4259694517"><ele>149.62</ele><time>2012-09-22T09:20:09Z</time></trkpt><trkpt lat="53.9231167920" lon="26.4258946013"><ele>149.62</ele><time>2012-09-22T09:20:18Z</time></trkpt><trkpt lat="53.9227613155" lon="26.4258517697"><ele>150.10</ele><time>2012-09-22T09:20:28Z</time></trkpt><trkpt lat="53.9223969541" lon="26.4258028194"><ele>150.10</ele><time>2012-09-22T09:20:38Z</time></trkpt><trkpt lat="53.9219955448" lon="26.4257284719"><ele>150.10</ele><time>2012-09-22T09:20:49Z</time></trkpt><trkpt lat="53.9215784613" lon="26.4256554656"><ele>150.58</ele><time>2012-09-22T09:21:00Z</time></trkpt><trkpt lat="53.9214534871" lon="26.4256286435"><ele>150.58</ele><time>2012-09-22T09:21:03Z</time></trkpt><trkpt lat="53.9214114938" lon="26.4256204292"><ele>150.58</ele><time>2012-09-22T09:21:04Z</time></trkpt><trkpt lat="53.9212824963" lon="26.4255956188"><ele>150.58</ele><time>2012-09-22T09:21:07Z</time></trkpt><trkpt lat="53.9212398324" lon="26.4255984686"><ele>150.58</ele><time>2012-09-22T09:21:08Z</time></trkpt><trkpt lat="53.9207741339" lon="26.4255392086"><ele>150.58</ele><time>2012-09-22T09:21:19Z</time></trkpt><trkpt lat="53.9203225169" lon="26.4254715666"><ele>150.58</ele><time>2012-09-22T09:21:30Z</time></trkpt><trkpt lat="53.9199334290" lon="26.4254056010"><ele>151.06</ele><time>2012-09-22T09:21:40Z</time></trkpt><trkpt lat="53.9196045231" lon="26.4253617637"><ele>151.06</ele><time>2012-09-22T09:21:49Z</time></trkpt><trkpt lat="53.9195269905" lon="26.4253557287"><ele>150.58</ele><time>2012-09-22T09:21:51Z</time></trkpt><trkpt lat="53.9194880147" lon="26.4253522921"><ele>150.58</ele><time>2012-09-22T09:21:52Z</time></trkpt><trkpt lat="53.9194502123" lon="26.4253460895"><ele>150.58</ele><time>2012-09-22T09:21:53Z</time></trkpt><trkpt lat="53.9194115717" lon="26.4253398869"><ele>151.06</ele><time>2012-09-22T09:21:54Z</time></trkpt><trkpt lat="53.9193705004" lon="26.4253377914"><ele>151.06</ele><time>2012-09-22T09:21:55Z</time></trkpt><trkpt lat="53.9190443605" lon="26.4252798725"><ele>150.58</ele><time>2012-09-22T09:22:04Z</time></trkpt><trkpt lat="53.9188306220" lon="26.4252674673"><ele>151.06</ele><time>2012-09-22T09:22:12Z</time></trkpt><trkpt lat="53.9187642373" lon="26.4252628572"><ele>151.54</ele><time>2012-09-22T09:22:23Z</time></trkpt><trkpt lat="53.9187183883" lon="26.4252642822"><ele>151.54</ele><time>2012-09-22T09:22:42Z</time></trkpt><trkpt lat="53.9187236689" lon="26.4252763521"><ele>151.54</ele><time>2012-09-22T09:22:59Z</time></trkpt><trkpt lat="53.9187274408" lon="26.4252678026"><ele>152.03</ele><time>2012-09-22T09:23:19Z</time></trkpt><trkpt lat="53.9187353197" lon="26.4252251387"><ele>152.03</ele><time>2012-09-22T09:23:32Z</time></trkpt><trkpt lat="53.9187400136" lon="26.4251906890"><ele>152.03</ele><time>2012-09-22T09:23:36Z</time></trkpt><trkpt lat="53.9187425282" lon="26.4251678064"><ele>152.03</ele><time>2012-09-22T09:23:37Z</time></trkpt><trkpt lat="53.9187450428" lon="26.4251422416"><ele>152.03</ele><time>2012-09-22T09:23:38Z</time></trkpt><trkpt lat="53.9187475573" lon="26.4251151681"><ele>152.03</ele><time>2012-09-22T09:23:39Z</time></trkpt><trkpt lat="53.9187498204" lon="26.4250773657"><ele>152.03</ele><time>2012-09-22T09:23:40Z</time></trkpt><trkpt lat="53.9187525865" lon="26.4250316843"><ele>152.03</ele><time>2012-09-22T09:23:41Z</time></trkpt><trkpt lat="53.9187585376" lon="26.4249858353"><ele>152.03</ele><time>2012-09-22T09:23:42Z</time></trkpt><trkpt lat="53.9187665842" lon="26.4249425009"><ele>152.03</ele><time>2012-09-22T09:23:43Z</time></trkpt><trkpt lat="53.9187744632" lon="26.4248975739"><ele>152.03</ele><time>2012-09-22T09:23:44Z</time></trkpt><trkpt lat="53.9187792409" lon="26.4243964199"><ele>152.03</ele><time>2012-09-22T09:23:53Z</time></trkpt><trkpt lat="53.9188171271" lon="26.4239168912"><ele>152.03</ele><time>2012-09-22T09:24:03Z</time></trkpt><trkpt lat="53.9188456256" lon="26.4235708024"><ele>152.03</ele><time>2012-09-22T09:24:12Z</time></trkpt><trkpt lat="53.9188745432" lon="26.4232263062"><ele>152.51</ele><time>2012-09-22T09:24:20Z</time></trkpt><trkpt lat="53.9188871998" lon="26.4227245655"><ele>152.03</ele><time>2012-09-22T09:24:30Z</time></trkpt><trkpt lat="53.9188926481" lon="26.4222323801"><ele>152.03</ele><time>2012-09-22T09:24:39Z</time></trkpt><trkpt lat="53.9188864455" lon="26.4221809991"><ele>152.03</ele><time>2012-09-22T09:24:40Z</time></trkpt><trkpt lat="53.9188757166" lon="26.4221300371"><ele>152.03</ele><time>2012-09-22T09:24:41Z</time></trkpt><trkpt lat="53.9188736212" lon="26.4220737945"><ele>152.03</ele><time>2012-09-22T09:24:42Z</time></trkpt><trkpt lat="53.9188799914" lon="26.4220108464"><ele>152.03</ele><time>2012-09-22T09:24:43Z</time></trkpt><trkpt lat="53.9188884571" lon="26.4219489880"><ele>152.03</ele><time>2012-09-22T09:24:44Z</time></trkpt><trkpt lat="53.9189120103" lon="26.4214342553"><ele>152.51</ele><time>2012-09-22T09:24:53Z</time></trkpt><trkpt lat="53.9189051371" lon="26.4210154954"><ele>152.99</ele><time>2012-09-22T09:25:01Z</time></trkpt><trkpt lat="53.9188941568" lon="26.4205259923"><ele>152.99</ele><time>2012-09-22T09:25:09Z</time></trkpt><trkpt lat="53.9188447874" lon="26.4198687673"><ele>152.99</ele><time>2012-09-22T09:25:20Z</time></trkpt><trkpt lat="53.9188269340" lon="26.4192233607"><ele>152.99</ele><time>2012-09-22T09:25:29Z</time></trkpt><trkpt lat="53.9187932387" lon="26.4186727535"><ele>153.47</ele><time>2012-09-22T09:25:37Z</time></trkpt><trkpt lat="53.9187712781" lon="26.4179140236"><ele>153.47</ele><time>2012-09-22T09:25:47Z</time></trkpt><trkpt lat="53.9187370799" lon="26.4170297328"><ele>153.47</ele><time>2012-09-22T09:25:59Z</time></trkpt><trkpt lat="53.9187138621" lon="26.4163867570"><ele>153.47</ele><time>2012-09-22T09:26:08Z</time></trkpt><trkpt lat="53.9186448790" lon="26.4157762192"><ele>152.99</ele><time>2012-09-22T09:26:17Z</time></trkpt><trkpt lat="53.9186031371" lon="26.4151478279"><ele>153.47</ele><time>2012-09-22T09:26:26Z</time></trkpt><trkpt lat="53.9185377583" lon="26.4142777864"><ele>153.47</ele><time>2012-09-22T09:26:38Z</time></trkpt><trkpt lat="53.9184566215" lon="26.4137250837"><ele>153.47</ele><time>2012-09-22T09:26:47Z</time></trkpt><trkpt lat="53.9184358343" lon="26.4130764920"><ele>153.47</ele><time>2012-09-22T09:26:56Z</time></trkpt><trkpt lat="53.9184081741" lon="26.4124498609"><ele>152.99</ele><time>2012-09-22T09:27:05Z</time></trkpt><trkpt lat="53.9183958527" lon="26.4119383972"><ele>152.99</ele><time>2012-09-22T09:27:12Z</time></trkpt><trkpt lat="53.9184427913" lon="26.4110013004"><ele>152.99</ele><time>2012-09-22T09:27:23Z</time></trkpt><trkpt lat="53.9184455574" lon="26.4109229296"><ele>152.99</ele><time>2012-09-22T09:27:24Z</time></trkpt><trkpt lat="53.9184506703" lon="26.4108426310"><ele>152.99</ele><time>2012-09-22T09:27:25Z</time></trkpt><trkpt lat="53.9184551965" lon="26.4107645117"><ele>152.99</ele><time>2012-09-22T09:27:26Z</time></trkpt><trkpt lat="53.9184546098" lon="26.4106881525"><ele>152.99</ele><time>2012-09-22T09:27:27Z</time></trkpt><trkpt lat="53.9184512571" lon="26.4106144756"><ele>152.99</ele><time>2012-09-22T09:27:28Z</time></trkpt><trkpt lat="53.9185052365" lon="26.4097483736"><ele>153.47</ele><time>2012-09-22T09:27:39Z</time></trkpt><trkpt lat="53.9185752254" lon="26.4088484924"><ele>153.95</ele><time>2012-09-22T09:27:51Z</time></trkpt><trkpt lat="53.9185867924" lon="26.4079032652"><ele>153.95</ele><time>2012-09-22T09:28:04Z</time></trkpt><trkpt lat="53.9185773209" lon="26.4071685914"><ele>153.47</ele><time>2012-09-22T09:28:14Z</time></trkpt><trkpt lat="53.9186043944" lon="26.4063412137"><ele>153.47</ele><time>2012-09-22T09:28:25Z</time></trkpt><trkpt lat="53.9186013769" lon="26.4061349351"><ele>152.99</ele><time>2012-09-22T09:28:28Z</time></trkpt><trkpt lat="53.9185986109" lon="26.4060652815"><ele>152.99</ele><time>2012-09-22T09:28:29Z</time></trkpt><trkpt lat="53.9185948391" lon="26.4059958793"><ele>152.99</ele><time>2012-09-22T09:28:30Z</time></trkpt><trkpt lat="53.9185956772" lon="26.4059224539"><ele>152.99</ele><time>2012-09-22T09:28:31Z</time></trkpt><trkpt lat="53.9185989462" lon="26.4058455918"><ele>152.99</ele><time>2012-09-22T09:28:32Z</time></trkpt><trkpt lat="53.9185929950" lon="26.4051816612"><ele>152.99</ele><time>2012-09-22T09:28:41Z</time></trkpt><trkpt lat="53.9185977727" lon="26.4044521842"><ele>152.99</ele><time>2012-09-22T09:28:51Z</time></trkpt><trkpt lat="53.9186031371" lon="26.4036499523"><ele>152.99</ele><time>2012-09-22T09:29:03Z</time></trkpt><trkpt lat="53.9185945876" lon="26.4029348921"><ele>152.99</ele><time>2012-09-22T09:29:14Z</time></trkpt><trkpt lat="53.9185869601" lon="26.4022199996"><ele>153.47</ele><time>2012-09-22T09:29:25Z</time></trkpt><trkpt lat="53.9185720403" lon="26.4015602600"><ele>153.95</ele><time>2012-09-22T09:29:35Z</time></trkpt><trkpt lat="53.9185598865" lon="26.4008114208"><ele>153.95</ele><time>2012-09-22T09:29:46Z</time></trkpt><trkpt lat="53.9185633231" lon="26.4000609051"><ele>153.95</ele><time>2012-09-22T09:29:56Z</time></trkpt><trkpt lat="53.9185769018" lon="26.3996684644"><ele>153.95</ele><time>2012-09-22T09:30:01Z</time></trkpt><trkpt lat="53.9185800869" lon="26.3995884173"><ele>153.47</ele><time>2012-09-22T09:30:02Z</time></trkpt><trkpt lat="53.9185827691" lon="26.3995076995"><ele>153.47</ele><time>2012-09-22T09:30:03Z</time></trkpt><trkpt lat="53.9185813442" lon="26.3994269818"><ele>153.47</ele><time>2012-09-22T09:30:04Z</time></trkpt><trkpt lat="53.9185765665" lon="26.3993450068"><ele>153.47</ele><time>2012-09-22T09:30:05Z</time></trkpt><trkpt lat="53.9185722079" lon="26.3992623612"><ele>153.47</ele><time>2012-09-22T09:30:06Z</time></trkpt><trkpt lat="53.9185706154" lon="26.3991797157"><ele>153.47</ele><time>2012-09-22T09:30:07Z</time></trkpt><trkpt lat="53.9185568690" lon="26.3988641370"><ele>152.99</ele><time>2012-09-22T09:30:11Z</time></trkpt><trkpt lat="53.9185525104" lon="26.3981587160"><ele>152.99</ele><time>2012-09-22T09:30:20Z</time></trkpt><trkpt lat="53.9185530134" lon="26.3980890624"><ele>152.99</ele><time>2012-09-22T09:30:21Z</time></trkpt><trkpt lat="53.9185533486" lon="26.3980189059"><ele>152.99</ele><time>2012-09-22T09:30:22Z</time></trkpt><trkpt lat="53.9185586292" lon="26.3979498390"><ele>152.99</ele><time>2012-09-22T09:30:23Z</time></trkpt><trkpt lat="53.9185650833" lon="26.3978905790"><ele>153.47</ele><time>2012-09-22T09:30:24Z</time></trkpt><trkpt lat="53.9185717050" lon="26.3976087794"><ele>152.99</ele><time>2012-09-22T09:30:28Z</time></trkpt><trkpt lat="53.9185806736" lon="26.3969602715"><ele>153.47</ele><time>2012-09-22T09:30:37Z</time></trkpt><trkpt lat="53.9185810089" lon="26.3968139235"><ele>152.99</ele><time>2012-09-22T09:30:39Z</time></trkpt><trkpt lat="53.9185685199" lon="26.3961075805"><ele>152.51</ele><time>2012-09-22T09:30:49Z</time></trkpt><trkpt lat="53.9185663406" lon="26.3960320596"><ele>152.51</ele><time>2012-09-22T09:30:50Z</time></trkpt><trkpt lat="53.9185652509" lon="26.3959572092"><ele>152.51</ele><time>2012-09-22T09:30:51Z</time></trkpt><trkpt lat="53.9185654186" lon="26.3956466597"><ele>152.51</ele><time>2012-09-22T09:30:55Z</time></trkpt><trkpt lat="53.9185703639" lon="26.3954925165"><ele>152.51</ele><time>2012-09-22T09:30:57Z</time></trkpt><trkpt lat="53.9185783267" lon="26.3948360458"><ele>152.51</ele><time>2012-09-22T09:31:05Z</time></trkpt><trkpt lat="53.9185690228" lon="26.3947570045"><ele>152.51</ele><time>2012-09-22T09:31:06Z</time></trkpt><trkpt lat="53.9185585454" lon="26.3946109079"><ele>152.51</ele><time>2012-09-22T09:31:08Z</time></trkpt><trkpt lat="53.9185634069" lon="26.3940722868"><ele>152.03</ele><time>2012-09-22T09:31:15Z</time></trkpt><trkpt lat="53.9185745548" lon="26.3939258549"><ele>152.03</ele><time>2012-09-22T09:31:17Z</time></trkpt><trkpt lat="53.9185921568" lon="26.3931227848"><ele>152.03</ele><time>2012-09-22T09:31:28Z</time></trkpt><trkpt lat="53.9185981080" lon="26.3923048787"><ele>152.03</ele><time>2012-09-22T09:31:39Z</time></trkpt><trkpt lat="53.9185904805" lon="26.3922315370"><ele>151.54</ele><time>2012-09-22T09:31:40Z</time></trkpt><trkpt lat="53.9185884688" lon="26.3921559323"><ele>151.54</ele><time>2012-09-22T09:31:41Z</time></trkpt><trkpt lat="53.9185879659" lon="26.3920766395"><ele>152.03</ele><time>2012-09-22T09:31:42Z</time></trkpt><trkpt lat="53.9185857028" lon="26.3920003641"><ele>152.03</ele><time>2012-09-22T09:31:43Z</time></trkpt><trkpt lat="53.9185405243" lon="26.3915557042"><ele>151.54</ele><time>2012-09-22T09:31:49Z</time></trkpt><trkpt lat="53.9184279554" lon="26.3907913584"><ele>151.54</ele><time>2012-09-22T09:31:59Z</time></trkpt><trkpt lat="53.9183515962" lon="26.3902622927"><ele>151.54</ele><time>2012-09-22T09:32:07Z</time></trkpt><trkpt lat="53.9182307292" lon="26.3895130344"><ele>151.54</ele><time>2012-09-22T09:32:18Z</time></trkpt><trkpt lat="53.9181210101" lon="26.3888474274"><ele>152.51</ele><time>2012-09-22T09:32:28Z</time></trkpt><trkpt lat="53.9180521946" lon="26.3883394841"><ele>153.47</ele><time>2012-09-22T09:32:38Z</time></trkpt><trkpt lat="53.9179666992" lon="26.3876765594"><ele>154.43</ele><time>2012-09-22T09:32:50Z</time></trkpt><trkpt lat="53.9178719837" lon="26.3870822825"><ele>154.91</ele><time>2012-09-22T09:33:00Z</time></trkpt><trkpt lat="53.9177564811" lon="26.3863504585"><ele>153.95</ele><time>2012-09-22T09:33:10Z</time></trkpt><trkpt lat="53.9176935330" lon="26.3859459478"><ele>152.99</ele><time>2012-09-22T09:33:15Z</time></trkpt><trkpt lat="53.9176784456" lon="26.3858702593"><ele>152.99</ele><time>2012-09-22T09:33:16Z</time></trkpt><trkpt lat="53.9175957162" lon="26.3852574583"><ele>152.03</ele><time>2012-09-22T09:33:24Z</time></trkpt><trkpt lat="53.9175810479" lon="26.3851831108"><ele>151.54</ele><time>2012-09-22T09:33:25Z</time></trkpt><trkpt lat="53.9175253920" lon="26.3849033229"><ele>151.54</ele><time>2012-09-22T09:33:29Z</time></trkpt><trkpt lat="53.9174825605" lon="26.3846733235"><ele>151.54</ele><time>2012-09-22T09:33:32Z</time></trkpt><trkpt lat="53.9174671378" lon="26.3846047595"><ele>151.54</ele><time>2012-09-22T09:33:33Z</time></trkpt><trkpt lat="53.9174414892" lon="26.3844573218"><ele>151.06</ele><time>2012-09-22T09:33:35Z</time></trkpt><trkpt lat="53.9173932932" lon="26.3840794656"><ele>151.06</ele><time>2012-09-22T09:33:40Z</time></trkpt><trkpt lat="53.9173799660" lon="26.3840129133"><ele>151.06</ele><time>2012-09-22T09:33:41Z</time></trkpt><trkpt lat="53.9173455164" lon="26.3838222250"><ele>151.06</ele><time>2012-09-22T09:33:44Z</time></trkpt><trkpt lat="53.9172657207" lon="26.3831943367"><ele>151.06</ele><time>2012-09-22T09:33:53Z</time></trkpt><trkpt lat="53.9172031078" lon="26.3829155546"><ele>151.06</ele><time>2012-09-22T09:33:57Z</time></trkpt><trkpt lat="53.9171845000" lon="26.3828466553"><ele>150.58</ele><time>2012-09-22T09:33:58Z</time></trkpt><trkpt lat="53.9171658922" lon="26.3827807736"><ele>150.58</ele><time>2012-09-22T09:33:59Z</time></trkpt><trkpt lat="53.9171539899" lon="26.3827049173"><ele>150.58</ele><time>2012-09-22T09:34:00Z</time></trkpt><trkpt lat="53.9171440993" lon="26.3826252893"><ele>150.58</ele><time>2012-09-22T09:34:01Z</time></trkpt><trkpt lat="53.9171026926" lon="26.3822910190"><ele>150.58</ele><time>2012-09-22T09:34:05Z</time></trkpt><trkpt lat="53.9170950651" lon="26.3822155818"><ele>150.58</ele><time>2012-09-22T09:34:06Z</time></trkpt><trkpt lat="53.9170859288" lon="26.3821450900"><ele>150.58</ele><time>2012-09-22T09:34:07Z</time></trkpt><trkpt lat="53.9170785528" lon="26.3820785377"><ele>150.58</ele><time>2012-09-22T09:34:08Z</time></trkpt><trkpt lat="53.9170752000" lon="26.3820156734"><ele>150.58</ele><time>2012-09-22T09:34:09Z</time></trkpt><trkpt lat="53.9169802330" lon="26.3812209852"><ele>151.06</ele><time>2012-09-22T09:34:20Z</time></trkpt><trkpt lat="53.9169249125" lon="26.3808285445"><ele>151.06</ele><time>2012-09-22T09:34:25Z</time></trkpt><trkpt lat="53.9169157762" lon="26.3807546161"><ele>151.06</ele><time>2012-09-22T09:34:26Z</time></trkpt><trkpt lat="53.9169030357" lon="26.3806767482"><ele>151.06</ele><time>2012-09-22T09:34:27Z</time></trkpt><trkpt lat="53.9168903790" lon="26.3805972040"><ele>150.58</ele><time>2012-09-22T09:34:28Z</time></trkpt><trkpt lat="53.9168814104" lon="26.3805110380"><ele>150.58</ele><time>2012-09-22T09:34:29Z</time></trkpt><trkpt lat="53.9168305323" lon="26.3801781926"><ele>150.58</ele><time>2012-09-22T09:34:33Z</time></trkpt><trkpt lat="53.9167501498" lon="26.3795079757"><ele>150.58</ele><time>2012-09-22T09:34:42Z</time></trkpt><trkpt lat="53.9166611340" lon="26.3788820151"><ele>151.06</ele><time>2012-09-22T09:34:50Z</time></trkpt><trkpt lat="53.9166236669" lon="26.3787294645"><ele>151.06</ele><time>2012-09-22T09:34:52Z</time></trkpt><trkpt lat="53.9165768120" lon="26.3784912508"><ele>151.06</ele><time>2012-09-22T09:34:55Z</time></trkpt><trkpt lat="53.9165597130" lon="26.3784134667"><ele>151.06</ele><time>2012-09-22T09:34:56Z</time></trkpt><trkpt lat="53.9165466372" lon="26.3783316594"><ele>151.06</ele><time>2012-09-22T09:34:57Z</time></trkpt><trkpt lat="53.9164556935" lon="26.3774854224"><ele>151.54</ele><time>2012-09-22T09:35:08Z</time></trkpt><trkpt lat="53.9163887221" lon="26.3765603118"><ele>151.06</ele><time>2012-09-22T09:35:20Z</time></trkpt><trkpt lat="53.9163468964" lon="26.3757559005"><ele>151.06</ele><time>2012-09-22T09:35:30Z</time></trkpt><trkpt lat="53.9163411129" lon="26.3756732550"><ele>150.58</ele><time>2012-09-22T09:35:31Z</time></trkpt><trkpt lat="53.9163064118" lon="26.3753559999"><ele>150.58</ele><time>2012-09-22T09:35:35Z</time></trkpt><trkpt lat="53.9162993710" lon="26.3751942292"><ele>150.58</ele><time>2012-09-22T09:35:37Z</time></trkpt><trkpt lat="53.9162244368" lon="26.3743444718"><ele>151.06</ele><time>2012-09-22T09:35:48Z</time></trkpt><trkpt lat="53.9162185695" lon="26.3742706273"><ele>150.58</ele><time>2012-09-22T09:35:49Z</time></trkpt><trkpt lat="53.9161595609" lon="26.3733335305"><ele>150.58</ele><time>2012-09-22T09:36:02Z</time></trkpt><trkpt lat="53.9161041565" lon="26.3728639763"><ele>150.58</ele><time>2012-09-22T09:36:08Z</time></trkpt><trkpt lat="53.9160609897" lon="26.3725646585"><ele>150.58</ele><time>2012-09-22T09:36:12Z</time></trkpt><trkpt lat="53.9160536975" lon="26.3724877965"><ele>150.58</ele><time>2012-09-22T09:36:13Z</time></trkpt><trkpt lat="53.9160464890" lon="26.3724121079"><ele>150.58</ele><time>2012-09-22T09:36:14Z</time></trkpt><trkpt lat="53.9159752429" lon="26.3716190960"><ele>150.58</ele><time>2012-09-22T09:36:25Z</time></trkpt><trkpt lat="53.9159397874" lon="26.3713066187"><ele>150.58</ele><time>2012-09-22T09:36:29Z</time></trkpt><trkpt lat="53.9159244485" lon="26.3710750267"><ele>150.58</ele><time>2012-09-22T09:36:32Z</time></trkpt><trkpt lat="53.9159112889" lon="26.3706957456"><ele>150.58</ele><time>2012-09-22T09:36:37Z</time></trkpt><trkpt lat="53.9159050863" lon="26.3706193864"><ele>150.58</ele><time>2012-09-22T09:36:38Z</time></trkpt><trkpt lat="53.9158439822" lon="26.3698333316"><ele>150.10</ele><time>2012-09-22T09:36:48Z</time></trkpt><trkpt lat="53.9157877397" lon="26.3691580854"><ele>150.10</ele><time>2012-09-22T09:36:57Z</time></trkpt><trkpt lat="53.9157473389" lon="26.3685432728"><ele>150.10</ele><time>2012-09-22T09:37:05Z</time></trkpt><trkpt lat="53.9156870730" lon="26.3677635882"><ele>150.10</ele><time>2012-09-22T09:37:15Z</time></trkpt><trkpt lat="53.9156757575" lon="26.3668826502"><ele>150.58</ele><time>2012-09-22T09:37:26Z</time></trkpt><trkpt lat="53.9156396315" lon="26.3661745470"><ele>150.58</ele><time>2012-09-22T09:37:35Z</time></trkpt><trkpt lat="53.9156267233" lon="26.3656770810"><ele>150.10</ele><time>2012-09-22T09:37:41Z</time></trkpt><trkpt lat="53.9155918546" lon="26.3647093065"><ele>150.10</ele><time>2012-09-22T09:37:53Z</time></trkpt><trkpt lat="53.9155698102" lon="26.3644180354"><ele>150.58</ele><time>2012-09-22T09:37:57Z</time></trkpt><trkpt lat="53.9155864902" lon="26.3638106827"><ele>150.10</ele><time>2012-09-22T09:38:07Z</time></trkpt><trkpt lat="53.9155999012" lon="26.3636146300"><ele>150.10</ele><time>2012-09-22T09:38:16Z</time></trkpt><trkpt lat="53.9156205207" lon="26.3634803519"><ele>149.62</ele><time>2012-09-22T09:38:22Z</time></trkpt><trkpt lat="53.9156215265" lon="26.3634577207"><ele>149.62</ele><time>2012-09-22T09:38:23Z</time></trkpt><trkpt lat="53.9156202693" lon="26.3634397835"><ele>149.62</ele><time>2012-09-22T09:38:24Z</time></trkpt><trkpt lat="53.9156207722" lon="26.3634216785"><ele>149.62</ele><time>2012-09-22T09:38:25Z</time></trkpt><trkpt lat="53.9156220295" lon="26.3634013943"><ele>149.62</ele><time>2012-09-22T09:38:26Z</time></trkpt><trkpt lat="53.9156237058" lon="26.3633797690"><ele>149.62</ele><time>2012-09-22T09:38:27Z</time></trkpt><trkpt lat="53.9156330936" lon="26.3633317407"><ele>149.14</ele><time>2012-09-22T09:38:37Z</time></trkpt><trkpt lat="53.9156435709" lon="26.3632912561"><ele>149.14</ele><time>2012-09-22T09:38:42Z</time></trkpt><trkpt lat="53.9157267194" lon="26.3631194271"><ele>150.10</ele><time>2012-09-22T09:38:53Z</time></trkpt><trkpt lat="53.9157692157" lon="26.3630855642"><ele>150.58</ele><time>2012-09-22T09:39:05Z</time></trkpt><trkpt lat="53.9157690480" lon="26.3630596641"><ele>150.58</ele><time>2012-09-22T09:39:21Z</time></trkpt><trkpt lat="53.9157413878" lon="26.3630665373"><ele>150.58</ele><time>2012-09-22T09:39:41Z</time></trkpt><trkpt lat="53.9157471713" lon="26.3630161621"><ele>150.10</ele><time>2012-09-22T09:40:01Z</time></trkpt><trkpt lat="53.9157713950" lon="26.3630833849"><ele>150.10</ele><time>2012-09-22T09:40:28Z</time></trkpt><trkpt lat="53.9157454111" lon="26.3630977180"><ele>150.10</ele><time>2012-09-22T09:40:49Z</time></trkpt><trkpt lat="53.9157555532" lon="26.3630833011"><ele>150.10</ele><time>2012-09-22T09:41:13Z</time></trkpt><trkpt lat="53.9158060960" lon="26.3630713988"><ele>150.10</ele><time>2012-09-22T09:41:31Z</time></trkpt><trkpt lat="53.9158125501" lon="26.3630384579"><ele>150.10</ele><time>2012-09-22T09:41:56Z</time></trkpt><trkpt lat="53.9158303197" lon="26.3631253783"><ele>150.10</ele><time>2012-09-22T09:42:17Z</time></trkpt><trkpt lat="53.9158706367" lon="26.3630919345"><ele>150.10</ele><time>2012-09-22T09:42:44Z</time></trkpt><trkpt lat="53.9158129692" lon="26.3630729076"><ele>150.10</ele><time>2012-09-22T09:43:06Z</time></trkpt><trkpt lat="53.9157832135" lon="26.3630429003"><ele>150.10</ele><time>2012-09-22T09:43:30Z</time></trkpt><trkpt lat="53.9157968760" lon="26.3630357757"><ele>150.10</ele><time>2012-09-22T09:43:51Z</time></trkpt><trkpt lat="53.9158091135" lon="26.3630468398"><ele>150.10</ele><time>2012-09-22T09:44:22Z</time></trkpt><trkpt lat="53.9158199262" lon="26.3630223647"><ele>150.10</ele><time>2012-09-22T09:44:44Z</time></trkpt><trkpt lat="53.9157855604" lon="26.3630667888"><ele>150.58</ele><time>2012-09-22T09:45:14Z</time></trkpt><trkpt lat="53.9158022404" lon="26.3630600832"><ele>150.10</ele><time>2012-09-22T09:45:40Z</time></trkpt><trkpt lat="53.9157723170" lon="26.3630509470"><ele>150.10</ele><time>2012-09-22T09:46:00Z</time></trkpt><trkpt lat="53.9158085268" lon="26.3630801160"><ele>150.10</ele><time>2012-09-22T09:46:26Z</time></trkpt><trkpt lat="53.9158207644" lon="26.3631100394"><ele>150.10</ele><time>2012-09-22T09:46:45Z</time></trkpt><trkpt lat="53.9158033300" lon="26.3630814571"><ele>150.10</ele><time>2012-09-22T09:47:00Z</time></trkpt><trkpt lat="53.9157682098" lon="26.3630669564"><ele>150.10</ele><time>2012-09-22T09:47:08Z</time></trkpt><trkpt lat="53.9156788588" lon="26.3632578962"><ele>148.66</ele><time>2012-09-22T09:47:17Z</time></trkpt><trkpt lat="53.9157346822" lon="26.3634118717"><ele>149.62</ele><time>2012-09-22T09:47:28Z</time></trkpt><trkpt lat="53.9157710597" lon="26.3634476624"><ele>149.14</ele><time>2012-09-22T09:47:43Z</time></trkpt><trkpt lat="53.9158157352" lon="26.3634668570"><ele>149.62</ele><time>2012-09-22T09:47:57Z</time></trkpt><trkpt lat="53.9158145618" lon="26.3634550385"><ele>149.62</ele><time>2012-09-22T09:48:14Z</time></trkpt><trkpt lat="53.9158304036" lon="26.3634166494"><ele>149.62</ele><time>2012-09-22T09:48:31Z</time></trkpt><trkpt lat="53.9158439822" lon="26.3633383624"><ele>149.62</ele><time>2012-09-22T09:48:47Z</time></trkpt><trkpt lat="53.9159182459" lon="26.3632753305"><ele>149.62</ele><time>2012-09-22T09:48:52Z</time></trkpt><trkpt lat="53.9161733910" lon="26.3630543835"><ele>149.14</ele><time>2012-09-22T09:49:02Z</time></trkpt><trkpt lat="53.9165050630" lon="26.3627644535"><ele>149.14</ele><time>2012-09-22T09:49:12Z</time></trkpt><trkpt lat="53.9169758745" lon="26.3623378985"><ele>149.14</ele><time>2012-09-22T09:49:25Z</time></trkpt><trkpt lat="53.9173488691" lon="26.3619955815"><ele>148.66</ele><time>2012-09-22T09:49:35Z</time></trkpt><trkpt lat="53.9174292516" lon="26.3619385008"><ele>148.66</ele><time>2012-09-22T09:49:37Z</time></trkpt><trkpt lat="53.9178125560" lon="26.3615769055"><ele>148.66</ele><time>2012-09-22T09:49:48Z</time></trkpt><trkpt lat="53.9180634264" lon="26.3613025658"><ele>148.66</ele><time>2012-09-22T09:49:55Z</time></trkpt><trkpt lat="53.9185825177" lon="26.3608367834"><ele>149.14</ele><time>2012-09-22T09:50:08Z</time></trkpt><trkpt lat="53.9186240081" lon="26.3607951254"><ele>148.66</ele><time>2012-09-22T09:50:09Z</time></trkpt><trkpt lat="53.9191612042" lon="26.3603163511"><ele>148.66</ele><time>2012-09-22T09:50:22Z</time></trkpt><trkpt lat="53.9197828900" lon="26.3597759698"><ele>149.14</ele><time>2012-09-22T09:50:37Z</time></trkpt><trkpt lat="53.9198217820" lon="26.3597356528"><ele>149.14</ele><time>2012-09-22T09:50:38Z</time></trkpt><trkpt lat="53.9203485008" lon="26.3592470717"><ele>149.14</ele><time>2012-09-22T09:50:52Z</time></trkpt><trkpt lat="53.9206628222" lon="26.3589594048"><ele>148.66</ele><time>2012-09-22T09:51:03Z</time></trkpt><trkpt lat="53.9209260140" lon="26.3587147370"><ele>148.18</ele><time>2012-09-22T09:51:10Z</time></trkpt><trkpt lat="53.9210815821" lon="26.3585556485"><ele>147.22</ele><time>2012-09-22T09:51:14Z</time></trkpt><trkpt lat="53.9211195521" lon="26.3585134037"><ele>147.22</ele><time>2012-09-22T09:51:15Z</time></trkpt><trkpt lat="53.9215269964" lon="26.3580734376"><ele>146.26</ele><time>2012-09-22T09:51:25Z</time></trkpt><trkpt lat="53.9215666428" lon="26.3580323663"><ele>146.26</ele><time>2012-09-22T09:51:26Z</time></trkpt><trkpt lat="53.9218693133" lon="26.3577868603"><ele>146.26</ele><time>2012-09-22T09:51:34Z</time></trkpt><trkpt lat="53.9219673816" lon="26.3577417657"><ele>146.26</ele><time>2012-09-22T09:51:36Z</time></trkpt><trkpt lat="53.9224999677" lon="26.3577537518"><ele>146.74</ele><time>2012-09-22T09:51:47Z</time></trkpt><trkpt lat="53.9230913110" lon="26.3578646444"><ele>147.22</ele><time>2012-09-22T09:52:00Z</time></trkpt><trkpt lat="53.9236674830" lon="26.3579816557"><ele>147.22</ele><time>2012-09-22T09:52:13Z</time></trkpt><trkpt lat="53.9237555768" lon="26.3579948153"><ele>147.70</ele><time>2012-09-22T09:52:15Z</time></trkpt><trkpt lat="53.9242669567" lon="26.3581240643"><ele>147.22</ele><time>2012-09-22T09:52:27Z</time></trkpt><trkpt lat="53.9247321524" lon="26.3582309335"><ele>146.74</ele><time>2012-09-22T09:52:37Z</time></trkpt><trkpt lat="53.9252934046" lon="26.3583901059"><ele>147.22</ele><time>2012-09-22T09:52:49Z</time></trkpt><trkpt lat="53.9258966502" lon="26.3585012499"><ele>147.70</ele><time>2012-09-22T09:53:02Z</time></trkpt><trkpt lat="53.9263636060" lon="26.3586078677"><ele>147.22</ele><time>2012-09-22T09:53:12Z</time></trkpt><trkpt lat="53.9268329088" lon="26.3587287348"><ele>147.70</ele><time>2012-09-22T09:53:22Z</time></trkpt><trkpt lat="53.9273448754" lon="26.3588384539"><ele>147.70</ele><time>2012-09-22T09:53:33Z</time></trkpt><trkpt lat="53.9277829975" lon="26.3589654397"><ele>147.22</ele><time>2012-09-22T09:53:43Z</time></trkpt><trkpt lat="53.9280495420" lon="26.3590232749"><ele>147.22</ele><time>2012-09-22T09:53:49Z</time></trkpt><trkpt lat="53.9285408054" lon="26.3591232710"><ele>146.74</ele><time>2012-09-22T09:54:00Z</time></trkpt><trkpt lat="53.9288300648" lon="26.3590656873"><ele>147.22</ele><time>2012-09-22T09:54:08Z</time></trkpt><trkpt lat="53.9291453082" lon="26.3586402219"><ele>146.74</ele><time>2012-09-22T09:54:18Z</time></trkpt><trkpt lat="53.9295499865" lon="26.3580831606"><ele>146.74</ele><time>2012-09-22T09:54:30Z</time></trkpt><trkpt lat="53.9298853464" lon="26.3575857785"><ele>146.26</ele><time>2012-09-22T09:54:40Z</time></trkpt><trkpt lat="53.9301404916" lon="26.3571053278"><ele>146.74</ele><time>2012-09-22T09:54:49Z</time></trkpt><trkpt lat="53.9301510528" lon="26.3570344169"><ele>146.74</ele><time>2012-09-22T09:54:50Z</time></trkpt><trkpt lat="53.9301710855" lon="26.3568099495"><ele>146.74</ele><time>2012-09-22T09:54:53Z</time></trkpt><trkpt lat="53.9301701635" lon="26.3567316625"><ele>147.22</ele><time>2012-09-22T09:54:54Z</time></trkpt><trkpt lat="53.9301610272" lon="26.3565739151"><ele>147.22</ele><time>2012-09-22T09:54:56Z</time></trkpt><trkpt lat="53.9301502146" lon="26.3564988971"><ele>147.22</ele><time>2012-09-22T09:54:57Z</time></trkpt><trkpt lat="53.9301347919" lon="26.3564263936"><ele>147.22</ele><time>2012-09-22T09:54:58Z</time></trkpt><trkpt lat="53.9301147591" lon="26.3563585840"><ele>147.22</ele><time>2012-09-22T09:54:59Z</time></trkpt><trkpt lat="53.9300917089" lon="26.3562951330"><ele>147.22</ele><time>2012-09-22T09:55:00Z</time></trkpt><trkpt lat="53.9300674852" lon="26.3562344480"><ele>147.22</ele><time>2012-09-22T09:55:01Z</time></trkpt><trkpt lat="53.9296478033" lon="26.3554589543"><ele>147.70</ele><time>2012-09-22T09:55:15Z</time></trkpt><trkpt lat="53.9292427059" lon="26.3547372725"><ele>147.22</ele><time>2012-09-22T09:55:28Z</time></trkpt><trkpt lat="53.9291463140" lon="26.3545800280"><ele>147.22</ele><time>2012-09-22T09:55:31Z</time></trkpt><trkpt lat="53.9290656801" lon="26.3544238731"><ele>147.22</ele><time>2012-09-22T09:55:34Z</time></trkpt><trkpt lat="53.9290365949" lon="26.3543706480"><ele>147.22</ele><time>2012-09-22T09:55:35Z</time></trkpt><trkpt lat="53.9289750718" lon="26.3542751782"><ele>147.22</ele><time>2012-09-22T09:55:37Z</time></trkpt><trkpt lat="53.9289444778" lon="26.3542253897"><ele>147.22</ele><time>2012-09-22T09:55:38Z</time></trkpt><trkpt lat="53.9286926016" lon="26.3536297716"><ele>147.70</ele><time>2012-09-22T09:55:48Z</time></trkpt><trkpt lat="53.9284980576" lon="26.3527453970"><ele>147.70</ele><time>2012-09-22T09:56:00Z</time></trkpt><trkpt lat="53.9284208603" lon="26.3522315025"><ele>147.22</ele><time>2012-09-22T09:56:06Z</time></trkpt><trkpt lat="53.9283774421" lon="26.3516275026"><ele>147.22</ele><time>2012-09-22T09:56:13Z</time></trkpt><trkpt lat="53.9282637835" lon="26.3505852129"><ele>146.74</ele><time>2012-09-22T09:56:25Z</time></trkpt><trkpt lat="53.9282600116" lon="26.3505029026"><ele>146.26</ele><time>2012-09-22T09:56:26Z</time></trkpt><trkpt lat="53.9282557368" lon="26.3504218496"><ele>146.26</ele><time>2012-09-22T09:56:27Z</time></trkpt><trkpt lat="53.9282510430" lon="26.3503415510"><ele>146.26</ele><time>2012-09-22T09:56:28Z</time></trkpt><trkpt lat="53.9282467682" lon="26.3502600789"><ele>146.26</ele><time>2012-09-22T09:56:29Z</time></trkpt><trkpt lat="53.9282429963" lon="26.3501792774"><ele>146.26</ele><time>2012-09-22T09:56:30Z</time></trkpt><trkpt lat="53.9282399788" lon="26.3500958774"><ele>146.26</ele><time>2012-09-22T09:56:31Z</time></trkpt><trkpt lat="53.9281704091" lon="26.3492218964"><ele>145.78</ele><time>2012-09-22T09:56:42Z</time></trkpt><trkpt lat="53.9281656314" lon="26.3491535001"><ele>145.78</ele><time>2012-09-22T09:56:43Z</time></trkpt><trkpt lat="53.9281541482" lon="26.3490836788"><ele>145.78</ele><time>2012-09-22T09:56:44Z</time></trkpt><trkpt lat="53.9281414077" lon="26.3490119297"><ele>145.78</ele><time>2012-09-22T09:56:45Z</time></trkpt><trkpt lat="53.9281340316" lon="26.3489410188"><ele>145.78</ele><time>2012-09-22T09:56:46Z</time></trkpt><trkpt lat="53.9281287510" lon="26.3488715328"><ele>145.78</ele><time>2012-09-22T09:56:47Z</time></trkpt><trkpt lat="53.9281255659" lon="26.3488007057"><ele>145.78</ele><time>2012-09-22T09:56:48Z</time></trkpt><trkpt lat="53.9281233866" lon="26.3487298787"><ele>145.78</ele><time>2012-09-22T09:56:49Z</time></trkpt><trkpt lat="53.9280750230" lon="26.3479346875"><ele>145.78</ele><time>2012-09-22T09:57:00Z</time></trkpt><trkpt lat="53.9280281682" lon="26.3471806515"><ele>145.78</ele><time>2012-09-22T09:57:11Z</time></trkpt><trkpt lat="53.9279760327" lon="26.3462085184"><ele>145.78</ele><time>2012-09-22T09:57:24Z</time></trkpt><trkpt lat="53.9279482886" lon="26.3458261359"><ele>145.78</ele><time>2012-09-22T09:57:29Z</time></trkpt><trkpt lat="53.9278896153" lon="26.3447941560"><ele>145.78</ele><time>2012-09-22T09:57:42Z</time></trkpt><trkpt lat="53.9278538246" lon="26.3441836182"><ele>145.78</ele><time>2012-09-22T09:57:50Z</time></trkpt><trkpt lat="53.9278002642" lon="26.3433604315"><ele>145.30</ele><time>2012-09-22T09:58:02Z</time></trkpt><trkpt lat="53.9277334604" lon="26.3423783239"><ele>145.30</ele><time>2012-09-22T09:58:16Z</time></trkpt><trkpt lat="53.9276850130" lon="26.3417684566"><ele>145.30</ele><time>2012-09-22T09:58:25Z</time></trkpt><trkpt lat="53.9276799001" lon="26.3416998927"><ele>145.30</ele><time>2012-09-22T09:58:26Z</time></trkpt><trkpt lat="53.9276757929" lon="26.3416309934"><ele>145.30</ele><time>2012-09-22T09:58:27Z</time></trkpt><trkpt lat="53.9276714344" lon="26.3415684644"><ele>145.30</ele><time>2012-09-22T09:58:28Z</time></trkpt><trkpt lat="53.9276384097" lon="26.3409347087"><ele>145.30</ele><time>2012-09-22T09:58:38Z</time></trkpt><trkpt lat="53.9275820833" lon="26.3401584607"><ele>145.30</ele><time>2012-09-22T09:58:49Z</time></trkpt><trkpt lat="53.9275660738" lon="26.3398817740"><ele>145.30</ele><time>2012-09-22T09:58:53Z</time></trkpt><trkpt lat="53.9275331330" lon="26.3393405546"><ele>145.30</ele><time>2012-09-22T09:59:00Z</time></trkpt><trkpt lat="53.9275267627" lon="26.3392677996"><ele>145.30</ele><time>2012-09-22T09:59:01Z</time></trkpt><trkpt lat="53.9274715260" lon="26.3384015299"><ele>145.30</ele><time>2012-09-22T09:59:13Z</time></trkpt><trkpt lat="53.9274561871" lon="26.3382521644"><ele>145.30</ele><time>2012-09-22T09:59:15Z</time></trkpt><trkpt lat="53.9274307061" lon="26.3373034168"><ele>145.78</ele><time>2012-09-22T09:59:28Z</time></trkpt><trkpt lat="53.9274027944" lon="26.3370174263"><ele>145.78</ele><time>2012-09-22T09:59:32Z</time></trkpt><trkpt lat="53.9273923170" lon="26.3369464315"><ele>145.78</ele><time>2012-09-22T09:59:33Z</time></trkpt><trkpt lat="53.9273532573" lon="26.3366585970"><ele>145.78</ele><time>2012-09-22T09:59:37Z</time></trkpt><trkpt lat="53.9272362459" lon="26.3362606242"><ele>146.26</ele><time>2012-09-22T09:59:43Z</time></trkpt><trkpt lat="53.9272057358" lon="26.3362002745"><ele>146.26</ele><time>2012-09-22T09:59:44Z</time></trkpt><trkpt lat="53.9269166440" lon="26.3358370028"><ele>146.26</ele><time>2012-09-22T09:59:53Z</time></trkpt><trkpt lat="53.9263970498" lon="26.3354723901"><ele>146.26</ele><time>2012-09-22T10:00:06Z</time></trkpt><trkpt lat="53.9263210259" lon="26.3354158960"><ele>146.26</ele><time>2012-09-22T10:00:08Z</time></trkpt><trkpt lat="53.9262798708" lon="26.3353908341"><ele>146.26</ele><time>2012-09-22T10:00:09Z</time></trkpt><trkpt lat="53.9259054512" lon="26.3351179194"><ele>146.26</ele><time>2012-09-22T10:00:18Z</time></trkpt><trkpt lat="53.9258636255" lon="26.3350869901"><ele>146.26</ele><time>2012-09-22T10:00:19Z</time></trkpt><trkpt lat="53.9258204587" lon="26.3350566477"><ele>146.74</ele><time>2012-09-22T10:00:20Z</time></trkpt><trkpt lat="53.9253793191" lon="26.3347403985"><ele>146.26</ele><time>2012-09-22T10:00:31Z</time></trkpt><trkpt lat="53.9253404271" lon="26.3347106427"><ele>146.26</ele><time>2012-09-22T10:00:32Z</time></trkpt><trkpt lat="53.9252987690" lon="26.3346810546"><ele>146.26</ele><time>2012-09-22T10:00:33Z</time></trkpt><trkpt lat="53.9252554346" lon="26.3346522208"><ele>146.26</ele><time>2012-09-22T10:00:34Z</time></trkpt><trkpt lat="53.9252126869" lon="26.3346242253"><ele>146.26</ele><time>2012-09-22T10:00:35Z</time></trkpt><trkpt lat="53.9251696877" lon="26.3345948886"><ele>145.78</ele><time>2012-09-22T10:00:36Z</time></trkpt><trkpt lat="53.9248817693" lon="26.3343896996"><ele>145.78</ele><time>2012-09-22T10:00:43Z</time></trkpt><trkpt lat="53.9248428773" lon="26.3343593571"><ele>145.78</ele><time>2012-09-22T10:00:44Z</time></trkpt><trkpt lat="53.9245303161" lon="26.3341123424"><ele>145.78</ele><time>2012-09-22T10:00:52Z</time></trkpt><trkpt lat="53.9243576489" lon="26.3338902220"><ele>145.78</ele><time>2012-09-22T10:00:57Z</time></trkpt><trkpt lat="53.9243298210" lon="26.3338338118"><ele>145.78</ele><time>2012-09-22T10:00:58Z</time></trkpt><trkpt lat="53.9243045077" lon="26.3337724563"><ele>145.78</ele><time>2012-09-22T10:00:59Z</time></trkpt><trkpt lat="53.9241268113" lon="26.3332958613"><ele>145.78</ele><time>2012-09-22T10:01:06Z</time></trkpt><trkpt lat="53.9241093770" lon="26.3332257885"><ele>145.78</ele><time>2012-09-22T10:01:07Z</time></trkpt><trkpt lat="53.9240959659" lon="26.3331557997"><ele>145.78</ele><time>2012-09-22T10:01:08Z</time></trkpt><trkpt lat="53.9240864106" lon="26.3330871519"><ele>145.78</ele><time>2012-09-22T10:01:09Z</time></trkpt><trkpt lat="53.9240755141" lon="26.3330150675"><ele>145.30</ele><time>2012-09-22T10:01:10Z</time></trkpt><trkpt lat="53.9240648691" lon="26.3329409715"><ele>145.78</ele><time>2012-09-22T10:01:11Z</time></trkpt><trkpt lat="53.9240320120" lon="26.3326483592"><ele>145.78</ele><time>2012-09-22T10:01:15Z</time></trkpt><trkpt lat="53.9240229595" lon="26.3325731736"><ele>145.78</ele><time>2012-09-22T10:01:16Z</time></trkpt><trkpt lat="53.9240164217" lon="26.3324985746"><ele>146.26</ele><time>2012-09-22T10:01:17Z</time></trkpt><trkpt lat="53.9239511266" lon="26.3318379968"><ele>145.78</ele><time>2012-09-22T10:01:26Z</time></trkpt><trkpt lat="53.9239423256" lon="26.3317622244"><ele>145.78</ele><time>2012-09-22T10:01:27Z</time></trkpt><trkpt lat="53.9238481130" lon="26.3308781851"><ele>145.78</ele><time>2012-09-22T10:01:38Z</time></trkpt><trkpt lat="53.9237639587" lon="26.3298699260"><ele>145.30</ele><time>2012-09-22T10:01:51Z</time></trkpt><trkpt lat="53.9237124939" lon="26.3290587254"><ele>145.30</ele><time>2012-09-22T10:02:02Z</time></trkpt><trkpt lat="53.9237041119" lon="26.3289855514"><ele>145.30</ele><time>2012-09-22T10:02:03Z</time></trkpt><trkpt lat="53.9236970711" lon="26.3289125450"><ele>145.30</ele><time>2012-09-22T10:02:04Z</time></trkpt><trkpt lat="53.9236941375" lon="26.3287651911"><ele>145.30</ele><time>2012-09-22T10:02:06Z</time></trkpt><trkpt lat="53.9237360470" lon="26.3280258235"><ele>145.78</ele><time>2012-09-22T10:02:17Z</time></trkpt><trkpt lat="53.9237718377" lon="26.3277459517"><ele>145.78</ele><time>2012-09-22T10:02:21Z</time></trkpt><trkpt lat="53.9237756934" lon="26.3276773877"><ele>145.78</ele><time>2012-09-22T10:02:22Z</time></trkpt><trkpt lat="53.9237794653" lon="26.3276106678"><ele>145.30</ele><time>2012-09-22T10:02:23Z</time></trkpt><trkpt lat="53.9237800520" lon="26.3275394216"><ele>144.82</ele><time>2012-09-22T10:02:24Z</time></trkpt><trkpt lat="53.9237757772" lon="26.3274658285"><ele>144.82</ele><time>2012-09-22T10:02:25Z</time></trkpt><trkpt lat="53.9237722568" lon="26.3273925707"><ele>144.34</ele><time>2012-09-22T10:02:26Z</time></trkpt><trkpt lat="53.9237648807" lon="26.3273165468"><ele>144.34</ele><time>2012-09-22T10:02:27Z</time></trkpt><trkpt lat="53.9237470273" lon="26.3271583803"><ele>143.85</ele><time>2012-09-22T10:02:29Z</time></trkpt><trkpt lat="53.9237461891" lon="26.3270867150"><ele>143.85</ele><time>2012-09-22T10:02:30Z</time></trkpt><trkpt lat="53.9237427525" lon="26.3270211685"><ele>143.85</ele><time>2012-09-22T10:02:31Z</time></trkpt><trkpt lat="53.9236427564" lon="26.3268480822"><ele>144.34</ele><time>2012-09-22T10:02:37Z</time></trkpt><trkpt lat="53.9236232266" lon="26.3268402033"><ele>144.34</ele><time>2012-09-22T10:02:45Z</time></trkpt><trkpt lat="53.9236404933" lon="26.3268124592"><ele>144.34</ele><time>2012-09-22T10:02:52Z</time></trkpt><trkpt lat="53.9236430917" lon="26.3267814461"><ele>144.34</ele><time>2012-09-22T10:03:07Z</time></trkpt><trkpt lat="53.9236478694" lon="26.3267811108"><ele>144.34</ele><time>2012-09-22T10:03:08Z</time></trkpt><trkpt lat="53.9237547386" lon="26.3267064281"><ele>144.34</ele><time>2012-09-22T10:03:15Z</time></trkpt><trkpt lat="53.9240449201" lon="26.3265636843"><ele>145.30</ele><time>2012-09-22T10:03:27Z</time></trkpt><trkpt lat="53.9240614325" lon="26.3265435677"><ele>144.82</ele><time>2012-09-22T10:03:28Z</time></trkpt><trkpt lat="53.9240760170" lon="26.3265123870"><ele>145.30</ele><time>2012-09-22T10:03:29Z</time></trkpt><trkpt lat="53.9240924455" lon="26.3264776859"><ele>145.30</ele><time>2012-09-22T10:03:30Z</time></trkpt><trkpt lat="53.9241147414" lon="26.3264415599"><ele>145.30</ele><time>2012-09-22T10:03:31Z</time></trkpt><trkpt lat="53.9241346903" lon="26.3263993151"><ele>145.30</ele><time>2012-09-22T10:03:32Z</time></trkpt><trkpt lat="53.9241510350" lon="26.3263548911"><ele>145.30</ele><time>2012-09-22T10:03:33Z</time></trkpt><trkpt lat="53.9241658710" lon="26.3263087906"><ele>145.30</ele><time>2012-09-22T10:03:34Z</time></trkpt><trkpt lat="53.9243729878" lon="26.3257105742"><ele>145.30</ele><time>2012-09-22T10:03:47Z</time></trkpt><trkpt lat="53.9245649334" lon="26.3251111843"><ele>144.82</ele><time>2012-09-22T10:03:59Z</time></trkpt><trkpt lat="53.9247567952" lon="26.3247192465"><ele>144.34</ele><time>2012-09-22T10:04:09Z</time></trkpt><trkpt lat="53.9249224216" lon="26.3245124649"><ele>144.34</ele><time>2012-09-22T10:04:17Z</time></trkpt><trkpt lat="53.9251236711" lon="26.3243137300"><ele>143.85</ele><time>2012-09-22T10:04:25Z</time></trkpt><trkpt lat="53.9253136050" lon="26.3241258077"><ele>143.37</ele><time>2012-09-22T10:04:33Z</time></trkpt><trkpt lat="53.9255339652" lon="26.3238734286"><ele>142.89</ele><time>2012-09-22T10:04:43Z</time></trkpt><trkpt lat="53.9257418364" lon="26.3236595225"><ele>143.37</ele><time>2012-09-22T10:04:51Z</time></trkpt><trkpt lat="53.9258816466" lon="26.3234525733"><ele>143.37</ele><time>2012-09-22T10:04:58Z</time></trkpt><trkpt lat="53.9260631148" lon="26.3232748769"><ele>143.85</ele><time>2012-09-22T10:05:06Z</time></trkpt><trkpt lat="53.9262790326" lon="26.3230545167"><ele>144.34</ele><time>2012-09-22T10:05:14Z</time></trkpt><trkpt lat="53.9264744986" lon="26.3227976114"><ele>143.37</ele><time>2012-09-22T10:05:22Z</time></trkpt><trkpt lat="53.9267047495" lon="26.3224329986"><ele>143.85</ele><time>2012-09-22T10:05:32Z</time></trkpt><trkpt lat="53.9268308971" lon="26.3222202659"><ele>143.85</ele><time>2012-09-22T10:05:40Z</time></trkpt><trkpt lat="53.9270178974" lon="26.3218810502"><ele>143.85</ele><time>2012-09-22T10:05:49Z</time></trkpt><trkpt lat="53.9271796681" lon="26.3214254938"><ele>143.85</ele><time>2012-09-22T10:05:59Z</time></trkpt><trkpt lat="53.9272209071" lon="26.3210151158"><ele>143.85</ele><time>2012-09-22T10:06:07Z</time></trkpt><trkpt lat="53.9271966834" lon="26.3205819391"><ele>143.37</ele><time>2012-09-22T10:06:16Z</time></trkpt><trkpt lat="53.9271929115" lon="26.3201796077"><ele>143.37</ele><time>2012-09-22T10:06:25Z</time></trkpt><trkpt lat="53.9272150397" lon="26.3198258076"><ele>143.37</ele><time>2012-09-22T10:06:33Z</time></trkpt><trkpt lat="53.9270991180" lon="26.3194505498"><ele>143.37</ele><time>2012-09-22T10:06:43Z</time></trkpt><trkpt lat="53.9269569609" lon="26.3191529084"><ele>143.85</ele><time>2012-09-22T10:06:53Z</time></trkpt><trkpt lat="53.9268177375" lon="26.3188561052"><ele>143.85</ele><time>2012-09-22T10:07:01Z</time></trkpt><trkpt lat="53.9266481716" lon="26.3185904827"><ele>143.37</ele><time>2012-09-22T10:07:09Z</time></trkpt><trkpt lat="53.9264982194" lon="26.3183498383"><ele>143.85</ele><time>2012-09-22T10:07:16Z</time></trkpt><trkpt lat="53.9264097903" lon="26.3180915080"><ele>143.85</ele><time>2012-09-22T10:07:22Z</time></trkpt><trkpt lat="53.9263694733" lon="26.3176631927"><ele>143.85</ele><time>2012-09-22T10:07:30Z</time></trkpt><trkpt lat="53.9262527972" lon="26.3172241487"><ele>143.85</ele><time>2012-09-22T10:07:39Z</time></trkpt><trkpt lat="53.9261461794" lon="26.3168103341"><ele>143.85</ele><time>2012-09-22T10:07:49Z</time></trkpt><trkpt lat="53.9260657132" lon="26.3163936697"><ele>143.85</ele><time>2012-09-22T10:07:59Z</time></trkpt><trkpt lat="53.9259583410" lon="26.3160014804"><ele>143.85</ele><time>2012-09-22T10:08:09Z</time></trkpt><trkpt lat="53.9257955644" lon="26.3155716565"><ele>144.34</ele><time>2012-09-22T10:08:20Z</time></trkpt><trkpt lat="53.9256750327" lon="26.3151264098"><ele>144.34</ele><time>2012-09-22T10:08:29Z</time></trkpt><trkpt lat="53.9255126752" lon="26.3145335577"><ele>144.34</ele><time>2012-09-22T10:08:40Z</time></trkpt><trkpt lat="53.9253977593" lon="26.3139365986"><ele>144.34</ele><time>2012-09-22T10:08:50Z</time></trkpt><trkpt lat="53.9253032114" lon="26.3132892642"><ele>144.34</ele><time>2012-09-22T10:09:01Z</time></trkpt><trkpt lat="53.9251771476" lon="26.3128882740"><ele>143.85</ele><time>2012-09-22T10:09:09Z</time></trkpt><trkpt lat="53.9250624832" lon="26.3124796562"><ele>144.34</ele><time>2012-09-22T10:09:19Z</time></trkpt><trkpt lat="53.9249573741" lon="26.3119033165"><ele>144.34</ele><time>2012-09-22T10:09:30Z</time></trkpt><trkpt lat="53.9248628262" lon="26.3114125561"><ele>144.34</ele><time>2012-09-22T10:09:39Z</time></trkpt><trkpt lat="53.9248279575" lon="26.3109919522"><ele>144.34</ele><time>2012-09-22T10:09:48Z</time></trkpt><trkpt lat="53.9248110261" lon="26.3106006850"><ele>144.82</ele><time>2012-09-22T10:09:57Z</time></trkpt><trkpt lat="53.9247565437" lon="26.3101515826"><ele>144.82</ele><time>2012-09-22T10:10:07Z</time></trkpt><trkpt lat="53.9246179909" lon="26.3096697070"><ele>144.82</ele><time>2012-09-22T10:10:17Z</time></trkpt><trkpt lat="53.9245271310" lon="26.3090992346"><ele>145.30</ele><time>2012-09-22T10:10:28Z</time></trkpt><trkpt lat="53.9245199226" lon="26.3085991703"><ele>145.30</ele><time>2012-09-22T10:10:37Z</time></trkpt><trkpt lat="53.9244285598" lon="26.3081162889"><ele>145.78</ele><time>2012-09-22T10:10:46Z</time></trkpt><trkpt lat="53.9243086148" lon="26.3076469023"><ele>145.78</ele><time>2012-09-22T10:10:55Z</time></trkpt><trkpt lat="53.9242060203" lon="26.3072244544"><ele>145.78</ele><time>2012-09-22T10:11:04Z</time></trkpt><trkpt lat="53.9241574053" lon="26.3069336861"><ele>146.26</ele><time>2012-09-22T10:11:13Z</time></trkpt><trkpt lat="53.9241441619" lon="26.3069162518"><ele>146.26</ele><time>2012-09-22T10:11:24Z</time></trkpt><trkpt lat="53.9241404738" lon="26.3069072831"><ele>146.26</ele><time>2012-09-22T10:11:45Z</time></trkpt><trkpt lat="53.9241284877" lon="26.3069097139"><ele>146.26</ele><time>2012-09-22T10:11:54Z</time></trkpt><trkpt lat="53.9241240453" lon="26.3068397250"><ele>146.26</ele><time>2012-09-22T10:12:01Z</time></trkpt><trkpt lat="53.9241251349" lon="26.3068053592"><ele>146.26</ele><time>2012-09-22T10:12:02Z</time></trkpt><trkpt lat="53.9241280686" lon="26.3067662157"><ele>146.26</ele><time>2012-09-22T10:12:03Z</time></trkpt><trkpt lat="53.9241314214" lon="26.3067217916"><ele>146.26</ele><time>2012-09-22T10:12:04Z</time></trkpt><trkpt lat="53.9241300803" lon="26.3066746015"><ele>146.74</ele><time>2012-09-22T10:12:05Z</time></trkpt><trkpt lat="53.9241262246" lon="26.3066228852"><ele>146.74</ele><time>2012-09-22T10:12:06Z</time></trkpt><trkpt lat="53.9241031744" lon="26.3060908020"><ele>145.78</ele><time>2012-09-22T10:12:15Z</time></trkpt><trkpt lat="53.9240891766" lon="26.3058058172"><ele>144.82</ele><time>2012-09-22T10:12:20Z</time></trkpt><trkpt lat="53.9240905177" lon="26.3057661708"><ele>145.30</ele><time>2012-09-22T10:12:21Z</time></trkpt><trkpt lat="53.9240885898" lon="26.3057238422"><ele>144.82</ele><time>2012-09-22T10:12:22Z</time></trkpt><trkpt lat="53.9240843151" lon="26.3056862913"><ele>144.82</ele><time>2012-09-22T10:12:23Z</time></trkpt><trkpt lat="53.9240797050" lon="26.3056489918"><ele>145.30</ele><time>2012-09-22T10:12:24Z</time></trkpt><trkpt lat="53.9240704011" lon="26.3056071661"><ele>145.30</ele><time>2012-09-22T10:12:25Z</time></trkpt><trkpt lat="53.9240623545" lon="26.3055670168"><ele>145.30</ele><time>2012-09-22T10:12:26Z</time></trkpt><trkpt lat="53.9240035135" lon="26.3052057568"><ele>144.82</ele><time>2012-09-22T10:12:34Z</time></trkpt><trkpt lat="53.9239271544" lon="26.3046968076"><ele>144.82</ele><time>2012-09-22T10:12:43Z</time></trkpt><trkpt lat="53.9238791261" lon="26.3040900417"><ele>144.82</ele><time>2012-09-22T10:12:54Z</time></trkpt><trkpt lat="53.9238294214" lon="26.3035245985"><ele>144.82</ele><time>2012-09-22T10:13:05Z</time></trkpt><trkpt lat="53.9237366337" lon="26.3030552957"><ele>144.82</ele><time>2012-09-22T10:13:14Z</time></trkpt><trkpt lat="53.9237223845" lon="26.3025220390"><ele>144.34</ele><time>2012-09-22T10:13:23Z</time></trkpt><trkpt lat="53.9236917906" lon="26.3018888701"><ele>143.85</ele><time>2012-09-22T10:13:34Z</time></trkpt><trkpt lat="53.9236403257" lon="26.3012522645"><ele>143.85</ele><time>2012-09-22T10:13:45Z</time></trkpt><trkpt lat="53.9235833287" lon="26.3005732466"><ele>143.85</ele><time>2012-09-22T10:13:57Z</time></trkpt><trkpt lat="53.9234737772" lon="26.3001029380"><ele>143.85</ele><time>2012-09-22T10:14:07Z</time></trkpt><trkpt lat="53.9233892877" lon="26.2997080665"><ele>143.85</ele><time>2012-09-22T10:14:15Z</time></trkpt><trkpt lat="53.9233137667" lon="26.2991953455"><ele>144.34</ele><time>2012-09-22T10:14:25Z</time></trkpt><trkpt lat="53.9232358150" lon="26.2986861449"><ele>144.82</ele><time>2012-09-22T10:14:36Z</time></trkpt><trkpt lat="53.9231046382" lon="26.2983666267"><ele>145.78</ele><time>2012-09-22T10:14:45Z</time></trkpt><trkpt lat="53.9229507465" lon="26.2980988249"><ele>145.30</ele><time>2012-09-22T10:14:53Z</time></trkpt><trkpt lat="53.9227564540" lon="26.2977972440"><ele>145.78</ele><time>2012-09-22T10:15:03Z</time></trkpt><trkpt lat="53.9225624967" lon="26.2973239180"><ele>145.30</ele><time>2012-09-22T10:15:14Z</time></trkpt><trkpt lat="53.9223673660" lon="26.2968766596"><ele>144.82</ele><time>2012-09-22T10:15:24Z</time></trkpt><trkpt lat="53.9221848082" lon="26.2966088578"><ele>144.34</ele><time>2012-09-22T10:15:31Z</time></trkpt><trkpt lat="53.9221186750" lon="26.2961481884"><ele>143.85</ele><time>2012-09-22T10:15:39Z</time></trkpt><trkpt lat="53.9221185073" lon="26.2960489467"><ele>143.37</ele><time>2012-09-22T10:15:41Z</time></trkpt><trkpt lat="53.9221133944" lon="26.2959981523"><ele>143.37</ele><time>2012-09-22T10:15:42Z</time></trkpt><trkpt lat="53.9221078623" lon="26.2959463522"><ele>143.37</ele><time>2012-09-22T10:15:43Z</time></trkpt><trkpt lat="53.9220588282" lon="26.2955314480"><ele>143.37</ele><time>2012-09-22T10:15:52Z</time></trkpt><trkpt lat="53.9220351074" lon="26.2951995246"><ele>142.89</ele><time>2012-09-22T10:16:00Z</time></trkpt><trkpt lat="53.9219509531" lon="26.2947783340"><ele>143.37</ele><time>2012-09-22T10:16:09Z</time></trkpt><trkpt lat="53.9218647871" lon="26.2943930179"><ele>143.37</ele><time>2012-09-22T10:16:17Z</time></trkpt><trkpt lat="53.9217421599" lon="26.2940351106"><ele>143.37</ele><time>2012-09-22T10:16:26Z</time></trkpt><trkpt lat="53.9216643758" lon="26.2936843280"><ele>143.37</ele><time>2012-09-22T10:16:35Z</time></trkpt><trkpt lat="53.9216075465" lon="26.2933254149"><ele>143.37</ele><time>2012-09-22T10:16:43Z</time></trkpt><trkpt lat="53.9215969853" lon="26.2932877801"><ele>143.37</ele><time>2012-09-22T10:16:44Z</time></trkpt><trkpt lat="53.9215844963" lon="26.2932560965"><ele>143.37</ele><time>2012-09-22T10:16:45Z</time></trkpt><trkpt lat="53.9215692412" lon="26.2932239939"><ele>143.37</ele><time>2012-09-22T10:16:46Z</time></trkpt><trkpt lat="53.9215585962" lon="26.2931910530"><ele>143.37</ele><time>2012-09-22T10:16:47Z</time></trkpt><trkpt lat="53.9215468615" lon="26.2931597047"><ele>143.37</ele><time>2012-09-22T10:16:48Z</time></trkpt><trkpt lat="53.9215315226" lon="26.2931274343"><ele>142.89</ele><time>2012-09-22T10:16:49Z</time></trkpt><trkpt lat="53.9213581011" lon="26.2928734627"><ele>142.89</ele><time>2012-09-22T10:16:58Z</time></trkpt><trkpt lat="53.9211332146" lon="26.2927655037"><ele>143.37</ele><time>2012-09-22T10:17:08Z</time></trkpt><trkpt lat="53.9208438713" lon="26.2927683536"><ele>144.34</ele><time>2012-09-22T10:17:20Z</time></trkpt><trkpt lat="53.9206835255" lon="26.2927825190"><ele>143.85</ele><time>2012-09-22T10:17:27Z</time></trkpt><trkpt lat="53.9206650853" lon="26.2927748915"><ele>143.37</ele><time>2012-09-22T10:17:28Z</time></trkpt><trkpt lat="53.9206468128" lon="26.2927718740"><ele>143.37</ele><time>2012-09-22T10:17:29Z</time></trkpt><trkpt lat="53.9203760773" lon="26.2927944213"><ele>143.37</ele><time>2012-09-22T10:17:40Z</time></trkpt><trkpt lat="53.9201661106" lon="26.2926241010"><ele>143.85</ele><time>2012-09-22T10:17:51Z</time></trkpt><trkpt lat="53.9200283121" lon="26.2923663575"><ele>144.34</ele><time>2012-09-22T10:18:00Z</time></trkpt><trkpt lat="53.9199842233" lon="26.2922341749"><ele>144.34</ele><time>2012-09-22T10:18:04Z</time></trkpt><trkpt lat="53.9199789427" lon="26.2921969593"><ele>144.34</ele><time>2012-09-22T10:18:05Z</time></trkpt><trkpt lat="53.9199740812" lon="26.2921604980"><ele>143.85</ele><time>2012-09-22T10:18:06Z</time></trkpt><trkpt lat="53.9199693035" lon="26.2921211030"><ele>144.34</ele><time>2012-09-22T10:18:07Z</time></trkpt><trkpt lat="53.9199616760" lon="26.2920824625"><ele>144.34</ele><time>2012-09-22T10:18:08Z</time></trkpt><trkpt lat="53.9199523721" lon="26.2920450792"><ele>144.34</ele><time>2012-09-22T10:18:09Z</time></trkpt><trkpt lat="53.9199167490" lon="26.2915977370"><ele>144.34</ele><time>2012-09-22T10:18:19Z</time></trkpt><trkpt lat="53.9199073613" lon="26.2911756244"><ele>143.85</ele><time>2012-09-22T10:18:29Z</time></trkpt><trkpt lat="53.9198662899" lon="26.2907067407"><ele>143.85</ele><time>2012-09-22T10:18:41Z</time></trkpt><trkpt lat="53.9198611770" lon="26.2903993763"><ele>144.34</ele><time>2012-09-22T10:18:50Z</time></trkpt><trkpt lat="53.9198591653" lon="26.2903134618"><ele>143.85</ele><time>2012-09-22T10:18:53Z</time></trkpt><trkpt lat="53.9198125619" lon="26.2902662717"><ele>144.34</ele><time>2012-09-22T10:19:04Z</time></trkpt><trkpt lat="53.9197878353" lon="26.2901968695"><ele>143.85</ele><time>2012-09-22T10:19:11Z</time></trkpt><trkpt lat="53.9197709877" lon="26.2901745737"><ele>143.85</ele><time>2012-09-22T10:19:12Z</time></trkpt><trkpt lat="53.9197528828" lon="26.2901617493"><ele>143.85</ele><time>2012-09-22T10:19:13Z</time></trkpt><trkpt lat="53.9197347779" lon="26.2901573908"><ele>143.85</ele><time>2012-09-22T10:19:14Z</time></trkpt><trkpt lat="53.9197185170" lon="26.2901470810"><ele>143.85</ele><time>2012-09-22T10:19:15Z</time></trkpt><trkpt lat="53.9197012503" lon="26.2901287246"><ele>143.85</ele><time>2012-09-22T10:19:16Z</time></trkpt><trkpt lat="53.9196799602" lon="26.2901059259"><ele>143.85</ele><time>2012-09-22T10:19:17Z</time></trkpt><trkpt lat="53.9195545670" lon="26.2899615057"><ele>143.85</ele><time>2012-09-22T10:19:25Z</time></trkpt><trkpt lat="53.9194398187" lon="26.2898713164"><ele>144.34</ele><time>2012-09-22T10:19:33Z</time></trkpt><trkpt lat="53.9192593563" lon="26.2897992320"><ele>144.34</ele><time>2012-09-22T10:19:43Z</time></trkpt><trkpt lat="53.9191586059" lon="26.2898270600"><ele>144.34</ele><time>2012-09-22T10:19:51Z</time></trkpt><trkpt lat="53.9191458654" lon="26.2898349389"><ele>144.82</ele><time>2012-09-22T10:19:52Z</time></trkpt><trkpt lat="53.9189634752" lon="26.2899046764"><ele>144.82</ele><time>2012-09-22T10:20:02Z</time></trkpt><trkpt lat="53.9187297039" lon="26.2899416406"><ele>144.82</ele><time>2012-09-22T10:20:12Z</time></trkpt><trkpt lat="53.9184683561" lon="26.2899441551"><ele>144.82</ele><time>2012-09-22T10:20:22Z</time></trkpt><trkpt lat="53.9181390312" lon="26.2899999786"><ele>144.34</ele><time>2012-09-22T10:20:34Z</time></trkpt><trkpt lat="53.9178485144" lon="26.2900296506"><ele>143.85</ele><time>2012-09-22T10:20:45Z</time></trkpt><trkpt lat="53.9175944589" lon="26.2900561374"><ele>143.85</ele><time>2012-09-22T10:20:55Z</time></trkpt><trkpt lat="53.9172219671" lon="26.2901039980"><ele>143.37</ele><time>2012-09-22T10:21:07Z</time></trkpt><trkpt lat="53.9170879405" lon="26.2901065126"><ele>143.85</ele><time>2012-09-22T10:21:14Z</time></trkpt><trkpt lat="53.9170751162" lon="26.2900998909"><ele>143.85</ele><time>2012-09-22T10:21:15Z</time></trkpt><trkpt lat="53.9170596097" lon="26.2900945265"><ele>143.85</ele><time>2012-09-22T10:21:16Z</time></trkpt><trkpt lat="53.9170409180" lon="26.2900874857"><ele>143.85</ele><time>2012-09-22T10:21:17Z</time></trkpt><trkpt lat="53.9170208015" lon="26.2900864799"><ele>143.85</ele><time>2012-09-22T10:21:18Z</time></trkpt><trkpt lat="53.9169980027" lon="26.2900885753"><ele>143.85</ele><time>2012-09-22T10:21:19Z</time></trkpt><trkpt lat="53.9169731922" lon="26.2900886592"><ele>143.37</ele><time>2012-09-22T10:21:20Z</time></trkpt><trkpt lat="53.9169468731" lon="26.2900881562"><ele>143.37</ele><time>2012-09-22T10:21:21Z</time></trkpt><trkpt lat="53.9166658279" lon="26.2900802772"><ele>143.85</ele><time>2012-09-22T10:21:33Z</time></trkpt><trkpt lat="53.9164967649" lon="26.2900895812"><ele>144.34</ele><time>2012-09-22T10:21:41Z</time></trkpt><trkpt lat="53.9164745528" lon="26.2900886592"><ele>144.34</ele><time>2012-09-22T10:21:42Z</time></trkpt><trkpt lat="53.9162482414" lon="26.2900931016"><ele>144.34</ele><time>2012-09-22T10:21:51Z</time></trkpt><trkpt lat="53.9159817807" lon="26.2901283894"><ele>144.34</ele><time>2012-09-22T10:22:01Z</time></trkpt><trkpt lat="53.9156781044" lon="26.2902402878"><ele>144.34</ele><time>2012-09-22T10:22:12Z</time></trkpt><trkpt lat="53.9153320156" lon="26.2903506774"><ele>143.85</ele><time>2012-09-22T10:22:24Z</time></trkpt><trkpt lat="53.9150437620" lon="26.2903572991"><ele>143.85</ele><time>2012-09-22T10:22:34Z</time></trkpt><trkpt lat="53.9147840906" lon="26.2904015556"><ele>144.34</ele><time>2012-09-22T10:22:44Z</time></trkpt><trkpt lat="53.9144908078" lon="26.2904475722"><ele>144.82</ele><time>2012-09-22T10:22:55Z</time></trkpt><trkpt lat="53.9141315594" lon="26.2904479075"><ele>144.82</ele><time>2012-09-22T10:23:07Z</time></trkpt><trkpt lat="53.9137910865" lon="26.2905233447"><ele>144.34</ele><time>2012-09-22T10:23:19Z</time></trkpt><trkpt lat="53.9135158248" lon="26.2905612309"><ele>144.34</ele><time>2012-09-22T10:23:30Z</time></trkpt><trkpt lat="53.9134700596" lon="26.2905398570"><ele>143.85</ele><time>2012-09-22T10:23:33Z</time></trkpt><trkpt lat="53.9134561457" lon="26.2905278709"><ele>144.34</ele><time>2012-09-22T10:23:34Z</time></trkpt><trkpt lat="53.9134382922" lon="26.2905050721"><ele>144.34</ele><time>2012-09-22T10:23:40Z</time></trkpt><trkpt lat="53.9133712370" lon="26.2902682833"><ele>144.34</ele><time>2012-09-22T10:23:49Z</time></trkpt><trkpt lat="53.9133419842" lon="26.2899319176"><ele>144.34</ele><time>2012-09-22T10:23:57Z</time></trkpt><trkpt lat="53.9132950455" lon="26.2897813786"><ele>144.34</ele><time>2012-09-22T10:24:04Z</time></trkpt><trkpt lat="53.9132766891" lon="26.2897667941"><ele>144.34</ele><time>2012-09-22T10:24:15Z</time></trkpt><trkpt lat="53.9132747613" lon="26.2896747608"><ele>144.82</ele><time>2012-09-22T10:24:35Z</time></trkpt><trkpt lat="53.9132623561" lon="26.2896474358"><ele>144.82</ele><time>2012-09-22T10:24:42Z</time></trkpt><trkpt lat="53.9132670499" lon="26.2896320969"><ele>144.82</ele><time>2012-09-22T10:24:43Z</time></trkpt><trkpt lat="53.9132686425" lon="26.2896134052"><ele>144.82</ele><time>2012-09-22T10:24:44Z</time></trkpt><trkpt lat="53.9131978154" lon="26.2893129978"><ele>144.82</ele><time>2012-09-22T10:24:53Z</time></trkpt><trkpt lat="53.9131221268" lon="26.2889989279"><ele>145.30</ele><time>2012-09-22T10:25:01Z</time></trkpt><trkpt lat="53.9129984938" lon="26.2886181381"><ele>145.30</ele><time>2012-09-22T10:25:09Z</time></trkpt><trkpt lat="53.9127166104" lon="26.2882006355"><ele>145.30</ele><time>2012-09-22T10:25:20Z</time></trkpt><trkpt lat="53.9124287758" lon="26.2878326699"><ele>144.82</ele><time>2012-09-22T10:25:29Z</time></trkpt><trkpt lat="53.9121538494" lon="26.2874665484"><ele>144.82</ele><time>2012-09-22T10:25:39Z</time></trkpt><trkpt lat="53.9118563756" lon="26.2871912867"><ele>143.85</ele><time>2012-09-22T10:25:49Z</time></trkpt><trkpt lat="53.9116295613" lon="26.2867567688"><ele>144.34</ele><time>2012-09-22T10:25:59Z</time></trkpt><trkpt lat="53.9114294853" lon="26.2865623925"><ele>144.34</ele><time>2012-09-22T10:26:07Z</time></trkpt><trkpt lat="53.9111206122" lon="26.2865070719"><ele>143.37</ele><time>2012-09-22T10:26:17Z</time></trkpt><trkpt lat="53.9109932911" lon="26.2864875421"><ele>142.89</ele><time>2012-09-22T10:26:25Z</time></trkpt><trkpt lat="53.9108327776" lon="26.2863449659"><ele>143.85</ele><time>2012-09-22T10:26:34Z</time></trkpt><trkpt lat="53.9106139261" lon="26.2861280423"><ele>143.85</ele><time>2012-09-22T10:26:43Z</time></trkpt><trkpt lat="53.9103759639" lon="26.2859132141"><ele>143.85</ele><time>2012-09-22T10:26:52Z</time></trkpt><trkpt lat="53.9100641571" lon="26.2859252840"><ele>143.85</ele><time>2012-09-22T10:27:02Z</time></trkpt><trkpt lat="53.9097437169" lon="26.2859124597"><ele>144.34</ele><time>2012-09-22T10:27:13Z</time></trkpt><trkpt lat="53.9094591513" lon="26.2856159080"><ele>144.34</ele><time>2012-09-22T10:27:23Z</time></trkpt><trkpt lat="53.9092001505" lon="26.2851825636"><ele>144.34</ele><time>2012-09-22T10:27:34Z</time></trkpt><trkpt lat="53.9089674689" lon="26.2848469522"><ele>144.34</ele><time>2012-09-22T10:27:44Z</time></trkpt><trkpt lat="53.9088102244" lon="26.2846033741"><ele>144.34</ele><time>2012-09-22T10:27:52Z</time></trkpt><trkpt lat="53.9086916205" lon="26.2843657471"><ele>144.34</ele><time>2012-09-22T10:27:59Z</time></trkpt><trkpt lat="53.9086834062" lon="26.2843312137"><ele>144.34</ele><time>2012-09-22T10:28:00Z</time></trkpt><trkpt lat="53.9086710010" lon="26.2843007036"><ele>144.34</ele><time>2012-09-22T10:28:01Z</time></trkpt><trkpt lat="53.9086585119" lon="26.2842699420"><ele>144.34</ele><time>2012-09-22T10:28:02Z</time></trkpt><trkpt lat="53.9086434245" lon="26.2842412759"><ele>144.34</ele><time>2012-09-22T10:28:03Z</time></trkpt><trkpt lat="53.9086296782" lon="26.2842105143"><ele>144.34</ele><time>2012-09-22T10:28:04Z</time></trkpt><trkpt lat="53.9086145069" lon="26.2841810100"><ele>144.34</ele><time>2012-09-22T10:28:05Z</time></trkpt><trkpt lat="53.9085975755" lon="26.2841541879"><ele>144.82</ele><time>2012-09-22T10:28:06Z</time></trkpt><trkpt lat="53.9085804764" lon="26.2841261085"><ele>144.82</ele><time>2012-09-22T10:28:07Z</time></trkpt><trkpt lat="53.9085611980" lon="26.2840898987"><ele>144.34</ele><time>2012-09-22T10:28:08Z</time></trkpt><trkpt lat="53.9085423388" lon="26.2840494141"><ele>144.34</ele><time>2012-09-22T10:28:09Z</time></trkpt><trkpt lat="53.9085183665" lon="26.2840135396"><ele>144.82</ele><time>2012-09-22T10:28:10Z</time></trkpt><trkpt lat="53.9084911253" lon="26.2839783356"><ele>144.82</ele><time>2012-09-22T10:28:11Z</time></trkpt><trkpt lat="53.9082125947" lon="26.2838226836"><ele>144.82</ele><time>2012-09-22T10:28:19Z</time></trkpt><trkpt lat="53.9079580363" lon="26.2837070972"><ele>145.78</ele><time>2012-09-22T10:28:28Z</time></trkpt><trkpt lat="53.9078190643" lon="26.2833840586"><ele>145.30</ele><time>2012-09-22T10:28:36Z</time></trkpt><trkpt lat="53.9078011271" lon="26.2829310168"><ele>144.82</ele><time>2012-09-22T10:28:44Z</time></trkpt><trkpt lat="53.9079034701" lon="26.2825052161"><ele>144.82</ele><time>2012-09-22T10:28:52Z</time></trkpt><trkpt lat="53.9079281129" lon="26.2824521586"><ele>144.82</ele><time>2012-09-22T10:28:53Z</time></trkpt><trkpt lat="53.9079456311" lon="26.2823927309"><ele>144.82</ele><time>2012-09-22T10:28:54Z</time></trkpt><trkpt lat="53.9079623111" lon="26.2818801776"><ele>144.82</ele><time>2012-09-22T10:29:01Z</time></trkpt><trkpt lat="53.9079614729" lon="26.2813278101"><ele>144.82</ele><time>2012-09-22T10:29:08Z</time></trkpt><trkpt lat="53.9079995267" lon="26.2811745051"><ele>144.82</ele><time>2012-09-22T10:29:10Z</time></trkpt><trkpt lat="53.9080241695" lon="26.2811096292"><ele>144.82</ele><time>2012-09-22T10:29:11Z</time></trkpt><trkpt lat="53.9080468845" lon="26.2810477708"><ele>144.82</ele><time>2012-09-22T10:29:12Z</time></trkpt><trkpt lat="53.9080658276" lon="26.2809839007"><ele>144.34</ele><time>2012-09-22T10:29:13Z</time></trkpt><trkpt lat="53.9080881234" lon="26.2809254788"><ele>144.34</ele><time>2012-09-22T10:29:14Z</time></trkpt><trkpt lat="53.9081092458" lon="26.2808707450"><ele>144.34</ele><time>2012-09-22T10:29:15Z</time></trkpt><trkpt lat="53.9081262611" lon="26.2808131613"><ele>144.82</ele><time>2012-09-22T10:29:16Z</time></trkpt><trkpt lat="53.9082275983" lon="26.2802645657"><ele>144.34</ele><time>2012-09-22T10:29:25Z</time></trkpt><trkpt lat="53.9083056338" lon="26.2797199935"><ele>144.34</ele><time>2012-09-22T10:29:34Z</time></trkpt><trkpt lat="53.9083257504" lon="26.2792997248"><ele>143.85</ele><time>2012-09-22T10:29:41Z</time></trkpt><trkpt lat="53.9084401634" lon="26.2786665559"><ele>144.82</ele><time>2012-09-22T10:29:52Z</time></trkpt><trkpt lat="53.9084909577" lon="26.2781559303"><ele>144.82</ele><time>2012-09-22T10:30:02Z</time></trkpt><trkpt lat="53.9085499663" lon="26.2776031438"><ele>144.34</ele><time>2012-09-22T10:30:12Z</time></trkpt><trkpt lat="53.9086264092" lon="26.2770547997"><ele>143.85</ele><time>2012-09-22T10:30:21Z</time></trkpt><trkpt lat="53.9087112341" lon="26.2763133366"><ele>144.34</ele><time>2012-09-22T10:30:33Z</time></trkpt><trkpt lat="53.9087137487" lon="26.2757175509"><ele>143.85</ele><time>2012-09-22T10:30:43Z</time></trkpt><trkpt lat="53.9087880962" lon="26.2753023114"><ele>143.85</ele><time>2012-09-22T10:30:51Z</time></trkpt><trkpt lat="53.9088949654" lon="26.2749225274"><ele>144.34</ele><time>2012-09-22T10:30:59Z</time></trkpt><trkpt lat="53.9089293312" lon="26.2743595149"><ele>144.34</ele><time>2012-09-22T10:31:09Z</time></trkpt><trkpt lat="53.9089222066" lon="26.2737060618"><ele>143.85</ele><time>2012-09-22T10:31:20Z</time></trkpt><trkpt lat="53.9089809638" lon="26.2729251198"><ele>144.34</ele><time>2012-09-22T10:31:34Z</time></trkpt><trkpt lat="53.9090104681" lon="26.2724574097"><ele>144.34</ele><time>2012-09-22T10:31:42Z</time></trkpt><trkpt lat="53.9090265613" lon="26.2719270866"><ele>143.85</ele><time>2012-09-22T10:31:52Z</time></trkpt><trkpt lat="53.9090270642" lon="26.2717960775"><ele>143.37</ele><time>2012-09-22T10:31:55Z</time></trkpt><trkpt lat="53.9090299141" lon="26.2717648968"><ele>143.85</ele><time>2012-09-22T10:31:56Z</time></trkpt><trkpt lat="53.9090317581" lon="26.2717316207"><ele>143.85</ele><time>2012-09-22T10:31:57Z</time></trkpt><trkpt lat="53.9090360329" lon="26.2717013620"><ele>143.85</ele><time>2012-09-22T10:31:58Z</time></trkpt><trkpt lat="53.9090392180" lon="26.2716670800"><ele>143.85</ele><time>2012-09-22T10:31:59Z</time></trkpt><trkpt lat="53.9090393018" lon="26.2716254219"><ele>143.85</ele><time>2012-09-22T10:32:00Z</time></trkpt><trkpt lat="53.9090356138" lon="26.2715806626"><ele>143.85</ele><time>2012-09-22T10:32:01Z</time></trkpt><trkpt lat="53.9090294112" lon="26.2715352327"><ele>143.85</ele><time>2012-09-22T10:32:02Z</time></trkpt><trkpt lat="53.9090183470" lon="26.2714844383"><ele>143.85</ele><time>2012-09-22T10:32:03Z</time></trkpt><trkpt lat="53.9090112224" lon="26.2714312971"><ele>143.85</ele><time>2012-09-22T10:32:04Z</time></trkpt><trkpt lat="53.9090096299" lon="26.2713737972"><ele>143.85</ele><time>2012-09-22T10:32:05Z</time></trkpt><trkpt lat="53.9090460911" lon="26.2708616629"><ele>143.37</ele><time>2012-09-22T10:32:14Z</time></trkpt><trkpt lat="53.9090003259" lon="26.2703508697"><ele>143.37</ele><time>2012-09-22T10:32:23Z</time></trkpt><trkpt lat="53.9090029243" lon="26.2701924518"><ele>143.37</ele><time>2012-09-22T10:32:26Z</time></trkpt><trkpt lat="53.9090107195" lon="26.2701481953"><ele>143.37</ele><time>2012-09-22T10:32:27Z</time></trkpt><trkpt lat="53.9089859091" lon="26.2700659689"><ele>143.37</ele><time>2012-09-22T10:32:28Z</time></trkpt><trkpt lat="53.9088897686" lon="26.2694878690"><ele>143.85</ele><time>2012-09-22T10:32:37Z</time></trkpt><trkpt lat="53.9088571630" lon="26.2688943464"><ele>143.37</ele><time>2012-09-22T10:32:48Z</time></trkpt><trkpt lat="53.9088427462" lon="26.2684724852"><ele>143.37</ele><time>2012-09-22T10:32:56Z</time></trkpt><trkpt lat="53.9088435844" lon="26.2680657115"><ele>142.89</ele><time>2012-09-22T10:33:04Z</time></trkpt><trkpt lat="53.9088752680" lon="26.2678101473"><ele>142.89</ele><time>2012-09-22T10:33:12Z</time></trkpt><trkpt lat="53.9088886790" lon="26.2677285913"><ele>142.89</ele><time>2012-09-22T10:33:15Z</time></trkpt><trkpt lat="53.9088888466" lon="26.2676986679"><ele>142.89</ele><time>2012-09-22T10:33:16Z</time></trkpt><trkpt lat="53.9088932052" lon="26.2676419225"><ele>143.37</ele><time>2012-09-22T10:33:18Z</time></trkpt><trkpt lat="53.9088983182" lon="26.2676132564"><ele>142.89</ele><time>2012-09-22T10:33:19Z</time></trkpt><trkpt lat="53.9088891819" lon="26.2672122661"><ele>142.89</ele><time>2012-09-22T10:33:30Z</time></trkpt><trkpt lat="53.9088841528" lon="26.2670546863"><ele>142.89</ele><time>2012-09-22T10:33:34Z</time></trkpt><trkpt lat="53.9088911097" lon="26.2670203205"><ele>142.89</ele><time>2012-09-22T10:33:35Z</time></trkpt><trkpt lat="53.9088989887" lon="26.2669810094"><ele>142.89</ele><time>2012-09-22T10:33:36Z</time></trkpt><trkpt lat="53.9089077897" lon="26.2669382617"><ele>142.89</ele><time>2012-09-22T10:33:37Z</time></trkpt><trkpt lat="53.9089212846" lon="26.2668992858"><ele>142.89</ele><time>2012-09-22T10:33:38Z</time></trkpt><trkpt lat="53.9089325164" lon="26.2668580469"><ele>142.89</ele><time>2012-09-22T10:33:39Z</time></trkpt><trkpt lat="53.9089406468" lon="26.2668164726"><ele>142.89</ele><time>2012-09-22T10:33:40Z</time></trkpt><trkpt lat="53.9089952968" lon="26.2666686159"><ele>143.37</ele><time>2012-09-22T10:33:45Z</time></trkpt><trkpt lat="53.9090075344" lon="26.2663490977"><ele>143.37</ele><time>2012-09-22T10:33:55Z</time></trkpt><trkpt lat="53.9090201072" lon="26.2659689784"><ele>143.37</ele><time>2012-09-22T10:34:07Z</time></trkpt><trkpt lat="53.9090216998" lon="26.2659355346"><ele>142.89</ele><time>2012-09-22T10:34:08Z</time></trkpt><trkpt lat="53.9090235438" lon="26.2659005821"><ele>142.89</ele><time>2012-09-22T10:34:09Z</time></trkpt><trkpt lat="53.9090237115" lon="26.2658719998"><ele>142.89</ele><time>2012-09-22T10:34:10Z</time></trkpt><trkpt lat="53.9090258069" lon="26.2658512965"><ele>142.89</ele><time>2012-09-22T10:34:11Z</time></trkpt><trkpt lat="53.9090253878" lon="26.2658240553"><ele>142.89</ele><time>2012-09-22T10:34:12Z</time></trkpt><trkpt lat="53.9090275671" lon="26.2657929584"><ele>142.89</ele><time>2012-09-22T10:34:13Z</time></trkpt><trkpt lat="53.9090366196" lon="26.2656115741"><ele>142.41</ele><time>2012-09-22T10:34:20Z</time></trkpt><trkpt lat="53.9090346079" lon="26.2655882724"><ele>142.89</ele><time>2012-09-22T10:34:21Z</time></trkpt><trkpt lat="53.9090314228" lon="26.2655213848"><ele>142.89</ele><time>2012-09-22T10:34:28Z</time></trkpt><trkpt lat="53.9090339374" lon="26.2651975080"><ele>142.89</ele><time>2012-09-22T10:34:36Z</time></trkpt><trkpt lat="53.9090309199" lon="26.2648489885"><ele>142.41</ele><time>2012-09-22T10:34:45Z</time></trkpt><trkpt lat="53.9090035949" lon="26.2646678556"><ele>142.41</ele><time>2012-09-22T10:34:50Z</time></trkpt><trkpt lat="53.9090024214" lon="26.2646270357"><ele>142.41</ele><time>2012-09-22T10:34:51Z</time></trkpt><trkpt lat="53.9090019185" lon="26.2645891495"><ele>142.41</ele><time>2012-09-22T10:34:52Z</time></trkpt><trkpt lat="53.9090044331" lon="26.2645514309"><ele>142.41</ele><time>2012-09-22T10:34:53Z</time></trkpt><trkpt lat="53.9090054389" lon="26.2645132933"><ele>142.41</ele><time>2012-09-22T10:34:54Z</time></trkpt><trkpt lat="53.9090052713" lon="26.2641238701"><ele>142.41</ele><time>2012-09-22T10:35:04Z</time></trkpt><trkpt lat="53.9090627711" lon="26.2637617718"><ele>142.41</ele><time>2012-09-22T10:35:15Z</time></trkpt><trkpt lat="53.9091206901" lon="26.2634851690"><ele>142.89</ele><time>2012-09-22T10:35:24Z</time></trkpt><trkpt lat="53.9091123920" lon="26.2631019484"><ele>142.41</ele><time>2012-09-22T10:35:33Z</time></trkpt><trkpt lat="53.9090993162" lon="26.2629751302"><ele>141.93</ele><time>2012-09-22T10:35:40Z</time></trkpt><trkpt lat="53.9090997353" lon="26.2629581150"><ele>141.93</ele><time>2012-09-22T10:35:41Z</time></trkpt><trkpt lat="53.9090918563" lon="26.2628373317"><ele>141.93</ele><time>2012-09-22T10:35:47Z</time></trkpt><trkpt lat="53.9090894256" lon="26.2627556082"><ele>142.41</ele><time>2012-09-22T10:35:55Z</time></trkpt><trkpt lat="53.9090887550" lon="26.2627324741"><ele>141.93</ele><time>2012-09-22T10:35:56Z</time></trkpt><trkpt lat="53.9090652857" lon="26.2624042388"><ele>142.41</ele><time>2012-09-22T10:36:06Z</time></trkpt><trkpt lat="53.9090547245" lon="26.2619868200"><ele>141.93</ele><time>2012-09-22T10:36:15Z</time></trkpt><trkpt lat="53.9090289921" lon="26.2616419885"><ele>142.41</ele><time>2012-09-22T10:36:23Z</time></trkpt><trkpt lat="53.9089858253" lon="26.2612385675"><ele>142.89</ele><time>2012-09-22T10:36:32Z</time></trkpt><trkpt lat="53.9089787006" lon="26.2606431171"><ele>142.89</ele><time>2012-09-22T10:36:43Z</time></trkpt><trkpt lat="53.9089840651" lon="26.2602284644"><ele>142.89</ele><time>2012-09-22T10:36:50Z</time></trkpt><trkpt lat="53.9089673012" lon="26.2597998139"><ele>141.93</ele><time>2012-09-22T10:36:59Z</time></trkpt><trkpt lat="53.9089413173" lon="26.2593497895"><ele>142.41</ele><time>2012-09-22T10:37:07Z</time></trkpt><trkpt lat="53.9089431614" lon="26.2589605339"><ele>142.41</ele><time>2012-09-22T10:37:14Z</time></trkpt><trkpt lat="53.9089210331" lon="26.2585107610"><ele>142.41</ele><time>2012-09-22T10:37:22Z</time></trkpt><trkpt lat="53.9088745974" lon="26.2581027299"><ele>141.93</ele><time>2012-09-22T10:37:29Z</time></trkpt><trkpt lat="53.9088443387" lon="26.2577635143"><ele>141.93</ele><time>2012-09-22T10:37:36Z</time></trkpt><trkpt lat="53.9087992441" lon="26.2573661283"><ele>141.45</ele><time>2012-09-22T10:37:44Z</time></trkpt><trkpt lat="53.9087765291" lon="26.2570116576"><ele>142.41</ele><time>2012-09-22T10:37:52Z</time></trkpt><trkpt lat="53.9087606873" lon="26.2564946618"><ele>142.41</ele><time>2012-09-22T10:38:01Z</time></trkpt><trkpt lat="53.9087468572" lon="26.2560455594"><ele>141.93</ele><time>2012-09-22T10:38:09Z</time></trkpt><trkpt lat="53.9087040257" lon="26.2554896716"><ele>141.93</ele><time>2012-09-22T10:38:19Z</time></trkpt><trkpt lat="53.9086630382" lon="26.2548192032"><ele>140.97</ele><time>2012-09-22T10:38:30Z</time></trkpt><trkpt lat="53.9086202905" lon="26.2543758843"><ele>140.49</ele><time>2012-09-22T10:38:39Z</time></trkpt><trkpt lat="53.9085573424" lon="26.2539532688"><ele>140.49</ele><time>2012-09-22T10:38:49Z</time></trkpt><trkpt lat="53.9085327834" lon="26.2535741553"><ele>140.01</ele><time>2012-09-22T10:38:58Z</time></trkpt><trkpt lat="53.9084828272" lon="26.2530561537"><ele>140.49</ele><time>2012-09-22T10:39:09Z</time></trkpt><trkpt lat="53.9084567595" lon="26.2525938917"><ele>140.49</ele><time>2012-09-22T10:39:19Z</time></trkpt><trkpt lat="53.9084323682" lon="26.2520439550"><ele>140.49</ele><time>2012-09-22T10:39:30Z</time></trkpt><trkpt lat="53.9083962422" lon="26.2515238579"><ele>140.97</ele><time>2012-09-22T10:39:41Z</time></trkpt><trkpt lat="53.9083790593" lon="26.2511667889"><ele>140.97</ele><time>2012-09-22T10:39:51Z</time></trkpt><trkpt lat="53.9083315339" lon="26.2507269904"><ele>140.97</ele><time>2012-09-22T10:40:00Z</time></trkpt><trkpt lat="53.9083058015" lon="26.2502775528"><ele>140.97</ele><time>2012-09-22T10:40:09Z</time></trkpt><trkpt lat="53.9082998503" lon="26.2497432064"><ele>140.97</ele><time>2012-09-22T10:40:18Z</time></trkpt><trkpt lat="53.9082617965" lon="26.2492551282"><ele>140.97</ele><time>2012-09-22T10:40:27Z</time></trkpt><trkpt lat="53.9082288556" lon="26.2487701513"><ele>140.97</ele><time>2012-09-22T10:40:37Z</time></trkpt><trkpt lat="53.9082037099" lon="26.2482509762"><ele>141.45</ele><time>2012-09-22T10:40:47Z</time></trkpt><trkpt lat="53.9081546757" lon="26.2476856168"><ele>140.97</ele><time>2012-09-22T10:40:57Z</time></trkpt><trkpt lat="53.9081213996" lon="26.2470467482"><ele>140.49</ele><time>2012-09-22T10:41:08Z</time></trkpt><trkpt lat="53.9081005286" lon="26.2464930397"><ele>140.97</ele><time>2012-09-22T10:41:19Z</time></trkpt><trkpt lat="53.9080747124" lon="26.2459712662"><ele>141.93</ele><time>2012-09-22T10:41:31Z</time></trkpt><trkpt lat="53.9080407657" lon="26.2453023065"><ele>140.97</ele><time>2012-09-22T10:41:44Z</time></trkpt><trkpt lat="53.9080118481" lon="26.2447755877"><ele>140.97</ele><time>2012-09-22T10:41:54Z</time></trkpt><trkpt lat="53.9079699386" lon="26.2441124115"><ele>140.49</ele><time>2012-09-22T10:42:06Z</time></trkpt><trkpt lat="53.9079411048" lon="26.2435609661"><ele>140.49</ele><time>2012-09-22T10:42:16Z</time></trkpt><trkpt lat="53.9079169650" lon="26.2430037372"><ele>140.49</ele><time>2012-09-22T10:42:27Z</time></trkpt><trkpt lat="53.9079202339" lon="26.2428441457"><ele>140.49</ele><time>2012-09-22T10:42:35Z</time></trkpt><trkpt lat="53.9079184737" lon="26.2428186648"><ele>140.49</ele><time>2012-09-22T10:42:36Z</time></trkpt><trkpt lat="53.9079027157" lon="26.2424684688"><ele>140.49</ele><time>2012-09-22T10:42:43Z</time></trkpt><trkpt lat="53.9078417793" lon="26.2418988347"><ele>140.49</ele><time>2012-09-22T10:42:53Z</time></trkpt><trkpt lat="53.9076851215" lon="26.2413967587"><ele>140.49</ele><time>2012-09-22T10:43:03Z</time></trkpt><trkpt lat="53.9075584710" lon="26.2409795914"><ele>140.97</ele><time>2012-09-22T10:43:12Z</time></trkpt><trkpt lat="53.9073651005" lon="26.2403859012"><ele>140.97</ele><time>2012-09-22T10:43:25Z</time></trkpt><trkpt lat="53.9071630128" lon="26.2398284208"><ele>140.49</ele><time>2012-09-22T10:43:37Z</time></trkpt><trkpt lat="53.9070866536" lon="26.2393094134"><ele>140.49</ele><time>2012-09-22T10:43:48Z</time></trkpt><trkpt lat="53.9070830494" lon="26.2386241090"><ele>140.97</ele><time>2012-09-22T10:44:01Z</time></trkpt><trkpt lat="53.9070918504" lon="26.2379633635"><ele>140.49</ele><time>2012-09-22T10:44:13Z</time></trkpt><trkpt lat="53.9071069378" lon="26.2373308651"><ele>140.97</ele><time>2012-09-22T10:44:26Z</time></trkpt><trkpt lat="53.9071050938" lon="26.2367910706"><ele>140.49</ele><time>2012-09-22T10:44:37Z</time></trkpt><trkpt lat="53.9071150683" lon="26.2360879127"><ele>140.49</ele><time>2012-09-22T10:44:50Z</time></trkpt><trkpt lat="53.9071273897" lon="26.2354147620"><ele>140.01</ele><time>2012-09-22T10:45:02Z</time></trkpt><trkpt lat="53.9071350172" lon="26.2348017935"><ele>140.49</ele><time>2012-09-22T10:45:13Z</time></trkpt><trkpt lat="53.9071386214" lon="26.2341445684"><ele>140.49</ele><time>2012-09-22T10:45:25Z</time></trkpt><trkpt lat="53.9071544632" lon="26.2336362898"><ele>140.49</ele><time>2012-09-22T10:45:35Z</time></trkpt><trkpt lat="53.9071678743" lon="26.2329640612"><ele>140.01</ele><time>2012-09-22T10:45:46Z</time></trkpt><trkpt lat="53.9071652759" lon="26.2322765775"><ele>140.01</ele><time>2012-09-22T10:45:58Z</time></trkpt><trkpt lat="53.9071757533" lon="26.2316043489"><ele>140.49</ele><time>2012-09-22T10:46:09Z</time></trkpt><trkpt lat="53.9071856439" lon="26.2309995107"><ele>140.49</ele><time>2012-09-22T10:46:19Z</time></trkpt><trkpt lat="53.9072060119" lon="26.2304294575"><ele>140.01</ele><time>2012-09-22T10:46:30Z</time></trkpt><trkpt lat="53.9072096162" lon="26.2299195863"><ele>140.01</ele><time>2012-09-22T10:46:39Z</time></trkpt><trkpt lat="53.9071852248" lon="26.2294422369"><ele>140.49</ele><time>2012-09-22T10:46:47Z</time></trkpt><trkpt lat="53.9071999770" lon="26.2289762869"><ele>140.01</ele><time>2012-09-22T10:46:55Z</time></trkpt><trkpt lat="53.9073352609" lon="26.2284437846"><ele>140.49</ele><time>2012-09-22T10:47:05Z</time></trkpt><trkpt lat="53.9075257815" lon="26.2278596498"><ele>140.01</ele><time>2012-09-22T10:47:15Z</time></trkpt><trkpt lat="53.9076773264" lon="26.2273047678"><ele>140.01</ele><time>2012-09-22T10:47:26Z</time></trkpt><trkpt lat="53.9078424498" lon="26.2267870177"><ele>140.01</ele><time>2012-09-22T10:47:37Z</time></trkpt><trkpt lat="53.9079699386" lon="26.2263182178"><ele>140.01</ele><time>2012-09-22T10:47:47Z</time></trkpt><trkpt lat="53.9081225730" lon="26.2258395273"><ele>140.01</ele><time>2012-09-22T10:47:57Z</time></trkpt><trkpt lat="53.9083249960" lon="26.2252618466"><ele>140.01</ele><time>2012-09-22T10:48:08Z</time></trkpt><trkpt lat="53.9084355533" lon="26.2248908635"><ele>140.49</ele><time>2012-09-22T10:48:16Z</time></trkpt><trkpt lat="53.9084192086" lon="26.2244609557"><ele>140.49</ele><time>2012-09-22T10:48:25Z</time></trkpt><trkpt lat="53.9083530754" lon="26.2241224945"><ele>140.49</ele><time>2012-09-22T10:48:33Z</time></trkpt><trkpt lat="53.9082234073" lon="26.2236295547"><ele>140.49</ele><time>2012-09-22T10:48:43Z</time></trkpt><trkpt lat="53.9080464654" lon="26.2231064402"><ele>140.49</ele><time>2012-09-22T10:48:54Z</time></trkpt><trkpt lat="53.9079021290" lon="26.2226746045"><ele>140.49</ele><time>2012-09-22T10:49:03Z</time></trkpt><trkpt lat="53.9077551942" lon="26.2222635560"><ele>140.01</ele><time>2012-09-22T10:49:12Z</time></trkpt><trkpt lat="53.9076582994" lon="26.2218894716"><ele>139.53</ele><time>2012-09-22T10:49:20Z</time></trkpt><trkpt lat="53.9076301362" lon="26.2217367534"><ele>140.01</ele><time>2012-09-22T10:49:28Z</time></trkpt><trkpt lat="53.9075973630" lon="26.2216974422"><ele>140.01</ele><time>2012-09-22T10:49:42Z</time></trkpt><trkpt lat="53.9075802639" lon="26.2216975261"><ele>140.01</ele><time>2012-09-22T10:49:43Z</time></trkpt><trkpt lat="53.9073682018" lon="26.2217142899"><ele>140.01</ele><time>2012-09-22T10:49:53Z</time></trkpt><trkpt lat="53.9071571454" lon="26.2218614761"><ele>140.49</ele><time>2012-09-22T10:50:03Z</time></trkpt><trkpt lat="53.9069633558" lon="26.2220618036"><ele>140.49</ele><time>2012-09-22T10:50:09Z</time></trkpt><trkpt lat="53.9067114796" lon="26.2224963214"><ele>140.97</ele><time>2012-09-22T10:50:18Z</time></trkpt><trkpt lat="53.9063902851" lon="26.2231948692"><ele>140.97</ele><time>2012-09-22T10:50:30Z</time></trkpt><trkpt lat="53.9059641492" lon="26.2237216718"><ele>140.97</ele><time>2012-09-22T10:50:41Z</time></trkpt><trkpt lat="53.9055510052" lon="26.2239727098"><ele>140.49</ele><time>2012-09-22T10:50:50Z</time></trkpt><trkpt lat="53.9055035636" lon="26.2239712849"><ele>140.49</ele><time>2012-09-22T10:50:51Z</time></trkpt><trkpt lat="53.9054541104" lon="26.2239616457"><ele>140.01</ele><time>2012-09-22T10:50:52Z</time></trkpt><trkpt lat="53.9054023102" lon="26.2239480671"><ele>140.49</ele><time>2012-09-22T10:50:53Z</time></trkpt><trkpt lat="53.9053521026" lon="26.2239284534"><ele>140.49</ele><time>2012-09-22T10:50:54Z</time></trkpt><trkpt lat="53.9053041581" lon="26.2239038106"><ele>140.01</ele><time>2012-09-22T10:50:55Z</time></trkpt><trkpt lat="53.9052589796" lon="26.2238755636"><ele>140.01</ele><time>2012-09-22T10:50:56Z</time></trkpt><trkpt lat="53.9048138168" lon="26.2234675325"><ele>140.01</ele><time>2012-09-22T10:51:08Z</time></trkpt><trkpt lat="53.9046880882" lon="26.2233610824"><ele>140.49</ele><time>2012-09-22T10:51:16Z</time></trkpt><trkpt lat="53.9045796264" lon="26.2232915126"><ele>140.49</ele><time>2012-09-22T10:51:28Z</time></trkpt><trkpt lat="53.9045867510" lon="26.2232472561"><ele>140.49</ele><time>2012-09-22T10:51:45Z</time></trkpt><trkpt lat="53.9045776147" lon="26.2232495192"><ele>140.49</ele><time>2012-09-22T10:51:53Z</time></trkpt><trkpt lat="53.9045409020" lon="26.2232332584"><ele>140.97</ele><time>2012-09-22T10:52:26Z</time></trkpt><trkpt lat="53.9045557380" lon="26.2232175004"><ele>140.97</ele><time>2012-09-22T10:52:45Z</time></trkpt><trkpt lat="53.9045560732" lon="26.2232210208"><ele>140.49</ele><time>2012-09-22T10:53:10Z</time></trkpt><trkpt lat="53.9045581687" lon="26.2232189253"><ele>140.49</ele><time>2012-09-22T10:53:40Z</time></trkpt><trkpt lat="53.9045584202" lon="26.2232335098"><ele>140.49</ele><time>2012-09-22T10:54:06Z</time></trkpt><trkpt lat="53.9045326039" lon="26.2232202664"><ele>140.97</ele><time>2012-09-22T10:54:34Z</time></trkpt><trkpt lat="53.9045412373" lon="26.2232235353"><ele>140.49</ele><time>2012-09-22T10:54:55Z</time></trkpt><trkpt lat="53.9045507088" lon="26.2232323363"><ele>140.97</ele><time>2012-09-22T10:55:19Z</time></trkpt><trkpt lat="53.9045600127" lon="26.2232230324"><ele>140.97</ele><time>2012-09-22T10:55:44Z</time></trkpt><trkpt lat="53.9045496192" lon="26.2232447416"><ele>140.97</ele><time>2012-09-22T10:56:08Z</time></trkpt><trkpt lat="53.9045392256" lon="26.2232369464"><ele>140.97</ele><time>2012-09-22T10:56:34Z</time></trkpt><trkpt lat="53.9045447577" lon="26.2232381199"><ele>140.97</ele><time>2012-09-22T10:57:02Z</time></trkpt><trkpt lat="53.9045432489" lon="26.2232354376"><ele>141.45</ele><time>2012-09-22T10:57:28Z</time></trkpt><trkpt lat="53.9045347832" lon="26.2232470885"><ele>141.45</ele><time>2012-09-22T10:58:00Z</time></trkpt><trkpt lat="53.9045481943" lon="26.2232527044"><ele>141.45</ele><time>2012-09-22T10:58:22Z</time></trkpt><trkpt lat="53.9045457635" lon="26.2232422270"><ele>141.45</ele><time>2012-09-22T10:58:46Z</time></trkpt><trkpt lat="53.9045435842" lon="26.2232309114"><ele>141.45</ele><time>2012-09-22T10:59:11Z</time></trkpt><trkpt lat="53.9045533910" lon="26.2232526205"><ele>141.45</ele><time>2012-09-22T10:59:37Z</time></trkpt><trkpt lat="53.9045660477" lon="26.2232632656"><ele>141.45</ele><time>2012-09-22T11:00:02Z</time></trkpt><trkpt lat="53.9045520499" lon="26.2232591584"><ele>141.45</ele><time>2012-09-22T11:00:34Z</time></trkpt><trkpt lat="53.9045433328" lon="26.2232255470"><ele>141.45</ele><time>2012-09-22T11:01:00Z</time></trkpt><trkpt lat="53.9045460988" lon="26.2232204340"><ele>141.45</ele><time>2012-09-22T11:01:22Z</time></trkpt><trkpt lat="53.9045365434" lon="26.2232485134"><ele>141.45</ele><time>2012-09-22T11:01:50Z</time></trkpt><trkpt lat="53.9045500383" lon="26.2232616730"><ele>141.45</ele><time>2012-09-22T11:02:14Z</time></trkpt><trkpt lat="53.9045543130" lon="26.2232542969"><ele>141.45</ele><time>2012-09-22T11:02:44Z</time></trkpt><trkpt lat="53.9045705739" lon="26.2232165784"><ele>141.45</ele><time>2012-09-22T11:03:12Z</time></trkpt><trkpt lat="53.9045586716" lon="26.2232553028"><ele>141.93</ele><time>2012-09-22T11:03:36Z</time></trkpt><trkpt lat="53.9045524690" lon="26.2232680432"><ele>140.97</ele><time>2012-09-22T11:03:55Z</time></trkpt><trkpt lat="53.9045555703" lon="26.2232631817"><ele>141.93</ele><time>2012-09-22T11:04:10Z</time></trkpt><trkpt lat="53.9045618568" lon="26.2232566439"><ele>141.93</ele><time>2012-09-22T11:04:23Z</time></trkpt><trkpt lat="53.9045396447" lon="26.2232667021"><ele>140.97</ele><time>2012-09-22T11:04:39Z</time></trkpt><trkpt lat="53.9045245573" lon="26.2232589908"><ele>141.45</ele><time>2012-09-22T11:05:07Z</time></trkpt><trkpt lat="53.9045300893" lon="26.2232912611"><ele>141.45</ele><time>2012-09-22T11:05:35Z</time></trkpt><trkpt lat="53.9045199472" lon="26.2232820410"><ele>141.45</ele><time>2012-09-22T11:06:04Z</time></trkpt><trkpt lat="53.9045245573" lon="26.2232739106"><ele>141.93</ele><time>2012-09-22T11:06:34Z</time></trkpt><trkpt lat="53.9045143314" lon="26.2232824601"><ele>141.93</ele><time>2012-09-22T11:07:06Z</time></trkpt><trkpt lat="53.9045305084" lon="26.2232670374"><ele>141.93</ele><time>2012-09-22T11:07:34Z</time></trkpt><trkpt lat="53.9045325201" lon="26.2232696358"><ele>142.41</ele><time>2012-09-22T11:08:03Z</time></trkpt><trkpt lat="53.9045304246" lon="26.2232775986"><ele>142.41</ele><time>2012-09-22T11:08:34Z</time></trkpt><trkpt lat="53.9045491163" lon="26.2232869864"><ele>142.41</ele><time>2012-09-22T11:09:00Z</time></trkpt><trkpt lat="53.9045439195" lon="26.2232904229"><ele>142.89</ele><time>2012-09-22T11:09:41Z</time></trkpt><trkpt lat="53.9045365434" lon="26.2232906744"><ele>142.89</ele><time>2012-09-22T11:10:13Z</time></trkpt><trkpt lat="53.9045367949" lon="26.2233000621"><ele>142.89</ele><time>2012-09-22T11:10:37Z</time></trkpt><trkpt lat="53.9045310114" lon="26.2233078573"><ele>142.89</ele><time>2012-09-22T11:11:13Z</time></trkpt><trkpt lat="53.9045298379" lon="26.2233372778"><ele>143.37</ele><time>2012-09-22T11:11:42Z</time></trkpt><trkpt lat="53.9045224618" lon="26.2233449891"><ele>143.37</ele><time>2012-09-22T11:12:18Z</time></trkpt><trkpt lat="53.9045204502" lon="26.2233102880"><ele>143.37</ele><time>2012-09-22T11:12:48Z</time></trkpt><trkpt lat="53.9045240544" lon="26.2233180832"><ele>143.85</ele><time>2012-09-22T11:13:18Z</time></trkpt><trkpt lat="53.9045455959" lon="26.2232869025"><ele>144.34</ele><time>2012-09-22T11:13:47Z</time></trkpt><trkpt lat="53.9045531396" lon="26.2232490163"><ele>144.82</ele><time>2012-09-22T11:14:13Z</time></trkpt><trkpt lat="53.9045795426" lon="26.2232356891"><ele>144.82</ele><time>2012-09-22T11:14:38Z</time></trkpt><trkpt lat="53.9045978151" lon="26.2232433166"><ele>144.34</ele><time>2012-09-22T11:15:01Z</time></trkpt><trkpt lat="53.9046082087" lon="26.2232655287"><ele>144.82</ele><time>2012-09-22T11:15:30Z</time></trkpt><trkpt lat="53.9045947976" lon="26.2232554704"><ele>144.82</ele><time>2012-09-22T11:15:53Z</time></trkpt><trkpt lat="53.9045662154" lon="26.2232584041"><ele>143.85</ele><time>2012-09-22T11:16:10Z</time></trkpt><trkpt lat="53.9045458473" lon="26.2232768442"><ele>143.85</ele><time>2012-09-22T11:16:39Z</time></trkpt><trkpt lat="53.9045346994" lon="26.2232683785"><ele>143.85</ele><time>2012-09-22T11:17:15Z</time></trkpt><trkpt lat="53.9045554865" lon="26.2232635170"><ele>143.85</ele><time>2012-09-22T11:17:47Z</time></trkpt><trkpt lat="53.9045318495" lon="26.2232718989"><ele>143.85</ele><time>2012-09-22T11:18:21Z</time></trkpt><trkpt lat="53.9045238867" lon="26.2232827954"><ele>143.85</ele><time>2012-09-22T11:18:49Z</time></trkpt><trkpt lat="53.9045339450" lon="26.2232673727"><ele>143.85</ele><time>2012-09-22T11:19:21Z</time></trkpt><trkpt lat="53.9045378845" lon="26.2232983019"><ele>143.85</ele><time>2012-09-22T11:19:48Z</time></trkpt><trkpt lat="53.9045495354" lon="26.2232895847"><ele>143.85</ele><time>2012-09-22T11:20:14Z</time></trkpt><trkpt lat="53.9045351185" lon="26.2232864834"><ele>143.85</ele><time>2012-09-22T11:20:53Z</time></trkpt><trkpt lat="53.9045238867" lon="26.2232911773"><ele>143.85</ele><time>2012-09-22T11:21:19Z</time></trkpt><trkpt lat="53.9045360405" lon="26.2232647743"><ele>143.85</ele><time>2012-09-22T11:21:44Z</time></trkpt><trkpt lat="53.9045547321" lon="26.2232568115"><ele>144.82</ele><time>2012-09-22T11:21:56Z</time></trkpt><trkpt lat="53.9045536425" lon="26.2232713960"><ele>144.34</ele><time>2012-09-22T11:22:11Z</time></trkpt><trkpt lat="53.9045585878" lon="26.2232817896"><ele>144.34</ele><time>2012-09-22T11:22:31Z</time></trkpt><trkpt lat="53.9045663830" lon="26.2232573144"><ele>144.34</ele><time>2012-09-22T11:23:06Z</time></trkpt><trkpt lat="53.9045526367" lon="26.2232788559"><ele>144.34</ele><time>2012-09-22T11:23:30Z</time></trkpt><trkpt lat="53.9045642875" lon="26.2232599966"><ele>144.34</ele><time>2012-09-22T11:23:57Z</time></trkpt><trkpt lat="53.9045859128" lon="26.2232345995"><ele>144.34</ele><time>2012-09-22T11:24:24Z</time></trkpt><trkpt lat="53.9045709092" lon="26.2232656963"><ele>144.82</ele><time>2012-09-22T11:24:54Z</time></trkpt><trkpt lat="53.9045630302" lon="26.2232653610"><ele>144.82</ele><time>2012-09-22T11:25:21Z</time></trkpt><trkpt lat="53.9045569953" lon="26.2232920155"><ele>144.82</ele><time>2012-09-22T11:25:50Z</time></trkpt><trkpt lat="53.9045569114" lon="26.2232668698"><ele>144.82</ele><time>2012-09-22T11:26:19Z</time></trkpt><trkpt lat="53.9045419917" lon="26.2232757546"><ele>145.30</ele><time>2012-09-22T11:26:45Z</time></trkpt><trkpt lat="53.9045345318" lon="26.2232682947"><ele>145.30</ele><time>2012-09-22T11:27:21Z</time></trkpt><trkpt lat="53.9045591746" lon="26.2232860643"><ele>145.30</ele><time>2012-09-22T11:27:48Z</time></trkpt><trkpt lat="53.9045619406" lon="26.2232831307"><ele>145.30</ele><time>2012-09-22T11:28:15Z</time></trkpt><trkpt lat="53.9045699034" lon="26.2232972961"><ele>145.30</ele><time>2012-09-22T11:28:45Z</time></trkpt><trkpt lat="53.9045416564" lon="26.2232849747"><ele>145.30</ele><time>2012-09-22T11:29:15Z</time></trkpt><trkpt lat="53.9045694005" lon="26.2232530396"><ele>145.30</ele><time>2012-09-22T11:29:45Z</time></trkpt><trkpt lat="53.9045702387" lon="26.2232707255"><ele>145.30</ele><time>2012-09-22T11:30:13Z</time></trkpt><trkpt lat="53.9045669697" lon="26.2232830469"><ele>145.30</ele><time>2012-09-22T11:30:35Z</time></trkpt><trkpt lat="53.9045611024" lon="26.2232855614"><ele>145.30</ele><time>2012-09-22T11:31:05Z</time></trkpt><trkpt lat="53.9045529719" lon="26.2233105395"><ele>145.30</ele><time>2012-09-22T11:31:36Z</time></trkpt><trkpt lat="53.9045515470" lon="26.2232792750"><ele>145.30</ele><time>2012-09-22T11:31:56Z</time></trkpt><trkpt lat="53.9045564923" lon="26.2232851423"><ele>145.30</ele><time>2012-09-22T11:32:35Z</time></trkpt><trkpt lat="53.9045761060" lon="26.2232713122"><ele>145.30</ele><time>2012-09-22T11:33:02Z</time></trkpt><trkpt lat="53.9045874216" lon="26.2232731562"><ele>145.78</ele><time>2012-09-22T11:33:14Z</time></trkpt><trkpt lat="53.9045927860" lon="26.2232612539"><ele>145.78</ele><time>2012-09-22T11:33:31Z</time></trkpt><trkpt lat="53.9045927860" lon="26.2232596613"><ele>146.26</ele><time>2012-09-22T11:33:56Z</time></trkpt><trkpt lat="53.9045972284" lon="26.2232573982"><ele>146.26</ele><time>2012-09-22T11:34:11Z</time></trkpt><trkpt lat="53.9045936242" lon="26.2232739106"><ele>146.26</ele><time>2012-09-22T11:34:37Z</time></trkpt><trkpt lat="53.9046098012" lon="26.2232175004"><ele>145.78</ele><time>2012-09-22T11:34:46Z</time></trkpt><trkpt lat="53.9046142437" lon="26.2231993955"><ele>145.78</ele><time>2012-09-22T11:34:47Z</time></trkpt><trkpt lat="53.9046196919" lon="26.2231739983"><ele>145.78</ele><time>2012-09-22T11:34:48Z</time></trkpt><trkpt lat="53.9046217036" lon="26.2231490202"><ele>145.78</ele><time>2012-09-22T11:34:49Z</time></trkpt><trkpt lat="53.9046205301" lon="26.2231004052"><ele>145.78</ele><time>2012-09-22T11:34:51Z</time></trkpt><trkpt lat="53.9046140760" lon="26.2230800372"><ele>145.30</ele><time>2012-09-22T11:34:52Z</time></trkpt><trkpt lat="53.9044839889" lon="26.2227023486"><ele>145.78</ele><time>2012-09-22T11:35:05Z</time></trkpt><trkpt lat="53.9043072145" lon="26.2222321238"><ele>146.26</ele><time>2012-09-22T11:35:16Z</time></trkpt><trkpt lat="53.9040501416" lon="26.2218147051"><ele>145.78</ele><time>2012-09-22T11:35:28Z</time></trkpt><trkpt lat="53.9037058968" lon="26.2214051653"><ele>145.78</ele><time>2012-09-22T11:35:40Z</time></trkpt><trkpt lat="53.9033347461" lon="26.2209359463"><ele>146.26</ele><time>2012-09-22T11:35:53Z</time></trkpt><trkpt lat="53.9029366896" lon="26.2204525620"><ele>146.26</ele><time>2012-09-22T11:36:06Z</time></trkpt><trkpt lat="53.9027283993" lon="26.2202045415"><ele>146.26</ele><time>2012-09-22T11:36:12Z</time></trkpt><trkpt lat="53.9026923571" lon="26.2201601174"><ele>146.26</ele><time>2012-09-22T11:36:13Z</time></trkpt><trkpt lat="53.9022522233" lon="26.2196635734"><ele>145.30</ele><time>2012-09-22T11:36:25Z</time></trkpt><trkpt lat="53.9021818154" lon="26.2195827719"><ele>145.30</ele><time>2012-09-22T11:36:27Z</time></trkpt><trkpt lat="53.9020409994" lon="26.2194128707"><ele>145.30</ele><time>2012-09-22T11:36:31Z</time></trkpt><trkpt lat="53.9020045381" lon="26.2193727214"><ele>145.30</ele><time>2012-09-22T11:36:32Z</time></trkpt><trkpt lat="53.9015768096" lon="26.2188520376"><ele>144.82</ele><time>2012-09-22T11:36:44Z</time></trkpt><trkpt lat="53.9015064854" lon="26.2187637761"><ele>144.82</ele><time>2012-09-22T11:36:46Z</time></trkpt><trkpt lat="53.9014360774" lon="26.2186753470"><ele>144.82</ele><time>2012-09-22T11:36:48Z</time></trkpt><trkpt lat="53.9009346720" lon="26.2180633005"><ele>143.85</ele><time>2012-09-22T11:37:02Z</time></trkpt><trkpt lat="53.9004444983" lon="26.2174394354"><ele>143.85</ele><time>2012-09-22T11:37:16Z</time></trkpt><trkpt lat="53.9000248164" lon="26.2169147283"><ele>144.34</ele><time>2012-09-22T11:37:28Z</time></trkpt><trkpt lat="53.8995915558" lon="26.2164142448"><ele>144.34</ele><time>2012-09-22T11:37:40Z</time></trkpt><trkpt lat="53.8992654160" lon="26.2159656454"><ele>143.85</ele><time>2012-09-22T11:37:51Z</time></trkpt><trkpt lat="53.8990857918" lon="26.2155286130"><ele>143.85</ele><time>2012-09-22T11:38:00Z</time></trkpt><trkpt lat="53.8989374321" lon="26.2148326635"><ele>143.85</ele><time>2012-09-22T11:38:12Z</time></trkpt><trkpt lat="53.8988115359" lon="26.2143114768"><ele>143.85</ele><time>2012-09-22T11:38:20Z</time></trkpt><trkpt lat="53.8987734821" lon="26.2140904460"><ele>143.85</ele><time>2012-09-22T11:38:23Z</time></trkpt><trkpt lat="53.8987631723" lon="26.2140151765"><ele>143.85</ele><time>2012-09-22T11:38:24Z</time></trkpt><trkpt lat="53.8987487555" lon="26.2139444333"><ele>143.85</ele><time>2012-09-22T11:38:25Z</time></trkpt><trkpt lat="53.8987345900" lon="26.2138740253"><ele>143.85</ele><time>2012-09-22T11:38:26Z</time></trkpt><trkpt lat="53.8987240288" lon="26.2137973309"><ele>143.85</ele><time>2012-09-22T11:38:27Z</time></trkpt><trkpt lat="53.8986481726" lon="26.2132451311"><ele>143.85</ele><time>2012-09-22T11:38:34Z</time></trkpt><trkpt lat="53.8986340910" lon="26.2131704483"><ele>143.85</ele><time>2012-09-22T11:38:35Z</time></trkpt><trkpt lat="53.8986210991" lon="26.2130981963"><ele>143.85</ele><time>2012-09-22T11:38:36Z</time></trkpt><trkpt lat="53.8986091129" lon="26.2130249385"><ele>143.85</ele><time>2012-09-22T11:38:37Z</time></trkpt><trkpt lat="53.8985989708" lon="26.2129484117"><ele>143.85</ele><time>2012-09-22T11:38:38Z</time></trkpt><trkpt lat="53.8984350208" lon="26.2119686510"><ele>143.37</ele><time>2012-09-22T11:38:51Z</time></trkpt><trkpt lat="53.8983174227" lon="26.2110205740"><ele>143.85</ele><time>2012-09-22T11:39:03Z</time></trkpt><trkpt lat="53.8981391396" lon="26.2099033501"><ele>143.85</ele><time>2012-09-22T11:39:18Z</time></trkpt><trkpt lat="53.8979459368" lon="26.2093405891"><ele>143.85</ele><time>2012-09-22T11:39:27Z</time></trkpt><trkpt lat="53.8975472935" lon="26.2087111920"><ele>143.85</ele><time>2012-09-22T11:39:39Z</time></trkpt><trkpt lat="53.8973061461" lon="26.2084764149"><ele>143.85</ele><time>2012-09-22T11:39:45Z</time></trkpt><trkpt lat="53.8968696166" lon="26.2081211060"><ele>143.37</ele><time>2012-09-22T11:39:56Z</time></trkpt><trkpt lat="53.8968318142" lon="26.2080853991"><ele>143.85</ele><time>2012-09-22T11:39:57Z</time></trkpt><trkpt lat="53.8963335939" lon="26.2076191977"><ele>143.85</ele><time>2012-09-22T11:40:10Z</time></trkpt><trkpt lat="53.8958748523" lon="26.2072120048"><ele>143.85</ele><time>2012-09-22T11:40:22Z</time></trkpt><trkpt lat="53.8953681663" lon="26.2067997828"><ele>143.85</ele><time>2012-09-22T11:40:35Z</time></trkpt><trkpt lat="53.8949634042" lon="26.2064551190"><ele>143.37</ele><time>2012-09-22T11:40:45Z</time></trkpt><trkpt lat="53.8949261885" lon="26.2064191606"><ele>143.37</ele><time>2012-09-22T11:40:46Z</time></trkpt><trkpt lat="53.8944926765" lon="26.2060227804"><ele>143.37</ele><time>2012-09-22T11:40:57Z</time></trkpt><trkpt lat="53.8940519560" lon="26.2055991590"><ele>143.37</ele><time>2012-09-22T11:41:09Z</time></trkpt><trkpt lat="53.8934583496" lon="26.2049695104"><ele>144.34</ele><time>2012-09-22T11:41:25Z</time></trkpt><trkpt lat="53.8933463674" lon="26.2048630603"><ele>144.34</ele><time>2012-09-22T11:41:28Z</time></trkpt><trkpt lat="53.8932296075" lon="26.2047570292"><ele>144.34</ele><time>2012-09-22T11:41:31Z</time></trkpt><trkpt lat="53.8926676847" lon="26.2042243592"><ele>144.82</ele><time>2012-09-22T11:41:46Z</time></trkpt><trkpt lat="53.8921682071" lon="26.2037250493"><ele>145.30</ele><time>2012-09-22T11:41:59Z</time></trkpt><trkpt lat="53.8917671330" lon="26.2034039386"><ele>145.30</ele><time>2012-09-22T11:42:09Z</time></trkpt><trkpt lat="53.8916848227" lon="26.2033518031"><ele>145.30</ele><time>2012-09-22T11:42:11Z</time></trkpt><trkpt lat="53.8916417398" lon="26.2033296749"><ele>145.30</ele><time>2012-09-22T11:42:12Z</time></trkpt><trkpt lat="53.8911743648" lon="26.2030865997"><ele>144.82</ele><time>2012-09-22T11:42:23Z</time></trkpt><trkpt lat="53.8911319524" lon="26.2030700035"><ele>144.82</ele><time>2012-09-22T11:42:24Z</time></trkpt><trkpt lat="53.8906660024" lon="26.2030003499"><ele>145.78</ele><time>2012-09-22T11:42:36Z</time></trkpt><trkpt lat="53.8906268589" lon="26.2030037865"><ele>145.78</ele><time>2012-09-22T11:42:37Z</time></trkpt><trkpt lat="53.8904575445" lon="26.2030188739"><ele>145.78</ele><time>2012-09-22T11:42:41Z</time></trkpt><trkpt lat="53.8901230227" lon="26.2030356377"><ele>146.26</ele><time>2012-09-22T11:42:49Z</time></trkpt><trkpt lat="53.8900804427" lon="26.2030387390"><ele>146.26</ele><time>2012-09-22T11:42:50Z</time></trkpt><trkpt lat="53.8894704077" lon="26.2030752841"><ele>146.74</ele><time>2012-09-22T11:43:04Z</time></trkpt><trkpt lat="53.8889569324" lon="26.2031257432"><ele>147.22</ele><time>2012-09-22T11:43:16Z</time></trkpt><trkpt lat="53.8888693415" lon="26.2031241506"><ele>147.22</ele><time>2012-09-22T11:43:18Z</time></trkpt><trkpt lat="53.8887799904" lon="26.2031368073"><ele>147.22</ele><time>2012-09-22T11:43:20Z</time></trkpt><trkpt lat="53.8882326521" lon="26.2031493802"><ele>146.74</ele><time>2012-09-22T11:43:32Z</time></trkpt><trkpt lat="53.8876755070" lon="26.2031552475"><ele>145.30</ele><time>2012-09-22T11:43:43Z</time></trkpt><trkpt lat="53.8870980777" lon="26.2031871825"><ele>144.82</ele><time>2012-09-22T11:43:54Z</time></trkpt><trkpt lat="53.8865675032" lon="26.2032009289"><ele>143.85</ele><time>2012-09-22T11:44:04Z</time></trkpt><trkpt lat="53.8860380184" lon="26.2032572553"><ele>143.37</ele><time>2012-09-22T11:44:14Z</time></trkpt><trkpt lat="53.8855260517" lon="26.2033064570"><ele>143.85</ele><time>2012-09-22T11:44:25Z</time></trkpt><trkpt lat="53.8849638775" lon="26.2033154257"><ele>143.85</ele><time>2012-09-22T11:44:37Z</time></trkpt><trkpt lat="53.8843472209" lon="26.2033213768"><ele>143.85</ele><time>2012-09-22T11:44:49Z</time></trkpt><trkpt lat="53.8837656006" lon="26.2033377215"><ele>143.37</ele><time>2012-09-22T11:45:01Z</time></trkpt><trkpt lat="53.8834908418" lon="26.2033851631"><ele>143.37</ele><time>2012-09-22T11:45:07Z</time></trkpt><trkpt lat="53.8832576573" lon="26.2035206147"><ele>143.37</ele><time>2012-09-22T11:45:12Z</time></trkpt><trkpt lat="53.8829604350" lon="26.2037634384"><ele>143.37</ele><time>2012-09-22T11:45:19Z</time></trkpt><trkpt lat="53.8829188608" lon="26.2038044259"><ele>143.37</ele><time>2012-09-22T11:45:20Z</time></trkpt><trkpt lat="53.8828757778" lon="26.2038418930"><ele>143.37</ele><time>2012-09-22T11:45:21Z</time></trkpt><trkpt lat="53.8824588619" lon="26.2042132113"><ele>143.37</ele><time>2012-09-22T11:45:31Z</time></trkpt><trkpt lat="53.8820477296" lon="26.2046283670"><ele>143.37</ele><time>2012-09-22T11:45:42Z</time></trkpt><trkpt lat="53.8816671912" lon="26.2049880344"><ele>142.89</ele><time>2012-09-22T11:45:52Z</time></trkpt><trkpt lat="53.8811603375" lon="26.2054098118"><ele>142.89</ele><time>2012-09-22T11:46:05Z</time></trkpt><trkpt lat="53.8807601854" lon="26.2057334371"><ele>142.89</ele><time>2012-09-22T11:46:15Z</time></trkpt><trkpt lat="53.8802566845" lon="26.2060920149"><ele>142.41</ele><time>2012-09-22T11:46:26Z</time></trkpt><trkpt lat="53.8797941711" lon="26.2061598245"><ele>142.41</ele><time>2012-09-22T11:46:35Z</time></trkpt><trkpt lat="53.8795438036" lon="26.2060888298"><ele>142.41</ele><time>2012-09-22T11:46:40Z</time></trkpt><trkpt lat="53.8794959430" lon="26.2060631812"><ele>141.93</ele><time>2012-09-22T11:46:41Z</time></trkpt><trkpt lat="53.8789704815" lon="26.2058044318"><ele>142.89</ele><time>2012-09-22T11:46:53Z</time></trkpt><trkpt lat="53.8785790466" lon="26.2056748476"><ele>142.89</ele><time>2012-09-22T11:47:02Z</time></trkpt><trkpt lat="53.8785371371" lon="26.2056589220"><ele>143.37</ele><time>2012-09-22T11:47:03Z</time></trkpt><trkpt lat="53.8780629728" lon="26.2055154238"><ele>142.89</ele><time>2012-09-22T11:47:14Z</time></trkpt><trkpt lat="53.8776988629" lon="26.2053991668"><ele>142.41</ele><time>2012-09-22T11:47:22Z</time></trkpt><trkpt lat="53.8772884011" lon="26.2053207960"><ele>142.41</ele><time>2012-09-22T11:47:31Z</time></trkpt><trkpt lat="53.8771951105" lon="26.2052860949"><ele>142.41</ele><time>2012-09-22T11:47:33Z</time></trkpt><trkpt lat="53.8771501835" lon="26.2052801438"><ele>142.41</ele><time>2012-09-22T11:47:34Z</time></trkpt><trkpt lat="53.8766395580" lon="26.2051659822"><ele>142.41</ele><time>2012-09-22T11:47:46Z</time></trkpt><trkpt lat="53.8760731090" lon="26.2050581910"><ele>141.93</ele><time>2012-09-22T11:47:59Z</time></trkpt><trkpt lat="53.8754529320" lon="26.2049170397"><ele>142.41</ele><time>2012-09-22T11:48:13Z</time></trkpt><trkpt lat="53.8748200983" lon="26.2047756370"><ele>142.41</ele><time>2012-09-22T11:48:28Z</time></trkpt><trkpt lat="53.8743445929" lon="26.2046494894"><ele>142.41</ele><time>2012-09-22T11:48:39Z</time></trkpt><trkpt lat="53.8743003365" lon="26.2046310492"><ele>142.89</ele><time>2012-09-22T11:48:40Z</time></trkpt><trkpt lat="53.8742553256" lon="26.2046184763"><ele>142.89</ele><time>2012-09-22T11:48:41Z</time></trkpt><trkpt lat="53.8739426807" lon="26.2045477331"><ele>142.41</ele><time>2012-09-22T11:48:48Z</time></trkpt><trkpt lat="53.8735380862" lon="26.2044551969"><ele>142.41</ele><time>2012-09-22T11:48:57Z</time></trkpt><trkpt lat="53.8734907284" lon="26.2044455577"><ele>141.93</ele><time>2012-09-22T11:48:58Z</time></trkpt><trkpt lat="53.8732173946" lon="26.2043867167"><ele>141.93</ele><time>2012-09-22T11:49:04Z</time></trkpt><trkpt lat="53.8731714617" lon="26.2043832801"><ele>141.93</ele><time>2012-09-22T11:49:05Z</time></trkpt><trkpt lat="53.8725404721" lon="26.2042620778"><ele>142.41</ele><time>2012-09-22T11:49:19Z</time></trkpt><trkpt lat="53.8719091471" lon="26.2041447312"><ele>141.93</ele><time>2012-09-22T11:49:33Z</time></trkpt><trkpt lat="53.8712199870" lon="26.2040107045"><ele>141.93</ele><time>2012-09-22T11:49:49Z</time></trkpt><trkpt lat="53.8711743057" lon="26.2040035799"><ele>141.93</ele><time>2012-09-22T11:49:50Z</time></trkpt><trkpt lat="53.8705386221" lon="26.2038742471"><ele>141.93</ele><time>2012-09-22T11:50:04Z</time></trkpt><trkpt lat="53.8699618634" lon="26.2037386280"><ele>141.93</ele><time>2012-09-22T11:50:17Z</time></trkpt><trkpt lat="53.8693537563" lon="26.2036257237"><ele>141.45</ele><time>2012-09-22T11:50:31Z</time></trkpt><trkpt lat="53.8693145290" lon="26.2036226224"><ele>141.45</ele><time>2012-09-22T11:50:32Z</time></trkpt><trkpt lat="53.8688201644" lon="26.2037605047"><ele>141.45</ele><time>2012-09-22T11:50:44Z</time></trkpt><trkpt lat="53.8682403881" lon="26.2040756643"><ele>140.97</ele><time>2012-09-22T11:50:57Z</time></trkpt><trkpt lat="53.8678153418" lon="26.2043642532"><ele>140.97</ele><time>2012-09-22T11:51:07Z</time></trkpt><trkpt lat="53.8676938880" lon="26.2044424564"><ele>140.97</ele><time>2012-09-22T11:51:10Z</time></trkpt><trkpt lat="53.8675000146" lon="26.2045810092"><ele>140.97</ele><time>2012-09-22T11:51:15Z</time></trkpt><trkpt lat="53.8669302966" lon="26.2049260922"><ele>140.97</ele><time>2012-09-22T11:51:29Z</time></trkpt><trkpt lat="53.8662765082" lon="26.2053129170"><ele>140.97</ele><time>2012-09-22T11:51:45Z</time></trkpt><trkpt lat="53.8658378832" lon="26.2055994105"><ele>140.97</ele><time>2012-09-22T11:51:56Z</time></trkpt><trkpt lat="53.8653131761" lon="26.2059000693"><ele>140.97</ele><time>2012-09-22T11:52:08Z</time></trkpt><trkpt lat="53.8648798317" lon="26.2061631773"><ele>140.97</ele><time>2012-09-22T11:52:19Z</time></trkpt><trkpt lat="53.8645398617" lon="26.2064919993"><ele>141.45</ele><time>2012-09-22T11:52:29Z</time></trkpt><trkpt lat="53.8641215209" lon="26.2069279421"><ele>140.01</ele><time>2012-09-22T11:52:40Z</time></trkpt><trkpt lat="53.8640748337" lon="26.2069686782"><ele>139.53</ele><time>2012-09-22T11:52:41Z</time></trkpt><trkpt lat="53.8639062736" lon="26.2071754597"><ele>139.05</ele><time>2012-09-22T11:52:47Z</time></trkpt><trkpt lat="53.8637812994" lon="26.2074392382"><ele>140.01</ele><time>2012-09-22T11:52:56Z</time></trkpt><trkpt lat="53.8635313511" lon="26.2078966387"><ele>140.97</ele><time>2012-09-22T11:53:07Z</time></trkpt><trkpt lat="53.8632916287" lon="26.2084295601"><ele>141.45</ele><time>2012-09-22T11:53:18Z</time></trkpt><trkpt lat="53.8629810791" lon="26.2091404293"><ele>141.45</ele><time>2012-09-22T11:53:31Z</time></trkpt><trkpt lat="53.8627451286" lon="26.2096781284"><ele>141.45</ele><time>2012-09-22T11:53:41Z</time></trkpt><trkpt lat="53.8625099324" lon="26.2101579085"><ele>142.41</ele><time>2012-09-22T11:53:51Z</time></trkpt><trkpt lat="53.8624639995" lon="26.2102739140"><ele>142.41</ele><time>2012-09-22T11:53:53Z</time></trkpt><trkpt lat="53.8621791825" lon="26.2109101005"><ele>142.89</ele><time>2012-09-22T11:54:05Z</time></trkpt><trkpt lat="53.8620343432" lon="26.2111823447"><ele>143.37</ele><time>2012-09-22T11:54:10Z</time></trkpt><trkpt lat="53.8619994745" lon="26.2112250924"><ele>143.37</ele><time>2012-09-22T11:54:11Z</time></trkpt><trkpt lat="53.8619267195" lon="26.2113002781"><ele>142.89</ele><time>2012-09-22T11:54:13Z</time></trkpt><trkpt lat="53.8617588300" lon="26.2114045490"><ele>143.37</ele><time>2012-09-22T11:54:17Z</time></trkpt><trkpt lat="53.8617146574" lon="26.2114177085"><ele>142.89</ele><time>2012-09-22T11:54:18Z</time></trkpt><trkpt lat="53.8610929716" lon="26.2114844285"><ele>142.89</ele><time>2012-09-22T11:54:31Z</time></trkpt><trkpt lat="53.8604140375" lon="26.2115363963"><ele>142.89</ele><time>2012-09-22T11:54:45Z</time></trkpt><trkpt lat="53.8597400486" lon="26.2115729414"><ele>142.41</ele><time>2012-09-22T11:54:59Z</time></trkpt><trkpt lat="53.8591844123" lon="26.2115907948"><ele>142.89</ele><time>2012-09-22T11:55:12Z</time></trkpt><trkpt lat="53.8587152772" lon="26.2116249092"><ele>142.41</ele><time>2012-09-22T11:55:23Z</time></trkpt><trkpt lat="53.8585970085" lon="26.2116411701"><ele>142.89</ele><time>2012-09-22T11:55:26Z</time></trkpt><trkpt lat="53.8585537579" lon="26.2116425112"><ele>142.41</ele><time>2012-09-22T11:55:27Z</time></trkpt><trkpt lat="53.8579864707" lon="26.2116772123"><ele>141.93</ele><time>2012-09-22T11:55:39Z</time></trkpt><trkpt lat="53.8577951957" lon="26.2116800621"><ele>141.93</ele><time>2012-09-22T11:55:43Z</time></trkpt><trkpt lat="53.8577441499" lon="26.2116888631"><ele>141.93</ele><time>2012-09-22T11:55:44Z</time></trkpt><trkpt lat="53.8576960377" lon="26.2116983347"><ele>141.93</ele><time>2012-09-22T11:55:45Z</time></trkpt><trkpt lat="53.8576477580" lon="26.2117016036"><ele>141.93</ele><time>2012-09-22T11:55:46Z</time></trkpt><trkpt lat="53.8575977180" lon="26.2117031962"><ele>141.93</ele><time>2012-09-22T11:55:47Z</time></trkpt><trkpt lat="53.8574517891" lon="26.2117132545"><ele>141.93</ele><time>2012-09-22T11:55:50Z</time></trkpt><trkpt lat="53.8568126690" lon="26.2117381487"><ele>142.41</ele><time>2012-09-22T11:56:03Z</time></trkpt><trkpt lat="53.8562696055" lon="26.2117662281"><ele>142.41</ele><time>2012-09-22T11:56:15Z</time></trkpt><trkpt lat="53.8560898136" lon="26.2117637973"><ele>141.93</ele><time>2012-09-22T11:56:19Z</time></trkpt><trkpt lat="53.8555993885" lon="26.2117687427"><ele>141.93</ele><time>2012-09-22T11:56:30Z</time></trkpt><trkpt lat="53.8550449256" lon="26.2117729336"><ele>141.93</ele><time>2012-09-22T11:56:43Z</time></trkpt><trkpt lat="53.8545484655" lon="26.2117909547"><ele>141.93</ele><time>2012-09-22T11:56:55Z</time></trkpt><trkpt lat="53.8542343955" lon="26.2118192017"><ele>141.93</ele><time>2012-09-22T11:57:04Z</time></trkpt><trkpt lat="53.8537465688" lon="26.2119387276"><ele>142.41</ele><time>2012-09-22T11:57:16Z</time></trkpt><trkpt lat="53.8531911001" lon="26.2122106366"><ele>144.34</ele><time>2012-09-22T11:57:30Z</time></trkpt><trkpt lat="53.8526612800" lon="26.2124877423"><ele>144.34</ele><time>2012-09-22T11:57:42Z</time></trkpt><trkpt lat="53.8520065695" lon="26.2128039915"><ele>143.37</ele><time>2012-09-22T11:57:56Z</time></trkpt><trkpt lat="53.8517764863" lon="26.2129142974"><ele>143.85</ele><time>2012-09-22T11:58:01Z</time></trkpt><trkpt lat="53.8513086922" lon="26.2131218333"><ele>143.85</ele><time>2012-09-22T11:58:12Z</time></trkpt><trkpt lat="53.8507099729" lon="26.2133672554"><ele>144.34</ele><time>2012-09-22T11:58:26Z</time></trkpt><trkpt lat="53.8501926418" lon="26.2135841791"><ele>143.85</ele><time>2012-09-22T11:58:37Z</time></trkpt><trkpt lat="53.8496694434" lon="26.2138046231"><ele>143.37</ele><time>2012-09-22T11:58:48Z</time></trkpt><trkpt lat="53.8491109572" lon="26.2140243966"><ele>143.85</ele><time>2012-09-22T11:59:00Z</time></trkpt><trkpt lat="53.8486108091" lon="26.2142392248"><ele>143.85</ele><time>2012-09-22T11:59:11Z</time></trkpt><trkpt lat="53.8484324422" lon="26.2142918631"><ele>143.85</ele><time>2012-09-22T11:59:15Z</time></trkpt><trkpt lat="53.8480964955" lon="26.2142830621"><ele>144.82</ele><time>2012-09-22T11:59:24Z</time></trkpt><trkpt lat="53.8477238361" lon="26.2140880153"><ele>145.78</ele><time>2012-09-22T11:59:35Z</time></trkpt><trkpt lat="53.8473401964" lon="26.2136132643"><ele>145.78</ele><time>2012-09-22T11:59:46Z</time></trkpt><trkpt lat="53.8470701315" lon="26.2129839510"><ele>144.82</ele><time>2012-09-22T11:59:56Z</time></trkpt><trkpt lat="53.8468389586" lon="26.2120192777"><ele>144.82</ele><time>2012-09-22T12:00:10Z</time></trkpt><trkpt lat="53.8468355220" lon="26.2119477801"><ele>144.82</ele><time>2012-09-22T12:00:11Z</time></trkpt><trkpt lat="53.8468265533" lon="26.2118785456"><ele>144.82</ele><time>2012-09-22T12:00:12Z</time></trkpt><trkpt lat="53.8468162436" lon="26.2118109036"><ele>144.82</ele><time>2012-09-22T12:00:13Z</time></trkpt><trkpt lat="53.8468060177" lon="26.2117403280"><ele>144.82</ele><time>2012-09-22T12:00:14Z</time></trkpt><trkpt lat="53.8467436563" lon="26.2113764696"><ele>144.82</ele><time>2012-09-22T12:00:19Z</time></trkpt><trkpt lat="53.8465797063" lon="26.2103791907"><ele>144.82</ele><time>2012-09-22T12:00:32Z</time></trkpt><trkpt lat="53.8463973161" lon="26.2095574290"><ele>144.34</ele><time>2012-09-22T12:00:43Z</time></trkpt><trkpt lat="53.8461948093" lon="26.2086740602"><ele>144.34</ele><time>2012-09-22T12:00:55Z</time></trkpt><trkpt lat="53.8460511435" lon="26.2078823894"><ele>144.34</ele><time>2012-09-22T12:01:06Z</time></trkpt><trkpt lat="53.8459125068" lon="26.2069563568"><ele>143.85</ele><time>2012-09-22T12:01:19Z</time></trkpt><trkpt lat="53.8458549231" lon="26.2063028198"><ele>144.34</ele><time>2012-09-22T12:01:28Z</time></trkpt><trkpt lat="53.8458022010" lon="26.2056896836"><ele>144.34</ele><time>2012-09-22T12:01:36Z</time></trkpt><trkpt lat="53.8458001893" lon="26.2056133244"><ele>144.34</ele><time>2012-09-22T12:01:37Z</time></trkpt><trkpt lat="53.8457144424" lon="26.2047199812"><ele>144.34</ele><time>2012-09-22T12:01:49Z</time></trkpt><trkpt lat="53.8456102554" lon="26.2037736643"><ele>144.34</ele><time>2012-09-22T12:02:02Z</time></trkpt><trkpt lat="53.8455652446" lon="26.2034170981"><ele>144.34</ele><time>2012-09-22T12:02:07Z</time></trkpt><trkpt lat="53.8454660028" lon="26.2023903150"><ele>143.85</ele><time>2012-09-22T12:02:20Z</time></trkpt><trkpt lat="53.8454130292" lon="26.2018317450"><ele>143.85</ele><time>2012-09-22T12:02:27Z</time></trkpt><trkpt lat="53.8454080001" lon="26.2017534580"><ele>143.85</ele><time>2012-09-22T12:02:28Z</time></trkpt><trkpt lat="53.8453287911" lon="26.2010814808"><ele>143.85</ele><time>2012-09-22T12:02:38Z</time></trkpt><trkpt lat="53.8453168049" lon="26.2003510818"><ele>144.34</ele><time>2012-09-22T12:02:48Z</time></trkpt><trkpt lat="53.8453240134" lon="26.1993321776"><ele>144.34</ele><time>2012-09-22T12:03:01Z</time></trkpt><trkpt lat="53.8453174755" lon="26.1990275793"><ele>144.34</ele><time>2012-09-22T12:03:05Z</time></trkpt><trkpt lat="53.8453079201" lon="26.1980739702"><ele>144.34</ele><time>2012-09-22T12:03:18Z</time></trkpt><trkpt lat="53.8453020528" lon="26.1975025758"><ele>143.85</ele><time>2012-09-22T12:03:26Z</time></trkpt><trkpt lat="53.8452952635" lon="26.1974339280"><ele>144.34</ele><time>2012-09-22T12:03:27Z</time></trkpt><trkpt lat="53.8452928327" lon="26.1973600835"><ele>144.34</ele><time>2012-09-22T12:03:28Z</time></trkpt><trkpt lat="53.8452879712" lon="26.1963701807"><ele>143.85</ele><time>2012-09-22T12:03:41Z</time></trkpt><trkpt lat="53.8452849537" lon="26.1954622529"><ele>143.85</ele><time>2012-09-22T12:03:53Z</time></trkpt><trkpt lat="53.8452872168" lon="26.1944033671"><ele>143.85</ele><time>2012-09-22T12:04:07Z</time></trkpt><trkpt lat="53.8452906534" lon="26.1935470719"><ele>143.85</ele><time>2012-09-22T12:04:19Z</time></trkpt><trkpt lat="53.8452818524" lon="26.1927317642"><ele>143.85</ele><time>2012-09-22T12:04:30Z</time></trkpt><trkpt lat="53.8452853728" lon="26.1924216338"><ele>143.85</ele><time>2012-09-22T12:04:34Z</time></trkpt><trkpt lat="53.8452800922" lon="26.1920669116"><ele>143.85</ele><time>2012-09-22T12:04:39Z</time></trkpt><trkpt lat="53.8452743925" lon="26.1910180002"><ele>144.34</ele><time>2012-09-22T12:04:53Z</time></trkpt><trkpt lat="53.8452784158" lon="26.1899549235"><ele>143.85</ele><time>2012-09-22T12:05:07Z</time></trkpt><trkpt lat="53.8452842832" lon="26.1890291423"><ele>143.85</ele><time>2012-09-22T12:05:19Z</time></trkpt><trkpt lat="53.8452798408" lon="26.1881715897"><ele>143.85</ele><time>2012-09-22T12:05:31Z</time></trkpt><trkpt lat="53.8452892285" lon="26.1872171424"><ele>143.85</ele><time>2012-09-22T12:05:44Z</time></trkpt><trkpt lat="53.8452971075" lon="26.1861956399"><ele>144.34</ele><time>2012-09-22T12:05:59Z</time></trkpt><trkpt lat="53.8452970237" lon="26.1852337327"><ele>144.34</ele><time>2012-09-22T12:06:12Z</time></trkpt><trkpt lat="53.8452977780" lon="26.1850866303"><ele>144.34</ele><time>2012-09-22T12:06:14Z</time></trkpt><trkpt lat="53.8452994544" lon="26.1850135401"><ele>144.34</ele><time>2012-09-22T12:06:15Z</time></trkpt><trkpt lat="53.8452909887" lon="26.1843041796"><ele>144.34</ele><time>2012-09-22T12:06:25Z</time></trkpt><trkpt lat="53.8452751469" lon="26.1835867725"><ele>145.78</ele><time>2012-09-22T12:06:36Z</time></trkpt><trkpt lat="53.8451763242" lon="26.1827483308"><ele>146.26</ele><time>2012-09-22T12:06:49Z</time></trkpt><trkpt lat="53.8450350892" lon="26.1823242065"><ele>145.78</ele><time>2012-09-22T12:06:56Z</time></trkpt><trkpt lat="53.8446165808" lon="26.1817653850"><ele>145.30</ele><time>2012-09-22T12:07:08Z</time></trkpt><trkpt lat="53.8441152591" lon="26.1813651491"><ele>145.78</ele><time>2012-09-22T12:07:21Z</time></trkpt><trkpt lat="53.8436204754" lon="26.1809919029"><ele>144.34</ele><time>2012-09-22T12:07:33Z</time></trkpt><trkpt lat="53.8432365842" lon="26.1807083432"><ele>143.37</ele><time>2012-09-22T12:07:42Z</time></trkpt><trkpt lat="53.8426921796" lon="26.1803121306"><ele>143.37</ele><time>2012-09-22T12:07:56Z</time></trkpt><trkpt lat="53.8421746809" lon="26.1799533851"><ele>143.37</ele><time>2012-09-22T12:08:09Z</time></trkpt><trkpt lat="53.8415931445" lon="26.1795723438"><ele>142.89</ele><time>2012-09-22T12:08:22Z</time></trkpt><trkpt lat="53.8411065750" lon="26.1792367324"><ele>142.41</ele><time>2012-09-22T12:08:33Z</time></trkpt><trkpt lat="53.8404568098" lon="26.1787894741"><ele>142.89</ele><time>2012-09-22T12:08:49Z</time></trkpt><trkpt lat="53.8399378024" lon="26.1784356739"><ele>142.41</ele><time>2012-09-22T12:09:01Z</time></trkpt><trkpt lat="53.8394948188" lon="26.1780814547"><ele>142.41</ele><time>2012-09-22T12:09:12Z</time></trkpt><trkpt lat="53.8391437847" lon="26.1775323562"><ele>141.93</ele><time>2012-09-22T12:09:23Z</time></trkpt><trkpt lat="53.8389921561" lon="26.1769077368"><ele>141.93</ele><time>2012-09-22T12:09:33Z</time></trkpt><trkpt lat="53.8389259391" lon="26.1761482526"><ele>141.93</ele><time>2012-09-22T12:09:43Z</time></trkpt><trkpt lat="53.8388880529" lon="26.1754794605"><ele>142.89</ele><time>2012-09-22T12:09:53Z</time></trkpt><trkpt lat="53.8388493285" lon="26.1747199763"><ele>143.85</ele><time>2012-09-22T12:10:06Z</time></trkpt><trkpt lat="53.8388358336" lon="26.1742105242"><ele>144.34</ele><time>2012-09-22T12:10:15Z</time></trkpt><trkpt lat="53.8388074189" lon="26.1736674607"><ele>144.82</ele><time>2012-09-22T12:10:24Z</time></trkpt><trkpt lat="53.8388022222" lon="26.1731104832"><ele>144.34</ele><time>2012-09-22T12:10:32Z</time></trkpt><trkpt lat="53.8387589715" lon="26.1722418666"><ele>142.89</ele><time>2012-09-22T12:10:43Z</time></trkpt><trkpt lat="53.8387335744" lon="26.1716763396"><ele>142.41</ele><time>2012-09-22T12:10:50Z</time></trkpt><trkpt lat="53.8387268689" lon="26.1715963762"><ele>142.41</ele><time>2012-09-22T12:10:51Z</time></trkpt><trkpt lat="53.8387238514" lon="26.1715157423"><ele>142.41</ele><time>2012-09-22T12:10:52Z</time></trkpt><trkpt lat="53.8387209177" lon="26.1714356951"><ele>142.41</ele><time>2012-09-22T12:10:53Z</time></trkpt><trkpt lat="53.8387180679" lon="26.1713574920"><ele>142.41</ele><time>2012-09-22T12:10:54Z</time></trkpt><trkpt lat="53.8387150504" lon="26.1712821387"><ele>142.41</ele><time>2012-09-22T12:10:55Z</time></trkpt><trkpt lat="53.8387106080" lon="26.1712077074"><ele>142.41</ele><time>2012-09-22T12:10:56Z</time></trkpt><trkpt lat="53.8386499230" lon="26.1701692734"><ele>142.41</ele><time>2012-09-22T12:11:09Z</time></trkpt><trkpt lat="53.8385935966" lon="26.1691270676"><ele>142.89</ele><time>2012-09-22T12:11:23Z</time></trkpt><trkpt lat="53.8385474123" lon="26.1683422700"><ele>141.93</ele><time>2012-09-22T12:11:34Z</time></trkpt><trkpt lat="53.8384664431" lon="26.1673288979"><ele>141.93</ele><time>2012-09-22T12:11:48Z</time></trkpt><trkpt lat="53.8384127151" lon="26.1664246581"><ele>141.45</ele><time>2012-09-22T12:12:00Z</time></trkpt><trkpt lat="53.8383604959" lon="26.1654138844"><ele>140.97</ele><time>2012-09-22T12:12:13Z</time></trkpt><trkpt lat="53.8383136410" lon="26.1645213794"><ele>140.97</ele><time>2012-09-22T12:12:25Z</time></trkpt><trkpt lat="53.8382695522" lon="26.1637541000"><ele>140.49</ele><time>2012-09-22T12:12:36Z</time></trkpt><trkpt lat="53.8382275589" lon="26.1631042510"><ele>140.49</ele><time>2012-09-22T12:12:46Z</time></trkpt><trkpt lat="53.8381854817" lon="26.1623316910"><ele>140.49</ele><time>2012-09-22T12:12:58Z</time></trkpt><trkpt lat="53.8381715678" lon="26.1616657488"><ele>140.01</ele><time>2012-09-22T12:13:08Z</time></trkpt><trkpt lat="53.8381723221" lon="26.1611740664"><ele>140.01</ele><time>2012-09-22T12:13:16Z</time></trkpt><trkpt lat="53.8381134812" lon="26.1607309990"><ele>140.01</ele><time>2012-09-22T12:13:24Z</time></trkpt><trkpt lat="53.8380773552" lon="26.1601486243"><ele>140.49</ele><time>2012-09-22T12:13:34Z</time></trkpt><trkpt lat="53.8380404748" lon="26.1593391839"><ele>140.01</ele><time>2012-09-22T12:13:46Z</time></trkpt><trkpt lat="53.8380177598" lon="26.1587624252"><ele>140.01</ele><time>2012-09-22T12:13:55Z</time></trkpt><trkpt lat="53.8379765209" lon="26.1580695771"><ele>140.01</ele><time>2012-09-22T12:14:06Z</time></trkpt><trkpt lat="53.8379385509" lon="26.1574049760"><ele>140.01</ele><time>2012-09-22T12:14:16Z</time></trkpt><trkpt lat="53.8379216194" lon="26.1567916721"><ele>139.53</ele><time>2012-09-22T12:14:26Z</time></trkpt><trkpt lat="53.8378735073" lon="26.1560963932"><ele>139.05</ele><time>2012-09-22T12:14:37Z</time></trkpt><trkpt lat="53.8378241379" lon="26.1554759648"><ele>139.05</ele><time>2012-09-22T12:14:47Z</time></trkpt><trkpt lat="53.8377935439" lon="26.1548016407"><ele>138.57</ele><time>2012-09-22T12:14:58Z</time></trkpt><trkpt lat="53.8377541490" lon="26.1540544778"><ele>138.57</ele><time>2012-09-22T12:15:09Z</time></trkpt><trkpt lat="53.8376905303" lon="26.1531913094"><ele>138.09</ele><time>2012-09-22T12:15:22Z</time></trkpt><trkpt lat="53.8376755267" lon="26.1527347472"><ele>138.09</ele><time>2012-09-22T12:15:31Z</time></trkpt><trkpt lat="53.8376704138" lon="26.1521466728"><ele>138.09</ele><time>2012-09-22T12:15:41Z</time></trkpt><trkpt lat="53.8376504648" lon="26.1516406573"><ele>137.61</ele><time>2012-09-22T12:15:50Z</time></trkpt><trkpt lat="53.8376302645" lon="26.1511233263"><ele>137.61</ele><time>2012-09-22T12:15:59Z</time></trkpt><trkpt lat="53.8376062084" lon="26.1503623333"><ele>137.13</ele><time>2012-09-22T12:16:11Z</time></trkpt><trkpt lat="53.8375689089" lon="26.1497626919"><ele>137.61</ele><time>2012-09-22T12:16:21Z</time></trkpt><trkpt lat="53.8375117444" lon="26.1492244899"><ele>137.61</ele><time>2012-09-22T12:16:30Z</time></trkpt><trkpt lat="53.8374720141" lon="26.1486367509"><ele>137.13</ele><time>2012-09-22T12:16:39Z</time></trkpt><trkpt lat="53.8374598604" lon="26.1480625067"><ele>137.13</ele><time>2012-09-22T12:16:49Z</time></trkpt><trkpt lat="53.8374186214" lon="26.1474443413"><ele>137.61</ele><time>2012-09-22T12:16:58Z</time></trkpt><trkpt lat="53.8373947330" lon="26.1468990147"><ele>137.61</ele><time>2012-09-22T12:17:06Z</time></trkpt><trkpt lat="53.8374156877" lon="26.1462706234"><ele>137.61</ele><time>2012-09-22T12:17:15Z</time></trkpt><trkpt lat="53.8373807352" lon="26.1456796154"><ele>138.09</ele><time>2012-09-22T12:17:24Z</time></trkpt><trkpt lat="53.8373342156" lon="26.1450919602"><ele>138.57</ele><time>2012-09-22T12:17:35Z</time></trkpt><trkpt lat="53.8373488840" lon="26.1449881084"><ele>138.57</ele><time>2012-09-22T12:17:43Z</time></trkpt><trkpt lat="53.8373085670" lon="26.1449216399"><ele>138.57</ele><time>2012-09-22T12:18:00Z</time></trkpt><trkpt lat="53.8373301085" lon="26.1449279264"><ele>138.57</ele><time>2012-09-22T12:18:18Z</time></trkpt><trkpt lat="53.8373266719" lon="26.1447409261"><ele>138.57</ele><time>2012-09-22T12:18:25Z</time></trkpt><trkpt lat="53.8372914679" lon="26.1441286281"><ele>139.05</ele><time>2012-09-22T12:18:35Z</time></trkpt><trkpt lat="53.8372581918" lon="26.1433324311"><ele>139.53</ele><time>2012-09-22T12:18:47Z</time></trkpt><trkpt lat="53.8372152764" lon="26.1426084861"><ele>140.01</ele><time>2012-09-22T12:18:58Z</time></trkpt><trkpt lat="53.8371961657" lon="26.1422539316"><ele>140.01</ele><time>2012-09-22T12:19:03Z</time></trkpt><trkpt lat="53.8371792343" lon="26.1421112716"><ele>140.01</ele><time>2012-09-22T12:19:05Z</time></trkpt><trkpt lat="53.8371571060" lon="26.1412641965"><ele>140.01</ele><time>2012-09-22T12:19:17Z</time></trkpt><trkpt lat="53.8371076528" lon="26.1403851025"><ele>139.53</ele><time>2012-09-22T12:19:29Z</time></trkpt><trkpt lat="53.8371014502" lon="26.1402331386"><ele>139.05</ele><time>2012-09-22T12:19:31Z</time></trkpt><trkpt lat="53.8370249234" lon="26.1393466685"><ele>138.09</ele><time>2012-09-22T12:19:43Z</time></trkpt><trkpt lat="53.8369249273" lon="26.1384149361"><ele>138.09</ele><time>2012-09-22T12:19:55Z</time></trkpt><trkpt lat="53.8368005399" lon="26.1375972815"><ele>137.61</ele><time>2012-09-22T12:20:07Z</time></trkpt><trkpt lat="53.8367154635" lon="26.1370294914"><ele>137.61</ele><time>2012-09-22T12:20:16Z</time></trkpt><trkpt lat="53.8366289623" lon="26.1364502180"><ele>137.13</ele><time>2012-09-22T12:20:25Z</time></trkpt><trkpt lat="53.8365163095" lon="26.1356652528"><ele>137.13</ele><time>2012-09-22T12:20:37Z</time></trkpt><trkpt lat="53.8364858832" lon="26.1354715470"><ele>137.13</ele><time>2012-09-22T12:20:40Z</time></trkpt><trkpt lat="53.8364762440" lon="26.1354015581"><ele>137.13</ele><time>2012-09-22T12:20:41Z</time></trkpt><trkpt lat="53.8364452310" lon="26.1351295654"><ele>137.13</ele><time>2012-09-22T12:20:45Z</time></trkpt><trkpt lat="53.8363843784" lon="26.1345533095"><ele>137.61</ele><time>2012-09-22T12:20:54Z</time></trkpt><trkpt lat="53.8363277167" lon="26.1340725236"><ele>137.13</ele><time>2012-09-22T12:21:02Z</time></trkpt><trkpt lat="53.8362692110" lon="26.1335857026"><ele>137.13</ele><time>2012-09-22T12:21:11Z</time></trkpt><trkpt lat="53.8361665327" lon="26.1331070960"><ele>137.13</ele><time>2012-09-22T12:21:20Z</time></trkpt><trkpt lat="53.8360454980" lon="26.1325903516"><ele>137.13</ele><time>2012-09-22T12:21:30Z</time></trkpt><trkpt lat="53.8359419815" lon="26.1321548279"><ele>137.13</ele><time>2012-09-22T12:21:38Z</time></trkpt><trkpt lat="53.8358474337" lon="26.1316954996"><ele>136.64</ele><time>2012-09-22T12:21:46Z</time></trkpt><trkpt lat="53.8357452583" lon="26.1310738977"><ele>136.16</ele><time>2012-09-22T12:21:56Z</time></trkpt><trkpt lat="53.8356973976" lon="26.1304743402"><ele>135.20</ele><time>2012-09-22T12:22:06Z</time></trkpt><trkpt lat="53.8356388081" lon="26.1299075559"><ele>135.68</ele><time>2012-09-22T12:22:16Z</time></trkpt><trkpt lat="53.8355764467" lon="26.1293766461"><ele>135.68</ele><time>2012-09-22T12:22:26Z</time></trkpt><trkpt lat="53.8355203718" lon="26.1288670264"><ele>135.68</ele><time>2012-09-22T12:22:35Z</time></trkpt><trkpt lat="53.8354285061" lon="26.1282259785"><ele>135.68</ele><time>2012-09-22T12:22:46Z</time></trkpt><trkpt lat="53.8353667315" lon="26.1276269238"><ele>135.68</ele><time>2012-09-22T12:22:56Z</time></trkpt><trkpt lat="53.8353113271" lon="26.1272759736"><ele>135.68</ele><time>2012-09-22T12:23:04Z</time></trkpt><trkpt lat="53.8353019394" lon="26.1272338964"><ele>135.68</ele><time>2012-09-22T12:23:05Z</time></trkpt><trkpt lat="53.8352948986" lon="26.1271858681"><ele>135.68</ele><time>2012-09-22T12:23:06Z</time></trkpt><trkpt lat="53.8352834154" lon="26.1271347385"><ele>135.68</ele><time>2012-09-22T12:23:07Z</time></trkpt><trkpt lat="53.8352727704" lon="26.1270847823"><ele>135.68</ele><time>2012-09-22T12:23:08Z</time></trkpt><trkpt lat="53.8352636341" lon="26.1270372570"><ele>136.16</ele><time>2012-09-22T12:23:09Z</time></trkpt><trkpt lat="53.8352549169" lon="26.1269886419"><ele>135.68</ele><time>2012-09-22T12:23:10Z</time></trkpt><trkpt lat="53.8352463674" lon="26.1269401945"><ele>136.16</ele><time>2012-09-22T12:23:11Z</time></trkpt><trkpt lat="53.8352322020" lon="26.1268888973"><ele>136.16</ele><time>2012-09-22T12:23:12Z</time></trkpt><trkpt lat="53.8350978401" lon="26.1263921019"><ele>136.64</ele><time>2012-09-22T12:23:22Z</time></trkpt><trkpt lat="53.8350123446" lon="26.1259103101"><ele>137.13</ele><time>2012-09-22T12:23:31Z</time></trkpt><trkpt lat="53.8349318784" lon="26.1252836790"><ele>137.61</ele><time>2012-09-22T12:23:42Z</time></trkpt><trkpt lat="53.8348147832" lon="26.1246461514"><ele>139.53</ele><time>2012-09-22T12:23:54Z</time></trkpt><trkpt lat="53.8346820138" lon="26.1241427343"><ele>140.49</ele><time>2012-09-22T12:24:05Z</time></trkpt><trkpt lat="53.8344369270" lon="26.1235363036"><ele>140.49</ele><time>2012-09-22T12:24:17Z</time></trkpt><trkpt lat="53.8341488410" lon="26.1229605507"><ele>139.53</ele><time>2012-09-22T12:24:28Z</time></trkpt><trkpt lat="53.8341208454" lon="26.1229038890"><ele>140.01</ele><time>2012-09-22T12:24:29Z</time></trkpt><trkpt lat="53.8337775227" lon="26.1222062632"><ele>138.57</ele><time>2012-09-22T12:24:41Z</time></trkpt><trkpt lat="53.8335298374" lon="26.1217447557"><ele>137.61</ele><time>2012-09-22T12:24:50Z</time></trkpt><trkpt lat="53.8332994189" lon="26.1212986708"><ele>136.64</ele><time>2012-09-22T12:24:59Z</time></trkpt><trkpt lat="53.8329819962" lon="26.1207378376"><ele>136.64</ele><time>2012-09-22T12:25:10Z</time></trkpt><trkpt lat="53.8326928206" lon="26.1202265415"><ele>136.64</ele><time>2012-09-22T12:25:20Z</time></trkpt><trkpt lat="53.8324127812" lon="26.1197503656"><ele>136.16</ele><time>2012-09-22T12:25:30Z</time></trkpt><trkpt lat="53.8320599031" lon="26.1191017739"><ele>136.16</ele><time>2012-09-22T12:25:43Z</time></trkpt><trkpt lat="53.8317128923" lon="26.1184719577"><ele>135.20</ele><time>2012-09-22T12:25:55Z</time></trkpt><trkpt lat="53.8316822983" lon="26.1184190679"><ele>135.20</ele><time>2012-09-22T12:25:56Z</time></trkpt><trkpt lat="53.8316513691" lon="26.1183663458"><ele>135.20</ele><time>2012-09-22T12:25:57Z</time></trkpt><trkpt lat="53.8313208707" lon="26.1177528743"><ele>135.20</ele><time>2012-09-22T12:26:08Z</time></trkpt><trkpt lat="53.8310266659" lon="26.1172433384"><ele>135.68</ele><time>2012-09-22T12:26:17Z</time></trkpt><trkpt lat="53.8309953175" lon="26.1171870120"><ele>135.20</ele><time>2012-09-22T12:26:18Z</time></trkpt><trkpt lat="53.8306535874" lon="26.1166517437"><ele>134.72</ele><time>2012-09-22T12:26:28Z</time></trkpt><trkpt lat="53.8306199759" lon="26.1166037992"><ele>134.72</ele><time>2012-09-22T12:26:29Z</time></trkpt><trkpt lat="53.8305893820" lon="26.1165519152"><ele>134.24</ele><time>2012-09-22T12:26:30Z</time></trkpt><trkpt lat="53.8302517589" lon="26.1160294712"><ele>134.24</ele><time>2012-09-22T12:26:40Z</time></trkpt><trkpt lat="53.8298992999" lon="26.1154857371"><ele>134.24</ele><time>2012-09-22T12:26:51Z</time></trkpt><trkpt lat="53.8295461703" lon="26.1149576772"><ele>134.24</ele><time>2012-09-22T12:27:02Z</time></trkpt><trkpt lat="53.8293380477" lon="26.1146617122"><ele>134.24</ele><time>2012-09-22T12:27:08Z</time></trkpt><trkpt lat="53.8293029275" lon="26.1146177072"><ele>134.24</ele><time>2012-09-22T12:27:09Z</time></trkpt><trkpt lat="53.8291697390" lon="26.1144286115"><ele>134.24</ele><time>2012-09-22T12:27:13Z</time></trkpt><trkpt lat="53.8291371334" lon="26.1143776495"><ele>134.24</ele><time>2012-09-22T12:27:14Z</time></trkpt><trkpt lat="53.8288675714" lon="26.1140084267"><ele>133.76</ele><time>2012-09-22T12:27:23Z</time></trkpt><trkpt lat="53.8286282681" lon="26.1136428919"><ele>134.24</ele><time>2012-09-22T12:27:31Z</time></trkpt><trkpt lat="53.8284335565" lon="26.1133553926"><ele>134.24</ele><time>2012-09-22T12:27:37Z</time></trkpt><trkpt lat="53.8281432074" lon="26.1129225511"><ele>134.72</ele><time>2012-09-22T12:27:47Z</time></trkpt><trkpt lat="53.8278408721" lon="26.1124300305"><ele>134.72</ele><time>2012-09-22T12:27:57Z</time></trkpt><trkpt lat="53.8276354317" lon="26.1120794155"><ele>134.24</ele><time>2012-09-22T12:28:04Z</time></trkpt><trkpt lat="53.8273196854" lon="26.1115884874"><ele>134.72</ele><time>2012-09-22T12:28:14Z</time></trkpt><trkpt lat="53.8269793801" lon="26.1110067833"><ele>135.20</ele><time>2012-09-22T12:28:25Z</time></trkpt><trkpt lat="53.8267418370" lon="26.1104832496"><ele>134.24</ele><time>2012-09-22T12:28:35Z</time></trkpt><trkpt lat="53.8266784698" lon="26.1103244126"><ele>134.24</ele><time>2012-09-22T12:28:38Z</time></trkpt><trkpt lat="53.8266521506" lon="26.1102676671"><ele>133.76</ele><time>2012-09-22T12:28:39Z</time></trkpt><trkpt lat="53.8263920601" lon="26.1096531898"><ele>134.24</ele><time>2012-09-22T12:28:50Z</time></trkpt><trkpt lat="53.8262647390" lon="26.1093336716"><ele>134.24</ele><time>2012-09-22T12:28:57Z</time></trkpt><trkpt lat="53.8260810915" lon="26.1088862456"><ele>134.24</ele><time>2012-09-22T12:29:06Z</time></trkpt><trkpt lat="53.8259111065" lon="26.1083890311"><ele>133.76</ele><time>2012-09-22T12:29:15Z</time></trkpt><trkpt lat="53.8257010560" lon="26.1078338139"><ele>134.24</ele><time>2012-09-22T12:29:26Z</time></trkpt><trkpt lat="53.8255076017" lon="26.1073294748"><ele>134.72</ele><time>2012-09-22T12:29:36Z</time></trkpt><trkpt lat="53.8253729045" lon="26.1069145706"><ele>134.24</ele><time>2012-09-22T12:29:45Z</time></trkpt><trkpt lat="53.8252153248" lon="26.1063847505"><ele>134.72</ele><time>2012-09-22T12:29:56Z</time></trkpt><trkpt lat="53.8250531349" lon="26.1058767233"><ele>134.72</ele><time>2012-09-22T12:30:05Z</time></trkpt><trkpt lat="53.8248886820" lon="26.1053529382"><ele>134.72</ele><time>2012-09-22T12:30:15Z</time></trkpt><trkpt lat="53.8247678988" lon="26.1049650237"><ele>134.72</ele><time>2012-09-22T12:30:23Z</time></trkpt><trkpt lat="53.8246305194" lon="26.1045218725"><ele>134.72</ele><time>2012-09-22T12:30:32Z</time></trkpt><trkpt lat="53.8244828302" lon="26.1041031126"><ele>135.20</ele><time>2012-09-22T12:30:40Z</time></trkpt><trkpt lat="53.8243042957" lon="26.1036431137"><ele>135.20</ele><time>2012-09-22T12:30:48Z</time></trkpt><trkpt lat="53.8241370767" lon="26.1031082645"><ele>135.68</ele><time>2012-09-22T12:30:57Z</time></trkpt><trkpt lat="53.8240776490" lon="26.1029134691"><ele>135.68</ele><time>2012-09-22T12:31:00Z</time></trkpt><trkpt lat="53.8240538444" lon="26.1028493475"><ele>135.68</ele><time>2012-09-22T12:31:01Z</time></trkpt><trkpt lat="53.8237805106" lon="26.1020451039"><ele>136.64</ele><time>2012-09-22T12:31:14Z</time></trkpt><trkpt lat="53.8235959411" lon="26.1014536768"><ele>137.61</ele><time>2012-09-22T12:31:24Z</time></trkpt><trkpt lat="53.8234473299" lon="26.1009782553"><ele>137.61</ele><time>2012-09-22T12:31:32Z</time></trkpt><trkpt lat="53.8233899977" lon="26.1007913388"><ele>137.13</ele><time>2012-09-22T12:31:35Z</time></trkpt><trkpt lat="53.8231487665" lon="26.1001042742"><ele>137.13</ele><time>2012-09-22T12:31:47Z</time></trkpt><trkpt lat="53.8230440766" lon="26.0997840017"><ele>137.13</ele><time>2012-09-22T12:31:52Z</time></trkpt><trkpt lat="53.8227926195" lon="26.0990416165"><ele>137.13</ele><time>2012-09-22T12:32:04Z</time></trkpt><trkpt lat="53.8227564096" lon="26.0989254434"><ele>137.13</ele><time>2012-09-22T12:32:06Z</time></trkpt><trkpt lat="53.8225235604" lon="26.0982662067"><ele>137.13</ele><time>2012-09-22T12:32:17Z</time></trkpt><trkpt lat="53.8223051280" lon="26.0976990033"><ele>137.61</ele><time>2012-09-22T12:32:27Z</time></trkpt><trkpt lat="53.8220484741" lon="26.0969626531"><ele>137.13</ele><time>2012-09-22T12:32:39Z</time></trkpt><trkpt lat="53.8218687661" lon="26.0964609962"><ele>137.61</ele><time>2012-09-22T12:32:47Z</time></trkpt><trkpt lat="53.8218460511" lon="26.0963982996"><ele>137.13</ele><time>2012-09-22T12:32:48Z</time></trkpt><trkpt lat="53.8217235077" lon="26.0960156657"><ele>137.13</ele><time>2012-09-22T12:32:55Z</time></trkpt><trkpt lat="53.8215514272" lon="26.0954773799"><ele>137.61</ele><time>2012-09-22T12:33:04Z</time></trkpt><trkpt lat="53.8214860484" lon="26.0952429380"><ele>137.61</ele><time>2012-09-22T12:33:08Z</time></trkpt><trkpt lat="53.8214621600" lon="26.0951786488"><ele>137.61</ele><time>2012-09-22T12:33:09Z</time></trkpt><trkpt lat="53.8212910853" lon="26.0946466494"><ele>137.61</ele><time>2012-09-22T12:33:18Z</time></trkpt><trkpt lat="53.8211044203" lon="26.0941954516"><ele>138.57</ele><time>2012-09-22T12:33:26Z</time></trkpt><trkpt lat="53.8209553063" lon="26.0936927050"><ele>139.05</ele><time>2012-09-22T12:33:35Z</time></trkpt><trkpt lat="53.8207835611" lon="26.0931472946"><ele>139.05</ele><time>2012-09-22T12:33:44Z</time></trkpt><trkpt lat="53.8206305914" lon="26.0926824342"><ele>139.53</ele><time>2012-09-22T12:33:52Z</time></trkpt><trkpt lat="53.8205644581" lon="26.0924963560"><ele>139.53</ele><time>2012-09-22T12:33:55Z</time></trkpt><trkpt lat="53.8205381390" lon="26.0924324021"><ele>139.05</ele><time>2012-09-22T12:33:56Z</time></trkpt><trkpt lat="53.8205149211" lon="26.0923689511"><ele>139.05</ele><time>2012-09-22T12:33:57Z</time></trkpt><trkpt lat="53.8204969000" lon="26.0923084337"><ele>139.05</ele><time>2012-09-22T12:33:58Z</time></trkpt><trkpt lat="53.8204834051" lon="26.0922511015"><ele>139.05</ele><time>2012-09-22T12:33:59Z</time></trkpt><trkpt lat="53.8204059564" lon="26.0920366086"><ele>139.05</ele><time>2012-09-22T12:34:03Z</time></trkpt><trkpt lat="53.8202834129" lon="26.0916844010"><ele>139.05</ele><time>2012-09-22T12:34:09Z</time></trkpt><trkpt lat="53.8201845065" lon="26.0914772842"><ele>139.53</ele><time>2012-09-22T12:34:13Z</time></trkpt><trkpt lat="53.8199464604" lon="26.0911142640"><ele>139.53</ele><time>2012-09-22T12:34:22Z</time></trkpt><trkpt lat="53.8196662534" lon="26.0909755435"><ele>140.01</ele><time>2012-09-22T12:34:30Z</time></trkpt><trkpt lat="53.8193012215" lon="26.0910063889"><ele>140.01</ele><time>2012-09-22T12:34:40Z</time></trkpt><trkpt lat="53.8189332560" lon="26.0910389107"><ele>139.53</ele><time>2012-09-22T12:34:50Z</time></trkpt><trkpt lat="53.8187234569" lon="26.0910747852"><ele>139.53</ele><time>2012-09-22T12:34:56Z</time></trkpt><trkpt lat="53.8184455968" lon="26.0911271721"><ele>139.53</ele><time>2012-09-22T12:35:03Z</time></trkpt><trkpt lat="53.8181647193" lon="26.0911752004"><ele>139.53</ele><time>2012-09-22T12:35:10Z</time></trkpt><trkpt lat="53.8177432772" lon="26.0912525654"><ele>139.05</ele><time>2012-09-22T12:35:20Z</time></trkpt><trkpt lat="53.8171728048" lon="26.0913667269"><ele>139.05</ele><time>2012-09-22T12:35:33Z</time></trkpt><trkpt lat="53.8166700583" lon="26.0914575867"><ele>139.05</ele><time>2012-09-22T12:35:45Z</time></trkpt><trkpt lat="53.8163007516" lon="26.0915183555"><ele>139.05</ele><time>2012-09-22T12:35:54Z</time></trkpt><trkpt lat="53.8158886973" lon="26.0915781185"><ele>139.53</ele><time>2012-09-22T12:36:04Z</time></trkpt><trkpt lat="53.8154030498" lon="26.0916362051"><ele>140.01</ele><time>2012-09-22T12:36:16Z</time></trkpt><trkpt lat="53.8150221761" lon="26.0916872509"><ele>140.01</ele><time>2012-09-22T12:36:26Z</time></trkpt><trkpt lat="53.8148569688" lon="26.0916890949"><ele>140.49</ele><time>2012-09-22T12:36:30Z</time></trkpt><trkpt lat="53.8144641090" lon="26.0917143244"><ele>140.49</ele><time>2012-09-22T12:36:39Z</time></trkpt><trkpt lat="53.8139978237" lon="26.0917477682"><ele>140.01</ele><time>2012-09-22T12:36:50Z</time></trkpt><trkpt lat="53.8134767208" lon="26.0917626042"><ele>139.53</ele><time>2012-09-22T12:37:01Z</time></trkpt><trkpt lat="53.8132065721" lon="26.0918659531"><ele>140.01</ele><time>2012-09-22T12:37:10Z</time></trkpt><trkpt lat="53.8128211722" lon="26.0919900890"><ele>140.01</ele><time>2012-09-22T12:37:21Z</time></trkpt><trkpt lat="53.8125392050" lon="26.0921011493"><ele>140.01</ele><time>2012-09-22T12:37:29Z</time></trkpt><trkpt lat="53.8122093771" lon="26.0921640974"><ele>140.49</ele><time>2012-09-22T12:37:38Z</time></trkpt><trkpt lat="53.8119072095" lon="26.0921510216"><ele>141.45</ele><time>2012-09-22T12:37:46Z</time></trkpt><trkpt lat="53.8115459494" lon="26.0920588206"><ele>141.93</ele><time>2012-09-22T12:37:56Z</time></trkpt><trkpt lat="53.8111635670" lon="26.0918881651"><ele>143.37</ele><time>2012-09-22T12:38:07Z</time></trkpt><trkpt lat="53.8107976969" lon="26.0917422362"><ele>143.85</ele><time>2012-09-22T12:38:17Z</time></trkpt><trkpt lat="53.8105654344" lon="26.0916403122"><ele>143.37</ele><time>2012-09-22T12:38:23Z</time></trkpt><trkpt lat="53.8101276476" lon="26.0914011765"><ele>142.89</ele><time>2012-09-22T12:38:33Z</time></trkpt><trkpt lat="53.8098134939" lon="26.0912503861"><ele>142.41</ele><time>2012-09-22T12:38:41Z</time></trkpt><trkpt lat="53.8097248971" lon="26.0912100691"><ele>141.93</ele><time>2012-09-22T12:38:43Z</time></trkpt><trkpt lat="53.8095526490" lon="26.0911396611"><ele>141.93</ele><time>2012-09-22T12:38:47Z</time></trkpt><trkpt lat="53.8095122483" lon="26.0911249928"><ele>141.93</ele><time>2012-09-22T12:38:48Z</time></trkpt><trkpt lat="53.8090947457" lon="26.0910133459"><ele>141.93</ele><time>2012-09-22T12:38:59Z</time></trkpt><trkpt lat="53.8086522650" lon="26.0908979271"><ele>141.93</ele><time>2012-09-22T12:39:10Z</time></trkpt><trkpt lat="53.8083148934" lon="26.0908219032"><ele>141.93</ele><time>2012-09-22T12:39:19Z</time></trkpt><trkpt lat="53.8080675434" lon="26.0906959232"><ele>141.93</ele><time>2012-09-22T12:39:27Z</time></trkpt><trkpt lat="53.8077802118" lon="26.0904289596"><ele>141.93</ele><time>2012-09-22T12:39:37Z</time></trkpt><trkpt lat="53.8075045310" lon="26.0901205894"><ele>142.41</ele><time>2012-09-22T12:39:46Z</time></trkpt><trkpt lat="53.8073197100" lon="26.0899437312"><ele>142.41</ele><time>2012-09-22T12:39:53Z</time></trkpt><trkpt lat="53.8070365693" lon="26.0896460060"><ele>142.41</ele><time>2012-09-22T12:40:02Z</time></trkpt><trkpt lat="53.8067473937" lon="26.0893243086"><ele>142.89</ele><time>2012-09-22T12:40:12Z</time></trkpt><trkpt lat="53.8065306377" lon="26.0890121665"><ele>142.89</ele><time>2012-09-22T12:40:20Z</time></trkpt><trkpt lat="53.8063110318" lon="26.0887042992"><ele>142.89</ele><time>2012-09-22T12:40:27Z</time></trkpt><trkpt lat="53.8059801981" lon="26.0884473100"><ele>142.89</ele><time>2012-09-22T12:40:36Z</time></trkpt><trkpt lat="53.8057118934" lon="26.0880982876"><ele>143.85</ele><time>2012-09-22T12:40:47Z</time></trkpt><trkpt lat="53.8056968059" lon="26.0880642571"><ele>143.85</ele><time>2012-09-22T12:40:48Z</time></trkpt><trkpt lat="53.8055087160" lon="26.0877915937"><ele>145.30</ele><time>2012-09-22T12:40:57Z</time></trkpt><trkpt lat="53.8053434249" lon="26.0875398852"><ele>144.82</ele><time>2012-09-22T12:41:05Z</time></trkpt><trkpt lat="53.8051431812" lon="26.0870722588"><ele>143.85</ele><time>2012-09-22T12:41:15Z</time></trkpt><trkpt lat="53.8049430214" lon="26.0865142755"><ele>143.85</ele><time>2012-09-22T12:41:25Z</time></trkpt><trkpt lat="53.8048224896" lon="26.0861839447"><ele>143.85</ele><time>2012-09-22T12:41:34Z</time></trkpt><trkpt lat="53.8047488965" lon="26.0859857965"><ele>143.85</ele><time>2012-09-22T12:41:41Z</time></trkpt><trkpt lat="53.8046670053" lon="26.0857438948"><ele>143.85</ele><time>2012-09-22T12:41:46Z</time></trkpt><trkpt lat="53.8045578729" lon="26.0852433275"><ele>143.37</ele><time>2012-09-22T12:41:54Z</time></trkpt><trkpt lat="53.8045033067" lon="26.0850610211"><ele>143.85</ele><time>2012-09-22T12:41:57Z</time></trkpt><trkpt lat="53.8044472318" lon="26.0848648846"><ele>143.37</ele><time>2012-09-22T12:42:00Z</time></trkpt><trkpt lat="53.8043334056" lon="26.0843379982"><ele>143.37</ele><time>2012-09-22T12:42:09Z</time></trkpt><trkpt lat="53.8042233512" lon="26.0839204956"><ele>143.37</ele><time>2012-09-22T12:42:17Z</time></trkpt><trkpt lat="53.8041058369" lon="26.0835836269"><ele>143.85</ele><time>2012-09-22T12:42:25Z</time></trkpt><trkpt lat="53.8039423898" lon="26.0832056031"><ele>143.85</ele><time>2012-09-22T12:42:34Z</time></trkpt><trkpt lat="53.8038246240" lon="26.0829990730"><ele>143.85</ele><time>2012-09-22T12:42:40Z</time></trkpt><trkpt lat="53.8036242127" lon="26.0826398246"><ele>144.34</ele><time>2012-09-22T12:42:50Z</time></trkpt><trkpt lat="53.8034135755" lon="26.0822370742"><ele>143.37</ele><time>2012-09-22T12:42:59Z</time></trkpt><trkpt lat="53.8033964764" lon="26.0822097491"><ele>143.37</ele><time>2012-09-22T12:43:00Z</time></trkpt><trkpt lat="53.8032387290" lon="26.0818420351"><ele>143.37</ele><time>2012-09-22T12:43:09Z</time></trkpt><trkpt lat="53.8030260801" lon="26.0814412963"><ele>143.37</ele><time>2012-09-22T12:43:18Z</time></trkpt><trkpt lat="53.8028335478" lon="26.0810693074"><ele>142.89</ele><time>2012-09-22T12:43:27Z</time></trkpt><trkpt lat="53.8026238326" lon="26.0809553973"><ele>143.37</ele><time>2012-09-22T12:43:34Z</time></trkpt><trkpt lat="53.8023816794" lon="26.0807401501"><ele>143.37</ele><time>2012-09-22T12:43:42Z</time></trkpt><trkpt lat="53.8021412864" lon="26.0805357154"><ele>143.37</ele><time>2012-09-22T12:43:51Z</time></trkpt><trkpt lat="53.8018102851" lon="26.0803555045"><ele>143.37</ele><time>2012-09-22T12:44:02Z</time></trkpt><trkpt lat="53.8015936967" lon="26.0801825020"><ele>143.85</ele><time>2012-09-22T12:44:11Z</time></trkpt><trkpt lat="53.8013205305" lon="26.0799497366"><ele>143.37</ele><time>2012-09-22T12:44:21Z</time></trkpt><trkpt lat="53.8010493759" lon="26.0797472298"><ele>142.89</ele><time>2012-09-22T12:44:30Z</time></trkpt><trkpt lat="53.8007331267" lon="26.0796258599"><ele>143.37</ele><time>2012-09-22T12:44:40Z</time></trkpt><trkpt lat="53.8004742935" lon="26.0795732215"><ele>143.85</ele><time>2012-09-22T12:44:49Z</time></trkpt><trkpt lat="53.8001871295" lon="26.0795062501"><ele>143.85</ele><time>2012-09-22T12:44:58Z</time></trkpt><trkpt lat="53.8000950124" lon="26.0794734769"><ele>143.85</ele><time>2012-09-22T12:45:05Z</time></trkpt><trkpt lat="53.8000057451" lon="26.0793931782"><ele>143.85</ele><time>2012-09-22T12:45:22Z</time></trkpt><trkpt lat="53.7999552861" lon="26.0794073436"><ele>143.85</ele><time>2012-09-22T12:45:44Z</time></trkpt><trkpt lat="53.7999223452" lon="26.0794029851"><ele>143.85</ele><time>2012-09-22T12:46:00Z</time></trkpt><trkpt lat="53.7998784240" lon="26.0793756600"><ele>143.85</ele><time>2012-09-22T12:46:11Z</time></trkpt><trkpt lat="53.7998806871" lon="26.0793681163"><ele>143.85</ele><time>2012-09-22T12:46:23Z</time></trkpt><trkpt lat="53.7997248676" lon="26.0792038310"><ele>143.85</ele><time>2012-09-22T12:46:32Z</time></trkpt><trkpt lat="53.7995156553" lon="26.0790906753"><ele>144.82</ele><time>2012-09-22T12:46:41Z</time></trkpt><trkpt lat="53.7992620189" lon="26.0789983068"><ele>146.26</ele><time>2012-09-22T12:46:51Z</time></trkpt><trkpt lat="53.7990470231" lon="26.0788197722"><ele>145.78</ele><time>2012-09-22T12:47:00Z</time></trkpt><trkpt lat="53.7989060394" lon="26.0786295030"><ele>145.78</ele><time>2012-09-22T12:47:08Z</time></trkpt><trkpt lat="53.7987513095" lon="26.0783560853"><ele>146.26</ele><time>2012-09-22T12:47:17Z</time></trkpt><trkpt lat="53.7986175343" lon="26.0781587753"><ele>146.74</ele><time>2012-09-22T12:47:23Z</time></trkpt><trkpt lat="53.7984509021" lon="26.0778576136"><ele>146.74</ele><time>2012-09-22T12:47:30Z</time></trkpt><trkpt lat="53.7981766462" lon="26.0773606505"><ele>145.30</ele><time>2012-09-22T12:47:41Z</time></trkpt><trkpt lat="53.7979287934" lon="26.0770295653"><ele>145.30</ele><time>2012-09-22T12:47:50Z</time></trkpt><trkpt lat="53.7977080978" lon="26.0767494421"><ele>145.30</ele><time>2012-09-22T12:47:58Z</time></trkpt><trkpt lat="53.7975358497" lon="26.0764494538"><ele>145.78</ele><time>2012-09-22T12:48:07Z</time></trkpt><trkpt lat="53.7973208539" lon="26.0760866012"><ele>145.78</ele><time>2012-09-22T12:48:16Z</time></trkpt><trkpt lat="53.7970981468" lon="26.0757442843"><ele>144.82</ele><time>2012-09-22T12:48:25Z</time></trkpt><trkpt lat="53.7968248129" lon="26.0754206590"><ele>144.34</ele><time>2012-09-22T12:48:35Z</time></trkpt><trkpt lat="53.7965936400" lon="26.0751009732"><ele>144.34</ele><time>2012-09-22T12:48:43Z</time></trkpt><trkpt lat="53.7963695079" lon="26.0746630188"><ele>144.34</ele><time>2012-09-22T12:48:53Z</time></trkpt><trkpt lat="53.7961839326" lon="26.0743525531"><ele>143.85</ele><time>2012-09-22T12:49:01Z</time></trkpt><trkpt lat="53.7959340680" lon="26.0741744377"><ele>144.34</ele><time>2012-09-22T12:49:11Z</time></trkpt><trkpt lat="53.7956535257" lon="26.0740731005"><ele>144.34</ele><time>2012-09-22T12:49:21Z</time></trkpt><trkpt lat="53.7953500170" lon="26.0739052948"><ele>144.34</ele><time>2012-09-22T12:49:32Z</time></trkpt><trkpt lat="53.7951049302" lon="26.0738330428"><ele>143.85</ele><time>2012-09-22T12:49:40Z</time></trkpt><trkpt lat="53.7948740926" lon="26.0737659875"><ele>144.82</ele><time>2012-09-22T12:49:50Z</time></trkpt><trkpt lat="53.7945850845" lon="26.0736493114"><ele>145.78</ele><time>2012-09-22T12:50:02Z</time></trkpt><trkpt lat="53.7943167798" lon="26.0735226609"><ele>146.74</ele><time>2012-09-22T12:50:14Z</time></trkpt><trkpt lat="53.7941229902" lon="26.0735458788"><ele>146.26</ele><time>2012-09-22T12:50:22Z</time></trkpt><trkpt lat="53.7941097468" lon="26.0735638998"><ele>146.26</ele><time>2012-09-22T12:50:23Z</time></trkpt><trkpt lat="53.7940934021" lon="26.0735801607"><ele>146.26</ele><time>2012-09-22T12:50:24Z</time></trkpt><trkpt lat="53.7939815875" lon="26.0736555979"><ele>145.78</ele><time>2012-09-22T12:50:31Z</time></trkpt><trkpt lat="53.7938509975" lon="26.0737680830"><ele>145.78</ele><time>2012-09-22T12:50:38Z</time></trkpt><trkpt lat="53.7938424479" lon="26.0738005210"><ele>145.30</ele><time>2012-09-22T12:50:39Z</time></trkpt><trkpt lat="53.7938157097" lon="26.0741590988"><ele>145.30</ele><time>2012-09-22T12:50:48Z</time></trkpt><trkpt lat="53.7937675975" lon="26.0747261345"><ele>145.30</ele><time>2012-09-22T12:50:59Z</time></trkpt><trkpt lat="53.7936611474" lon="26.0750490893"><ele>145.30</ele><time>2012-09-22T12:51:06Z</time></trkpt><trkpt lat="53.7935565412" lon="26.0755700245"><ele>146.26</ele><time>2012-09-22T12:51:17Z</time></trkpt><trkpt lat="53.7934424635" lon="26.0759595316"><ele>146.74</ele><time>2012-09-22T12:51:24Z</time></trkpt><trkpt lat="53.7934173178" lon="26.0760676581"><ele>146.26</ele><time>2012-09-22T12:51:26Z</time></trkpt><trkpt lat="53.7934317347" lon="26.0765067860"><ele>144.82</ele><time>2012-09-22T12:51:32Z</time></trkpt><trkpt lat="53.7934772484" lon="26.0771728121"><ele>144.34</ele><time>2012-09-22T12:51:42Z</time></trkpt><trkpt lat="53.7934468221" lon="26.0776142869"><ele>143.85</ele><time>2012-09-22T12:51:50Z</time></trkpt><trkpt lat="53.7933899090" lon="26.0781855136"><ele>143.37</ele><time>2012-09-22T12:51:59Z</time></trkpt><trkpt lat="53.7935570441" lon="26.0786534753"><ele>144.34</ele><time>2012-09-22T12:52:09Z</time></trkpt><trkpt lat="53.7937545218" lon="26.0790218599"><ele>143.85</ele><time>2012-09-22T12:52:18Z</time></trkpt><trkpt lat="53.7937686872" lon="26.0790644400"><ele>143.85</ele><time>2012-09-22T12:52:19Z</time></trkpt><trkpt lat="53.7937861215" lon="26.0791034997"><ele>143.85</ele><time>2012-09-22T12:52:20Z</time></trkpt><trkpt lat="53.7938069925" lon="26.0791350156"><ele>143.85</ele><time>2012-09-22T12:52:21Z</time></trkpt><trkpt lat="53.7938292045" lon="26.0791666992"><ele>143.85</ele><time>2012-09-22T12:52:22Z</time></trkpt><trkpt lat="53.7938487343" lon="26.0792008974"><ele>143.85</ele><time>2012-09-22T12:52:23Z</time></trkpt><trkpt lat="53.7938701082" lon="26.0792386997"><ele>143.85</ele><time>2012-09-22T12:52:24Z</time></trkpt><trkpt lat="53.7940843496" lon="26.0798121896"><ele>143.85</ele><time>2012-09-22T12:52:36Z</time></trkpt><trkpt lat="53.7941306178" lon="26.0805082228"><ele>143.85</ele><time>2012-09-22T12:52:48Z</time></trkpt><trkpt lat="53.7940674182" lon="26.0812085308"><ele>143.37</ele><time>2012-09-22T12:53:00Z</time></trkpt><trkpt lat="53.7940140255" lon="26.0818398558"><ele>143.37</ele><time>2012-09-22T12:53:12Z</time></trkpt><trkpt lat="53.7939613033" lon="26.0824947339"><ele>143.37</ele><time>2012-09-22T12:53:24Z</time></trkpt><trkpt lat="53.7938922364" lon="26.0832119733"><ele>142.89</ele><time>2012-09-22T12:53:36Z</time></trkpt><trkpt lat="53.7938354909" lon="26.0839521792"><ele>142.89</ele><time>2012-09-22T12:53:48Z</time></trkpt><trkpt lat="53.7937680166" lon="26.0846317001"><ele>142.89</ele><time>2012-09-22T12:54:00Z</time></trkpt><trkpt lat="53.7937141210" lon="26.0853036772"><ele>142.89</ele><time>2012-09-22T12:54:12Z</time></trkpt><trkpt lat="53.7936531845" lon="26.0857920069"><ele>142.89</ele><time>2012-09-22T12:54:21Z</time></trkpt><trkpt lat="53.7935950141" lon="26.0866172891"><ele>143.37</ele><time>2012-09-22T12:54:35Z</time></trkpt><trkpt lat="53.7936592195" lon="26.0871466901"><ele>142.89</ele><time>2012-09-22T12:54:44Z</time></trkpt><trkpt lat="53.7937085889" lon="26.0878109559"><ele>142.89</ele><time>2012-09-22T12:54:55Z</time></trkpt><trkpt lat="53.7937323097" lon="26.0880560428"><ele>142.89</ele><time>2012-09-22T12:54:59Z</time></trkpt><trkpt lat="53.7937732134" lon="26.0886745434"><ele>142.41</ele><time>2012-09-22T12:55:09Z</time></trkpt><trkpt lat="53.7937809248" lon="26.0891704168"><ele>142.89</ele><time>2012-09-22T12:55:17Z</time></trkpt><trkpt lat="53.7938131113" lon="26.0898998939"><ele>142.89</ele><time>2012-09-22T12:55:28Z</time></trkpt><trkpt lat="53.7938771490" lon="26.0905691888"><ele>142.41</ele><time>2012-09-22T12:55:39Z</time></trkpt><trkpt lat="53.7939184718" lon="26.0911410861"><ele>142.41</ele><time>2012-09-22T12:55:48Z</time></trkpt><trkpt lat="53.7939577829" lon="26.0919035878"><ele>142.41</ele><time>2012-09-22T12:56:00Z</time></trkpt><trkpt lat="53.7940093316" lon="26.0927385092"><ele>142.89</ele><time>2012-09-22T12:56:13Z</time></trkpt><trkpt lat="53.7940375786" lon="26.0930719413"><ele>142.41</ele><time>2012-09-22T12:56:18Z</time></trkpt><trkpt lat="53.7940677535" lon="26.0937388055"><ele>142.89</ele><time>2012-09-22T12:56:29Z</time></trkpt><trkpt lat="53.7941152789" lon="26.0945464019"><ele>142.89</ele><time>2012-09-22T12:56:41Z</time></trkpt><trkpt lat="53.7941455375" lon="26.0950260144"><ele>142.89</ele><time>2012-09-22T12:56:49Z</time></trkpt><trkpt lat="53.7941861898" lon="26.0955990851"><ele>142.89</ele><time>2012-09-22T12:56:59Z</time></trkpt><trkpt lat="53.7942232378" lon="26.0961724911"><ele>142.89</ele><time>2012-09-22T12:57:09Z</time></trkpt><trkpt lat="53.7942638062" lon="26.0967186559"><ele>142.41</ele><time>2012-09-22T12:57:18Z</time></trkpt><trkpt lat="53.7942982558" lon="26.0974104144"><ele>142.41</ele><time>2012-09-22T12:57:30Z</time></trkpt><trkpt lat="53.7943547498" lon="26.0982190166"><ele>142.89</ele><time>2012-09-22T12:57:43Z</time></trkpt><trkpt lat="53.7943413388" lon="26.0987551231"><ele>142.89</ele><time>2012-09-22T12:57:50Z</time></trkpt><trkpt lat="53.7943266705" lon="26.0988288838"><ele>142.41</ele><time>2012-09-22T12:57:51Z</time></trkpt><trkpt lat="53.7943089847" lon="26.0988971964"><ele>142.41</ele><time>2012-09-22T12:57:52Z</time></trkpt><trkpt lat="53.7942871917" lon="26.0989581328"><ele>142.41</ele><time>2012-09-22T12:57:53Z</time></trkpt><trkpt lat="53.7942641415" lon="26.0990147106"><ele>142.41</ele><time>2012-09-22T12:57:54Z</time></trkpt><trkpt lat="53.7939105928" lon="26.0999459401"><ele>142.41</ele><time>2012-09-22T12:58:10Z</time></trkpt><trkpt lat="53.7936523464" lon="26.1004870757"><ele>142.89</ele><time>2012-09-22T12:58:22Z</time></trkpt><trkpt lat="53.7933750730" lon="26.1007307377"><ele>142.41</ele><time>2012-09-22T12:58:31Z</time></trkpt><trkpt lat="53.7930584047" lon="26.1010417063"><ele>143.37</ele><time>2012-09-22T12:58:43Z</time></trkpt><trkpt lat="53.7930629309" lon="26.1014906410"><ele>143.37</ele><time>2012-09-22T12:58:52Z</time></trkpt><trkpt lat="53.7930615898" lon="26.1015771423"><ele>143.85</ele><time>2012-09-22T12:58:59Z</time></trkpt><trkpt lat="53.7930637691" lon="26.1015903018"><ele>143.37</ele><time>2012-09-22T12:59:16Z</time></trkpt><trkpt lat="53.7930788565" lon="26.1016264278"><ele>143.37</ele><time>2012-09-22T12:59:24Z</time></trkpt><trkpt lat="53.7930848077" lon="26.1016349774"><ele>143.85</ele><time>2012-09-22T12:59:32Z</time></trkpt><trkpt lat="53.7930842210" lon="26.1016333010"><ele>143.37</ele><time>2012-09-22T12:59:54Z</time></trkpt><trkpt lat="53.7930905912" lon="26.1016398389"><ele>143.37</ele><time>2012-09-22T13:00:21Z</time></trkpt><trkpt lat="53.7930858973" lon="26.1016662419"><ele>143.37</ele><time>2012-09-22T13:00:47Z</time></trkpt><trkpt lat="53.7930783536" lon="26.1016121786"><ele>143.37</ele><time>2012-09-22T13:00:58Z</time></trkpt><trkpt lat="53.7931027450" lon="26.1015946604"><ele>143.37</ele><time>2012-09-22T13:01:24Z</time></trkpt><trkpt lat="53.7930816226" lon="26.1015893798"><ele>142.89</ele><time>2012-09-22T13:01:46Z</time></trkpt><trkpt lat="53.7930826284" lon="26.1015925650"><ele>142.89</ele><time>2012-09-22T13:02:06Z</time></trkpt><trkpt lat="53.7930839695" lon="26.1015951633"><ele>142.41</ele><time>2012-09-22T13:02:28Z</time></trkpt><trkpt lat="53.7930853944" lon="26.1016036291"><ele>142.41</ele><time>2012-09-22T13:02:47Z</time></trkpt><trkpt lat="53.7930895854" lon="26.1016117595"><ele>142.41</ele><time>2012-09-22T13:03:06Z</time></trkpt><trkpt lat="53.7930692174" lon="26.1015706044"><ele>142.41</ele><time>2012-09-22T13:03:27Z</time></trkpt><trkpt lat="53.7930889986" lon="26.1016052216"><ele>141.93</ele><time>2012-09-22T13:03:53Z</time></trkpt><trkpt lat="53.7930901721" lon="26.1015941575"><ele>141.93</ele><time>2012-09-22T13:04:22Z</time></trkpt><trkpt lat="53.7931007333" lon="26.1015981808"><ele>141.45</ele><time>2012-09-22T13:04:44Z</time></trkpt><trkpt lat="53.7930811197" lon="26.1015890446"><ele>141.45</ele><time>2012-09-22T13:05:09Z</time></trkpt><trkpt lat="53.7930938601" lon="26.1016136035"><ele>141.45</ele><time>2012-09-22T13:05:30Z</time></trkpt><trkpt lat="53.7930776831" lon="26.1015740409"><ele>140.97</ele><time>2012-09-22T13:05:51Z</time></trkpt><trkpt lat="53.7930827122" lon="26.1015868653"><ele>140.97</ele><time>2012-09-22T13:06:08Z</time></trkpt><trkpt lat="53.7930832990" lon="26.1015995219"><ele>140.49</ele><time>2012-09-22T13:06:35Z</time></trkpt><trkpt lat="53.7930914294" lon="26.1016142741"><ele>140.49</ele><time>2012-09-22T13:07:01Z</time></trkpt><trkpt lat="53.7930969615" lon="26.1016113404"><ele>140.49</ele><time>2012-09-22T13:07:20Z</time></trkpt><trkpt lat="53.7930961233" lon="26.1015843507"><ele>140.49</ele><time>2012-09-22T13:07:44Z</time></trkpt><trkpt lat="53.7930604164" lon="26.1015753821"><ele>140.49</ele><time>2012-09-22T13:08:02Z</time></trkpt><trkpt lat="53.7930094544" lon="26.1015723646"><ele>140.49</ele><time>2012-09-22T13:08:25Z</time></trkpt><trkpt lat="53.7930592429" lon="26.1015758850"><ele>140.49</ele><time>2012-09-22T13:08:46Z</time></trkpt><trkpt lat="53.7931010686" lon="26.1015706882"><ele>140.49</ele><time>2012-09-22T13:09:09Z</time></trkpt><trkpt lat="53.7930827960" lon="26.1015718617"><ele>140.49</ele><time>2012-09-22T13:09:26Z</time></trkpt><trkpt lat="53.7930846401" lon="26.1015744600"><ele>140.49</ele><time>2012-09-22T13:09:39Z</time></trkpt><trkpt lat="53.7930716481" lon="26.1015263479"><ele>140.49</ele><time>2012-09-22T13:09:52Z</time></trkpt><trkpt lat="53.7930737436" lon="26.1015058961"><ele>140.49</ele><time>2012-09-22T13:10:03Z</time></trkpt><trkpt lat="53.7930786051" lon="26.1014869530"><ele>140.49</ele><time>2012-09-22T13:10:21Z</time></trkpt><trkpt lat="53.7930800300" lon="26.1014616396"><ele>140.49</ele><time>2012-09-22T13:10:26Z</time></trkpt><trkpt lat="53.7930839695" lon="26.1014319677"><ele>140.49</ele><time>2012-09-22T13:10:27Z</time></trkpt><trkpt lat="53.7930849753" lon="26.1013913993"><ele>140.49</ele><time>2012-09-22T13:10:28Z</time></trkpt><trkpt lat="53.7930807006" lon="26.1013362464"><ele>140.49</ele><time>2012-09-22T13:10:29Z</time></trkpt><trkpt lat="53.7930708099" lon="26.1012737174"><ele>140.49</ele><time>2012-09-22T13:10:30Z</time></trkpt><trkpt lat="53.7930549681" lon="26.1012111045"><ele>140.49</ele><time>2012-09-22T13:10:31Z</time></trkpt><trkpt lat="53.7930346001" lon="26.1011557840"><ele>140.49</ele><time>2012-09-22T13:10:32Z</time></trkpt><trkpt lat="53.7930075265" lon="26.1011097673"><ele>140.49</ele><time>2012-09-22T13:10:33Z</time></trkpt><trkpt lat="53.7929762620" lon="26.1010729708"><ele>140.49</ele><time>2012-09-22T13:10:34Z</time></trkpt><trkpt lat="53.7929415610" lon="26.1010463163"><ele>140.49</ele><time>2012-09-22T13:10:35Z</time></trkpt><trkpt lat="53.7929037586" lon="26.1010392755"><ele>140.01</ele><time>2012-09-22T13:10:36Z</time></trkpt><trkpt lat="53.7928645313" lon="26.1010445561"><ele>140.49</ele><time>2012-09-22T13:10:37Z</time></trkpt><trkpt lat="53.7928241305" lon="26.1010582186"><ele>140.49</ele><time>2012-09-22T13:10:38Z</time></trkpt><trkpt lat="53.7927812152" lon="26.1010754015"><ele>140.49</ele><time>2012-09-22T13:10:39Z</time></trkpt><trkpt lat="53.7927376293" lon="26.1010928359"><ele>140.49</ele><time>2012-09-22T13:10:40Z</time></trkpt><trkpt lat="53.7926960550" lon="26.1011154670"><ele>140.01</ele><time>2012-09-22T13:10:41Z</time></trkpt><trkpt lat="53.7926564086" lon="26.1011411157"><ele>140.01</ele><time>2012-09-22T13:10:42Z</time></trkpt><trkpt lat="53.7922569271" lon="26.1013465561"><ele>140.49</ele><time>2012-09-22T13:10:51Z</time></trkpt><trkpt lat="53.7922102399" lon="26.1013544351"><ele>140.49</ele><time>2012-09-22T13:10:52Z</time></trkpt><trkpt lat="53.7914721295" lon="26.1013535969"><ele>140.49</ele><time>2012-09-22T13:11:08Z</time></trkpt><trkpt lat="53.7908651959" lon="26.1012893915"><ele>140.97</ele><time>2012-09-22T13:11:21Z</time></trkpt><trkpt lat="53.7901928835" lon="26.1012550257"><ele>140.97</ele><time>2012-09-22T13:11:35Z</time></trkpt><trkpt lat="53.7894578744" lon="26.1012204085"><ele>140.97</ele><time>2012-09-22T13:11:50Z</time></trkpt><trkpt lat="53.7887796946" lon="26.1011831928"><ele>140.49</ele><time>2012-09-22T13:12:03Z</time></trkpt><trkpt lat="53.7881224696" lon="26.1011404451"><ele>140.49</ele><time>2012-09-22T13:12:16Z</time></trkpt><trkpt lat="53.7875008676" lon="26.1010975298"><ele>140.49</ele><time>2012-09-22T13:12:29Z</time></trkpt><trkpt lat="53.7868511863" lon="26.1010655947"><ele>140.49</ele><time>2012-09-22T13:12:42Z</time></trkpt><trkpt lat="53.7862593401" lon="26.1010434665"><ele>140.97</ele><time>2012-09-22T13:12:54Z</time></trkpt><trkpt lat="53.7856624648" lon="26.1010200810"><ele>140.97</ele><time>2012-09-22T13:13:06Z</time></trkpt><trkpt lat="53.7854151987" lon="26.1010107771"><ele>140.49</ele><time>2012-09-22T13:13:11Z</time></trkpt><trkpt lat="53.7848882284" lon="26.1009668559"><ele>140.49</ele><time>2012-09-22T13:13:22Z</time></trkpt><trkpt lat="53.7848388590" lon="26.1009553727"><ele>140.49</ele><time>2012-09-22T13:13:23Z</time></trkpt><trkpt lat="53.7841886748" lon="26.1009161454"><ele>140.49</ele><time>2012-09-22T13:13:36Z</time></trkpt><trkpt lat="53.7835022807" lon="26.1008942686"><ele>140.97</ele><time>2012-09-22T13:13:50Z</time></trkpt><trkpt lat="53.7832281925" lon="26.1008724757"><ele>141.45</ele><time>2012-09-22T13:13:56Z</time></trkpt><trkpt lat="53.7824776769" lon="26.1007993855"><ele>141.45</ele><time>2012-09-22T13:14:12Z</time></trkpt><trkpt lat="53.7817881815" lon="26.1007137224"><ele>140.97</ele><time>2012-09-22T13:14:27Z</time></trkpt><trkpt lat="53.7815372273" lon="26.1006641854"><ele>140.97</ele><time>2012-09-22T13:14:33Z</time></trkpt><trkpt lat="53.7811143603" lon="26.1004802864"><ele>141.93</ele><time>2012-09-22T13:14:44Z</time></trkpt><trkpt lat="53.7807369232" lon="26.1002651230"><ele>141.93</ele><time>2012-09-22T13:14:56Z</time></trkpt><trkpt lat="53.7804983743" lon="26.1001956370"><ele>142.41</ele><time>2012-09-22T13:15:06Z</time></trkpt><trkpt lat="53.7802091986" lon="26.1001161765"><ele>142.41</ele><time>2012-09-22T13:15:17Z</time></trkpt><trkpt lat="53.7798184343" lon="26.0999797191"><ele>142.41</ele><time>2012-09-22T13:15:29Z</time></trkpt><trkpt lat="53.7791892048" lon="26.0996721871"><ele>141.45</ele><time>2012-09-22T13:15:43Z</time></trkpt><trkpt lat="53.7785848696" lon="26.0993030481"><ele>141.93</ele><time>2012-09-22T13:15:56Z</time></trkpt><trkpt lat="53.7779183406" lon="26.0988147184"><ele>141.93</ele><time>2012-09-22T13:16:10Z</time></trkpt><trkpt lat="53.7772724312" lon="26.0983012430"><ele>141.93</ele><time>2012-09-22T13:16:24Z</time></trkpt><trkpt lat="53.7767494004" lon="26.0977763683"><ele>141.45</ele><time>2012-09-22T13:16:36Z</time></trkpt><trkpt lat="53.7767153699" lon="26.0977248196"><ele>140.97</ele><time>2012-09-22T13:16:37Z</time></trkpt><trkpt lat="53.7766805012" lon="26.0976739414"><ele>140.97</ele><time>2012-09-22T13:16:38Z</time></trkpt><trkpt lat="53.7766428664" lon="26.0976206325"><ele>140.97</ele><time>2012-09-22T13:16:39Z</time></trkpt><trkpt lat="53.7766082492" lon="26.0975597799"><ele>140.97</ele><time>2012-09-22T13:16:40Z</time></trkpt><trkpt lat="53.7765743025" lon="26.0974968318"><ele>140.97</ele><time>2012-09-22T13:16:41Z</time></trkpt><trkpt lat="53.7765406072" lon="26.0974333808"><ele>140.97</ele><time>2012-09-22T13:16:42Z</time></trkpt><trkpt lat="53.7765090913" lon="26.0973678343"><ele>140.97</ele><time>2012-09-22T13:16:43Z</time></trkpt><trkpt lat="53.7762614898" lon="26.0964513570"><ele>140.97</ele><time>2012-09-22T13:16:55Z</time></trkpt><trkpt lat="53.7761707138" lon="26.0954699200"><ele>141.45</ele><time>2012-09-22T13:17:07Z</time></trkpt><trkpt lat="53.7760499306" lon="26.0944056697"><ele>141.45</ele><time>2012-09-22T13:17:20Z</time></trkpt><trkpt lat="53.7758779339" lon="26.0933393240"><ele>140.97</ele><time>2012-09-22T13:17:33Z</time></trkpt><trkpt lat="53.7756639440" lon="26.0924231820"><ele>140.49</ele><time>2012-09-22T13:17:45Z</time></trkpt><trkpt lat="53.7753057852" lon="26.0914426669"><ele>140.97</ele><time>2012-09-22T13:18:00Z</time></trkpt><trkpt lat="53.7749783881" lon="26.0906447098"><ele>140.97</ele><time>2012-09-22T13:18:13Z</time></trkpt><trkpt lat="53.7745808344" lon="26.0899075214"><ele>140.97</ele><time>2012-09-22T13:18:26Z</time></trkpt><trkpt lat="53.7741000485" lon="26.0892726760"><ele>140.97</ele><time>2012-09-22T13:18:40Z</time></trkpt><trkpt lat="53.7736101262" lon="26.0887638107"><ele>141.45</ele><time>2012-09-22T13:18:54Z</time></trkpt><trkpt lat="53.7732336111" lon="26.0884116031"><ele>141.45</ele><time>2012-09-22T13:19:04Z</time></trkpt><trkpt lat="53.7731202040" lon="26.0883252695"><ele>141.45</ele><time>2012-09-22T13:19:07Z</time></trkpt><trkpt lat="53.7728058826" lon="26.0881165601"><ele>141.45</ele><time>2012-09-22T13:19:15Z</time></trkpt><trkpt lat="53.7727641407" lon="26.0880990420"><ele>141.45</ele><time>2012-09-22T13:19:16Z</time></trkpt><trkpt lat="53.7727223150" lon="26.0880800150"><ele>141.93</ele><time>2012-09-22T13:19:17Z</time></trkpt><trkpt lat="53.7726793997" lon="26.0880655982"><ele>141.45</ele><time>2012-09-22T13:19:18Z</time></trkpt><trkpt lat="53.7726364844" lon="26.0880538635"><ele>141.45</ele><time>2012-09-22T13:19:19Z</time></trkpt><trkpt lat="53.7720355019" lon="26.0879278835"><ele>141.45</ele><time>2012-09-22T13:19:32Z</time></trkpt><trkpt lat="53.7718992122" lon="26.0879124608"><ele>141.45</ele><time>2012-09-22T13:19:35Z</time></trkpt><trkpt lat="53.7712478545" lon="26.0877508577"><ele>141.45</ele><time>2012-09-22T13:19:49Z</time></trkpt><trkpt lat="53.7706885301" lon="26.0876099579"><ele>141.45</ele><time>2012-09-22T13:20:01Z</time></trkpt><trkpt lat="53.7706425134" lon="26.0875936132"><ele>141.45</ele><time>2012-09-22T13:20:02Z</time></trkpt><trkpt lat="53.7698691990" lon="26.0873698164"><ele>141.93</ele><time>2012-09-22T13:20:19Z</time></trkpt><trkpt lat="53.7692206074" lon="26.0872072913"><ele>141.93</ele><time>2012-09-22T13:20:33Z</time></trkpt><trkpt lat="53.7684757076" lon="26.0870357137"><ele>141.93</ele><time>2012-09-22T13:20:48Z</time></trkpt><trkpt lat="53.7678142078" lon="26.0868916288"><ele>140.01</ele><time>2012-09-22T13:21:00Z</time></trkpt><trkpt lat="53.7669959664" lon="26.0867287684"><ele>139.05</ele><time>2012-09-22T13:21:15Z</time></trkpt><trkpt lat="53.7661740370" lon="26.0865595378"><ele>139.05</ele><time>2012-09-22T13:21:32Z</time></trkpt><trkpt lat="53.7655844539" lon="26.0863807518"><ele>139.53</ele><time>2012-09-22T13:21:45Z</time></trkpt><trkpt lat="53.7648577429" lon="26.0860976949"><ele>140.49</ele><time>2012-09-22T13:22:02Z</time></trkpt><trkpt lat="53.7642357219" lon="26.0855738260"><ele>140.97</ele><time>2012-09-22T13:22:17Z</time></trkpt><trkpt lat="53.7638790719" lon="26.0851259809"><ele>140.97</ele><time>2012-09-22T13:22:27Z</time></trkpt><trkpt lat="53.7637188938" lon="26.0848988313"><ele>140.97</ele><time>2012-09-22T13:22:32Z</time></trkpt><trkpt lat="53.7636890542" lon="26.0848477855"><ele>140.97</ele><time>2012-09-22T13:22:33Z</time></trkpt><trkpt lat="53.7632607389" lon="26.0841768142"><ele>140.97</ele><time>2012-09-22T13:22:46Z</time></trkpt><trkpt lat="53.7628072780" lon="26.0833397135"><ele>140.97</ele><time>2012-09-22T13:23:00Z</time></trkpt><trkpt lat="53.7623517215" lon="26.0824057180"><ele>140.97</ele><time>2012-09-22T13:23:15Z</time></trkpt><trkpt lat="53.7620038725" lon="26.0817039851"><ele>140.97</ele><time>2012-09-22T13:23:26Z</time></trkpt><trkpt lat="53.7614580430" lon="26.0805631243"><ele>140.97</ele><time>2012-09-22T13:23:43Z</time></trkpt><trkpt lat="53.7609894108" lon="26.0795568768"><ele>140.97</ele><time>2012-09-22T13:23:58Z</time></trkpt><trkpt lat="53.7605326809" lon="26.0785285849"><ele>140.97</ele><time>2012-09-22T13:24:13Z</time></trkpt><trkpt lat="53.7600117456" lon="26.0772526916"><ele>140.49</ele><time>2012-09-22T13:24:31Z</time></trkpt><trkpt lat="53.7595690135" lon="26.0761009343"><ele>140.97</ele><time>2012-09-22T13:24:47Z</time></trkpt><trkpt lat="53.7591073383" lon="26.0749083571"><ele>140.97</ele><time>2012-09-22T13:25:03Z</time></trkpt><trkpt lat="53.7586801965" lon="26.0738571826"><ele>140.97</ele><time>2012-09-22T13:25:17Z</time></trkpt><trkpt lat="53.7582073733" lon="26.0726832971"><ele>140.97</ele><time>2012-09-22T13:25:33Z</time></trkpt><trkpt lat="53.7577641383" lon="26.0716725234"><ele>140.97</ele><time>2012-09-22T13:25:48Z</time></trkpt><trkpt lat="53.7573654950" lon="26.0708454810"><ele>140.49</ele><time>2012-09-22T13:26:01Z</time></trkpt><trkpt lat="53.7570106052" lon="26.0700801294"><ele>140.97</ele><time>2012-09-22T13:26:13Z</time></trkpt><trkpt lat="53.7565501872" lon="26.0691146180"><ele>140.97</ele><time>2012-09-22T13:26:28Z</time></trkpt><trkpt lat="53.7560728379" lon="26.0681002401"><ele>141.45</ele><time>2012-09-22T13:26:44Z</time></trkpt><trkpt lat="53.7556653097" lon="26.0672363173"><ele>141.93</ele><time>2012-09-22T13:26:58Z</time></trkpt><trkpt lat="53.7551537622" lon="26.0661478434"><ele>141.93</ele><time>2012-09-22T13:27:15Z</time></trkpt><trkpt lat="53.7547045760" lon="26.0652058851"><ele>141.45</ele><time>2012-09-22T13:27:30Z</time></trkpt><trkpt lat="53.7543005683" lon="26.0644586384"><ele>140.49</ele><time>2012-09-22T13:27:42Z</time></trkpt><trkpt lat="53.7542596646" lon="26.0644165613"><ele>140.49</ele><time>2012-09-22T13:27:43Z</time></trkpt><trkpt lat="53.7542167492" lon="26.0643790942"><ele>140.49</ele><time>2012-09-22T13:27:44Z</time></trkpt><trkpt lat="53.7537374720" lon="26.0640371963"><ele>140.01</ele><time>2012-09-22T13:27:55Z</time></trkpt><trkpt lat="53.7532441132" lon="26.0637802072"><ele>140.01</ele><time>2012-09-22T13:28:07Z</time></trkpt><trkpt lat="53.7529660016" lon="26.0636766907"><ele>140.49</ele><time>2012-09-22T13:28:17Z</time></trkpt><trkpt lat="53.7526424602" lon="26.0634990782"><ele>141.45</ele><time>2012-09-22T13:28:28Z</time></trkpt><trkpt lat="53.7525369320" lon="26.0634325258"><ele>141.45</ele><time>2012-09-22T13:28:38Z</time></trkpt><trkpt lat="53.7525037397" lon="26.0633996688"><ele>141.45</ele><time>2012-09-22T13:28:49Z</time></trkpt><trkpt lat="53.7525094394" lon="26.0633885209"><ele>141.45</ele><time>2012-09-22T13:29:20Z</time></trkpt><trkpt lat="53.7525023986" lon="26.0633814801"><ele>141.45</ele><time>2012-09-22T13:29:24Z</time></trkpt><trkpt lat="53.7524992973" lon="26.0633440129"><ele>141.93</ele><time>2012-09-22T13:29:34Z</time></trkpt><trkpt lat="53.7524935137" lon="26.0633631237"><ele>141.93</ele><time>2012-09-22T13:30:03Z</time></trkpt><trkpt lat="53.7524981238" lon="26.0633726791"><ele>141.93</ele><time>2012-09-22T13:30:33Z</time></trkpt><trkpt lat="53.7524908315" lon="26.0633505508"><ele>141.93</ele><time>2012-09-22T13:31:12Z</time></trkpt><trkpt lat="53.7524853833" lon="26.0633596033"><ele>141.93</ele><time>2012-09-22T13:31:45Z</time></trkpt><trkpt lat="53.7524972018" lon="26.0633489583"><ele>141.45</ele><time>2012-09-22T13:32:17Z</time></trkpt><trkpt lat="53.7524993811" lon="26.0633537360"><ele>141.45</ele><time>2012-09-22T13:32:49Z</time></trkpt><trkpt lat="53.7524983753" lon="26.0633524787"><ele>141.45</ele><time>2012-09-22T13:33:25Z</time></trkpt><trkpt lat="53.7524971180" lon="26.0633604415"><ele>140.97</ele><time>2012-09-22T13:33:59Z</time></trkpt><trkpt lat="53.7525014766" lon="26.0633508023"><ele>140.97</ele><time>2012-09-22T13:34:33Z</time></trkpt><trkpt lat="53.7524969503" lon="26.0633596033"><ele>140.49</ele><time>2012-09-22T13:35:07Z</time></trkpt><trkpt lat="53.7524937652" lon="26.0633599386"><ele>140.49</ele><time>2012-09-22T13:35:35Z</time></trkpt><trkpt lat="53.7524689548" lon="26.0634035245"><ele>140.49</ele><time>2012-09-22T13:35:46Z</time></trkpt><trkpt lat="53.7524692900" lon="26.0634038597"><ele>140.01</ele><time>2012-09-22T13:36:06Z</time></trkpt><trkpt lat="53.7524645124" lon="26.0634022672"><ele>140.01</ele><time>2012-09-22T13:36:19Z</time></trkpt><trkpt lat="53.7522982154" lon="26.0633205436"><ele>140.49</ele><time>2012-09-22T13:36:26Z</time></trkpt><trkpt lat="53.7519007456" lon="26.0631370638"><ele>140.97</ele><time>2012-09-22T13:36:38Z</time></trkpt><trkpt lat="53.7514320295" lon="26.0629305337"><ele>141.93</ele><time>2012-09-22T13:36:51Z</time></trkpt><trkpt lat="53.7508853618" lon="26.0626747180"><ele>142.41</ele><time>2012-09-22T13:37:05Z</time></trkpt><trkpt lat="53.7507271953" lon="26.0625722073"><ele>142.41</ele><time>2012-09-22T13:37:13Z</time></trkpt><trkpt lat="53.7507197354" lon="26.0625623167"><ele>142.41</ele><time>2012-09-22T13:37:18Z</time></trkpt><trkpt lat="53.7507437076" lon="26.0623155534"><ele>142.41</ele><time>2012-09-22T13:37:25Z</time></trkpt><trkpt lat="53.7508558575" lon="26.0617698915"><ele>142.89</ele><time>2012-09-22T13:37:33Z</time></trkpt><trkpt lat="53.7508489843" lon="26.0613455996"><ele>142.89</ele><time>2012-09-22T13:37:42Z</time></trkpt><trkpt lat="53.7507763971" lon="26.0613386426"><ele>142.89</ele><time>2012-09-22T13:37:47Z</time></trkpt><trkpt lat="53.7507519219" lon="26.0613269079"><ele>142.89</ele><time>2012-09-22T13:37:49Z</time></trkpt><trkpt lat="53.7507114373" lon="26.0613319371"><ele>142.89</ele><time>2012-09-22T13:37:57Z</time></trkpt><trkpt lat="53.7506881356" lon="26.0613377206"><ele>142.89</ele><time>2012-09-22T13:38:06Z</time></trkpt><trkpt lat="53.7506546080" lon="26.0613119882"><ele>142.89</ele><time>2012-09-22T13:38:31Z</time></trkpt><trkpt lat="53.7506549433" lon="26.0613104794"><ele>142.89</ele><time>2012-09-22T13:38:44Z</time></trkpt><trkpt lat="53.7506525964" lon="26.0613079648"><ele>142.89</ele><time>2012-09-22T13:38:51Z</time></trkpt><trkpt lat="53.7506439630" lon="26.0612901952"><ele>143.37</ele><time>2012-09-22T13:39:14Z</time></trkpt><trkpt lat="53.7506595533" lon="26.0613011755"><ele>143.37</ele><time>2012-09-22T13:39:27Z</time></trkpt><trkpt lat="53.7506621517" lon="26.0613310151"><ele>143.37</ele><time>2012-09-22T13:39:34Z</time></trkpt><trkpt lat="53.7506713718" lon="26.0613136645"><ele>143.37</ele><time>2012-09-22T13:39:52Z</time></trkpt><trkpt lat="53.7506914046" lon="26.0613378044"><ele>143.85</ele><time>2012-09-22T13:40:25Z</time></trkpt><trkpt lat="53.7506981101" lon="26.0613562446"><ele>143.85</ele><time>2012-09-22T13:40:55Z</time></trkpt><trkpt lat="53.7506908178" lon="26.0613452643"><ele>144.34</ele><time>2012-09-22T13:41:18Z</time></trkpt><trkpt lat="53.7506966013" lon="26.0613443423"><ele>144.34</ele><time>2012-09-22T13:41:44Z</time></trkpt><trkpt lat="53.7506917398" lon="26.0613455996"><ele>144.34</ele><time>2012-09-22T13:42:12Z</time></trkpt><trkpt lat="53.7506877165" lon="26.0613461025"><ele>144.82</ele><time>2012-09-22T13:42:31Z</time></trkpt><trkpt lat="53.7506783288" lon="26.0613459349"><ele>145.30</ele><time>2012-09-22T13:42:55Z</time></trkpt><trkpt lat="53.7506789155" lon="26.0613606032"><ele>145.30</ele><time>2012-09-22T13:43:17Z</time></trkpt><trkpt lat="53.7506768201" lon="26.0613713320"><ele>145.30</ele><time>2012-09-22T13:43:41Z</time></trkpt><trkpt lat="53.7506781612" lon="26.0613607708"><ele>145.30</ele><time>2012-09-22T13:43:58Z</time></trkpt><trkpt lat="53.7506850343" lon="26.0613406543"><ele>145.30</ele><time>2012-09-22T13:44:23Z</time></trkpt><trkpt lat="53.7506717909" lon="26.0613514669"><ele>145.78</ele><time>2012-09-22T13:44:43Z</time></trkpt><trkpt lat="53.7506924104" lon="26.0613527242"><ele>145.78</ele><time>2012-09-22T13:45:05Z</time></trkpt><trkpt lat="53.7506945897" lon="26.0613498744"><ele>145.78</ele><time>2012-09-22T13:45:29Z</time></trkpt><trkpt lat="53.7506774068" lon="26.0613704100"><ele>145.78</ele><time>2012-09-22T13:45:49Z</time></trkpt><trkpt lat="53.7506930809" lon="26.0613672249"><ele>146.26</ele><time>2012-09-22T13:46:12Z</time></trkpt><trkpt lat="53.7506882194" lon="26.0613677278"><ele>146.26</ele><time>2012-09-22T13:46:37Z</time></trkpt><trkpt lat="53.7506850343" lon="26.0613624472"><ele>146.26</ele><time>2012-09-22T13:47:03Z</time></trkpt><trkpt lat="53.7506859563" lon="26.0613500420"><ele>146.26</ele><time>2012-09-22T13:47:28Z</time></trkpt><trkpt lat="53.7506878003" lon="26.0613341164"><ele>146.26</ele><time>2012-09-22T13:47:51Z</time></trkpt><trkpt lat="53.7506859563" lon="26.0613363795"><ele>146.26</ele><time>2012-09-22T13:48:19Z</time></trkpt><trkpt lat="53.7507002056" lon="26.0613575857"><ele>146.74</ele><time>2012-09-22T13:48:48Z</time></trkpt><trkpt lat="53.7506982777" lon="26.0613567475"><ele>146.26</ele><time>2012-09-22T13:49:15Z</time></trkpt><trkpt lat="53.7506985292" lon="26.0613694042"><ele>146.74</ele><time>2012-09-22T13:49:43Z</time></trkpt><trkpt lat="53.7506941706" lon="26.0613704100"><ele>146.74</ele><time>2012-09-22T13:50:11Z</time></trkpt><trkpt lat="53.7506919913" lon="26.0613576695"><ele>146.74</ele><time>2012-09-22T13:50:32Z</time></trkpt><trkpt lat="53.7506918237" lon="26.0613577534"><ele>146.74</ele><time>2012-09-22T13:50:55Z</time></trkpt><trkpt lat="53.7506883033" lon="26.0613462701"><ele>146.74</ele><time>2012-09-22T13:51:21Z</time></trkpt><trkpt lat="53.7506984454" lon="26.0613570828"><ele>147.22</ele><time>2012-09-22T13:51:48Z</time></trkpt><trkpt lat="53.7506895605" lon="26.0613690689"><ele>147.22</ele><time>2012-09-22T13:52:12Z</time></trkpt><trkpt lat="53.7507043127" lon="26.0613532271"><ele>147.22</ele><time>2012-09-22T13:52:35Z</time></trkpt><trkpt lat="53.7507043127" lon="26.0613122396"><ele>147.22</ele><time>2012-09-22T13:52:54Z</time></trkpt><trkpt lat="53.7506951764" lon="26.0613357928"><ele>147.22</ele><time>2012-09-22T13:53:14Z</time></trkpt><trkpt lat="53.7506859563" lon="26.0613609385"><ele>147.22</ele><time>2012-09-22T13:53:30Z</time></trkpt><trkpt lat="53.7506914884" lon="26.0613595974"><ele>147.70</ele><time>2012-09-22T13:53:59Z</time></trkpt><trkpt lat="53.7506963499" lon="26.0613531433"><ele>147.70</ele><time>2012-09-22T13:54:16Z</time></trkpt><trkpt lat="53.7507081684" lon="26.0613595136"><ele>147.70</ele><time>2012-09-22T13:54:21Z</time></trkpt><trkpt lat="53.7507830188" lon="26.0613884311"><ele>147.22</ele><time>2012-09-22T13:54:32Z</time></trkpt><trkpt lat="53.7507932447" lon="26.0614338610"><ele>147.70</ele><time>2012-09-22T13:54:45Z</time></trkpt><trkpt lat="53.7507591303" lon="26.0618184227"><ele>147.70</ele><time>2012-09-22T13:54:56Z</time></trkpt><trkpt lat="53.7506676838" lon="26.0625012126"><ele>147.22</ele><time>2012-09-22T13:55:08Z</time></trkpt><trkpt lat="53.7505320646" lon="26.0631949827"><ele>147.22</ele><time>2012-09-22T13:55:20Z</time></trkpt><trkpt lat="53.7503838725" lon="26.0640692152"><ele>147.22</ele><time>2012-09-22T13:55:32Z</time></trkpt><trkpt lat="53.7501964532" lon="26.0650996026"><ele>146.26</ele><time>2012-09-22T13:55:46Z</time></trkpt><trkpt lat="53.7501801085" lon="26.0651700944"><ele>146.74</ele><time>2012-09-22T13:55:47Z</time></trkpt><trkpt lat="53.7498351093" lon="26.0660877451"><ele>146.26</ele><time>2012-09-22T13:56:01Z</time></trkpt><trkpt lat="53.7494371366" lon="26.0668657534"><ele>146.74</ele><time>2012-09-22T13:56:14Z</time></trkpt><trkpt lat="53.7489439454" lon="26.0676968191"><ele>146.74</ele><time>2012-09-22T13:56:28Z</time></trkpt><trkpt lat="53.7484223396" lon="26.0685770866"><ele>146.26</ele><time>2012-09-22T13:56:42Z</time></trkpt><trkpt lat="53.7478666194" lon="26.0695200507"><ele>146.26</ele><time>2012-09-22T13:56:57Z</time></trkpt><trkpt lat="53.7472579256" lon="26.0705706384"><ele>146.26</ele><time>2012-09-22T13:57:14Z</time></trkpt><trkpt lat="53.7467602920" lon="26.0714006145"><ele>147.70</ele><time>2012-09-22T13:57:29Z</time></trkpt><trkpt lat="53.7463140395" lon="26.0722099710"><ele>148.18</ele><time>2012-09-22T13:57:44Z</time></trkpt><trkpt lat="53.7458050903" lon="26.0731119476"><ele>147.70</ele><time>2012-09-22T13:57:59Z</time></trkpt><trkpt lat="53.7452181056" lon="26.0741749406"><ele>147.22</ele><time>2012-09-22T13:58:16Z</time></trkpt><trkpt lat="53.7447374035" lon="26.0750522744"><ele>146.74</ele><time>2012-09-22T13:58:30Z</time></trkpt><trkpt lat="53.7441761512" lon="26.0760628805"><ele>145.78</ele><time>2012-09-22T13:58:46Z</time></trkpt><trkpt lat="53.7437176611" lon="26.0767412279"><ele>145.30</ele><time>2012-09-22T13:58:58Z</time></trkpt><trkpt lat="53.7430225499" lon="26.0773589741"><ele>145.30</ele><time>2012-09-22T13:59:13Z</time></trkpt><trkpt lat="53.7423371617" lon="26.0779431090"><ele>144.82</ele><time>2012-09-22T13:59:28Z</time></trkpt><trkpt lat="53.7416145578" lon="26.0786012560"><ele>145.78</ele><time>2012-09-22T13:59:45Z</time></trkpt><trkpt lat="53.7409829814" lon="26.0791692976"><ele>145.78</ele><time>2012-09-22T14:00:00Z</time></trkpt><trkpt lat="53.7402328011" lon="26.0798553564"><ele>145.78</ele><time>2012-09-22T14:00:17Z</time></trkpt><trkpt lat="53.7394156493" lon="26.0805716738"><ele>146.26</ele><time>2012-09-22T14:00:35Z</time></trkpt><trkpt lat="53.7388083804" lon="26.0810998175"><ele>147.22</ele><time>2012-09-22T14:00:49Z</time></trkpt><trkpt lat="53.7380919792" lon="26.0817396920"><ele>147.70</ele><time>2012-09-22T14:01:06Z</time></trkpt><trkpt lat="53.7374848779" lon="26.0823136847"><ele>146.74</ele><time>2012-09-22T14:01:19Z</time></trkpt><trkpt lat="53.7368139904" lon="26.0829361249"><ele>147.70</ele><time>2012-09-22T14:01:35Z</time></trkpt><trkpt lat="53.7364085577" lon="26.0833124723"><ele>149.14</ele><time>2012-09-22T14:01:47Z</time></trkpt><trkpt lat="53.7357907277" lon="26.0839326493"><ele>149.62</ele><time>2012-09-22T14:02:03Z</time></trkpt><trkpt lat="53.7352398690" lon="26.0844933987"><ele>147.70</ele><time>2012-09-22T14:02:15Z</time></trkpt><trkpt lat="53.7345955521" lon="26.0851611849"><ele>147.70</ele><time>2012-09-22T14:02:30Z</time></trkpt><trkpt lat="53.7339813262" lon="26.0857937671"><ele>147.22</ele><time>2012-09-22T14:02:46Z</time></trkpt><trkpt lat="53.7333872169" lon="26.0864090826"><ele>146.74</ele><time>2012-09-22T14:03:01Z</time></trkpt><trkpt lat="53.7327444926" lon="26.0870498791"><ele>145.30</ele><time>2012-09-22T14:03:16Z</time></trkpt><trkpt lat="53.7321108207" lon="26.0876876581"><ele>144.82</ele><time>2012-09-22T14:03:30Z</time></trkpt><trkpt lat="53.7314445432" lon="26.0883699451"><ele>143.85</ele><time>2012-09-22T14:03:45Z</time></trkpt><trkpt lat="53.7307334226" lon="26.0890791379"><ele>144.34</ele><time>2012-09-22T14:04:02Z</time></trkpt><trkpt lat="53.7302239705" lon="26.0896721575"><ele>143.85</ele><time>2012-09-22T14:04:14Z</time></trkpt><trkpt lat="53.7299808953" lon="26.0899703018"><ele>143.37</ele><time>2012-09-22T14:04:20Z</time></trkpt><trkpt lat="53.7299436796" lon="26.0900204256"><ele>143.37</ele><time>2012-09-22T14:04:21Z</time></trkpt><trkpt lat="53.7295016181" lon="26.0905839410"><ele>144.34</ele><time>2012-09-22T14:04:33Z</time></trkpt><trkpt lat="53.7291816808" lon="26.0909200553"><ele>145.30</ele><time>2012-09-22T14:04:42Z</time></trkpt><trkpt lat="53.7291427888" lon="26.0909524933"><ele>145.30</ele><time>2012-09-22T14:04:43Z</time></trkpt><trkpt lat="53.7291049864" lon="26.0909901280"><ele>145.30</ele><time>2012-09-22T14:04:44Z</time></trkpt><trkpt lat="53.7284938619" lon="26.0916044377"><ele>145.78</ele><time>2012-09-22T14:04:59Z</time></trkpt><trkpt lat="53.7280550692" lon="26.0920260474"><ele>145.78</ele><time>2012-09-22T14:05:10Z</time></trkpt><trkpt lat="53.7275318708" lon="26.0925304703"><ele>145.78</ele><time>2012-09-22T14:05:23Z</time></trkpt><trkpt lat="53.7274884526" lon="26.0925755650"><ele>145.78</ele><time>2012-09-22T14:05:24Z</time></trkpt><trkpt lat="53.7274465431" lon="26.0926214140"><ele>145.30</ele><time>2012-09-22T14:05:25Z</time></trkpt><trkpt lat="53.7268389389" lon="26.0932057165"><ele>145.30</ele><time>2012-09-22T14:05:39Z</time></trkpt><trkpt lat="53.7262190972" lon="26.0937813018"><ele>146.26</ele><time>2012-09-22T14:05:54Z</time></trkpt><trkpt lat="53.7260196079" lon="26.0939633567"><ele>146.26</ele><time>2012-09-22T14:05:59Z</time></trkpt><trkpt lat="53.7259060331" lon="26.0940764286"><ele>146.74</ele><time>2012-09-22T14:06:02Z</time></trkpt><trkpt lat="53.7258685660" lon="26.0941097047"><ele>146.26</ele><time>2012-09-22T14:06:03Z</time></trkpt><trkpt lat="53.7258325238" lon="26.0941485129"><ele>146.26</ele><time>2012-09-22T14:06:04Z</time></trkpt><trkpt lat="53.7257948890" lon="26.0941876564"><ele>146.26</ele><time>2012-09-22T14:06:05Z</time></trkpt><trkpt lat="53.7257562485" lon="26.0942236986"><ele>146.74</ele><time>2012-09-22T14:06:06Z</time></trkpt><trkpt lat="53.7252256740" lon="26.0947546922"><ele>146.74</ele><time>2012-09-22T14:06:20Z</time></trkpt><trkpt lat="53.7247386854" lon="26.0952156968"><ele>147.70</ele><time>2012-09-22T14:06:32Z</time></trkpt><trkpt lat="53.7242678739" lon="26.0956661403"><ele>147.22</ele><time>2012-09-22T14:06:43Z</time></trkpt><trkpt lat="53.7236286700" lon="26.0962511133"><ele>146.26</ele><time>2012-09-22T14:06:57Z</time></trkpt><trkpt lat="53.7231150270" lon="26.0967531055"><ele>145.78</ele><time>2012-09-22T14:07:08Z</time></trkpt><trkpt lat="53.7224799301" lon="26.0973322950"><ele>145.78</ele><time>2012-09-22T14:07:21Z</time></trkpt><trkpt lat="53.7218830548" lon="26.0978490394"><ele>146.26</ele><time>2012-09-22T14:07:34Z</time></trkpt><trkpt lat="53.7212404981" lon="26.0984734073"><ele>145.78</ele><time>2012-09-22T14:07:48Z</time></trkpt><trkpt lat="53.7205339037" lon="26.0992190614"><ele>144.34</ele><time>2012-09-22T14:08:03Z</time></trkpt><trkpt lat="53.7199760880" lon="26.0997984186"><ele>143.37</ele><time>2012-09-22T14:08:15Z</time></trkpt><trkpt lat="53.7191748619" lon="26.1006439012"><ele>143.37</ele><time>2012-09-22T14:08:33Z</time></trkpt><trkpt lat="53.7184234243" lon="26.1013160460"><ele>143.37</ele><time>2012-09-22T14:08:49Z</time></trkpt><trkpt lat="53.7176511995" lon="26.1016744561"><ele>142.89</ele><time>2012-09-22T14:09:04Z</time></trkpt><trkpt lat="53.7169689965" lon="26.1019684095"><ele>143.37</ele><time>2012-09-22T14:09:18Z</time></trkpt><trkpt lat="53.7163608056" lon="26.1022351217"><ele>142.89</ele><time>2012-09-22T14:09:30Z</time></trkpt><trkpt lat="53.7155724037" lon="26.1025596689"><ele>142.89</ele><time>2012-09-22T14:09:46Z</time></trkpt><trkpt lat="53.7146057189" lon="26.1029674485"><ele>143.37</ele><time>2012-09-22T14:10:06Z</time></trkpt><trkpt lat="53.7135381997" lon="26.1034288723"><ele>142.89</ele><time>2012-09-22T14:10:28Z</time></trkpt><trkpt lat="53.7126360554" lon="26.1038065609"><ele>143.37</ele><time>2012-09-22T14:10:47Z</time></trkpt><trkpt lat="53.7119052373" lon="26.1041218042"><ele>143.37</ele><time>2012-09-22T14:11:03Z</time></trkpt><trkpt lat="53.7111635227" lon="26.1044425797"><ele>143.37</ele><time>2012-09-22T14:11:19Z</time></trkpt><trkpt lat="53.7105900329" lon="26.1047180090"><ele>143.37</ele><time>2012-09-22T14:11:32Z</time></trkpt><trkpt lat="53.7099483982" lon="26.1051555444"><ele>143.85</ele><time>2012-09-22T14:11:47Z</time></trkpt><trkpt lat="53.7095107790" lon="26.1055598874"><ele>143.85</ele><time>2012-09-22T14:11:58Z</time></trkpt><trkpt lat="53.7089977227" lon="26.1063024402"><ele>143.85</ele><time>2012-09-22T14:12:12Z</time></trkpt><trkpt lat="53.7084232271" lon="26.1075438000"><ele>143.85</ele><time>2012-09-22T14:12:31Z</time></trkpt><trkpt lat="53.7079829257" lon="26.1086650472"><ele>143.85</ele><time>2012-09-22T14:12:47Z</time></trkpt><trkpt lat="53.7074987032" lon="26.1098665930"><ele>143.37</ele><time>2012-09-22T14:13:04Z</time></trkpt><trkpt lat="53.7069487665" lon="26.1109174322"><ele>143.37</ele><time>2012-09-22T14:13:21Z</time></trkpt><trkpt lat="53.7064189464" lon="26.1114335060"><ele>143.37</ele><time>2012-09-22T14:13:34Z</time></trkpt><trkpt lat="53.7058598734" lon="26.1117329914"><ele>143.37</ele><time>2012-09-22T14:13:47Z</time></trkpt><trkpt lat="53.7051269598" lon="26.1118661799"><ele>142.89</ele><time>2012-09-22T14:14:03Z</time></trkpt><trkpt lat="53.7041616999" lon="26.1119532678"><ele>143.37</ele><time>2012-09-22T14:14:23Z</time></trkpt><trkpt lat="53.7033445481" lon="26.1120149586"><ele>143.37</ele><time>2012-09-22T14:14:40Z</time></trkpt><trkpt lat="53.7026713975" lon="26.1120834388"><ele>143.37</ele><time>2012-09-22T14:14:54Z</time></trkpt><trkpt lat="53.7018990889" lon="26.1121260189"><ele>142.89</ele><time>2012-09-22T14:15:11Z</time></trkpt><trkpt lat="53.7012033910" lon="26.1121814232"><ele>142.89</ele><time>2012-09-22T14:15:26Z</time></trkpt><trkpt lat="53.7005091179" lon="26.1122424435"><ele>142.89</ele><time>2012-09-22T14:15:41Z</time></trkpt><trkpt lat="53.6997313611" lon="26.1122960038"><ele>142.89</ele><time>2012-09-22T14:15:57Z</time></trkpt><trkpt lat="53.6990323942" lon="26.1123538390"><ele>142.41</ele><time>2012-09-22T14:16:11Z</time></trkpt><trkpt lat="53.6982238758" lon="26.1124340538"><ele>142.41</ele><time>2012-09-22T14:16:27Z</time></trkpt><trkpt lat="53.6975508090" lon="26.1125371512"><ele>141.45</ele><time>2012-09-22T14:16:40Z</time></trkpt><trkpt lat="53.6968598049" lon="26.1127368081"><ele>141.93</ele><time>2012-09-22T14:16:54Z</time></trkpt><trkpt lat="53.6960458383" lon="26.1130244751"><ele>141.45</ele><time>2012-09-22T14:17:11Z</time></trkpt><trkpt lat="53.6958072055" lon="26.1131018400"><ele>141.45</ele><time>2012-09-22T14:17:16Z</time></trkpt><trkpt lat="53.6957593448" lon="26.1131103896"><ele>141.45</ele><time>2012-09-22T14:17:17Z</time></trkpt><trkpt lat="53.6957123224" lon="26.1131231301"><ele>141.45</ele><time>2012-09-22T14:17:18Z</time></trkpt><trkpt lat="53.6956654675" lon="26.1131414864"><ele>140.97</ele><time>2012-09-22T14:17:19Z</time></trkpt><trkpt lat="53.6956196185" lon="26.1131659616"><ele>140.97</ele><time>2012-09-22T14:17:20Z</time></trkpt><trkpt lat="53.6955756973" lon="26.1131929513"><ele>140.97</ele><time>2012-09-22T14:17:21Z</time></trkpt><trkpt lat="53.6954010185" lon="26.1132693943"><ele>140.97</ele><time>2012-09-22T14:17:25Z</time></trkpt><trkpt lat="53.6948289536" lon="26.1134437378"><ele>140.97</ele><time>2012-09-22T14:17:38Z</time></trkpt><trkpt lat="53.6940678768" lon="26.1137050856"><ele>140.97</ele><time>2012-09-22T14:17:54Z</time></trkpt><trkpt lat="53.6932984181" lon="26.1139823589"><ele>141.45</ele><time>2012-09-22T14:18:10Z</time></trkpt><trkpt lat="53.6926006246" lon="26.1142265238"><ele>140.97</ele><time>2012-09-22T14:18:24Z</time></trkpt><trkpt lat="53.6923143826" lon="26.1143301241"><ele>140.97</ele><time>2012-09-22T14:18:30Z</time></trkpt><trkpt lat="53.6914970633" lon="26.1146120913"><ele>140.97</ele><time>2012-09-22T14:18:47Z</time></trkpt><trkpt lat="53.6907436978" lon="26.1148816533"><ele>141.45</ele><time>2012-09-22T14:19:02Z</time></trkpt><trkpt lat="53.6898091156" lon="26.1152306758"><ele>141.93</ele><time>2012-09-22T14:19:20Z</time></trkpt><trkpt lat="53.6889420915" lon="26.1155431531"><ele>141.93</ele><time>2012-09-22T14:19:37Z</time></trkpt><trkpt lat="53.6880738102" lon="26.1158327479"><ele>140.97</ele><time>2012-09-22T14:19:54Z</time></trkpt><trkpt lat="53.6873518769" lon="26.1160853785"><ele>140.49</ele><time>2012-09-22T14:20:09Z</time></trkpt><trkpt lat="53.6866682488" lon="26.1163326446"><ele>141.45</ele><time>2012-09-22T14:20:22Z</time></trkpt><trkpt lat="53.6859323177" lon="26.1165778991"><ele>140.97</ele><time>2012-09-22T14:20:37Z</time></trkpt><trkpt lat="53.6852667946" lon="26.1168183759"><ele>141.45</ele><time>2012-09-22T14:20:50Z</time></trkpt><trkpt lat="53.6844169535" lon="26.1171220522"><ele>140.97</ele><time>2012-09-22T14:21:07Z</time></trkpt><trkpt lat="53.6838450562" lon="26.1173238885"><ele>140.97</ele><time>2012-09-22T14:21:19Z</time></trkpt><trkpt lat="53.6831330135" lon="26.1175879184"><ele>140.97</ele><time>2012-09-22T14:21:34Z</time></trkpt><trkpt lat="53.6824083142" lon="26.1178445723"><ele>140.97</ele><time>2012-09-22T14:21:50Z</time></trkpt><trkpt lat="53.6817006301" lon="26.1181034893"><ele>140.97</ele><time>2012-09-22T14:22:06Z</time></trkpt><trkpt lat="53.6810345203" lon="26.1183265317"><ele>140.97</ele><time>2012-09-22T14:22:21Z</time></trkpt><trkpt lat="53.6801738665" lon="26.1186302919"><ele>140.97</ele><time>2012-09-22T14:22:39Z</time></trkpt><trkpt lat="53.6793606542" lon="26.1189338006"><ele>140.97</ele><time>2012-09-22T14:22:56Z</time></trkpt><trkpt lat="53.6787087936" lon="26.1192974914"><ele>140.97</ele><time>2012-09-22T14:23:10Z</time></trkpt><trkpt lat="53.6781120859" lon="26.1198767647"><ele>140.49</ele><time>2012-09-22T14:23:24Z</time></trkpt><trkpt lat="53.6775227543" lon="26.1205551121"><ele>140.49</ele><time>2012-09-22T14:23:39Z</time></trkpt><trkpt lat="53.6769086123" lon="26.1212864332"><ele>140.97</ele><time>2012-09-22T14:23:55Z</time></trkpt><trkpt lat="53.6763286684" lon="26.1219805386"><ele>140.97</ele><time>2012-09-22T14:24:11Z</time></trkpt><trkpt lat="53.6756760534" lon="26.1227624025"><ele>141.45</ele><time>2012-09-22T14:24:29Z</time></trkpt><trkpt lat="53.6750105303" lon="26.1235559173"><ele>141.93</ele><time>2012-09-22T14:24:47Z</time></trkpt><trkpt lat="53.6742561590" lon="26.1244598217"><ele>142.41</ele><time>2012-09-22T14:25:07Z</time></trkpt><trkpt lat="53.6739656422" lon="26.1248148791"><ele>141.93</ele><time>2012-09-22T14:25:15Z</time></trkpt><trkpt lat="53.6739291809" lon="26.1248551961"><ele>141.93</ele><time>2012-09-22T14:25:16Z</time></trkpt><trkpt lat="53.6734519154" lon="26.1254156940"><ele>142.41</ele><time>2012-09-22T14:25:29Z</time></trkpt><trkpt lat="53.6728568003" lon="26.1261420697"><ele>142.89</ele><time>2012-09-22T14:25:46Z</time></trkpt><trkpt lat="53.6722874176" lon="26.1268153880"><ele>143.37</ele><time>2012-09-22T14:26:01Z</time></trkpt><trkpt lat="53.6716475431" lon="26.1275765486"><ele>143.85</ele><time>2012-09-22T14:26:17Z</time></trkpt><trkpt lat="53.6709500849" lon="26.1284077819"><ele>144.34</ele><time>2012-09-22T14:26:35Z</time></trkpt><trkpt lat="53.6703971308" lon="26.1290730536"><ele>144.82</ele><time>2012-09-22T14:26:49Z</time></trkpt><trkpt lat="53.6696286779" lon="26.1300059594"><ele>145.30</ele><time>2012-09-22T14:27:08Z</time></trkpt><trkpt lat="53.6693095788" lon="26.1303844862"><ele>145.30</ele><time>2012-09-22T14:27:16Z</time></trkpt><trkpt lat="53.6687845364" lon="26.1310117040"><ele>144.34</ele><time>2012-09-22T14:27:29Z</time></trkpt><trkpt lat="53.6681235395" lon="26.1318093259"><ele>143.85</ele><time>2012-09-22T14:27:44Z</time></trkpt><trkpt lat="53.6673703417" lon="26.1326833069"><ele>143.85</ele><time>2012-09-22T14:28:01Z</time></trkpt><trkpt lat="53.6667357478" lon="26.1332505941"><ele>143.37</ele><time>2012-09-22T14:28:15Z</time></trkpt><trkpt lat="53.6664137151" lon="26.1335143726"><ele>143.37</ele><time>2012-09-22T14:28:22Z</time></trkpt><trkpt lat="53.6658101343" lon="26.1340151075"><ele>143.85</ele><time>2012-09-22T14:28:35Z</time></trkpt><trkpt lat="53.6657666322" lon="26.1340536643"><ele>143.85</ele><time>2012-09-22T14:28:36Z</time></trkpt><trkpt lat="53.6652180366" lon="26.1345305108"><ele>143.85</ele><time>2012-09-22T14:28:48Z</time></trkpt><trkpt lat="53.6645866279" lon="26.1350534577"><ele>144.34</ele><time>2012-09-22T14:29:02Z</time></trkpt><trkpt lat="53.6641532835" lon="26.1354220938"><ele>144.82</ele><time>2012-09-22T14:29:14Z</time></trkpt><trkpt lat="53.6637236271" lon="26.1357534304"><ele>145.30</ele><time>2012-09-22T14:29:25Z</time></trkpt><trkpt lat="53.6631350499" lon="26.1362291034"><ele>145.78</ele><time>2012-09-22T14:29:39Z</time></trkpt><trkpt lat="53.6627790704" lon="26.1365773715"><ele>146.26</ele><time>2012-09-22T14:29:51Z</time></trkpt><trkpt lat="53.6625810061" lon="26.1370620131"><ele>146.26</ele><time>2012-09-22T14:30:00Z</time></trkpt><trkpt lat="53.6622312292" lon="26.1381286941"><ele>148.18</ele><time>2012-09-22T14:30:18Z</time></trkpt><trkpt lat="53.6620230228" lon="26.1387042794"><ele>149.62</ele><time>2012-09-22T14:30:31Z</time></trkpt><trkpt lat="53.6620137189" lon="26.1387566663"><ele>149.14</ele><time>2012-09-22T14:30:38Z</time></trkpt><trkpt lat="53.6619742401" lon="26.1388403177"><ele>149.62</ele><time>2012-09-22T14:30:49Z</time></trkpt><trkpt lat="53.6619733181" lon="26.1388524715"><ele>149.62</ele><time>2012-09-22T14:31:19Z</time></trkpt><trkpt lat="53.6619726475" lon="26.1388552375"><ele>149.14</ele><time>2012-09-22T14:31:38Z</time></trkpt><trkpt lat="53.6619775090" lon="26.1388581712"><ele>149.62</ele><time>2012-09-22T14:32:01Z</time></trkpt><trkpt lat="53.6619749945" lon="26.1388401501"><ele>149.62</ele><time>2012-09-22T14:32:32Z</time></trkpt><trkpt lat="53.6619710550" lon="26.1388445925"><ele>149.62</ele><time>2012-09-22T14:33:02Z</time></trkpt><trkpt lat="53.6619518604" lon="26.1388912797"><ele>149.62</ele><time>2012-09-22T14:33:15Z</time></trkpt><trkpt lat="53.6619140580" lon="26.1389876716"><ele>149.62</ele><time>2012-09-22T14:33:29Z</time></trkpt><trkpt lat="53.6619120464" lon="26.1390093807"><ele>149.62</ele><time>2012-09-22T14:33:42Z</time></trkpt><trkpt lat="53.6619043350" lon="26.1390087940"><ele>149.62</ele><time>2012-09-22T14:34:03Z</time></trkpt><trkpt lat="53.6619064305" lon="26.1390120629"><ele>149.62</ele><time>2012-09-22T14:34:24Z</time></trkpt><trkpt lat="53.6619124655" lon="26.1390053574"><ele>149.14</ele><time>2012-09-22T14:34:52Z</time></trkpt><trkpt lat="53.6619143095" lon="26.1390113924"><ele>149.14</ele><time>2012-09-22T14:35:20Z</time></trkpt><trkpt lat="53.6619170755" lon="26.1390032619"><ele>149.14</ele><time>2012-09-22T14:35:44Z</time></trkpt><trkpt lat="53.6619122140" lon="26.1390040163"><ele>149.14</ele><time>2012-09-22T14:36:10Z</time></trkpt><trkpt lat="53.6619039997" lon="26.1390219536"><ele>149.14</ele><time>2012-09-22T14:36:39Z</time></trkpt><trkpt lat="53.6619190034" lon="26.1389961373"><ele>148.66</ele><time>2012-09-22T14:37:04Z</time></trkpt><trkpt lat="53.6619161535" lon="26.1390024237"><ele>149.14</ele><time>2012-09-22T14:37:33Z</time></trkpt><trkpt lat="53.6619138066" lon="26.1390020046"><ele>148.66</ele><time>2012-09-22T14:37:51Z</time></trkpt><trkpt lat="53.6619030777" lon="26.1390734185"><ele>149.14</ele><time>2012-09-22T14:38:11Z</time></trkpt><trkpt lat="53.6618340947" lon="26.1393009871"><ele>149.62</ele><time>2012-09-22T14:38:24Z</time></trkpt><trkpt lat="53.6617382895" lon="26.1395994667"><ele>150.10</ele><time>2012-09-22T14:38:41Z</time></trkpt><trkpt lat="53.6616426520" lon="26.1399209965"><ele>150.58</ele><time>2012-09-22T14:38:58Z</time></trkpt><trkpt lat="53.6615261436" lon="26.1402857769"><ele>151.54</ele><time>2012-09-22T14:39:18Z</time></trkpt><trkpt lat="53.6614429951" lon="26.1405498907"><ele>152.03</ele><time>2012-09-22T14:39:33Z</time></trkpt><trkpt lat="53.6613221280" lon="26.1409255676"><ele>152.51</ele><time>2012-09-22T14:39:54Z</time></trkpt><trkpt lat="53.6612233054" lon="26.1412103008"><ele>152.51</ele><time>2012-09-22T14:40:10Z</time></trkpt><trkpt lat="53.6611868441" lon="26.1413883325"><ele>152.99</ele><time>2012-09-22T14:40:23Z</time></trkpt><trkpt lat="53.6611818988" lon="26.1414203513"><ele>152.99</ele><time>2012-09-22T14:40:25Z</time></trkpt><trkpt lat="53.6611735169" lon="26.1414421443"><ele>152.99</ele><time>2012-09-22T14:40:26Z</time></trkpt><trkpt lat="53.6611618660" lon="26.1414713133"><ele>152.99</ele><time>2012-09-22T14:40:27Z</time></trkpt><trkpt lat="53.6611476168" lon="26.1415074393"><ele>152.99</ele><time>2012-09-22T14:40:28Z</time></trkpt><trkpt lat="53.6611314397" lon="26.1415516958"><ele>152.99</ele><time>2012-09-22T14:40:29Z</time></trkpt><trkpt lat="53.6609067209" lon="26.1422328930"><ele>152.99</ele><time>2012-09-22T14:40:40Z</time></trkpt><trkpt lat="53.6605742108" lon="26.1432482768"><ele>152.51</ele><time>2012-09-22T14:40:54Z</time></trkpt><trkpt lat="53.6600868031" lon="26.1447331309"><ele>151.06</ele><time>2012-09-22T14:41:13Z</time></trkpt><trkpt lat="53.6597742420" lon="26.1456849799"><ele>150.58</ele><time>2012-09-22T14:41:25Z</time></trkpt><trkpt lat="53.6592678074" lon="26.1472377274"><ele>150.10</ele><time>2012-09-22T14:41:45Z</time></trkpt><trkpt lat="53.6588254943" lon="26.1485857051"><ele>148.66</ele><time>2012-09-22T14:42:02Z</time></trkpt><trkpt lat="53.6584963370" lon="26.1495902762"><ele>148.66</ele><time>2012-09-22T14:42:15Z</time></trkpt><trkpt lat="53.6579795927" lon="26.1511731148"><ele>147.70</ele><time>2012-09-22T14:42:36Z</time></trkpt><trkpt lat="53.6577235255" lon="26.1519633606"><ele>147.70</ele><time>2012-09-22T14:42:47Z</time></trkpt><trkpt lat="53.6574137304" lon="26.1528997030"><ele>147.70</ele><time>2012-09-22T14:43:00Z</time></trkpt><trkpt lat="53.6570763588" lon="26.1539302580"><ele>147.70</ele><time>2012-09-22T14:43:14Z</time></trkpt><trkpt lat="53.6567430105" lon="26.1549629923"><ele>147.22</ele><time>2012-09-22T14:43:28Z</time></trkpt><trkpt lat="53.6563381646" lon="26.1562116444"><ele>147.22</ele><time>2012-09-22T14:43:45Z</time></trkpt><trkpt lat="53.6559142917" lon="26.1575182155"><ele>147.70</ele><time>2012-09-22T14:44:03Z</time></trkpt><trkpt lat="53.6555447336" lon="26.1586488504"><ele>147.70</ele><time>2012-09-22T14:44:19Z</time></trkpt><trkpt lat="53.6552106310" lon="26.1596898828"><ele>147.70</ele><time>2012-09-22T14:44:34Z</time></trkpt><trkpt lat="53.6548999976" lon="26.1606245488"><ele>147.22</ele><time>2012-09-22T14:44:48Z</time></trkpt><trkpt lat="53.6546325311" lon="26.1614360847"><ele>147.22</ele><time>2012-09-22T14:45:00Z</time></trkpt><trkpt lat="53.6543001048" lon="26.1624625325"><ele>147.22</ele><time>2012-09-22T14:45:15Z</time></trkpt><trkpt lat="53.6540495697" lon="26.1632441450"><ele>146.74</ele><time>2012-09-22T14:45:27Z</time></trkpt><trkpt lat="53.6536874715" lon="26.1643418390"><ele>146.74</ele><time>2012-09-22T14:45:43Z</time></trkpt><trkpt lat="53.6533613317" lon="26.1653457396"><ele>146.26</ele><time>2012-09-22T14:45:57Z</time></trkpt><trkpt lat="53.6530195177" lon="26.1663854308"><ele>146.74</ele><time>2012-09-22T14:46:12Z</time></trkpt><trkpt lat="53.6526648793" lon="26.1674626730"><ele>147.22</ele><time>2012-09-22T14:46:28Z</time></trkpt><trkpt lat="53.6523335427" lon="26.1684498098"><ele>147.22</ele><time>2012-09-22T14:46:43Z</time></trkpt><trkpt lat="53.6520431936" lon="26.1693346873"><ele>147.70</ele><time>2012-09-22T14:46:57Z</time></trkpt><trkpt lat="53.6519944109" lon="26.1694470886"><ele>147.70</ele><time>2012-09-22T14:46:59Z</time></trkpt><trkpt lat="53.6519644875" lon="26.1694968771"><ele>147.70</ele><time>2012-09-22T14:47:00Z</time></trkpt><trkpt lat="53.6519321334" lon="26.1695426423"><ele>147.70</ele><time>2012-09-22T14:47:01Z</time></trkpt><trkpt lat="53.6518976837" lon="26.1695832107"><ele>148.18</ele><time>2012-09-22T14:47:02Z</time></trkpt><trkpt lat="53.6518630665" lon="26.1696192529"><ele>148.18</ele><time>2012-09-22T14:47:03Z</time></trkpt><trkpt lat="53.6516258586" lon="26.1698181555"><ele>148.18</ele><time>2012-09-22T14:47:10Z</time></trkpt><trkpt lat="53.6515847873" lon="26.1698117852"><ele>148.18</ele><time>2012-09-22T14:47:11Z</time></trkpt><trkpt lat="53.6512977071" lon="26.1697251163"><ele>148.66</ele><time>2012-09-22T14:47:18Z</time></trkpt><trkpt lat="53.6506261490" lon="26.1694798619"><ele>149.62</ele><time>2012-09-22T14:47:35Z</time></trkpt><trkpt lat="53.6499792337" lon="26.1692533828"><ele>150.10</ele><time>2012-09-22T14:47:51Z</time></trkpt><trkpt lat="53.6494761519" lon="26.1690774467"><ele>151.06</ele><time>2012-09-22T14:48:05Z</time></trkpt><trkpt lat="53.6489211861" lon="26.1688728444"><ele>152.03</ele><time>2012-09-22T14:48:22Z</time></trkpt><trkpt lat="53.6484295875" lon="26.1687118281"><ele>153.47</ele><time>2012-09-22T14:48:37Z</time></trkpt><trkpt lat="53.6479255836" lon="26.1685353890"><ele>154.91</ele><time>2012-09-22T14:48:52Z</time></trkpt><trkpt lat="53.6473581288" lon="26.1683195550"><ele>156.83</ele><time>2012-09-22T14:49:09Z</time></trkpt><trkpt lat="53.6468341760" lon="26.1681318842"><ele>158.27</ele><time>2012-09-22T14:49:24Z</time></trkpt><trkpt lat="53.6464125663" lon="26.1679870449"><ele>158.75</ele><time>2012-09-22T14:49:36Z</time></trkpt><trkpt lat="53.6458756216" lon="26.1678712908"><ele>159.24</ele><time>2012-09-22T14:49:51Z</time></trkpt><trkpt lat="53.6452753097" lon="26.1678435467"><ele>160.20</ele><time>2012-09-22T14:50:07Z</time></trkpt><trkpt lat="53.6445599981" lon="26.1679116916"><ele>160.68</ele><time>2012-09-22T14:50:26Z</time></trkpt><trkpt lat="53.6440437566" lon="26.1680038925"><ele>161.16</ele><time>2012-09-22T14:50:40Z</time></trkpt><trkpt lat="53.6435673293" lon="26.1680811737"><ele>161.64</ele><time>2012-09-22T14:50:53Z</time></trkpt><trkpt lat="53.6429589707" lon="26.1682015378"><ele>161.16</ele><time>2012-09-22T14:51:09Z</time></trkpt><trkpt lat="53.6423985567" lon="26.1683049705"><ele>161.64</ele><time>2012-09-22T14:51:24Z</time></trkpt><trkpt lat="53.6416910402" lon="26.1684296932"><ele>162.60</ele><time>2012-09-22T14:51:43Z</time></trkpt><trkpt lat="53.6411287822" lon="26.1685322877"><ele>163.08</ele><time>2012-09-22T14:51:58Z</time></trkpt><trkpt lat="53.6406582221" lon="26.1686290149"><ele>163.56</ele><time>2012-09-22T14:52:11Z</time></trkpt><trkpt lat="53.6400795355" lon="26.1687081400"><ele>163.56</ele><time>2012-09-22T14:52:27Z</time></trkpt><trkpt lat="53.6394415051" lon="26.1688357126"><ele>163.56</ele><time>2012-09-22T14:52:43Z</time></trkpt><trkpt lat="53.6388892215" lon="26.1689179391"><ele>163.08</ele><time>2012-09-22T14:52:56Z</time></trkpt><trkpt lat="53.6384662706" lon="26.1689901073"><ele>163.08</ele><time>2012-09-22T14:53:07Z</time></trkpt><trkpt lat="53.6380358599" lon="26.1690576654"><ele>163.56</ele><time>2012-09-22T14:53:20Z</time></trkpt><trkpt lat="53.6376693193" lon="26.1691187695"><ele>163.08</ele><time>2012-09-22T14:53:32Z</time></trkpt><trkpt lat="53.6371995136" lon="26.1692116410"><ele>163.56</ele><time>2012-09-22T14:53:47Z</time></trkpt><trkpt lat="53.6368924007" lon="26.1692589987"><ele>164.04</ele><time>2012-09-22T14:53:57Z</time></trkpt><trkpt lat="53.6365266144" lon="26.1693252157"><ele>165.00</ele><time>2012-09-22T14:54:08Z</time></trkpt><trkpt lat="53.6360633466" lon="26.1694128066"><ele>165.48</ele><time>2012-09-22T14:54:22Z</time></trkpt><trkpt lat="53.6354145035" lon="26.1695143953"><ele>165.96</ele><time>2012-09-22T14:54:41Z</time></trkpt><trkpt lat="53.6350212246" lon="26.1695863958"><ele>166.45</ele><time>2012-09-22T14:54:53Z</time></trkpt><trkpt lat="53.6345705297" lon="26.1696710531"><ele>167.41</ele><time>2012-09-22T14:55:07Z</time></trkpt><trkpt lat="53.6340653524" lon="26.1697560456"><ele>168.85</ele><time>2012-09-22T14:55:23Z</time></trkpt><trkpt lat="53.6335918587" lon="26.1698423792"><ele>170.77</ele><time>2012-09-22T14:55:38Z</time></trkpt><trkpt lat="53.6332945526" lon="26.1698717158"><ele>171.73</ele><time>2012-09-22T14:55:48Z</time></trkpt><trkpt lat="53.6328078154" lon="26.1699551996"><ele>173.66</ele><time>2012-09-22T14:56:06Z</time></trkpt><trkpt lat="53.6323944200" lon="26.1700391024"><ele>175.10</ele><time>2012-09-22T14:56:22Z</time></trkpt><trkpt lat="53.6319839582" lon="26.1701266933"><ele>177.02</ele><time>2012-09-22T14:56:38Z</time></trkpt><trkpt lat="53.6315716524" lon="26.1701934971"><ele>177.98</ele><time>2012-09-22T14:56:53Z</time></trkpt><trkpt lat="53.6311371345" lon="26.1702841055"><ele>178.46</ele><time>2012-09-22T14:57:07Z</time></trkpt><trkpt lat="53.6307838373" lon="26.1703620572"><ele>178.94</ele><time>2012-09-22T14:57:18Z</time></trkpt><trkpt lat="53.6306995992" lon="26.1703972612"><ele>178.94</ele><time>2012-09-22T14:57:21Z</time></trkpt><trkpt lat="53.6304191407" lon="26.1704736203"><ele>178.94</ele><time>2012-09-22T14:57:31Z</time></trkpt><trkpt lat="53.6300981976" lon="26.1706394982"><ele>178.94</ele><time>2012-09-22T14:57:42Z</time></trkpt><trkpt lat="53.6297143903" lon="26.1708485428"><ele>179.42</ele><time>2012-09-22T14:57:54Z</time></trkpt><trkpt lat="53.6293487716" lon="26.1710763630"><ele>179.90</ele><time>2012-09-22T14:58:05Z</time></trkpt><trkpt lat="53.6290412396" lon="26.1713108048"><ele>179.42</ele><time>2012-09-22T14:58:15Z</time></trkpt><trkpt lat="53.6286849249" lon="26.1715819594"><ele>179.90</ele><time>2012-09-22T14:58:25Z</time></trkpt><trkpt lat="53.6282494012" lon="26.1719727237"><ele>178.94</ele><time>2012-09-22T14:58:38Z</time></trkpt><trkpt lat="53.6278503388" lon="26.1723254342"><ele>178.94</ele><time>2012-09-22T14:58:49Z</time></trkpt><trkpt lat="53.6278116144" lon="26.1723557767"><ele>178.46</ele><time>2012-09-22T14:58:50Z</time></trkpt><trkpt lat="53.6274375301" lon="26.1726589501"><ele>178.46</ele><time>2012-09-22T14:59:01Z</time></trkpt><trkpt lat="53.6270352826" lon="26.1730224732"><ele>178.46</ele><time>2012-09-22T14:59:14Z</time></trkpt><trkpt lat="53.6268002540" lon="26.1732508801"><ele>178.46</ele><time>2012-09-22T14:59:22Z</time></trkpt><trkpt lat="53.6263408419" lon="26.1736535467"><ele>178.46</ele><time>2012-09-22T14:59:35Z</time></trkpt><trkpt lat="53.6257946771" lon="26.1741336621"><ele>178.94</ele><time>2012-09-22T14:59:50Z</time></trkpt><trkpt lat="53.6252124701" lon="26.1746494006"><ele>179.42</ele><time>2012-09-22T15:00:07Z</time></trkpt><trkpt lat="53.6248801276" lon="26.1749358941"><ele>178.94</ele><time>2012-09-22T15:00:17Z</time></trkpt><trkpt lat="53.6244145967" lon="26.1753559113"><ele>178.94</ele><time>2012-09-22T15:00:29Z</time></trkpt><trkpt lat="53.6238475610" lon="26.1758657824"><ele>178.46</ele><time>2012-09-22T15:00:43Z</time></trkpt><trkpt lat="53.6232225224" lon="26.1764283758"><ele>177.50</ele><time>2012-09-22T15:00:58Z</time></trkpt><trkpt lat="53.6227641162" lon="26.1768540088"><ele>176.54</ele><time>2012-09-22T15:01:09Z</time></trkpt><trkpt lat="53.6222627945" lon="26.1772881076"><ele>175.58</ele><time>2012-09-22T15:01:21Z</time></trkpt><trkpt lat="53.6216541845" lon="26.1778314225"><ele>175.10</ele><time>2012-09-22T15:01:34Z</time></trkpt><trkpt lat="53.6210430600" lon="26.1783873942"><ele>173.66</ele><time>2012-09-22T15:01:47Z</time></trkpt><trkpt lat="53.6203535646" lon="26.1789789051"><ele>171.25</ele><time>2012-09-22T15:02:01Z</time></trkpt><trkpt lat="53.6196940765" lon="26.1794324499"><ele>167.41</ele><time>2012-09-22T15:02:12Z</time></trkpt><trkpt lat="53.6196231656" lon="26.1794695817"><ele>167.41</ele><time>2012-09-22T15:02:13Z</time></trkpt><trkpt lat="53.6193152983" lon="26.1796031892"><ele>165.48</ele><time>2012-09-22T15:02:17Z</time></trkpt><trkpt lat="53.6187962908" lon="26.1796939652"><ele>162.60</ele><time>2012-09-22T15:02:23Z</time></trkpt><trkpt lat="53.6183345318" lon="26.1796900257"><ele>159.72</ele><time>2012-09-22T15:02:28Z</time></trkpt><trkpt lat="53.6177789792" lon="26.1795928795"><ele>156.83</ele><time>2012-09-22T15:02:34Z</time></trkpt><trkpt lat="53.6170882266" lon="26.1793291010"><ele>153.47</ele><time>2012-09-22T15:02:42Z</time></trkpt><trkpt lat="53.6162017565" lon="26.1789457966"><ele>151.54</ele><time>2012-09-22T15:02:54Z</time></trkpt><trkpt lat="53.6154589523" lon="26.1786485743"><ele>150.58</ele><time>2012-09-22T15:03:07Z</time></trkpt><trkpt lat="53.6148456484" lon="26.1783946864"><ele>151.06</ele><time>2012-09-22T15:03:20Z</time></trkpt><trkpt lat="53.6143816262" lon="26.1781733204"><ele>152.03</ele><time>2012-09-22T15:03:33Z</time></trkpt><trkpt lat="53.6140994914" lon="26.1780568119"><ele>152.51</ele><time>2012-09-22T15:03:43Z</time></trkpt><trkpt lat="53.6137932166" lon="26.1779926904"><ele>153.47</ele><time>2012-09-22T15:03:55Z</time></trkpt><trkpt lat="53.6134188809" lon="26.1778393015"><ele>153.95</ele><time>2012-09-22T15:04:08Z</time></trkpt><trkpt lat="53.6130290385" lon="26.1776797939"><ele>155.39</ele><time>2012-09-22T15:04:22Z</time></trkpt><trkpt lat="53.6125432234" lon="26.1774866749"><ele>157.31</ele><time>2012-09-22T15:04:39Z</time></trkpt><trkpt lat="53.6121035926" lon="26.1773265805"><ele>159.24</ele><time>2012-09-22T15:04:55Z</time></trkpt><trkpt lat="53.6117000878" lon="26.1771587748"><ele>160.68</ele><time>2012-09-22T15:05:10Z</time></trkpt><trkpt lat="53.6112873629" lon="26.1769846827"><ele>163.08</ele><time>2012-09-22T15:05:26Z</time></trkpt><trkpt lat="53.6108359974" lon="26.1768538412"><ele>165.48</ele><time>2012-09-22T15:05:43Z</time></trkpt><trkpt lat="53.6103028245" lon="26.1768546794"><ele>166.45</ele><time>2012-09-22T15:06:01Z</time></trkpt><trkpt lat="53.6099215318" lon="26.1770440266"><ele>167.41</ele><time>2012-09-22T15:06:13Z</time></trkpt><trkpt lat="53.6098838132" lon="26.1770641431"><ele>166.93</ele><time>2012-09-22T15:06:14Z</time></trkpt><trkpt lat="53.6098476034" lon="26.1770911328"><ele>167.41</ele><time>2012-09-22T15:06:15Z</time></trkpt><trkpt lat="53.6095022690" lon="26.1773998383"><ele>166.93</ele><time>2012-09-22T15:06:25Z</time></trkpt><trkpt lat="53.6092005204" lon="26.1776662990"><ele>166.93</ele><time>2012-09-22T15:06:35Z</time></trkpt><trkpt lat="53.6091859359" lon="26.1776770279"><ele>166.93</ele><time>2012-09-22T15:06:40Z</time></trkpt><trkpt lat="53.6091936473" lon="26.1776636168"><ele>167.41</ele><time>2012-09-22T15:07:02Z</time></trkpt><trkpt lat="53.6091319565" lon="26.1777174287"><ele>166.93</ele><time>2012-09-22T15:07:22Z</time></trkpt><trkpt lat="53.6091184616" lon="26.1777357012"><ele>166.93</ele><time>2012-09-22T15:07:32Z</time></trkpt><trkpt lat="53.6091200542" lon="26.1777227931"><ele>166.93</ele><time>2012-09-22T15:07:58Z</time></trkpt><trkpt lat="53.6091150250" lon="26.1777307559"><ele>166.93</ele><time>2012-09-22T15:08:21Z</time></trkpt><trkpt lat="53.6091175396" lon="26.1777412333"><ele>166.93</ele><time>2012-09-22T15:08:45Z</time></trkpt><trkpt lat="53.6091160309" lon="26.1777590867"><ele>166.93</ele><time>2012-09-22T15:09:05Z</time></trkpt><trkpt lat="53.6091244966" lon="26.1777387187"><ele>166.93</ele><time>2012-09-22T15:09:32Z</time></trkpt><trkpt lat="53.6091165338" lon="26.1777263135"><ele>166.93</ele><time>2012-09-22T15:09:59Z</time></trkpt><trkpt lat="53.6091020331" lon="26.1777513754"><ele>166.93</ele><time>2012-09-22T15:10:11Z</time></trkpt><trkpt lat="53.6090737022" lon="26.1777900159"><ele>166.93</ele><time>2012-09-22T15:10:22Z</time></trkpt><trkpt lat="53.6089567747" lon="26.1779615935"><ele>166.93</ele><time>2012-09-22T15:10:29Z</time></trkpt><trkpt lat="53.6087929923" lon="26.1781634297"><ele>166.93</ele><time>2012-09-22T15:10:36Z</time></trkpt><trkpt lat="53.6085796729" lon="26.1784332432"><ele>166.45</ele><time>2012-09-22T15:10:44Z</time></trkpt><trkpt lat="53.6082012299" lon="26.1788982712"><ele>165.48</ele><time>2012-09-22T15:10:54Z</time></trkpt><trkpt lat="53.6075980682" lon="26.1796158459"><ele>163.56</ele><time>2012-09-22T15:11:06Z</time></trkpt><trkpt lat="53.6070502270" lon="26.1802394595"><ele>163.56</ele><time>2012-09-22T15:11:19Z</time></trkpt><trkpt lat="53.6065903120" lon="26.1807071697"><ele>165.48</ele><time>2012-09-22T15:11:33Z</time></trkpt><trkpt lat="53.6061308160" lon="26.1810224969"><ele>167.41</ele><time>2012-09-22T15:11:48Z</time></trkpt><trkpt lat="53.6056130659" lon="26.1812825035"><ele>168.37</ele><time>2012-09-22T15:12:04Z</time></trkpt><trkpt lat="53.6050068866" lon="26.1815810669"><ele>168.85</ele><time>2012-09-22T15:12:21Z</time></trkpt><trkpt lat="53.6044195667" lon="26.1818367150"><ele>170.77</ele><time>2012-09-22T15:12:38Z</time></trkpt><trkpt lat="53.6040070932" lon="26.1819589231"><ele>171.25</ele><time>2012-09-22T15:12:49Z</time></trkpt><trkpt lat="53.6036490183" lon="26.1820098013"><ele>171.73</ele><time>2012-09-22T15:12:59Z</time></trkpt><trkpt lat="53.6033589207" lon="26.1820789520"><ele>171.73</ele><time>2012-09-22T15:13:08Z</time></trkpt><trkpt lat="53.6031275801" lon="26.1820826400"><ele>172.21</ele><time>2012-09-22T15:13:16Z</time></trkpt><trkpt lat="53.6026059743" lon="26.1820398085"><ele>172.69</ele><time>2012-09-22T15:13:29Z</time></trkpt><trkpt lat="53.6019409541" lon="26.1819017585"><ele>174.14</ele><time>2012-09-22T15:13:45Z</time></trkpt><trkpt lat="53.6013470124" lon="26.1817249004"><ele>174.14</ele><time>2012-09-22T15:14:00Z</time></trkpt><trkpt lat="53.6007684935" lon="26.1814813223"><ele>174.14</ele><time>2012-09-22T15:14:13Z</time></trkpt><trkpt lat="53.6001149565" lon="26.1811858602"><ele>173.66</ele><time>2012-09-22T15:14:27Z</time></trkpt><trkpt lat="53.5993268061" lon="26.1808002088"><ele>171.73</ele><time>2012-09-22T15:14:44Z</time></trkpt><trkpt lat="53.5985115822" lon="26.1803931836"><ele>168.37</ele><time>2012-09-22T15:14:58Z</time></trkpt><trkpt lat="53.5977305565" lon="26.1800042633"><ele>165.48</ele><time>2012-09-22T15:15:10Z</time></trkpt><trkpt lat="53.5970786959" lon="26.1796737649"><ele>162.12</ele><time>2012-09-22T15:15:19Z</time></trkpt><trkpt lat="53.5961949918" lon="26.1792363133"><ele>161.16</ele><time>2012-09-22T15:15:33Z</time></trkpt><trkpt lat="53.5958647449" lon="26.1790799908"><ele>160.68</ele><time>2012-09-22T15:15:40Z</time></trkpt><trkpt lat="53.5958186444" lon="26.1790629756"><ele>160.68</ele><time>2012-09-22T15:15:41Z</time></trkpt><trkpt lat="53.5957727954" lon="26.1790378299"><ele>160.68</ele><time>2012-09-22T15:15:42Z</time></trkpt><trkpt lat="53.5952309892" lon="26.1787562817"><ele>160.68</ele><time>2012-09-22T15:15:53Z</time></trkpt><trkpt lat="53.5945698246" lon="26.1784362607"><ele>160.68</ele><time>2012-09-22T15:16:07Z</time></trkpt><trkpt lat="53.5939441994" lon="26.1781081930"><ele>160.68</ele><time>2012-09-22T15:16:22Z</time></trkpt><trkpt lat="53.5932940152" lon="26.1777795386"><ele>162.12</ele><time>2012-09-22T15:16:39Z</time></trkpt><trkpt lat="53.5927241296" lon="26.1774963140"><ele>164.04</ele><time>2012-09-22T15:16:55Z</time></trkpt><trkpt lat="53.5921401624" lon="26.1772057973"><ele>165.96</ele><time>2012-09-22T15:17:12Z</time></trkpt><trkpt lat="53.5917618033" lon="26.1770027876"><ele>166.93</ele><time>2012-09-22T15:17:23Z</time></trkpt><trkpt lat="53.5915726237" lon="26.1769101676"><ele>166.93</ele><time>2012-09-22T15:17:28Z</time></trkpt><trkpt lat="53.5910812765" lon="26.1766682658"><ele>167.41</ele><time>2012-09-22T15:17:41Z</time></trkpt><trkpt lat="53.5908614192" lon="26.1765509192"><ele>166.93</ele><time>2012-09-22T15:17:47Z</time></trkpt><trkpt lat="53.5904755164" lon="26.1762234382"><ele>167.41</ele><time>2012-09-22T15:17:58Z</time></trkpt><trkpt lat="53.5900069680" lon="26.1757318396"><ele>168.37</ele><time>2012-09-22T15:18:12Z</time></trkpt><trkpt lat="53.5894473922" lon="26.1750180367"><ele>168.85</ele><time>2012-09-22T15:18:30Z</time></trkpt><trkpt lat="53.5890420433" lon="26.1742969416"><ele>167.89</ele><time>2012-09-22T15:18:43Z</time></trkpt><trkpt lat="53.5886172485" lon="26.1735123955"><ele>166.45</ele><time>2012-09-22T15:18:55Z</time></trkpt><trkpt lat="53.5880579241" lon="26.1724730395"><ele>163.56</ele><time>2012-09-22T15:19:08Z</time></trkpt><trkpt lat="53.5874809138" lon="26.1713791173"><ele>160.68</ele><time>2012-09-22T15:19:20Z</time></trkpt><trkpt lat="53.5869676061" lon="26.1701514199"><ele>158.75</ele><time>2012-09-22T15:19:34Z</time></trkpt><trkpt lat="53.5867713857" lon="26.1693413928"><ele>159.72</ele><time>2012-09-22T15:19:46Z</time></trkpt><trkpt lat="53.5866347607" lon="26.1686021928"><ele>161.64</ele><time>2012-09-22T15:20:00Z</time></trkpt><trkpt lat="53.5865651071" lon="26.1680105142"><ele>164.04</ele><time>2012-09-22T15:20:11Z</time></trkpt><trkpt lat="53.5865374468" lon="26.1674804427"><ele>166.45</ele><time>2012-09-22T15:20:23Z</time></trkpt><trkpt lat="53.5865626764" lon="26.1668714974"><ele>168.37</ele><time>2012-09-22T15:20:36Z</time></trkpt><trkpt lat="53.5865895823" lon="26.1662241630"><ele>170.77</ele><time>2012-09-22T15:20:50Z</time></trkpt><trkpt lat="53.5866285581" lon="26.1654395331"><ele>173.17</ele><time>2012-09-22T15:21:07Z</time></trkpt><trkpt lat="53.5866503511" lon="26.1647657119"><ele>174.62</ele><time>2012-09-22T15:21:22Z</time></trkpt><trkpt lat="53.5866826214" lon="26.1639816687"><ele>176.06</ele><time>2012-09-22T15:21:37Z</time></trkpt><trkpt lat="53.5866913386" lon="26.1632258724"><ele>176.06</ele><time>2012-09-22T15:21:49Z</time></trkpt><trkpt lat="53.5866691265" lon="26.1625886802"><ele>176.54</ele><time>2012-09-22T15:21:59Z</time></trkpt><trkpt lat="53.5866175778" lon="26.1619635578"><ele>176.06</ele><time>2012-09-22T15:22:08Z</time></trkpt><trkpt lat="53.5865125526" lon="26.1608866509"><ele>175.10</ele><time>2012-09-22T15:22:22Z</time></trkpt><trkpt lat="53.5863916855" lon="26.1599314492"><ele>175.10</ele><time>2012-09-22T15:22:35Z</time></trkpt><trkpt lat="53.5862205271" lon="26.1590488348"><ele>175.10</ele><time>2012-09-22T15:22:47Z</time></trkpt><trkpt lat="53.5858433414" lon="26.1576950736"><ele>172.69</ele><time>2012-09-22T15:23:04Z</time></trkpt><trkpt lat="53.5855175368" lon="26.1567600723"><ele>172.21</ele><time>2012-09-22T15:23:17Z</time></trkpt><trkpt lat="53.5851791594" lon="26.1559746880"><ele>171.73</ele><time>2012-09-22T15:23:29Z</time></trkpt><trkpt lat="53.5848294664" lon="26.1551739648"><ele>171.25</ele><time>2012-09-22T15:23:41Z</time></trkpt><trkpt lat="53.5845881514" lon="26.1546785943"><ele>170.29</ele><time>2012-09-22T15:23:49Z</time></trkpt><trkpt lat="53.5845574737" lon="26.1546108685"><ele>170.77</ele><time>2012-09-22T15:23:50Z</time></trkpt><trkpt lat="53.5842007399" lon="26.1538723391"><ele>168.85</ele><time>2012-09-22T15:24:01Z</time></trkpt><trkpt lat="53.5836536530" lon="26.1527782492"><ele>166.93</ele><time>2012-09-22T15:24:16Z</time></trkpt><trkpt lat="53.5832488909" lon="26.1519422382"><ele>165.00</ele><time>2012-09-22T15:24:28Z</time></trkpt><trkpt lat="53.5827149637" lon="26.1508829333"><ele>162.60</ele><time>2012-09-22T15:24:42Z</time></trkpt><trkpt lat="53.5822019912" lon="26.1503173225"><ele>161.64</ele><time>2012-09-22T15:24:53Z</time></trkpt><trkpt lat="53.5815587640" lon="26.1499625165"><ele>161.64</ele><time>2012-09-22T15:25:07Z</time></trkpt><trkpt lat="53.5808785725" lon="26.1496108957"><ele>162.60</ele><time>2012-09-22T15:25:24Z</time></trkpt><trkpt lat="53.5803260375" lon="26.1493360531"><ele>164.04</ele><time>2012-09-22T15:25:40Z</time></trkpt><trkpt lat="53.5797774419" lon="26.1490659881"><ele>165.96</ele><time>2012-09-22T15:25:58Z</time></trkpt><trkpt lat="53.5792912915" lon="26.1488065682"><ele>169.33</ele><time>2012-09-22T15:26:16Z</time></trkpt><trkpt lat="53.5788710229" lon="26.1485997867"><ele>172.21</ele><time>2012-09-22T15:26:32Z</time></trkpt><trkpt lat="53.5784955975" lon="26.1484147143"><ele>172.21</ele><time>2012-09-22T15:26:45Z</time></trkpt><trkpt lat="53.5782196652" lon="26.1481752433"><ele>172.21</ele><time>2012-09-22T15:26:54Z</time></trkpt><trkpt lat="53.5779473372" lon="26.1477926094"><ele>172.69</ele><time>2012-09-22T15:27:04Z</time></trkpt><trkpt lat="53.5776780266" lon="26.1473144218"><ele>172.69</ele><time>2012-09-22T15:27:16Z</time></trkpt><trkpt lat="53.5773362964" lon="26.1466615554"><ele>172.69</ele><time>2012-09-22T15:27:30Z</time></trkpt><trkpt lat="53.5768705979" lon="26.1457461677"><ele>174.14</ele><time>2012-09-22T15:27:49Z</time></trkpt><trkpt lat="53.5764771514" lon="26.1449615378"><ele>175.10</ele><time>2012-09-22T15:28:05Z</time></trkpt><trkpt lat="53.5761115327" lon="26.1442341562"><ele>176.06</ele><time>2012-09-22T15:28:20Z</time></trkpt><trkpt lat="53.5757934395" lon="26.1435975507"><ele>177.02</ele><time>2012-09-22T15:28:33Z</time></trkpt><trkpt lat="53.5755424015" lon="26.1431224644"><ele>177.02</ele><time>2012-09-22T15:28:44Z</time></trkpt><trkpt lat="53.5754043516" lon="26.1427539960"><ele>177.02</ele><time>2012-09-22T15:28:55Z</time></trkpt><trkpt lat="53.5753949638" lon="26.1427301913"><ele>177.02</ele><time>2012-09-22T15:28:56Z</time></trkpt><trkpt lat="53.5753828101" lon="26.1427008547"><ele>177.02</ele><time>2012-09-22T15:29:04Z</time></trkpt><trkpt lat="53.5753845703" lon="26.1426815763"><ele>177.02</ele><time>2012-09-22T15:29:30Z</time></trkpt><trkpt lat="53.5753274895" lon="26.1426653992"><ele>177.02</ele><time>2012-09-22T15:29:40Z</time></trkpt><trkpt lat="53.5753096361" lon="26.1426338833"><ele>177.02</ele><time>2012-09-22T15:29:41Z</time></trkpt><trkpt lat="53.5752902739" lon="26.1426037084"><ele>177.02</ele><time>2012-09-22T15:29:42Z</time></trkpt><trkpt lat="53.5752706602" lon="26.1425699294"><ele>177.02</ele><time>2012-09-22T15:29:43Z</time></trkpt><trkpt lat="53.5752499569" lon="26.1425341386"><ele>177.02</ele><time>2012-09-22T15:29:44Z</time></trkpt><trkpt lat="53.5752295051" lon="26.1424955819"><ele>177.02</ele><time>2012-09-22T15:29:45Z</time></trkpt><trkpt lat="53.5749423411" lon="26.1419308092"><ele>176.06</ele><time>2012-09-22T15:29:58Z</time></trkpt><trkpt lat="53.5745784827" lon="26.1413218640"><ele>173.17</ele><time>2012-09-22T15:30:07Z</time></trkpt><trkpt lat="53.5741949268" lon="26.1406979151"><ele>170.29</ele><time>2012-09-22T15:30:14Z</time></trkpt><trkpt lat="53.5739037395" lon="26.1402160395"><ele>166.93</ele><time>2012-09-22T15:30:19Z</time></trkpt><trkpt lat="53.5738044977" lon="26.1400214117"><ele>165.96</ele><time>2012-09-22T15:30:21Z</time></trkpt><trkpt lat="53.5737645999" lon="26.1399149615"><ele>165.48</ele><time>2012-09-22T15:30:22Z</time></trkpt><trkpt lat="53.5735301580" lon="26.1391647812"><ele>162.12</ele><time>2012-09-22T15:30:29Z</time></trkpt><trkpt lat="53.5733302496" lon="26.1385786347"><ele>159.24</ele><time>2012-09-22T15:30:37Z</time></trkpt><trkpt lat="53.5732828919" lon="26.1384532414"><ele>159.24</ele><time>2012-09-22T15:30:44Z</time></trkpt><trkpt lat="53.5732567403" lon="26.1384876911"><ele>159.24</ele><time>2012-09-22T15:30:48Z</time></trkpt><trkpt lat="53.5732493643" lon="26.1384996772"><ele>159.24</ele><time>2012-09-22T15:30:49Z</time></trkpt><trkpt lat="53.5732399765" lon="26.1385143455"><ele>159.24</ele><time>2012-09-22T15:30:50Z</time></trkpt><trkpt lat="53.5730984900" lon="26.1385352165"><ele>159.24</ele><time>2012-09-22T15:31:01Z</time></trkpt><trkpt lat="53.5729364678" lon="26.1385182012"><ele>159.24</ele><time>2012-09-22T15:31:14Z</time></trkpt><trkpt lat="53.5728549119" lon="26.1386342067"><ele>159.72</ele><time>2012-09-22T15:31:21Z</time></trkpt><trkpt lat="53.5726625472" lon="26.1391341873"><ele>159.24</ele><time>2012-09-22T15:31:31Z</time></trkpt><trkpt lat="53.5724602081" lon="26.1396703776"><ele>159.24</ele><time>2012-09-22T15:31:42Z</time></trkpt><trkpt lat="53.5722480621" lon="26.1402421910"><ele>158.75</ele><time>2012-09-22T15:31:54Z</time></trkpt><trkpt lat="53.5720839445" lon="26.1406936403"><ele>158.75</ele><time>2012-09-22T15:32:04Z</time></trkpt><trkpt lat="53.5720066633" lon="26.1411369592"><ele>158.27</ele><time>2012-09-22T15:32:12Z</time></trkpt><trkpt lat="53.5719855409" lon="26.1411906872"><ele>158.27</ele><time>2012-09-22T15:32:13Z</time></trkpt><trkpt lat="53.5719622392" lon="26.1412483547"><ele>158.27</ele><time>2012-09-22T15:32:14Z</time></trkpt><trkpt lat="53.5716532823" lon="26.1418941803"><ele>158.27</ele><time>2012-09-22T15:32:26Z</time></trkpt><trkpt lat="53.5713575687" lon="26.1424107570"><ele>158.27</ele><time>2012-09-22T15:32:37Z</time></trkpt><trkpt lat="53.5711842310" lon="26.1426141858"><ele>158.27</ele><time>2012-09-22T15:32:42Z</time></trkpt><trkpt lat="53.5711548105" lon="26.1426675785"><ele>158.75</ele><time>2012-09-22T15:32:43Z</time></trkpt><trkpt lat="53.5710797925" lon="26.1428353004"><ele>158.27</ele><time>2012-09-22T15:32:46Z</time></trkpt><trkpt lat="53.5707666446" lon="26.1434242129"><ele>157.79</ele><time>2012-09-22T15:32:58Z</time></trkpt><trkpt lat="53.5705775488" lon="26.1438022368"><ele>157.79</ele><time>2012-09-22T15:33:06Z</time></trkpt><trkpt lat="53.5703480523" lon="26.1443620641"><ele>156.83</ele><time>2012-09-22T15:33:17Z</time></trkpt><trkpt lat="53.5701375827" lon="26.1448177882"><ele>156.35</ele><time>2012-09-22T15:33:27Z</time></trkpt><trkpt lat="53.5700395983" lon="26.1450298503"><ele>155.87</ele><time>2012-09-22T15:33:33Z</time></trkpt><trkpt lat="53.5700504109" lon="26.1451109033"><ele>155.87</ele><time>2012-09-22T15:33:35Z</time></trkpt><trkpt lat="53.5699384287" lon="26.1452189460"><ele>156.35</ele><time>2012-09-22T15:33:41Z</time></trkpt><trkpt lat="53.5698322300" lon="26.1452135816"><ele>156.35</ele><time>2012-09-22T15:33:50Z</time></trkpt><trkpt lat="53.5697952658" lon="26.1452198680"><ele>156.35</ele><time>2012-09-22T15:34:03Z</time></trkpt><trkpt lat="53.5697922483" lon="26.1451839097"><ele>156.35</ele><time>2012-09-22T15:34:21Z</time></trkpt><trkpt lat="53.5697955173" lon="26.1451870110"><ele>156.35</ele><time>2012-09-22T15:34:42Z</time></trkpt><trkpt lat="53.5697933380" lon="26.1452018470"><ele>156.35</ele><time>2012-09-22T15:34:58Z</time></trkpt><trkpt lat="53.5698069166" lon="26.1451474484"><ele>156.35</ele><time>2012-09-22T15:35:15Z</time></trkpt><trkpt lat="53.5698181484" lon="26.1451590154"><ele>156.35</ele><time>2012-09-22T15:35:31Z</time></trkpt><trkpt lat="53.5698954295" lon="26.1451777909"><ele>155.87</ele><time>2012-09-22T15:35:42Z</time></trkpt><trkpt lat="53.5699225869" lon="26.1452139169"><ele>155.87</ele><time>2012-09-22T15:35:55Z</time></trkpt><trkpt lat="53.5698022228" lon="26.1451743543"><ele>155.87</ele><time>2012-09-22T15:36:10Z</time></trkpt><trkpt lat="53.5697817709" lon="26.1451829039"><ele>155.87</ele><time>2012-09-22T15:36:27Z</time></trkpt><trkpt lat="53.5698032286" lon="26.1451860890"><ele>155.39</ele><time>2012-09-22T15:36:37Z</time></trkpt><trkpt lat="53.5697991215" lon="26.1451857537"><ele>155.39</ele><time>2012-09-22T15:36:53Z</time></trkpt><trkpt lat="53.5697967745" lon="26.1451615300"><ele>155.39</ele><time>2012-09-22T15:37:04Z</time></trkpt><trkpt lat="53.5698013008" lon="26.1451696604"><ele>155.39</ele><time>2012-09-22T15:37:24Z</time></trkpt><trkpt lat="53.5698423721" lon="26.1452191137"><ele>155.39</ele><time>2012-09-22T15:37:46Z</time></trkpt><trkpt lat="53.5698054079" lon="26.1452342849"><ele>155.39</ele><time>2012-09-22T15:38:08Z</time></trkpt><trkpt lat="53.5698150471" lon="26.1452376377"><ele>154.91</ele><time>2012-09-22T15:38:33Z</time></trkpt><trkpt lat="53.5698175617" lon="26.1452161800"><ele>155.39</ele><time>2012-09-22T15:38:59Z</time></trkpt><trkpt lat="53.5698068328" lon="26.1451652180"><ele>155.39</ele><time>2012-09-22T15:39:34Z</time></trkpt><trkpt lat="53.5698095988" lon="26.1451611947"><ele>155.39</ele><time>2012-09-22T15:40:08Z</time></trkpt><trkpt lat="53.5698004626" lon="26.1451739352"><ele>155.39</ele><time>2012-09-22T15:40:35Z</time></trkpt><trkpt lat="53.5697976127" lon="26.1451565009"><ele>155.87</ele><time>2012-09-22T15:41:14Z</time></trkpt><trkpt lat="53.5698199924" lon="26.1451631226"><ele>155.87</ele><time>2012-09-22T15:41:48Z</time></trkpt><trkpt lat="53.5698345769" lon="26.1451601889"><ele>155.87</ele><time>2012-09-22T15:42:09Z</time></trkpt><trkpt lat="53.5698463116" lon="26.1451800540"><ele>155.87</ele><time>2012-09-22T15:42:37Z</time></trkpt><trkpt lat="53.5698247701" lon="26.1452024337"><ele>155.87</ele><time>2012-09-22T15:42:45Z</time></trkpt><trkpt lat="53.5696943477" lon="26.1452543177"><ele>155.39</ele><time>2012-09-22T15:42:55Z</time></trkpt><trkpt lat="53.5696641728" lon="26.1452617776"><ele>155.39</ele><time>2012-09-22T15:42:57Z</time></trkpt><trkpt lat="53.5694698803" lon="26.1451974884"><ele>155.39</ele><time>2012-09-22T15:43:10Z</time></trkpt><trkpt lat="53.5693097860" lon="26.1450850870"><ele>155.39</ele><time>2012-09-22T15:43:24Z</time></trkpt><trkpt lat="53.5692647751" lon="26.1451395694"><ele>155.39</ele><time>2012-09-22T15:43:36Z</time></trkpt><trkpt lat="53.5692246258" lon="26.1451749410"><ele>155.39</ele><time>2012-09-22T15:43:53Z</time></trkpt><trkpt lat="53.5692570638" lon="26.1451938841"><ele>155.39</ele><time>2012-09-22T15:44:08Z</time></trkpt><trkpt lat="53.5692968778" lon="26.1451727618"><ele>155.39</ele><time>2012-09-22T15:44:25Z</time></trkpt><trkpt lat="53.5692695528" lon="26.1452073790"><ele>155.39</ele><time>2012-09-22T15:44:41Z</time></trkpt><trkpt lat="53.5692579858" lon="26.1452538148"><ele>155.39</ele><time>2012-09-22T15:45:00Z</time></trkpt><trkpt lat="53.5693084449" lon="26.1452335306"><ele>155.39</ele><time>2012-09-22T15:45:24Z</time></trkpt><trkpt lat="53.5693040863" lon="26.1452554911"><ele>154.91</ele><time>2012-09-22T15:45:41Z</time></trkpt><trkpt lat="53.5692397971" lon="26.1452765297"><ele>154.91</ele><time>2012-09-22T15:46:03Z</time></trkpt><trkpt lat="53.5693188384" lon="26.1452218797"><ele>154.91</ele><time>2012-09-22T15:46:20Z</time></trkpt><trkpt lat="53.5693182517" lon="26.1452271603"><ele>154.91</ele><time>2012-09-22T15:46:34Z</time></trkpt><trkpt lat="53.5692753363" lon="26.1452265736"><ele>154.91</ele><time>2012-09-22T15:46:48Z</time></trkpt><trkpt lat="53.5693050921" lon="26.1452159286"><ele>154.91</ele><time>2012-09-22T15:47:15Z</time></trkpt><trkpt lat="53.5693317465" lon="26.1452301778"><ele>154.91</ele><time>2012-09-22T15:47:30Z</time></trkpt><trkpt lat="53.5692933574" lon="26.1452498753"><ele>154.91</ele><time>2012-09-22T15:47:53Z</time></trkpt><trkpt lat="53.5692441557" lon="26.1452505458"><ele>154.91</ele><time>2012-09-22T15:48:12Z</time></trkpt><trkpt lat="53.5692881607" lon="26.1452532280"><ele>154.91</ele><time>2012-09-22T15:48:33Z</time></trkpt><trkpt lat="53.5693183355" lon="26.1452539824"><ele>155.39</ele><time>2012-09-22T15:48:51Z</time></trkpt><trkpt lat="53.5692863166" lon="26.1453049444"><ele>154.91</ele><time>2012-09-22T15:49:04Z</time></trkpt><trkpt lat="53.5692628473" lon="26.1452818941"><ele>155.39</ele><time>2012-09-22T15:49:22Z</time></trkpt><trkpt lat="53.5692830477" lon="26.1452258192"><ele>155.39</ele><time>2012-09-22T15:49:41Z</time></trkpt><trkpt lat="53.5693050083" lon="26.1452415772"><ele>155.39</ele><time>2012-09-22T15:49:56Z</time></trkpt><trkpt lat="53.5692726541" lon="26.1452357098"><ele>155.39</ele><time>2012-09-22T15:50:25Z</time></trkpt><trkpt lat="53.5692545492" lon="26.1452294234"><ele>155.39</ele><time>2012-09-22T15:50:52Z</time></trkpt><trkpt lat="53.5692504421" lon="26.1452114861"><ele>155.39</ele><time>2012-09-22T15:51:22Z</time></trkpt><trkpt lat="53.5692704748" lon="26.1452075467"><ele>155.39</ele><time>2012-09-22T15:51:45Z</time></trkpt><trkpt lat="53.5692218598" lon="26.1452455167"><ele>155.39</ele><time>2012-09-22T15:52:18Z</time></trkpt><trkpt lat="53.5692639370" lon="26.1452300940"><ele>155.39</ele><time>2012-09-22T15:52:46Z</time></trkpt><trkpt lat="53.5692565609" lon="26.1452630349"><ele>154.91</ele><time>2012-09-22T15:53:17Z</time></trkpt><trkpt lat="53.5692587402" lon="26.1452330276"><ele>154.91</ele><time>2012-09-22T15:53:54Z</time></trkpt><trkpt lat="53.5692763422" lon="26.1452464387"><ele>154.91</ele><time>2012-09-22T15:54:28Z</time></trkpt><trkpt lat="53.5692610871" lon="26.1452067923"><ele>154.91</ele><time>2012-09-22T15:54:54Z</time></trkpt><trkpt lat="53.5692527890" lon="26.1451684032"><ele>154.91</ele><time>2012-09-22T15:55:23Z</time></trkpt><trkpt lat="53.5692486819" lon="26.1451668944"><ele>154.91</ele><time>2012-09-22T15:55:48Z</time></trkpt><trkpt lat="53.5692565609" lon="26.1451411620"><ele>154.91</ele><time>2012-09-22T15:56:09Z</time></trkpt><trkpt lat="53.5692458320" lon="26.1451585963"><ele>154.91</ele><time>2012-09-22T15:56:26Z</time></trkpt><trkpt lat="53.5692184232" lon="26.1451999191"><ele>154.91</ele><time>2012-09-22T15:56:41Z</time></trkpt><trkpt lat="53.5692141484" lon="26.1452201195"><ele>154.91</ele><time>2012-09-22T15:56:44Z</time></trkpt><trkpt lat="53.5692260507" lon="26.1452875100"><ele>154.91</ele><time>2012-09-22T15:56:57Z</time></trkpt><trkpt lat="53.5692240391" lon="26.1453347839"><ele>154.43</ele><time>2012-09-22T15:57:03Z</time></trkpt><trkpt lat="53.5692066047" lon="26.1455500312"><ele>154.43</ele><time>2012-09-22T15:57:14Z</time></trkpt><trkpt lat="53.5691336822" lon="26.1456279829"><ele>154.43</ele><time>2012-09-22T15:57:21Z</time></trkpt><trkpt lat="53.5691250488" lon="26.1456522904"><ele>154.43</ele><time>2012-09-22T15:57:22Z</time></trkpt><trkpt lat="53.5690642800" lon="26.1459348444"><ele>154.43</ele><time>2012-09-22T15:57:30Z</time></trkpt><trkpt lat="53.5690648668" lon="26.1459822860"><ele>154.43</ele><time>2012-09-22T15:57:31Z</time></trkpt><trkpt lat="53.5690687224" lon="26.1460297275"><ele>154.43</ele><time>2012-09-22T15:57:32Z</time></trkpt><trkpt lat="53.5691176727" lon="26.1463569570"><ele>153.95</ele><time>2012-09-22T15:57:39Z</time></trkpt><trkpt lat="53.5691122245" lon="26.1463758163"><ele>153.95</ele><time>2012-09-22T15:57:40Z</time></trkpt><trkpt lat="53.5691092070" lon="26.1463970225"><ele>153.95</ele><time>2012-09-22T15:57:50Z</time></trkpt><trkpt lat="53.5689632781" lon="26.1465212423"><ele>153.47</ele><time>2012-09-22T15:57:57Z</time></trkpt><trkpt lat="53.5684210528" lon="26.1468027066"><ele>152.99</ele><time>2012-09-22T15:58:12Z</time></trkpt><trkpt lat="53.5679950006" lon="26.1470420938"><ele>152.99</ele><time>2012-09-22T15:58:26Z</time></trkpt><trkpt lat="53.5676455591" lon="26.1473153438"><ele>153.47</ele><time>2012-09-22T15:58:36Z</time></trkpt><trkpt lat="53.5676085111" lon="26.1473419983"><ele>152.99</ele><time>2012-09-22T15:58:37Z</time></trkpt><trkpt lat="53.5670930240" lon="26.1476345267"><ele>152.99</ele><time>2012-09-22T15:58:49Z</time></trkpt><trkpt lat="53.5661918856" lon="26.1481464934"><ele>153.47</ele><time>2012-09-22T15:59:09Z</time></trkpt><trkpt lat="53.5654460639" lon="26.1485695280"><ele>153.95</ele><time>2012-09-22T15:59:26Z</time></trkpt><trkpt lat="53.5647639446" lon="26.1489629745"><ele>153.95</ele><time>2012-09-22T15:59:42Z</time></trkpt><trkpt lat="53.5639729444" lon="26.1494140886"><ele>154.43</ele><time>2012-09-22T16:00:00Z</time></trkpt><trkpt lat="53.5631559603" lon="26.1498890072"><ele>155.87</ele><time>2012-09-22T16:00:19Z</time></trkpt><trkpt lat="53.5624362063" lon="26.1502970383"><ele>157.79</ele><time>2012-09-22T16:00:38Z</time></trkpt><trkpt lat="53.5618896224" lon="26.1506085936"><ele>158.27</ele><time>2012-09-22T16:00:53Z</time></trkpt><trkpt lat="53.5614224989" lon="26.1508686841"><ele>159.72</ele><time>2012-09-22T16:01:06Z</time></trkpt><trkpt lat="53.5606821254" lon="26.1512987595"><ele>160.68</ele><time>2012-09-22T16:01:25Z</time></trkpt><trkpt lat="53.5601122398" lon="26.1516236421"><ele>161.16</ele><time>2012-09-22T16:01:38Z</time></trkpt><trkpt lat="53.5594100039" lon="26.1520591658"><ele>161.16</ele><time>2012-09-22T16:01:53Z</time></trkpt><trkpt lat="53.5586145613" lon="26.1525898241"><ele>159.24</ele><time>2012-09-22T16:02:10Z</time></trkpt><trkpt lat="53.5585654434" lon="26.1525998823"><ele>159.24</ele><time>2012-09-22T16:02:11Z</time></trkpt><trkpt lat="53.5583273135" lon="26.1525904946"><ele>159.24</ele><time>2012-09-22T16:02:16Z</time></trkpt><trkpt lat="53.5580075439" lon="26.1527166422"><ele>158.75</ele><time>2012-09-22T16:02:23Z</time></trkpt><trkpt lat="53.5579678137" lon="26.1527633294"><ele>158.75</ele><time>2012-09-22T16:02:24Z</time></trkpt><trkpt lat="53.5579327773" lon="26.1528182309"><ele>158.75</ele><time>2012-09-22T16:02:25Z</time></trkpt><trkpt lat="53.5579012614" lon="26.1528805923"><ele>158.27</ele><time>2012-09-22T16:02:26Z</time></trkpt><trkpt lat="53.5578711703" lon="26.1529469769"><ele>158.27</ele><time>2012-09-22T16:02:27Z</time></trkpt><trkpt lat="53.5574494768" lon="26.1537375581"><ele>156.35</ele><time>2012-09-22T16:02:39Z</time></trkpt><trkpt lat="53.5567948502" lon="26.1548887286"><ele>153.95</ele><time>2012-09-22T16:02:54Z</time></trkpt><trkpt lat="53.5562542174" lon="26.1558409128"><ele>153.47</ele><time>2012-09-22T16:03:08Z</time></trkpt><trkpt lat="53.5557163507" lon="26.1568098608"><ele>152.99</ele><time>2012-09-22T16:03:22Z</time></trkpt><trkpt lat="53.5552181304" lon="26.1577117536"><ele>152.51</ele><time>2012-09-22T16:03:36Z</time></trkpt><trkpt lat="53.5547905695" lon="26.1584196892"><ele>152.51</ele><time>2012-09-22T16:03:48Z</time></trkpt><trkpt lat="53.5547682736" lon="26.1584299989"><ele>152.03</ele><time>2012-09-22T16:03:49Z</time></trkpt><trkpt lat="53.5547413677" lon="26.1584279872"><ele>152.03</ele><time>2012-09-22T16:03:50Z</time></trkpt><trkpt lat="53.5547163058" lon="26.1584218685"><ele>152.03</ele><time>2012-09-22T16:03:51Z</time></trkpt><trkpt lat="53.5546954349" lon="26.1584129836"><ele>152.03</ele><time>2012-09-22T16:03:52Z</time></trkpt><trkpt lat="53.5546759889" lon="26.1584023386"><ele>152.51</ele><time>2012-09-22T16:03:53Z</time></trkpt><trkpt lat="53.5546529386" lon="26.1583973095"><ele>152.51</ele><time>2012-09-22T16:03:54Z</time></trkpt><trkpt lat="53.5546290502" lon="26.1583945435"><ele>152.51</ele><time>2012-09-22T16:03:55Z</time></trkpt><trkpt lat="53.5545857158" lon="26.1584064458"><ele>152.51</ele><time>2012-09-22T16:04:02Z</time></trkpt><trkpt lat="53.5545766633" lon="26.1584091280"><ele>152.03</ele><time>2012-09-22T16:04:11Z</time></trkpt><trkpt lat="53.5545745678" lon="26.1584050208"><ele>151.54</ele><time>2012-09-22T16:04:59Z</time></trkpt><trkpt lat="53.5545806028" lon="26.1583976448"><ele>151.54</ele><time>2012-09-22T16:05:44Z</time></trkpt><trkpt lat="53.5545895714" lon="26.1583858263"><ele>151.54</ele><time>2012-09-22T16:06:34Z</time></trkpt><trkpt lat="53.5546002164" lon="26.1583995726"><ele>152.51</ele><time>2012-09-22T16:06:56Z</time></trkpt><trkpt lat="53.5546567105" lon="26.1584925279"><ele>152.03</ele><time>2012-09-22T16:07:04Z</time></trkpt><trkpt lat="53.5546646733" lon="26.1586678773"><ele>152.03</ele><time>2012-09-22T16:07:09Z</time></trkpt><trkpt lat="53.5546511784" lon="26.1587029137"><ele>152.03</ele><time>2012-09-22T16:07:10Z</time></trkpt><trkpt lat="53.5546327382" lon="26.1587392911"><ele>152.03</ele><time>2012-09-22T16:07:11Z</time></trkpt><trkpt lat="53.5544195026" lon="26.1591593083"><ele>152.03</ele><time>2012-09-22T16:07:22Z</time></trkpt><trkpt lat="53.5540185962" lon="26.1598748714"><ele>151.54</ele><time>2012-09-22T16:07:35Z</time></trkpt><trkpt lat="53.5535743553" lon="26.1606792826"><ele>150.58</ele><time>2012-09-22T16:07:49Z</time></trkpt><trkpt lat="53.5530135222" lon="26.1616853625"><ele>150.10</ele><time>2012-09-22T16:08:05Z</time></trkpt><trkpt lat="53.5524319019" lon="26.1627202760"><ele>149.62</ele><time>2012-09-22T16:08:22Z</time></trkpt><trkpt lat="53.5518505331" lon="26.1637647450"><ele>149.62</ele><time>2012-09-22T16:08:39Z</time></trkpt><trkpt lat="53.5510715190" lon="26.1651600804"><ele>148.66</ele><time>2012-09-22T16:09:01Z</time></trkpt><trkpt lat="53.5504731350" lon="26.1662307847"><ele>148.18</ele><time>2012-09-22T16:09:18Z</time></trkpt><trkpt lat="53.5499047581" lon="26.1672478449"><ele>148.18</ele><time>2012-09-22T16:09:35Z</time></trkpt><trkpt lat="53.5491970740" lon="26.1685193796"><ele>147.70</ele><time>2012-09-22T16:09:56Z</time></trkpt><trkpt lat="53.5485934932" lon="26.1695967056"><ele>147.70</ele><time>2012-09-22T16:10:14Z</time></trkpt><trkpt lat="53.5480936803" lon="26.1705117580"><ele>147.70</ele><time>2012-09-22T16:10:29Z</time></trkpt><trkpt lat="53.5477344319" lon="26.1713936180"><ele>147.22</ele><time>2012-09-22T16:10:42Z</time></trkpt><trkpt lat="53.5473948810" lon="26.1725755502"><ele>147.22</ele><time>2012-09-22T16:10:58Z</time></trkpt><trkpt lat="53.5473338608" lon="26.1727890372"><ele>146.74</ele><time>2012-09-22T16:11:01Z</time></trkpt><trkpt lat="53.5470439307" lon="26.1737957876"><ele>146.74</ele><time>2012-09-22T16:11:15Z</time></trkpt><trkpt lat="53.5466887895" lon="26.1750396620"><ele>146.74</ele><time>2012-09-22T16:11:32Z</time></trkpt><trkpt lat="53.5463771503" lon="26.1761338357"><ele>146.26</ele><time>2012-09-22T16:11:47Z</time></trkpt><trkpt lat="53.5461880546" lon="26.1768136080"><ele>146.26</ele><time>2012-09-22T16:11:56Z</time></trkpt><trkpt lat="53.5458835401" lon="26.1778897606"><ele>145.78</ele><time>2012-09-22T16:12:10Z</time></trkpt><trkpt lat="53.5454512015" lon="26.1794169433"><ele>146.26</ele><time>2012-09-22T16:12:30Z</time></trkpt><trkpt lat="53.5452841502" lon="26.1800330132"><ele>145.78</ele><time>2012-09-22T16:12:38Z</time></trkpt><trkpt lat="53.5449473653" lon="26.1811724491"><ele>146.26</ele><time>2012-09-22T16:12:53Z</time></trkpt><trkpt lat="53.5447722673" lon="26.1818110663"><ele>145.78</ele><time>2012-09-22T16:13:01Z</time></trkpt><trkpt lat="53.5445705988" lon="26.1825542897"><ele>146.26</ele><time>2012-09-22T16:13:11Z</time></trkpt><trkpt lat="53.5445498116" lon="26.1826220155"><ele>146.26</ele><time>2012-09-22T16:13:12Z</time></trkpt><trkpt lat="53.5445267614" lon="26.1826882325"><ele>145.78</ele><time>2012-09-22T16:13:13Z</time></trkpt><trkpt lat="53.5445020348" lon="26.1827530246"><ele>145.78</ele><time>2012-09-22T16:13:14Z</time></trkpt><trkpt lat="53.5444794036" lon="26.1828239355"><ele>146.26</ele><time>2012-09-22T16:13:15Z</time></trkpt><trkpt lat="53.5444581974" lon="26.1828995403"><ele>146.26</ele><time>2012-09-22T16:13:16Z</time></trkpt><trkpt lat="53.5441073310" lon="26.1841632798"><ele>145.78</ele><time>2012-09-22T16:13:33Z</time></trkpt><trkpt lat="53.5437214281" lon="26.1856032908"><ele>146.74</ele><time>2012-09-22T16:13:52Z</time></trkpt><trkpt lat="53.5433845595" lon="26.1869847123"><ele>146.74</ele><time>2012-09-22T16:14:10Z</time></trkpt><trkpt lat="53.5430918634" lon="26.1882578395"><ele>147.22</ele><time>2012-09-22T16:14:26Z</time></trkpt><trkpt lat="53.5427893605" lon="26.1895688530"><ele>147.70</ele><time>2012-09-22T16:14:43Z</time></trkpt><trkpt lat="53.5425696708" lon="26.1905457638"><ele>147.70</ele><time>2012-09-22T16:14:56Z</time></trkpt><trkpt lat="53.5422592890" lon="26.1918068212"><ele>148.18</ele><time>2012-09-22T16:15:13Z</time></trkpt><trkpt lat="53.5420060717" lon="26.1928821355"><ele>149.14</ele><time>2012-09-22T16:15:27Z</time></trkpt><trkpt lat="53.5416780878" lon="26.1943306960"><ele>149.62</ele><time>2012-09-22T16:15:45Z</time></trkpt><trkpt lat="53.5414112080" lon="26.1955254525"><ele>149.62</ele><time>2012-09-22T16:16:00Z</time></trkpt><trkpt lat="53.5410544742" lon="26.1970562395"><ele>150.58</ele><time>2012-09-22T16:16:19Z</time></trkpt><trkpt lat="53.5409564059" lon="26.1974729877"><ele>150.58</ele><time>2012-09-22T16:16:24Z</time></trkpt><trkpt lat="53.5407445114" lon="26.1983686779"><ele>150.58</ele><time>2012-09-22T16:16:35Z</time></trkpt><trkpt lat="53.5404979996" lon="26.1994277313"><ele>150.10</ele><time>2012-09-22T16:16:48Z</time></trkpt><trkpt lat="53.5402131826" lon="26.2006304506"><ele>150.10</ele><time>2012-09-22T16:17:03Z</time></trkpt><trkpt lat="53.5399362445" lon="26.2017966248"><ele>150.10</ele><time>2012-09-22T16:17:18Z</time></trkpt><trkpt lat="53.5395537782" lon="26.2033852469"><ele>151.06</ele><time>2012-09-22T16:17:38Z</time></trkpt><trkpt lat="53.5392109584" lon="26.2048143614"><ele>151.54</ele><time>2012-09-22T16:17:56Z</time></trkpt><trkpt lat="53.5389160831" lon="26.2060409691"><ele>152.99</ele><time>2012-09-22T16:18:13Z</time></trkpt><trkpt lat="53.5386059526" lon="26.2073410023"><ele>155.39</ele><time>2012-09-22T16:18:32Z</time></trkpt><trkpt lat="53.5382946488" lon="26.2086541113"><ele>156.83</ele><time>2012-09-22T16:18:52Z</time></trkpt><trkpt lat="53.5380348098" lon="26.2097357959"><ele>156.83</ele><time>2012-09-22T16:19:06Z</time></trkpt><trkpt lat="53.5378109291" lon="26.2106829509"><ele>156.35</ele><time>2012-09-22T16:19:18Z</time></trkpt><trkpt lat="53.5375006311" lon="26.2120027654"><ele>155.39</ele><time>2012-09-22T16:19:35Z</time></trkpt><trkpt lat="53.5372170713" lon="26.2132120226"><ele>154.43</ele><time>2012-09-22T16:19:50Z</time></trkpt><trkpt lat="53.5369371995" lon="26.2144021690"><ele>154.43</ele><time>2012-09-22T16:20:05Z</time></trkpt><trkpt lat="53.5366244707" lon="26.2157392502"><ele>154.43</ele><time>2012-09-22T16:20:22Z</time></trkpt><trkpt lat="53.5362508055" lon="26.2173085101"><ele>154.91</ele><time>2012-09-22T16:20:42Z</time></trkpt><trkpt lat="53.5359208100" lon="26.2187032588"><ele>155.87</ele><time>2012-09-22T16:21:00Z</time></trkpt><trkpt lat="53.5356308799" lon="26.2199214008"><ele>157.79</ele><time>2012-09-22T16:21:17Z</time></trkpt><trkpt lat="53.5353999585" lon="26.2208883371"><ele>159.24</ele><time>2012-09-22T16:21:31Z</time></trkpt><trkpt lat="53.5351090226" lon="26.2221054733"><ele>159.72</ele><time>2012-09-22T16:21:48Z</time></trkpt><trkpt lat="53.5348014068" lon="26.2233955320"><ele>160.20</ele><time>2012-09-22T16:22:04Z</time></trkpt><trkpt lat="53.5344746802" lon="26.2247799709"><ele>160.20</ele><time>2012-09-22T16:22:21Z</time></trkpt><trkpt lat="53.5342166852" lon="26.2258625776"><ele>159.72</ele><time>2012-09-22T16:22:35Z</time></trkpt><trkpt lat="53.5339327063" lon="26.2270630337"><ele>159.72</ele><time>2012-09-22T16:22:50Z</time></trkpt><trkpt lat="53.5336550977" lon="26.2282334827"><ele>159.24</ele><time>2012-09-22T16:23:04Z</time></trkpt><trkpt lat="53.5335660819" lon="26.2285733689"><ele>158.75</ele><time>2012-09-22T16:23:08Z</time></trkpt><trkpt lat="53.5333417822" lon="26.2295425683"><ele>158.27</ele><time>2012-09-22T16:23:20Z</time></trkpt><trkpt lat="53.5331115313" lon="26.2305492349"><ele>157.79</ele><time>2012-09-22T16:23:32Z</time></trkpt><trkpt lat="53.5327992216" lon="26.2318672892"><ele>157.31</ele><time>2012-09-22T16:23:48Z</time></trkpt><trkpt lat="53.5324627720" lon="26.2333104853"><ele>157.31</ele><time>2012-09-22T16:24:06Z</time></trkpt><trkpt lat="53.5321203712" lon="26.2347808387"><ele>158.27</ele><time>2012-09-22T16:24:25Z</time></trkpt><trkpt lat="53.5318250768" lon="26.2360438239"><ele>160.20</ele><time>2012-09-22T16:24:43Z</time></trkpt><trkpt lat="53.5315885395" lon="26.2370627280"><ele>161.64</ele><time>2012-09-22T16:24:58Z</time></trkpt><trkpt lat="53.5313142836" lon="26.2382296566"><ele>163.56</ele><time>2012-09-22T16:25:14Z</time></trkpt><trkpt lat="53.5310303047" lon="26.2394441944"><ele>165.00</ele><time>2012-09-22T16:25:31Z</time></trkpt><trkpt lat="53.5309196636" lon="26.2399246451"><ele>165.48</ele><time>2012-09-22T16:25:38Z</time></trkpt><trkpt lat="53.5309029836" lon="26.2399881799"><ele>165.48</ele><time>2012-09-22T16:25:39Z</time></trkpt><trkpt lat="53.5308888182" lon="26.2400538102"><ele>165.48</ele><time>2012-09-22T16:25:40Z</time></trkpt><trkpt lat="53.5308750719" lon="26.2401187699"><ele>165.96</ele><time>2012-09-22T16:25:41Z</time></trkpt><trkpt lat="53.5308591463" lon="26.2401830591"><ele>165.96</ele><time>2012-09-22T16:25:42Z</time></trkpt><trkpt lat="53.5306541249" lon="26.2410798389"><ele>166.45</ele><time>2012-09-22T16:25:56Z</time></trkpt><trkpt lat="53.5303937830" lon="26.2424377911"><ele>168.37</ele><time>2012-09-22T16:26:17Z</time></trkpt><trkpt lat="53.5301451758" lon="26.2438747007"><ele>169.81</ele><time>2012-09-22T16:26:39Z</time></trkpt><trkpt lat="53.5299761128" lon="26.2449253723"><ele>170.77</ele><time>2012-09-22T16:26:54Z</time></trkpt><trkpt lat="53.5298176948" lon="26.2459240761"><ele>170.77</ele><time>2012-09-22T16:27:07Z</time></trkpt><trkpt lat="53.5295796487" lon="26.2473671045"><ele>171.73</ele><time>2012-09-22T16:27:26Z</time></trkpt><trkpt lat="53.5293427762" lon="26.2488589156"><ele>173.66</ele><time>2012-09-22T16:27:47Z</time></trkpt><trkpt lat="53.5291454662" lon="26.2501346413"><ele>176.06</ele><time>2012-09-22T16:28:06Z</time></trkpt><trkpt lat="53.5290240124" lon="26.2508849893"><ele>177.02</ele><time>2012-09-22T16:28:18Z</time></trkpt><trkpt lat="53.5288551170" lon="26.2519939989"><ele>177.50</ele><time>2012-09-22T16:28:34Z</time></trkpt><trkpt lat="53.5286510177" lon="26.2533459160"><ele>177.50</ele><time>2012-09-22T16:28:51Z</time></trkpt><trkpt lat="53.5284407157" lon="26.2546999287"><ele>174.62</ele><time>2012-09-22T16:29:06Z</time></trkpt><trkpt lat="53.5282569006" lon="26.2559588067"><ele>171.25</ele><time>2012-09-22T16:29:17Z</time></trkpt><trkpt lat="53.5280412342" lon="26.2574046850"><ele>167.89</ele><time>2012-09-22T16:29:30Z</time></trkpt><trkpt lat="53.5278006736" lon="26.2590333726"><ele>165.00</ele><time>2012-09-22T16:29:46Z</time></trkpt><trkpt lat="53.5275320336" lon="26.2606162112"><ele>162.12</ele><time>2012-09-22T16:30:03Z</time></trkpt><trkpt lat="53.5272488929" lon="26.2617191859"><ele>159.72</ele><time>2012-09-22T16:30:16Z</time></trkpt><trkpt lat="53.5268898122" lon="26.2626745552"><ele>158.27</ele><time>2012-09-22T16:30:28Z</time></trkpt><trkpt lat="53.5265443102" lon="26.2634755298"><ele>157.31</ele><time>2012-09-22T16:30:40Z</time></trkpt><trkpt lat="53.5261004884" lon="26.2644884828"><ele>156.35</ele><time>2012-09-22T16:30:55Z</time></trkpt><trkpt lat="53.5257721692" lon="26.2652840093"><ele>155.87</ele><time>2012-09-22T16:31:07Z</time></trkpt><trkpt lat="53.5254725162" lon="26.2662674580"><ele>156.35</ele><time>2012-09-22T16:31:21Z</time></trkpt><trkpt lat="53.5252246633" lon="26.2674428523"><ele>156.35</ele><time>2012-09-22T16:31:36Z</time></trkpt><trkpt lat="53.5250508226" lon="26.2683227006"><ele>156.35</ele><time>2012-09-22T16:31:48Z</time></trkpt><trkpt lat="53.5247921571" lon="26.2696467061"><ele>156.35</ele><time>2012-09-22T16:32:05Z</time></trkpt><trkpt lat="53.5245880578" lon="26.2707190868"><ele>155.39</ele><time>2012-09-22T16:32:18Z</time></trkpt><trkpt lat="53.5243881494" lon="26.2718362268"><ele>154.43</ele><time>2012-09-22T16:32:32Z</time></trkpt><trkpt lat="53.5242856387" lon="26.2729232758"><ele>154.43</ele><time>2012-09-22T16:32:46Z</time></trkpt><trkpt lat="53.5243219323" lon="26.2741201278"><ele>154.43</ele><time>2012-09-22T16:33:01Z</time></trkpt><trkpt lat="53.5244368482" lon="26.2751405407"><ele>154.43</ele><time>2012-09-22T16:33:14Z</time></trkpt><trkpt lat="53.5246256925" lon="26.2763069663"><ele>154.91</ele><time>2012-09-22T16:33:30Z</time></trkpt><trkpt lat="53.5248002037" lon="26.2773981225"><ele>154.91</ele><time>2012-09-22T16:33:45Z</time></trkpt><trkpt lat="53.5249684285" lon="26.2783184554"><ele>155.39</ele><time>2012-09-22T16:33:58Z</time></trkpt><trkpt lat="53.5251355637" lon="26.2794035766"><ele>155.87</ele><time>2012-09-22T16:34:13Z</time></trkpt><trkpt lat="53.5252039600" lon="26.2804997619"><ele>155.87</ele><time>2012-09-22T16:34:28Z</time></trkpt><trkpt lat="53.5252050497" lon="26.2808249798"><ele>155.87</ele><time>2012-09-22T16:34:36Z</time></trkpt><trkpt lat="53.5252078157" lon="26.2809465174"><ele>155.87</ele><time>2012-09-22T16:34:48Z</time></trkpt><trkpt lat="53.5252099950" lon="26.2809803803"><ele>155.87</ele><time>2012-09-22T16:34:49Z</time></trkpt><trkpt lat="53.5252078995" lon="26.2810195237"><ele>155.87</ele><time>2012-09-22T16:34:50Z</time></trkpt><trkpt lat="53.5252056364" lon="26.2810711563"><ele>156.35</ele><time>2012-09-22T16:34:51Z</time></trkpt><trkpt lat="53.5252069775" lon="26.2819852866"><ele>156.35</ele><time>2012-09-22T16:35:04Z</time></trkpt><trkpt lat="53.5251881182" lon="26.2828645483"><ele>156.83</ele><time>2012-09-22T16:35:17Z</time></trkpt><trkpt lat="53.5251843464" lon="26.2836779281"><ele>157.31</ele><time>2012-09-22T16:35:30Z</time></trkpt><trkpt lat="53.5251839273" lon="26.2843948323"><ele>157.79</ele><time>2012-09-22T16:35:42Z</time></trkpt><trkpt lat="53.5251922254" lon="26.2851741817"><ele>158.27</ele><time>2012-09-22T16:35:56Z</time></trkpt><trkpt lat="53.5251914710" lon="26.2859748211"><ele>159.24</ele><time>2012-09-22T16:36:08Z</time></trkpt><trkpt lat="53.5251804069" lon="26.2872121576"><ele>160.20</ele><time>2012-09-22T16:36:26Z</time></trkpt><trkpt lat="53.5251778923" lon="26.2884402741"><ele>161.16</ele><time>2012-09-22T16:36:45Z</time></trkpt><trkpt lat="53.5251677502" lon="26.2891542446"><ele>162.12</ele><time>2012-09-22T16:36:57Z</time></trkpt><trkpt lat="53.5251696780" lon="26.2901594862"><ele>164.04</ele><time>2012-09-22T16:37:14Z</time></trkpt><trkpt lat="53.5251453705" lon="26.2911969982"><ele>164.52</ele><time>2012-09-22T16:37:30Z</time></trkpt><trkpt lat="53.5251254216" lon="26.2921348494"><ele>165.00</ele><time>2012-09-22T16:37:44Z</time></trkpt><trkpt lat="53.5250883736" lon="26.2926197425"><ele>165.00</ele><time>2012-09-22T16:37:55Z</time></trkpt><trkpt lat="53.5250858590" lon="26.2926038168"><ele>165.00</ele><time>2012-09-22T16:38:04Z</time></trkpt><trkpt lat="53.5250749625" lon="26.2926331535"><ele>165.00</ele><time>2012-09-22T16:38:37Z</time></trkpt><trkpt lat="53.5250796564" lon="26.2926458940"><ele>165.00</ele><time>2012-09-22T16:38:54Z</time></trkpt><trkpt lat="53.5250823386" lon="26.2926365063"><ele>165.00</ele><time>2012-09-22T16:39:16Z</time></trkpt><trkpt lat="53.5250846855" lon="26.2926475704"><ele>165.00</ele><time>2012-09-22T16:39:49Z</time></trkpt><trkpt lat="53.5250890441" lon="26.2926215865"><ele>165.00</ele><time>2012-09-22T16:40:11Z</time></trkpt><trkpt lat="53.5250892956" lon="26.2926158030"><ele>165.00</ele><time>2012-09-22T16:40:32Z</time></trkpt><trkpt lat="53.5250885412" lon="26.2926358357"><ele>165.00</ele><time>2012-09-22T16:40:50Z</time></trkpt><trkpt lat="53.5250869486" lon="26.2926362548"><ele>164.04</ele><time>2012-09-22T16:40:53Z</time></trkpt><trkpt lat="53.5250894632" lon="26.2926254421"><ele>164.04</ele><time>2012-09-22T16:41:17Z</time></trkpt><trkpt lat="53.5250908881" lon="26.2926221732"><ele>165.00</ele><time>2012-09-22T16:41:42Z</time></trkpt><trkpt lat="53.5250848532" lon="26.2926784158"><ele>164.52</ele><time>2012-09-22T16:42:07Z</time></trkpt><trkpt lat="53.5250576958" lon="26.2929888815"><ele>165.48</ele><time>2012-09-22T16:42:15Z</time></trkpt><trkpt lat="53.5249600466" lon="26.2937378883"><ele>165.96</ele><time>2012-09-22T16:42:28Z</time></trkpt><trkpt lat="53.5247867089" lon="26.2947667670"><ele>165.48</ele><time>2012-09-22T16:42:43Z</time></trkpt><trkpt lat="53.5246479046" lon="26.2954677455"><ele>165.00</ele><time>2012-09-22T16:42:53Z</time></trkpt><trkpt lat="53.5244610719" lon="26.2964204326"><ele>165.96</ele><time>2012-09-22T16:43:07Z</time></trkpt><trkpt lat="53.5242533684" lon="26.2974451203"><ele>166.93</ele><time>2012-09-22T16:43:21Z</time></trkpt><trkpt lat="53.5239641089" lon="26.2988724746"><ele>167.41</ele><time>2012-09-22T16:43:37Z</time></trkpt><trkpt lat="53.5236529727" lon="26.3004761003"><ele>167.89</ele><time>2012-09-22T16:43:54Z</time></trkpt><trkpt lat="53.5234228056" lon="26.3016389217"><ele>168.37</ele><time>2012-09-22T16:44:08Z</time></trkpt><trkpt lat="53.5232199635" lon="26.3026472647"><ele>168.37</ele><time>2012-09-22T16:44:22Z</time></trkpt><trkpt lat="53.5230147745" lon="26.3037018757"><ele>168.85</ele><time>2012-09-22T16:44:36Z</time></trkpt><trkpt lat="53.5227613896" lon="26.3050024118"><ele>167.41</ele><time>2012-09-22T16:44:52Z</time></trkpt><trkpt lat="53.5224552825" lon="26.3065702468"><ele>165.48</ele><time>2012-09-22T16:45:10Z</time></trkpt><trkpt lat="53.5221725609" lon="26.3079556916"><ele>162.60</ele><time>2012-09-22T16:45:25Z</time></trkpt><trkpt lat="53.5218988918" lon="26.3092245441"><ele>161.64</ele><time>2012-09-22T16:45:39Z</time></trkpt><trkpt lat="53.5216463450" lon="26.3105588593"><ele>160.20</ele><time>2012-09-22T16:45:55Z</time></trkpt><trkpt lat="53.5214295052" lon="26.3116918411"><ele>159.72</ele><time>2012-09-22T16:46:09Z</time></trkpt><trkpt lat="53.5211799759" lon="26.3130026031"><ele>159.72</ele><time>2012-09-22T16:46:26Z</time></trkpt><trkpt lat="53.5209335480" lon="26.3142694440"><ele>158.75</ele><time>2012-09-22T16:46:42Z</time></trkpt><trkpt lat="53.5206600465" lon="26.3157181721"><ele>157.79</ele><time>2012-09-22T16:46:59Z</time></trkpt><trkpt lat="53.5204646643" lon="26.3168061431"><ele>156.83</ele><time>2012-09-22T16:47:12Z</time></trkpt><trkpt lat="53.5201823618" lon="26.3183591422"><ele>156.83</ele><time>2012-09-22T16:47:31Z</time></trkpt><trkpt lat="53.5199408792" lon="26.3196878415"><ele>156.35</ele><time>2012-09-22T16:47:47Z</time></trkpt><trkpt lat="53.5196488537" lon="26.3213241566"><ele>155.87</ele><time>2012-09-22T16:48:07Z</time></trkpt><trkpt lat="53.5194445029" lon="26.3224498462"><ele>155.39</ele><time>2012-09-22T16:48:21Z</time></trkpt><trkpt lat="53.5192083009" lon="26.3237388991"><ele>154.43</ele><time>2012-09-22T16:48:36Z</time></trkpt><trkpt lat="53.5189832468" lon="26.3249978609"><ele>154.43</ele><time>2012-09-22T16:48:52Z</time></trkpt><trkpt lat="53.5187740345" lon="26.3260689005"><ele>153.95</ele><time>2012-09-22T16:49:06Z</time></trkpt><trkpt lat="53.5184789076" lon="26.3271823525"><ele>153.47</ele><time>2012-09-22T16:49:21Z</time></trkpt><trkpt lat="53.5179935955" lon="26.3283030968"><ele>153.47</ele><time>2012-09-22T16:49:38Z</time></trkpt><trkpt lat="53.5174386296" lon="26.3295628130"><ele>153.95</ele><time>2012-09-22T16:49:58Z</time></trkpt><trkpt lat="53.5169114918" lon="26.3307658676"><ele>154.43</ele><time>2012-09-22T16:50:18Z</time></trkpt><trkpt lat="53.5164820869" lon="26.3317618892"><ele>154.91</ele><time>2012-09-22T16:50:35Z</time></trkpt><trkpt lat="53.5160948429" lon="26.3326538075"><ele>155.39</ele><time>2012-09-22T16:50:50Z</time></trkpt><trkpt lat="53.5157373548" lon="26.3334679417"><ele>155.87</ele><time>2012-09-22T16:51:05Z</time></trkpt><trkpt lat="53.5153441597" lon="26.3343869336"><ele>156.83</ele><time>2012-09-22T16:51:22Z</time></trkpt><trkpt lat="53.5149530601" lon="26.3353094459"><ele>158.27</ele><time>2012-09-22T16:51:40Z</time></trkpt><trkpt lat="53.5145645589" lon="26.3361691777"><ele>160.68</ele><time>2012-09-22T16:51:59Z</time></trkpt><trkpt lat="53.5142623913" lon="26.3368536439"><ele>162.60</ele><time>2012-09-22T16:52:14Z</time></trkpt><trkpt lat="53.5139290430" lon="26.3376165647"><ele>165.00</ele><time>2012-09-22T16:52:32Z</time></trkpt><trkpt lat="53.5136581399" lon="26.3382372446"><ele>166.93</ele><time>2012-09-22T16:52:47Z</time></trkpt><trkpt lat="53.5134101193" lon="26.3388022687"><ele>169.33</ele><time>2012-09-22T16:53:01Z</time></trkpt><trkpt lat="53.5130213667" lon="26.3396941032"><ele>172.21</ele><time>2012-09-22T16:53:23Z</time></trkpt><trkpt lat="53.5127285030" lon="26.3403533399"><ele>173.17</ele><time>2012-09-22T16:53:39Z</time></trkpt><trkpt lat="53.5125803109" lon="26.3406974170"><ele>173.17</ele><time>2012-09-22T16:53:48Z</time></trkpt><trkpt lat="53.5123715177" lon="26.3411552366"><ele>173.66</ele><time>2012-09-22T16:53:59Z</time></trkpt><trkpt lat="53.5121354833" lon="26.3417047542"><ele>174.14</ele><time>2012-09-22T16:54:11Z</time></trkpt><trkpt lat="53.5118361656" lon="26.3423835207"><ele>175.10</ele><time>2012-09-22T16:54:26Z</time></trkpt><trkpt lat="53.5113991331" lon="26.3433786202"><ele>177.02</ele><time>2012-09-22T16:54:48Z</time></trkpt><trkpt lat="53.5110916011" lon="26.3440880645"><ele>178.46</ele><time>2012-09-22T16:55:04Z</time></trkpt><trkpt lat="53.5107400641" lon="26.3449002709"><ele>180.38</ele><time>2012-09-22T16:55:22Z</time></trkpt><trkpt lat="53.5105823167" lon="26.3452316076"><ele>180.38</ele><time>2012-09-22T16:55:30Z</time></trkpt><trkpt lat="53.5105741024" lon="26.3452590164"><ele>180.38</ele><time>2012-09-22T16:55:31Z</time></trkpt><trkpt lat="53.5105649661" lon="26.3452828210"><ele>180.38</ele><time>2012-09-22T16:55:32Z</time></trkpt><trkpt lat="53.5105554946" lon="26.3453101460"><ele>180.38</ele><time>2012-09-22T16:55:33Z</time></trkpt><trkpt lat="53.5105442628" lon="26.3453415781"><ele>180.38</ele><time>2012-09-22T16:55:34Z</time></trkpt><trkpt lat="53.5105291754" lon="26.3453757763"><ele>180.38</ele><time>2012-09-22T16:55:35Z</time></trkpt><trkpt lat="53.5102834180" lon="26.3459481765"><ele>180.87</ele><time>2012-09-22T16:55:48Z</time></trkpt><trkpt lat="53.5100724455" lon="26.3464402780"><ele>180.87</ele><time>2012-09-22T16:55:58Z</time></trkpt><trkpt lat="53.5097933281" lon="26.3470935635"><ele>180.87</ele><time>2012-09-22T16:56:11Z</time></trkpt><trkpt lat="53.5095410328" lon="26.3476662152"><ele>180.38</ele><time>2012-09-22T16:56:23Z</time></trkpt><trkpt lat="53.5092401225" lon="26.3483553752"><ele>180.38</ele><time>2012-09-22T16:56:37Z</time></trkpt><trkpt lat="53.5089651123" lon="26.3489879575"><ele>181.35</ele><time>2012-09-22T16:56:50Z</time></trkpt><trkpt lat="53.5086766910" lon="26.3496473618"><ele>181.35</ele><time>2012-09-22T16:57:03Z</time></trkpt><trkpt lat="53.5083429236" lon="26.3504153956"><ele>181.35</ele><time>2012-09-22T16:57:18Z</time></trkpt><trkpt lat="53.5080267582" lon="26.3511369936"><ele>181.35</ele><time>2012-09-22T16:57:31Z</time></trkpt><trkpt lat="53.5076416936" lon="26.3520017546"><ele>180.38</ele><time>2012-09-22T16:57:46Z</time></trkpt><trkpt lat="53.5072314832" lon="26.3529278710"><ele>177.98</ele><time>2012-09-22T16:58:01Z</time></trkpt><trkpt lat="53.5069797747" lon="26.3535104971"><ele>177.50</ele><time>2012-09-22T16:58:12Z</time></trkpt><trkpt lat="53.5069744103" lon="26.3534906320"><ele>177.02</ele><time>2012-09-22T16:58:32Z</time></trkpt><trkpt lat="53.5069730692" lon="26.3534916379"><ele>176.54</ele><time>2012-09-22T16:59:03Z</time></trkpt><trkpt lat="53.5069739074" lon="26.3534826692"><ele>176.54</ele><time>2012-09-22T16:59:20Z</time></trkpt><trkpt lat="53.5069765896" lon="26.3534792326"><ele>175.10</ele><time>2012-09-22T16:59:34Z</time></trkpt><trkpt lat="53.5069614183" lon="26.3534904644"><ele>177.02</ele><time>2012-09-22T16:59:59Z</time></trkpt><trkpt lat="53.5069686268" lon="26.3535104133"><ele>176.54</ele><time>2012-09-22T17:00:22Z</time></trkpt><trkpt lat="53.5068843048" lon="26.3537325338"><ele>176.06</ele><time>2012-09-22T17:00:30Z</time></trkpt><trkpt lat="53.5066201910" lon="26.3543481845"><ele>175.58</ele><time>2012-09-22T17:00:41Z</time></trkpt><trkpt lat="53.5062083881" lon="26.3552808389"><ele>171.73</ele><time>2012-09-22T17:00:52Z</time></trkpt><trkpt lat="53.5055349860" lon="26.3568421360"><ele>165.48</ele><time>2012-09-22T17:01:06Z</time></trkpt><trkpt lat="53.5046235379" lon="26.3589323312"><ele>157.31</ele><time>2012-09-22T17:01:23Z</time></trkpt><trkpt lat="53.5037814081" lon="26.3608574029"><ele>149.62</ele><time>2012-09-22T17:01:38Z</time></trkpt><trkpt lat="53.5031553637" lon="26.3622984197"><ele>147.22</ele><time>2012-09-22T17:01:51Z</time></trkpt><trkpt lat="53.5027224384" lon="26.3632875681"><ele>146.26</ele><time>2012-09-22T17:02:02Z</time></trkpt><trkpt lat="53.5022374615" lon="26.3643895369"><ele>145.78</ele><time>2012-09-22T17:02:16Z</time></trkpt><trkpt lat="53.5017487966" lon="26.3655143045"><ele>145.78</ele><time>2012-09-22T17:02:33Z</time></trkpt><trkpt lat="53.5012787394" lon="26.3665962406"><ele>145.78</ele><time>2012-09-22T17:02:50Z</time></trkpt><trkpt lat="53.5008577164" lon="26.3675718941"><ele>145.78</ele><time>2012-09-22T17:03:05Z</time></trkpt><trkpt lat="53.5004683770" lon="26.3684856892"><ele>145.30</ele><time>2012-09-22T17:03:18Z</time></trkpt><trkpt lat="53.5000658780" lon="26.3693796191"><ele>144.82</ele><time>2012-09-22T17:03:30Z</time></trkpt><trkpt lat="53.4995406680" lon="26.3705875352"><ele>143.85</ele><time>2012-09-22T17:03:47Z</time></trkpt><trkpt lat="53.4989930782" lon="26.3718385343"><ele>142.89</ele><time>2012-09-22T17:04:05Z</time></trkpt><trkpt lat="53.4984042495" lon="26.3731870148"><ele>143.85</ele><time>2012-09-22T17:04:25Z</time></trkpt><trkpt lat="53.4979218710" lon="26.3742822781"><ele>143.85</ele><time>2012-09-22T17:04:43Z</time></trkpt><trkpt lat="53.4973975830" lon="26.3754708320"><ele>144.82</ele><time>2012-09-22T17:05:02Z</time></trkpt><trkpt lat="53.4970131889" lon="26.3763446454"><ele>146.74</ele><time>2012-09-22T17:05:17Z</time></trkpt><trkpt lat="53.4966443013" lon="26.3771913014"><ele>147.22</ele><time>2012-09-22T17:05:32Z</time></trkpt><trkpt lat="53.4962625895" lon="26.3780675456"><ele>147.22</ele><time>2012-09-22T17:05:47Z</time></trkpt><trkpt lat="53.4959563147" lon="26.3787636627"><ele>146.74</ele><time>2012-09-22T17:05:59Z</time></trkpt><trkpt lat="53.4955862537" lon="26.3796078879"><ele>145.78</ele><time>2012-09-22T17:06:14Z</time></trkpt><trkpt lat="53.4951512329" lon="26.3805882353"><ele>145.30</ele><time>2012-09-22T17:06:29Z</time></trkpt><trkpt lat="53.4946326446" lon="26.3815244101"><ele>143.85</ele><time>2012-09-22T17:06:44Z</time></trkpt><trkpt lat="53.4945196565" lon="26.3816952333"><ele>143.85</ele><time>2012-09-22T17:06:47Z</time></trkpt><trkpt lat="53.4940299019" lon="26.3825016562"><ele>142.41</ele><time>2012-09-22T17:07:01Z</time></trkpt><trkpt lat="53.4934906941" lon="26.3832945842"><ele>141.93</ele><time>2012-09-22T17:07:16Z</time></trkpt><trkpt lat="53.4929413442" lon="26.3841150049"><ele>142.41</ele><time>2012-09-22T17:07:32Z</time></trkpt><trkpt lat="53.4923680220" lon="26.3849681150"><ele>141.93</ele><time>2012-09-22T17:07:48Z</time></trkpt><trkpt lat="53.4917732421" lon="26.3858274277"><ele>141.45</ele><time>2012-09-22T17:08:04Z</time></trkpt><trkpt lat="53.4912300110" lon="26.3865828887"><ele>141.45</ele><time>2012-09-22T17:08:19Z</time></trkpt><trkpt lat="53.4905974288" lon="26.3874232583"><ele>141.93</ele><time>2012-09-22T17:08:37Z</time></trkpt><trkpt lat="53.4899612423" lon="26.3882809784"><ele>141.93</ele><time>2012-09-22T17:08:55Z</time></trkpt><trkpt lat="53.4893199429" lon="26.3891461585"><ele>141.45</ele><time>2012-09-22T17:09:13Z</time></trkpt><trkpt lat="53.4886889532" lon="26.3899938203"><ele>141.45</ele><time>2012-09-22T17:09:31Z</time></trkpt><trkpt lat="53.4882773180" lon="26.3905459363"><ele>142.41</ele><time>2012-09-22T17:09:43Z</time></trkpt><trkpt lat="53.4878231864" lon="26.3911542110"><ele>142.89</ele><time>2012-09-22T17:09:57Z</time></trkpt><trkpt lat="53.4873184282" lon="26.3918606378"><ele>144.34</ele><time>2012-09-22T17:10:13Z</time></trkpt><trkpt lat="53.4868285060" lon="26.3925989158"><ele>144.34</ele><time>2012-09-22T17:10:29Z</time></trkpt><trkpt lat="53.4863164555" lon="26.3934538700"><ele>145.30</ele><time>2012-09-22T17:10:46Z</time></trkpt><trkpt lat="53.4858888108" lon="26.3942528330"><ele>145.78</ele><time>2012-09-22T17:11:01Z</time></trkpt><trkpt lat="53.4854238667" lon="26.3951446675"><ele>146.74</ele><time>2012-09-22T17:11:17Z</time></trkpt><trkpt lat="53.4850408975" lon="26.3959047385"><ele>147.22</ele><time>2012-09-22T17:11:30Z</time></trkpt><trkpt lat="53.4847105667" lon="26.3965478819"><ele>147.70</ele><time>2012-09-22T17:11:42Z</time></trkpt><trkpt lat="53.4845165256" lon="26.3969419152"><ele>148.18</ele><time>2012-09-22T17:11:54Z</time></trkpt><trkpt lat="53.4845055453" lon="26.3969537336"><ele>148.18</ele><time>2012-09-22T17:11:55Z</time></trkpt><trkpt lat="53.4844939783" lon="26.3969677314"><ele>148.18</ele><time>2012-09-22T17:11:56Z</time></trkpt><trkpt lat="53.4844790585" lon="26.3969867583"><ele>148.18</ele><time>2012-09-22T17:11:57Z</time></trkpt><trkpt lat="53.4844638035" lon="26.3970135804"><ele>148.18</ele><time>2012-09-22T17:11:58Z</time></trkpt><trkpt lat="53.4844511468" lon="26.3970461860"><ele>148.18</ele><time>2012-09-22T17:11:59Z</time></trkpt><trkpt lat="53.4842467122" lon="26.3974827155"><ele>147.70</ele><time>2012-09-22T17:12:10Z</time></trkpt><trkpt lat="53.4839522559" lon="26.3980624080"><ele>148.18</ele><time>2012-09-22T17:12:22Z</time></trkpt><trkpt lat="53.4836826939" lon="26.3987006061"><ele>148.66</ele><time>2012-09-22T17:12:35Z</time></trkpt><trkpt lat="53.4834448155" lon="26.3993889280"><ele>149.62</ele><time>2012-09-22T17:12:47Z</time></trkpt><trkpt lat="53.4831410553" lon="26.4002651721"><ele>150.10</ele><time>2012-09-22T17:13:02Z</time></trkpt><trkpt lat="53.4830398019" lon="26.4005569462"><ele>150.58</ele><time>2012-09-22T17:13:07Z</time></trkpt><trkpt lat="53.4827668872" lon="26.4013226330"><ele>151.54</ele><time>2012-09-22T17:13:20Z</time></trkpt><trkpt lat="53.4825249016" lon="26.4020094462"><ele>151.54</ele><time>2012-09-22T17:13:31Z</time></trkpt><trkpt lat="53.4823552519" lon="26.4024894778"><ele>151.06</ele><time>2012-09-22T17:13:39Z</time></trkpt><trkpt lat="53.4823322017" lon="26.4025502466"><ele>151.06</ele><time>2012-09-22T17:13:40Z</time></trkpt><trkpt lat="53.4820659086" lon="26.4033238962"><ele>151.06</ele><time>2012-09-22T17:13:52Z</time></trkpt><trkpt lat="53.4818530083" lon="26.4039066900"><ele>151.54</ele><time>2012-09-22T17:14:01Z</time></trkpt><trkpt lat="53.4815867990" lon="26.4046564512"><ele>151.54</ele><time>2012-09-22T17:14:13Z</time></trkpt><trkpt lat="53.4815213364" lon="26.4048386738"><ele>151.54</ele><time>2012-09-22T17:14:16Z</time></trkpt><trkpt lat="53.4813842922" lon="26.4052661508"><ele>152.03</ele><time>2012-09-22T17:14:23Z</time></trkpt><trkpt lat="53.4813606553" lon="26.4053219743"><ele>152.03</ele><time>2012-09-22T17:14:24Z</time></trkpt><trkpt lat="53.4810149856" lon="26.4061151538"><ele>152.99</ele><time>2012-09-22T17:14:37Z</time></trkpt><trkpt lat="53.4806321841" lon="26.4068515878"><ele>152.51</ele><time>2012-09-22T17:14:49Z</time></trkpt><trkpt lat="53.4802047070" lon="26.4076268300"><ele>152.51</ele><time>2012-09-22T17:15:03Z</time></trkpt><trkpt lat="53.4797794092" lon="26.4083913434"><ele>151.06</ele><time>2012-09-22T17:15:17Z</time></trkpt><trkpt lat="53.4792636707" lon="26.4093317930"><ele>150.58</ele><time>2012-09-22T17:15:34Z</time></trkpt><trkpt lat="53.4789150674" lon="26.4099791273"><ele>150.58</ele><time>2012-09-22T17:15:45Z</time></trkpt><trkpt lat="53.4785068687" lon="26.4107190818"><ele>150.10</ele><time>2012-09-22T17:15:57Z</time></trkpt><trkpt lat="53.4781140089" lon="26.4114449546"><ele>150.58</ele><time>2012-09-22T17:16:09Z</time></trkpt><trkpt lat="53.4777236637" lon="26.4121528901"><ele>152.03</ele><time>2012-09-22T17:16:21Z</time></trkpt><trkpt lat="53.4772451408" lon="26.4130128734"><ele>152.03</ele><time>2012-09-22T17:16:36Z</time></trkpt><trkpt lat="53.4768485930" lon="26.4137419313"><ele>153.47</ele><time>2012-09-22T17:16:50Z</time></trkpt><trkpt lat="53.4764393885" lon="26.4144774433"><ele>153.95</ele><time>2012-09-22T17:17:05Z</time></trkpt><trkpt lat="53.4761109855" lon="26.4150847122"><ele>153.47</ele><time>2012-09-22T17:17:16Z</time></trkpt><trkpt lat="53.4757348895" lon="26.4157419372"><ele>152.99</ele><time>2012-09-22T17:17:28Z</time></trkpt><trkpt lat="53.4752151277" lon="26.4166714065"><ele>152.99</ele><time>2012-09-22T17:17:45Z</time></trkpt><trkpt lat="53.4746619221" lon="26.4176582918"><ele>152.51</ele><time>2012-09-22T17:18:03Z</time></trkpt><trkpt lat="53.4742072038" lon="26.4184677321"><ele>152.99</ele><time>2012-09-22T17:18:18Z</time></trkpt><trkpt lat="53.4737203829" lon="26.4193367679"><ele>152.99</ele><time>2012-09-22T17:18:35Z</time></trkpt><trkpt lat="53.4732935764" lon="26.4201122615"><ele>152.99</ele><time>2012-09-22T17:18:51Z</time></trkpt><trkpt lat="53.4728754871" lon="26.4208557364"><ele>153.95</ele><time>2012-09-22T17:19:07Z</time></trkpt><trkpt lat="53.4726420511" lon="26.4212771785"><ele>155.87</ele><time>2012-09-22T17:19:17Z</time></trkpt><trkpt lat="53.4721408132" lon="26.4221607987"><ele>156.83</ele><time>2012-09-22T17:19:36Z</time></trkpt><trkpt lat="53.4717624541" lon="26.4228399843"><ele>157.31</ele><time>2012-09-22T17:19:50Z</time></trkpt><trkpt lat="53.4713644814" lon="26.4235373586"><ele>156.35</ele><time>2012-09-22T17:20:03Z</time></trkpt><trkpt lat="53.4710109327" lon="26.4241597150"><ele>155.87</ele><time>2012-09-22T17:20:15Z</time></trkpt><trkpt lat="53.4706182405" lon="26.4248625375"><ele>154.91</ele><time>2012-09-22T17:20:27Z</time></trkpt><trkpt lat="53.4701841418" lon="26.4256467484"><ele>154.43</ele><time>2012-09-22T17:20:41Z</time></trkpt><trkpt lat="53.4698303416" lon="26.4262831025"><ele>154.91</ele><time>2012-09-22T17:20:54Z</time></trkpt><trkpt lat="53.4694775473" lon="26.4269326162"><ele>154.91</ele><time>2012-09-22T17:21:08Z</time></trkpt><trkpt lat="53.4691493958" lon="26.4275164995"><ele>155.39</ele><time>2012-09-22T17:21:21Z</time></trkpt><trkpt lat="53.4687298816" lon="26.4282776602"><ele>154.91</ele><time>2012-09-22T17:21:38Z</time></trkpt><trkpt lat="53.4682392888" lon="26.4291497134"><ele>154.43</ele><time>2012-09-22T17:21:57Z</time></trkpt><trkpt lat="53.4678477701" lon="26.4298564754"><ele>155.87</ele><time>2012-09-22T17:22:13Z</time></trkpt><trkpt lat="53.4676088858" lon="26.4302805159"><ele>156.83</ele><time>2012-09-22T17:22:24Z</time></trkpt><trkpt lat="53.4672940616" lon="26.4308421034"><ele>158.27</ele><time>2012-09-22T17:22:38Z</time></trkpt><trkpt lat="53.4669811651" lon="26.4314084686"><ele>159.24</ele><time>2012-09-22T17:22:52Z</time></trkpt><trkpt lat="53.4666738845" lon="26.4319509454"><ele>160.68</ele><time>2012-09-22T17:23:07Z</time></trkpt><trkpt lat="53.4663691185" lon="26.4325192384"><ele>163.08</ele><time>2012-09-22T17:23:23Z</time></trkpt><trkpt lat="53.4660869837" lon="26.4330452029"><ele>165.48</ele><time>2012-09-22T17:23:38Z</time></trkpt><trkpt lat="53.4658610914" lon="26.4334824029"><ele>169.33</ele><time>2012-09-22T17:23:50Z</time></trkpt><trkpt lat="53.4655481949" lon="26.4340798650"><ele>172.69</ele><time>2012-09-22T17:24:06Z</time></trkpt><trkpt lat="53.4652894456" lon="26.4345995430"><ele>173.66</ele><time>2012-09-22T17:24:19Z</time></trkpt><trkpt lat="53.4650161956" lon="26.4351872820"><ele>175.10</ele><time>2012-09-22T17:24:32Z</time></trkpt><trkpt lat="53.4647964220" lon="26.4356891066"><ele>176.06</ele><time>2012-09-22T17:24:45Z</time></trkpt><trkpt lat="53.4645063244" lon="26.4363802783"><ele>176.54</ele><time>2012-09-22T17:24:58Z</time></trkpt><trkpt lat="53.4641834535" lon="26.4371648245"><ele>176.06</ele><time>2012-09-22T17:25:11Z</time></trkpt><trkpt lat="53.4637327585" lon="26.4382418990"><ele>171.25</ele><time>2012-09-22T17:25:28Z</time></trkpt><trkpt lat="53.4633387253" lon="26.4392075781"><ele>167.41</ele><time>2012-09-22T17:25:43Z</time></trkpt><trkpt lat="53.4630558360" lon="26.4398999233"><ele>166.93</ele><time>2012-09-22T17:25:56Z</time></trkpt><trkpt lat="53.4628152754" lon="26.4404843934"><ele>166.45</ele><time>2012-09-22T17:26:08Z</time></trkpt><trkpt lat="53.4625078272" lon="26.4412433747"><ele>166.45</ele><time>2012-09-22T17:26:23Z</time></trkpt><trkpt lat="53.4621387720" lon="26.4421403222"><ele>167.41</ele><time>2012-09-22T17:26:41Z</time></trkpt><trkpt lat="53.4618050884" lon="26.4429678675"><ele>169.33</ele><time>2012-09-22T17:26:58Z</time></trkpt><trkpt lat="53.4615507815" lon="26.4436056465"><ele>170.77</ele><time>2012-09-22T17:27:13Z</time></trkpt><trkpt lat="53.4614185989" lon="26.4439313672"><ele>172.21</ele><time>2012-09-22T17:27:22Z</time></trkpt><trkpt lat="53.4612536430" lon="26.4443220478"><ele>172.69</ele><time>2012-09-22T17:27:33Z</time></trkpt><trkpt lat="53.4610555787" lon="26.4447965473"><ele>172.21</ele><time>2012-09-22T17:27:45Z</time></trkpt><trkpt lat="53.4608280100" lon="26.4453715459"><ele>172.69</ele><time>2012-09-22T17:27:59Z</time></trkpt><trkpt lat="53.4605623037" lon="26.4460295253"><ele>173.66</ele><time>2012-09-22T17:28:15Z</time></trkpt><trkpt lat="53.4603425302" lon="26.4465654641"><ele>175.58</ele><time>2012-09-22T17:28:29Z</time></trkpt><trkpt lat="53.4601472318" lon="26.4470358565"><ele>176.54</ele><time>2012-09-22T17:28:42Z</time></trkpt><trkpt lat="53.4598995466" lon="26.4476666786"><ele>177.50</ele><time>2012-09-22T17:28:57Z</time></trkpt><trkpt lat="53.4596728999" lon="26.4482167829"><ele>178.94</ele><time>2012-09-22T17:29:09Z</time></trkpt><trkpt lat="53.4594330937" lon="26.4488051087"><ele>179.42</ele><time>2012-09-22T17:29:22Z</time></trkpt><trkpt lat="53.4592144936" lon="26.4493518602"><ele>180.38</ele><time>2012-09-22T17:29:33Z</time></trkpt><trkpt lat="53.4589967318" lon="26.4498787466"><ele>180.38</ele><time>2012-09-22T17:29:44Z</time></trkpt><trkpt lat="53.4587542433" lon="26.4504735265"><ele>180.87</ele><time>2012-09-22T17:29:56Z</time></trkpt><trkpt lat="53.4585195500" lon="26.4510674682"><ele>181.83</ele><time>2012-09-22T17:30:08Z</time></trkpt><trkpt lat="53.4582627285" lon="26.4517016429"><ele>183.75</ele><time>2012-09-22T17:30:20Z</time></trkpt><trkpt lat="53.4580343217" lon="26.4522618894"><ele>184.23</ele><time>2012-09-22T17:30:31Z</time></trkpt><trkpt lat="53.4578712936" lon="26.4525665715"><ele>183.75</ele><time>2012-09-22T17:30:40Z</time></trkpt><trkpt lat="53.4578571282" lon="26.4526453614"><ele>183.27</ele><time>2012-09-22T17:30:46Z</time></trkpt><trkpt lat="53.4578512609" lon="26.4526498877"><ele>181.83</ele><time>2012-09-22T17:31:02Z</time></trkpt><trkpt lat="53.4578491654" lon="26.4526528213"><ele>181.35</ele><time>2012-09-22T17:31:28Z</time></trkpt><trkpt lat="53.4578514285" lon="26.4526290167"><ele>179.90</ele><time>2012-09-22T17:31:47Z</time></trkpt><trkpt lat="53.4578474890" lon="26.4526466187"><ele>177.98</ele><time>2012-09-22T17:32:10Z</time></trkpt><trkpt lat="53.4578536917" lon="26.4526570123"><ele>177.98</ele><time>2012-09-22T17:32:28Z</time></trkpt><trkpt lat="53.4578431305" lon="26.4526475407"><ele>179.42</ele><time>2012-09-22T17:32:43Z</time></trkpt><trkpt lat="53.4578363411" lon="26.4526581019"><ele>181.35</ele><time>2012-09-22T17:33:02Z</time></trkpt><trkpt lat="53.4578389395" lon="26.4526390750"><ele>182.79</ele><time>2012-09-22T17:33:27Z</time></trkpt><trkpt lat="53.4578453097" lon="26.4526848402"><ele>183.75</ele><time>2012-09-22T17:33:36Z</time></trkpt><trkpt lat="53.4578398615" lon="26.4527247380"><ele>183.75</ele><time>2012-09-22T17:33:39Z</time></trkpt><trkpt lat="53.4577200003" lon="26.4530015923"><ele>183.75</ele><time>2012-09-22T17:33:48Z</time></trkpt><trkpt lat="53.4575480875" lon="26.4534438215"><ele>183.75</ele><time>2012-09-22T17:33:58Z</time></trkpt><trkpt lat="53.4573509451" lon="26.4539236017"><ele>184.23</ele><time>2012-09-22T17:34:08Z</time></trkpt><trkpt lat="53.4570172615" lon="26.4547379036"><ele>184.23</ele><time>2012-09-22T17:34:23Z</time></trkpt><trkpt lat="53.4567558300" lon="26.4553727489"><ele>184.23</ele><time>2012-09-22T17:34:34Z</time></trkpt><trkpt lat="53.4567306004" lon="26.4554268122"><ele>184.23</ele><time>2012-09-22T17:34:35Z</time></trkpt><trkpt lat="53.4564741980" lon="26.4560754877"><ele>184.23</ele><time>2012-09-22T17:34:46Z</time></trkpt><trkpt lat="53.4561642352" lon="26.4568466228"><ele>184.23</ele><time>2012-09-22T17:34:59Z</time></trkpt><trkpt lat="53.4558058251" lon="26.4577381220"><ele>184.23</ele><time>2012-09-22T17:35:14Z</time></trkpt><trkpt lat="53.4554714710" lon="26.4585202374"><ele>184.23</ele><time>2012-09-22T17:35:27Z</time></trkpt><trkpt lat="53.4554107860" lon="26.4586538449"><ele>183.75</ele><time>2012-09-22T17:35:29Z</time></trkpt><trkpt lat="53.4553852212" lon="26.4587211516"><ele>183.75</ele><time>2012-09-22T17:35:30Z</time></trkpt><trkpt lat="53.4551368654" lon="26.4594164304"><ele>183.27</ele><time>2012-09-22T17:35:39Z</time></trkpt><trkpt lat="53.4551101271" lon="26.4594891854"><ele>183.75</ele><time>2012-09-22T17:35:40Z</time></trkpt><trkpt lat="53.4547344502" lon="26.4603815228"><ele>182.31</ele><time>2012-09-22T17:35:52Z</time></trkpt><trkpt lat="53.4543762077" lon="26.4614033606"><ele>180.38</ele><time>2012-09-22T17:36:05Z</time></trkpt><trkpt lat="53.4541106690" lon="26.4622889087"><ele>178.46</ele><time>2012-09-22T17:36:15Z</time></trkpt><trkpt lat="53.4536205791" lon="26.4638588391"><ele>173.66</ele><time>2012-09-22T17:36:31Z</time></trkpt><trkpt lat="53.4532375261" lon="26.4650032204"><ele>170.77</ele><time>2012-09-22T17:36:44Z</time></trkpt><trkpt lat="53.4528838098" lon="26.4658802189"><ele>168.85</ele><time>2012-09-22T17:36:55Z</time></trkpt><trkpt lat="53.4524266608" lon="26.4669547789"><ele>164.52</ele><time>2012-09-22T17:37:07Z</time></trkpt><trkpt lat="53.4519233275" lon="26.4681106433"><ele>163.56</ele><time>2012-09-22T17:37:20Z</time></trkpt><trkpt lat="53.4515871294" lon="26.4688954409"><ele>163.08</ele><time>2012-09-22T17:37:32Z</time></trkpt><trkpt lat="53.4512806870" lon="26.4696213137"><ele>163.56</ele><time>2012-09-22T17:37:44Z</time></trkpt><trkpt lat="53.4510446526" lon="26.4701607730"><ele>164.04</ele><time>2012-09-22T17:37:55Z</time></trkpt><trkpt lat="53.4508840553" lon="26.4705041796"><ele>164.52</ele><time>2012-09-22T17:38:06Z</time></trkpt><trkpt lat="53.4508761764" lon="26.4705368690"><ele>164.52</ele><time>2012-09-22T17:38:07Z</time></trkpt><trkpt lat="53.4508744162" lon="26.4705749229"><ele>164.04</ele><time>2012-09-22T17:38:08Z</time></trkpt><trkpt lat="53.4509713110" lon="26.4706730749"><ele>164.04</ele><time>2012-09-22T17:38:14Z</time></trkpt><trkpt lat="53.4509829618" lon="26.4706684649"><ele>164.04</ele><time>2012-09-22T17:38:21Z</time></trkpt><trkpt lat="53.4509899188" lon="26.4706667885"><ele>165.00</ele><time>2012-09-22T17:38:36Z</time></trkpt><trkpt lat="53.4509750828" lon="26.4706915151"><ele>165.48</ele><time>2012-09-22T17:39:03Z</time></trkpt><trkpt lat="53.4509750828" lon="26.4706656989"><ele>163.56</ele><time>2012-09-22T17:39:38Z</time></trkpt><trkpt lat="53.4509839676" lon="26.4706579037"><ele>162.12</ele><time>2012-09-22T17:40:28Z</time></trkpt><trkpt lat="53.4509744961" lon="26.4706601668"><ele>162.12</ele><time>2012-09-22T17:40:49Z</time></trkpt><trkpt lat="53.4509665333" lon="26.4706523716"><ele>163.56</ele><time>2012-09-22T17:41:47Z</time></trkpt><trkpt lat="53.4509763401" lon="26.4706607535"><ele>163.56</ele><time>2012-09-22T17:42:17Z</time></trkpt><trkpt lat="53.4509802796" lon="26.4706514496"><ele>164.04</ele><time>2012-09-22T17:42:32Z</time></trkpt><trkpt lat="53.4509729873" lon="26.4706451632"><ele>166.93</ele><time>2012-09-22T17:42:57Z</time></trkpt><trkpt lat="53.4509805311" lon="26.4706019126"><ele>166.93</ele><time>2012-09-22T17:43:13Z</time></trkpt><trkpt lat="53.4509848896" lon="26.4704398904"><ele>168.37</ele><time>2012-09-22T17:43:27Z</time></trkpt><trkpt lat="53.4510630928" lon="26.4703085460"><ele>168.37</ele><time>2012-09-22T17:43:38Z</time></trkpt><trkpt lat="53.4510791022" lon="26.4702674747"><ele>167.89</ele><time>2012-09-22T17:43:41Z</time></trkpt><trkpt lat="53.4510225244" lon="26.4700127486"><ele>166.93</ele><time>2012-09-22T17:43:56Z</time></trkpt><trkpt lat="53.4510096163" lon="26.4699511416"><ele>165.96</ele><time>2012-09-22T17:44:09Z</time></trkpt><trkpt lat="53.4510252904" lon="26.4699753653"><ele>164.52</ele><time>2012-09-22T17:44:25Z</time></trkpt><trkpt lat="53.4510549624" lon="26.4699871838"><ele>166.45</ele><time>2012-09-22T17:44:32Z</time></trkpt><trkpt lat="53.4510692116" lon="26.4700611122"><ele>169.81</ele><time>2012-09-22T17:44:47Z</time></trkpt><trkpt lat="53.4510344267" lon="26.4700633753"><ele>166.93</ele><time>2012-09-22T17:45:06Z</time></trkpt><trkpt lat="53.4510051738" lon="26.4700287580"><ele>168.85</ele><time>2012-09-22T17:45:30Z</time></trkpt><trkpt lat="53.4510434791" lon="26.4700305182"><ele>170.29</ele><time>2012-09-22T17:45:50Z</time></trkpt><trkpt lat="53.4510502685" lon="26.4700146765"><ele>170.77</ele><time>2012-09-22T17:46:06Z</time></trkpt><trkpt lat="53.4510683734" lon="26.4700176939"><ele>171.73</ele><time>2012-09-22T17:46:24Z</time></trkpt><trkpt lat="53.4510659426" lon="26.4699985832"><ele>173.66</ele><time>2012-09-22T17:46:38Z</time></trkpt><trkpt lat="53.4510416351" lon="26.4700286742"><ele>177.02</ele><time>2012-09-22T17:46:58Z</time></trkpt><trkpt lat="53.4510609973" lon="26.4700058755"><ele>178.94</ele><time>2012-09-22T17:47:20Z</time></trkpt><trkpt lat="53.4511056729" lon="26.4700150117"><ele>181.35</ele><time>2012-09-22T17:47:38Z</time></trkpt><trkpt lat="53.4511653520" lon="26.4700057078"><ele>185.67</ele><time>2012-09-22T17:47:59Z</time></trkpt><trkpt lat="53.4512216784" lon="26.4700174425"><ele>189.04</ele><time>2012-09-22T17:48:17Z</time></trkpt><trkpt lat="53.4512314014" lon="26.4699824899"><ele>189.04</ele><time>2012-09-22T17:48:39Z</time></trkpt><trkpt lat="53.4512199182" lon="26.4699668158"><ele>189.52</ele><time>2012-09-22T17:48:54Z</time></trkpt><trkpt lat="53.4512241930" lon="26.4700185321"><ele>187.59</ele><time>2012-09-22T17:49:18Z</time></trkpt><trkpt lat="53.4512088541" lon="26.4700588491"><ele>186.63</ele><time>2012-09-22T17:49:35Z</time></trkpt><trkpt lat="53.4512305632" lon="26.4700995851"><ele>189.52</ele><time>2012-09-22T17:49:54Z</time></trkpt><trkpt lat="53.4512624145" lon="26.4700995013"><ele>188.56</ele><time>2012-09-22T17:50:18Z</time></trkpt><trkpt lat="53.4512654319" lon="26.4700594358"><ele>188.08</ele><time>2012-09-22T17:50:39Z</time></trkpt><trkpt lat="53.4512661025" lon="26.4700181969"><ele>188.08</ele><time>2012-09-22T17:51:07Z</time></trkpt><trkpt lat="53.4512427170" lon="26.4699868485"><ele>185.67</ele><time>2012-09-22T17:51:36Z</time></trkpt><trkpt lat="53.4512409568" lon="26.4699856751"><ele>183.75</ele><time>2012-09-22T17:51:50Z</time></trkpt><trkpt lat="53.4512635041" lon="26.4700097311"><ele>183.75</ele><time>2012-09-22T17:52:11Z</time></trkpt><trkpt lat="53.4512105305" lon="26.4700425882"><ele>180.87</ele><time>2012-09-22T17:52:38Z</time></trkpt><trkpt lat="53.4512042440" lon="26.4700525627"><ele>183.27</ele><time>2012-09-22T17:53:02Z</time></trkpt><trkpt lat="53.4512178227" lon="26.4700430911"><ele>182.79</ele><time>2012-09-22T17:53:22Z</time></trkpt><trkpt lat="53.4512163140" lon="26.4700093959"><ele>182.31</ele><time>2012-09-22T17:53:43Z</time></trkpt><trkpt lat="53.4512163140" lon="26.4700010978"><ele>183.27</ele><time>2012-09-22T17:54:02Z</time></trkpt><trkpt lat="53.4512136318" lon="26.4699849207"><ele>185.19</ele><time>2012-09-22T17:54:17Z</time></trkpt><trkpt lat="53.4512171522" lon="26.4700031932"><ele>187.59</ele><time>2012-09-22T17:54:43Z</time></trkpt><trkpt lat="53.4512248635" lon="26.4700186998"><ele>187.11</ele><time>2012-09-22T17:55:02Z</time></trkpt><trkpt lat="53.4512380231" lon="26.4700135868"><ele>187.11</ele><time>2012-09-22T17:55:26Z</time></trkpt><trkpt lat="53.4512226842" lon="26.4700016845"><ele>186.63</ele><time>2012-09-22T17:55:42Z</time></trkpt><trkpt lat="53.4512133803" lon="26.4699920453"><ele>183.75</ele><time>2012-09-22T17:55:59Z</time></trkpt><trkpt lat="53.4512119554" lon="26.4700016845"><ele>183.27</ele><time>2012-09-22T17:56:13Z</time></trkpt><trkpt lat="53.4511927608" lon="26.4700159337"><ele>182.79</ele><time>2012-09-22T17:56:34Z</time></trkpt><trkpt lat="53.4512027353" lon="26.4699966554"><ele>182.79</ele><time>2012-09-22T17:56:57Z</time></trkpt><trkpt lat="53.4511785116" lon="26.4699955657"><ele>179.90</ele><time>2012-09-22T17:57:23Z</time></trkpt><trkpt lat="53.4511601552" lon="26.4700179454"><ele>177.50</ele><time>2012-09-22T17:57:44Z</time></trkpt><trkpt lat="53.4511320759" lon="26.4700084738"><ele>176.54</ele><time>2012-09-22T17:58:01Z</time></trkpt><trkpt lat="53.4511251189" lon="26.4699777961"><ele>177.02</ele><time>2012-09-22T17:58:15Z</time></trkpt><trkpt lat="53.4511176590" lon="26.4699830767"><ele>174.62</ele><time>2012-09-22T17:58:31Z</time></trkpt><trkpt lat="53.4511000570" lon="26.4699555840"><ele>173.17</ele><time>2012-09-22T17:58:48Z</time></trkpt><trkpt lat="53.4510932676" lon="26.4699542429"><ele>170.29</ele><time>2012-09-22T17:59:04Z</time></trkpt><trkpt lat="53.4510894120" lon="26.4699553326"><ele>167.89</ele><time>2012-09-22T17:59:22Z</time></trkpt><trkpt lat="53.4510868974" lon="26.4699865133"><ele>169.81</ele><time>2012-09-22T17:59:42Z</time></trkpt><trkpt lat="53.4510744084" lon="26.4699918777"><ele>170.29</ele><time>2012-09-22T17:59:59Z</time></trkpt><trkpt lat="53.4510674514" lon="26.4699819870"><ele>169.33</ele><time>2012-09-22T18:00:13Z</time></trkpt><trkpt lat="53.4510646854" lon="26.4699877705"><ele>167.89</ele><time>2012-09-22T18:00:35Z</time></trkpt><trkpt lat="53.4510630928" lon="26.4699591044"><ele>168.37</ele><time>2012-09-22T18:00:52Z</time></trkpt><trkpt lat="53.4510695469" lon="26.4699460287"><ele>169.33</ele><time>2012-09-22T18:01:10Z</time></trkpt><trkpt lat="53.4511158988" lon="26.4699643012"><ele>171.73</ele><time>2012-09-22T18:01:27Z</time></trkpt><trkpt lat="53.4511149768" lon="26.4699805621"><ele>168.85</ele><time>2012-09-22T18:01:51Z</time></trkpt><trkpt lat="53.4510728996" lon="26.4699461125"><ele>166.45</ele><time>2012-09-22T18:02:13Z</time></trkpt><trkpt lat="53.4510715585" lon="26.4699563384"><ele>165.96</ele><time>2012-09-22T18:02:26Z</time></trkpt><trkpt lat="53.4510609135" lon="26.4699419215"><ele>167.41</ele><time>2012-09-22T18:02:50Z</time></trkpt><trkpt lat="53.4510428924" lon="26.4699431788"><ele>166.93</ele><time>2012-09-22T18:03:07Z</time></trkpt><trkpt lat="53.4510452393" lon="26.4699368086"><ele>164.52</ele><time>2012-09-22T18:03:25Z</time></trkpt><trkpt lat="53.4510589857" lon="26.4699923806"><ele>165.48</ele><time>2012-09-22T18:03:46Z</time></trkpt><trkpt lat="53.4510622546" lon="26.4700189512"><ele>161.64</ele><time>2012-09-22T18:04:12Z</time></trkpt><trkpt lat="53.4510503523" lon="26.4699887764"><ele>161.16</ele><time>2012-09-22T18:04:29Z</time></trkpt><trkpt lat="53.4510424733" lon="26.4699813165"><ele>163.08</ele><time>2012-09-22T18:04:46Z</time></trkpt><trkpt lat="53.4510221053" lon="26.4699762035"><ele>165.00</ele><time>2012-09-22T18:05:04Z</time></trkpt><trkpt lat="53.4510299843" lon="26.4699711744"><ele>165.00</ele><time>2012-09-22T18:05:19Z</time></trkpt><trkpt lat="53.4510359354" lon="26.4699532371"><ele>164.04</ele><time>2012-09-22T18:05:40Z</time></trkpt><trkpt lat="53.4510489274" lon="26.4699341264"><ele>165.00</ele><time>2012-09-22T18:05:58Z</time></trkpt><trkpt lat="53.4510474186" lon="26.4699591883"><ele>167.41</ele><time>2012-09-22T18:06:21Z</time></trkpt><trkpt lat="53.4510475863" lon="26.4699404966"><ele>165.48</ele><time>2012-09-22T18:06:38Z</time></trkpt><trkpt lat="53.4510487597" lon="26.4699399937"><ele>171.25</ele><time>2012-09-22T18:06:40Z</time></trkpt><trkpt lat="53.4510508552" lon="26.4699430112"><ele>171.25</ele><time>2012-09-22T18:06:41Z</time></trkpt><trkpt lat="53.4510494303" lon="26.4699358866"><ele>171.25</ele><time>2012-09-22T18:06:58Z</time></trkpt><trkpt lat="53.4510725643" lon="26.4699824061"><ele>171.25</ele><time>2012-09-22T18:07:18Z</time></trkpt><trkpt lat="53.4510652721" lon="26.4699902851"><ele>171.25</ele><time>2012-09-22T18:07:43Z</time></trkpt><trkpt lat="53.4510243684" lon="26.4699931350"><ele>171.25</ele><time>2012-09-22T18:08:04Z</time></trkpt><trkpt lat="53.4510102030" lon="26.4699801430"><ele>171.25</ele><time>2012-09-22T18:08:24Z</time></trkpt><trkpt lat="53.4509920143" lon="26.4699855074"><ele>171.25</ele><time>2012-09-22T18:08:47Z</time></trkpt><trkpt lat="53.4509973787" lon="26.4699596912"><ele>171.25</ele><time>2012-09-22T18:09:12Z</time></trkpt><trkpt lat="53.4510096163" lon="26.4699402452"><ele>171.25</ele><time>2012-09-22T18:09:41Z</time></trkpt><trkpt lat="53.4510124661" lon="26.4699361380"><ele>171.25</ele><time>2012-09-22T18:10:02Z</time></trkpt><trkpt lat="53.4510009829" lon="26.4699246548"><ele>170.77</ele><time>2012-09-22T18:10:21Z</time></trkpt><trkpt lat="53.4509883262" lon="26.4699682407"><ele>170.77</ele><time>2012-09-22T18:10:43Z</time></trkpt><trkpt lat="53.4510065150" lon="26.4699575119"><ele>170.77</ele><time>2012-09-22T18:11:05Z</time></trkpt><trkpt lat="53.4509943612" lon="26.4699458610"><ele>170.77</ele><time>2012-09-22T18:11:27Z</time></trkpt><trkpt lat="53.4509733226" lon="26.4699401613"><ele>170.77</ele><time>2012-09-22T18:11:48Z</time></trkpt><trkpt lat="53.4509831294" lon="26.4699301030"><ele>170.29</ele><time>2012-09-22T18:12:12Z</time></trkpt><trkpt lat="53.4509630129" lon="26.4699264150"><ele>170.77</ele><time>2012-09-22T18:12:30Z</time></trkpt><trkpt lat="53.4509545472" lon="26.4699113276"><ele>170.29</ele><time>2012-09-22T18:12:50Z</time></trkpt><trkpt lat="53.4509345144" lon="26.4699126687"><ele>170.29</ele><time>2012-09-22T18:13:14Z</time></trkpt><trkpt lat="53.4509874880" lon="26.4699416701"><ele>170.29</ele><time>2012-09-22T18:13:36Z</time></trkpt><trkpt lat="53.4509751666" lon="26.4699554164"><ele>169.81</ele><time>2012-09-22T18:13:52Z</time></trkpt><trkpt lat="53.4510221053" lon="26.4699678216"><ele>169.81</ele><time>2012-09-22T18:14:08Z</time></trkpt><trkpt lat="53.4509984683" lon="26.4699368086"><ele>169.81</ele><time>2012-09-22T18:14:27Z</time></trkpt><trkpt lat="53.4510097839" lon="26.4699714258"><ele>169.81</ele><time>2012-09-22T18:14:46Z</time></trkpt><trkpt lat="53.4510351811" lon="26.4699793048"><ele>169.81</ele><time>2012-09-22T18:15:02Z</time></trkpt><trkpt lat="53.4510248713" lon="26.4699193742"><ele>169.81</ele><time>2012-09-22T18:15:18Z</time></trkpt><trkpt lat="53.4510038327" lon="26.4698978327"><ele>169.81</ele><time>2012-09-22T18:15:31Z</time></trkpt><trkpt lat="53.4510074370" lon="26.4699304383"><ele>169.81</ele><time>2012-09-22T18:15:47Z</time></trkpt><trkpt lat="53.4510002285" lon="26.4699354675"><ele>169.81</ele><time>2012-09-22T18:16:04Z</time></trkpt><trkpt lat="53.4509809501" lon="26.4699652232"><ele>169.81</ele><time>2012-09-22T18:16:19Z</time></trkpt><trkpt lat="53.4509982169" lon="26.4699876867"><ele>169.81</ele><time>2012-09-22T18:16:35Z</time></trkpt><trkpt lat="53.4509945288" lon="26.4700504672"><ele>169.81</ele><time>2012-09-22T18:17:01Z</time></trkpt><trkpt lat="53.4509533737" lon="26.4700132515"><ele>169.81</ele><time>2012-09-22T18:17:18Z</time></trkpt><trkpt lat="53.4509677067" lon="26.4700110722"><ele>169.81</ele><time>2012-09-22T18:17:39Z</time></trkpt><trkpt lat="53.4509809501" lon="26.4699618705"><ele>170.29</ele><time>2012-09-22T18:18:04Z</time></trkpt><trkpt lat="53.4509787709" lon="26.4699568413"><ele>170.29</ele><time>2012-09-22T18:18:22Z</time></trkpt><trkpt lat="53.4509566426" lon="26.4699879382"><ele>169.81</ele><time>2012-09-22T18:18:39Z</time></trkpt><trkpt lat="53.4509776812" lon="26.4699560869"><ele>170.29</ele><time>2012-09-22T18:18:58Z</time></trkpt><trkpt lat="53.4509998932" lon="26.4699635468"><ele>169.81</ele><time>2012-09-22T18:19:11Z</time></trkpt><trkpt lat="53.4510045871" lon="26.4699452743"><ele>169.81</ele><time>2012-09-22T18:19:29Z</time></trkpt><trkpt lat="53.4509815369" lon="26.4698908757"><ele>169.81</ele><time>2012-09-22T18:19:40Z</time></trkpt><trkpt lat="53.4509904217" lon="26.4699290972"><ele>169.81</ele><time>2012-09-22T18:19:56Z</time></trkpt><trkpt lat="53.4509902541" lon="26.4699504711"><ele>169.81</ele><time>2012-09-22T18:20:08Z</time></trkpt><trkpt lat="53.4510231949" lon="26.4700049534"><ele>169.81</ele><time>2012-09-22T18:20:26Z</time></trkpt><trkpt lat="53.4510228597" lon="26.4699850883"><ele>169.81</ele><time>2012-09-22T18:20:46Z</time></trkpt><trkpt lat="53.4509933554" lon="26.4699590206"><ele>169.81</ele><time>2012-09-22T18:20:57Z</time></trkpt><trkpt lat="53.4509995580" lon="26.4700047858"><ele>169.81</ele><time>2012-09-22T18:21:15Z</time></trkpt><trkpt lat="53.4509993903" lon="26.4700131677"><ele>169.81</ele><time>2012-09-22T18:21:16Z</time></trkpt><trkpt lat="53.4510516934" lon="26.4701309334"><ele>169.33</ele><time>2012-09-22T18:21:28Z</time></trkpt><trkpt lat="53.4510557167" lon="26.4701687358"><ele>169.33</ele><time>2012-09-22T18:21:36Z</time></trkpt><trkpt lat="53.4510368574" lon="26.4702014253"><ele>169.81</ele><time>2012-09-22T18:21:38Z</time></trkpt><trkpt lat="53.4510205965" lon="26.4702229667"><ele>169.81</ele><time>2012-09-22T18:21:39Z</time></trkpt><trkpt lat="53.4510046709" lon="26.4702484477"><ele>169.81</ele><time>2012-09-22T18:21:40Z</time></trkpt><trkpt lat="53.4509874880" lon="26.4702778682"><ele>169.81</ele><time>2012-09-22T18:21:41Z</time></trkpt><trkpt lat="53.4509683773" lon="26.4703076240"><ele>169.81</ele><time>2012-09-22T18:21:42Z</time></trkpt><trkpt lat="53.4506914392" lon="26.4706411399"><ele>169.81</ele><time>2012-09-22T18:21:52Z</time></trkpt><trkpt lat="53.4503930435" lon="26.4709132165"><ele>169.81</ele><time>2012-09-22T18:22:01Z</time></trkpt><trkpt lat="53.4499186277" lon="26.4714045636"><ele>170.29</ele><time>2012-09-22T18:22:15Z</time></trkpt><trkpt lat="53.4493792523" lon="26.4718526602"><ele>171.73</ele><time>2012-09-22T18:22:31Z</time></trkpt><trkpt lat="53.4489399567" lon="26.4721811470"><ele>173.66</ele><time>2012-09-22T18:22:45Z</time></trkpt><trkpt lat="53.4484829754" lon="26.4725183509"><ele>175.10</ele><time>2012-09-22T18:23:00Z</time></trkpt><trkpt lat="53.4480881039" lon="26.4728195127"><ele>176.54</ele><time>2012-09-22T18:23:12Z</time></trkpt><trkpt lat="53.4475893807" lon="26.4731871430"><ele>177.50</ele><time>2012-09-22T18:23:25Z</time></trkpt><trkpt lat="53.4469384421" lon="26.4736715332"><ele>177.98</ele><time>2012-09-22T18:23:42Z</time></trkpt><trkpt lat="53.4462511260" lon="26.4741775487"><ele>177.98</ele><time>2012-09-22T18:24:00Z</time></trkpt><trkpt lat="53.4455746226" lon="26.4746840671"><ele>178.46</ele><time>2012-09-22T18:24:18Z</time></trkpt><trkpt lat="53.4449841175" lon="26.4751195908"><ele>179.42</ele><time>2012-09-22T18:24:35Z</time></trkpt><trkpt lat="53.4444058500" lon="26.4755429607"><ele>180.38</ele><time>2012-09-22T18:24:52Z</time></trkpt><trkpt lat="53.4439079650" lon="26.4759182185"><ele>181.35</ele><time>2012-09-22T18:25:07Z</time></trkpt><trkpt lat="53.4434006922" lon="26.4762948174"><ele>183.27</ele><time>2012-09-22T18:25:23Z</time></trkpt><trkpt lat="53.4429915715" lon="26.4765905309"><ele>184.23</ele><time>2012-09-22T18:25:37Z</time></trkpt><trkpt lat="53.4424999729" lon="26.4769519586"><ele>186.15</ele><time>2012-09-22T18:25:54Z</time></trkpt><trkpt lat="53.4420394711" lon="26.4772942755"><ele>187.59</ele><time>2012-09-22T18:26:09Z</time></trkpt><trkpt lat="53.4416392352" lon="26.4776028134"><ele>189.04</ele><time>2012-09-22T18:26:23Z</time></trkpt><trkpt lat="53.4412602056" lon="26.4778903965"><ele>190.00</ele><time>2012-09-22T18:26:36Z</time></trkpt><trkpt lat="53.4408345725" lon="26.4781708550"><ele>190.96</ele><time>2012-09-22T18:26:50Z</time></trkpt><trkpt lat="53.4403449856" lon="26.4784363098"><ele>190.96</ele><time>2012-09-22T18:27:05Z</time></trkpt><trkpt lat="53.4398802090" lon="26.4786587656"><ele>190.96</ele><time>2012-09-22T18:27:17Z</time></trkpt><trkpt lat="53.4392279293" lon="26.4789765235"><ele>190.96</ele><time>2012-09-22T18:27:34Z</time></trkpt><trkpt lat="53.4386823513" lon="26.4792313334"><ele>191.44</ele><time>2012-09-22T18:27:48Z</time></trkpt><trkpt lat="53.4381396230" lon="26.4794800244"><ele>192.40</ele><time>2012-09-22T18:28:03Z</time></trkpt><trkpt lat="53.4376058634" lon="26.4797217585"><ele>192.88</ele><time>2012-09-22T18:28:18Z</time></trkpt><trkpt lat="53.4370526578" lon="26.4799791668"><ele>192.88</ele><time>2012-09-22T18:28:33Z</time></trkpt><trkpt lat="53.4364398569" lon="26.4802812506"><ele>193.36</ele><time>2012-09-22T18:28:49Z</time></trkpt><trkpt lat="53.4356563166" lon="26.4806525689"><ele>193.84</ele><time>2012-09-22T18:29:10Z</time></trkpt><trkpt lat="53.4351175278" lon="26.4809169341"><ele>192.88</ele><time>2012-09-22T18:29:23Z</time></trkpt><trkpt lat="53.4350710921" lon="26.4809342846"><ele>192.40</ele><time>2012-09-22T18:29:24Z</time></trkpt><trkpt lat="53.4349805675" lon="26.4809730928"><ele>192.40</ele><time>2012-09-22T18:29:26Z</time></trkpt><trkpt lat="53.4349355567" lon="26.4810005017"><ele>192.40</ele><time>2012-09-22T18:29:27Z</time></trkpt><trkpt lat="53.4341577999" lon="26.4813782740"><ele>189.04</ele><time>2012-09-22T18:29:43Z</time></trkpt><trkpt lat="53.4335264750" lon="26.4816843811"><ele>188.56</ele><time>2012-09-22T18:29:57Z</time></trkpt><trkpt lat="53.4334041830" lon="26.4817479998"><ele>188.56</ele><time>2012-09-22T18:30:00Z</time></trkpt><trkpt lat="53.4327650629" lon="26.4820530172"><ele>188.56</ele><time>2012-09-22T18:30:15Z</time></trkpt><trkpt lat="53.4320530202" lon="26.4824009500"><ele>189.04</ele><time>2012-09-22T18:30:32Z</time></trkpt><trkpt lat="53.4314286523" lon="26.4827069733"><ele>190.48</ele><time>2012-09-22T18:30:48Z</time></trkpt><trkpt lat="53.4308782965" lon="26.4829665609"><ele>191.44</ele><time>2012-09-22T18:31:02Z</time></trkpt><trkpt lat="53.4302936587" lon="26.4832289144"><ele>191.92</ele><time>2012-09-22T18:31:18Z</time></trkpt><trkpt lat="53.4296750743" lon="26.4835362788"><ele>192.88</ele><time>2012-09-22T18:31:35Z</time></trkpt><trkpt lat="53.4291123133" lon="26.4838054217"><ele>193.84</ele><time>2012-09-22T18:31:51Z</time></trkpt><trkpt lat="53.4286069684" lon="26.4840520173"><ele>195.28</ele><time>2012-09-22T18:32:06Z</time></trkpt><trkpt lat="53.4281406831" lon="26.4842694439"><ele>194.80</ele><time>2012-09-22T18:32:19Z</time></trkpt><trkpt lat="53.4275192488" lon="26.4845633134"><ele>193.84</ele><time>2012-09-22T18:32:33Z</time></trkpt><trkpt lat="53.4271401353" lon="26.4847407583"><ele>193.36</ele><time>2012-09-22T18:32:41Z</time></trkpt><trkpt lat="53.4270960465" lon="26.4847564325"><ele>193.36</ele><time>2012-09-22T18:32:42Z</time></trkpt><trkpt lat="53.4264876042" lon="26.4850594383"><ele>192.88</ele><time>2012-09-22T18:32:55Z</time></trkpt><trkpt lat="53.4257800877" lon="26.4853914455"><ele>191.92</ele><time>2012-09-22T18:33:09Z</time></trkpt><trkpt lat="53.4251898341" lon="26.4856736641"><ele>191.44</ele><time>2012-09-22T18:33:21Z</time></trkpt><trkpt lat="53.4243781306" lon="26.4860655181"><ele>190.96</ele><time>2012-09-22T18:33:38Z</time></trkpt><trkpt lat="53.4237981029" lon="26.4863392711"><ele>190.96</ele><time>2012-09-22T18:33:50Z</time></trkpt><trkpt lat="53.4234471526" lon="26.4865119383"><ele>190.48</ele><time>2012-09-22T18:33:58Z</time></trkpt><trkpt lat="53.4228944499" lon="26.4867701847"><ele>190.96</ele><time>2012-09-22T18:34:11Z</time></trkpt><trkpt lat="53.4223561641" lon="26.4870284311"><ele>190.48</ele><time>2012-09-22T18:34:24Z</time></trkpt><trkpt lat="53.4217566065" lon="26.4873189479"><ele>190.00</ele><time>2012-09-22T18:34:38Z</time></trkpt><trkpt lat="53.4211351722" lon="26.4876272343"><ele>190.00</ele><time>2012-09-22T18:34:53Z</time></trkpt><trkpt lat="53.4205511212" lon="26.4879102912"><ele>190.48</ele><time>2012-09-22T18:35:07Z</time></trkpt><trkpt lat="53.4199649747" lon="26.4881916717"><ele>190.96</ele><time>2012-09-22T18:35:22Z</time></trkpt><trkpt lat="53.4194763936" lon="26.4884267841"><ele>191.92</ele><time>2012-09-22T18:35:36Z</time></trkpt><trkpt lat="53.4191075061" lon="26.4886002894"><ele>191.92</ele><time>2012-09-22T18:35:47Z</time></trkpt><trkpt lat="53.4186734073" lon="26.4888067357"><ele>191.44</ele><time>2012-09-22T18:35:59Z</time></trkpt><trkpt lat="53.4182865825" lon="26.4889902994"><ele>191.44</ele><time>2012-09-22T18:36:09Z</time></trkpt><trkpt lat="53.4177706763" lon="26.4892308600"><ele>190.96</ele><time>2012-09-22T18:36:22Z</time></trkpt><trkpt lat="53.4172956739" lon="26.4894542377"><ele>190.96</ele><time>2012-09-22T18:36:34Z</time></trkpt><trkpt lat="53.4167636745" lon="26.4897092152"><ele>190.96</ele><time>2012-09-22T18:36:47Z</time></trkpt><trkpt lat="53.4161843173" lon="26.4899877459"><ele>191.44</ele><time>2012-09-22T18:37:01Z</time></trkpt><trkpt lat="53.4156952333" lon="26.4902242832"><ele>191.44</ele><time>2012-09-22T18:37:13Z</time></trkpt><trkpt lat="53.4151872899" lon="26.4905508421"><ele>191.44</ele><time>2012-09-22T18:37:26Z</time></trkpt><trkpt lat="53.4146713838" lon="26.4908898063"><ele>191.44</ele><time>2012-09-22T18:37:39Z</time></trkpt><trkpt lat="53.4141097963" lon="26.4912587777"><ele>191.44</ele><time>2012-09-22T18:37:53Z</time></trkpt><trkpt lat="53.4135890286" lon="26.4916194510"><ele>190.96</ele><time>2012-09-22T18:38:06Z</time></trkpt><trkpt lat="53.4129244275" lon="26.4920716546"><ele>191.44</ele><time>2012-09-22T18:38:23Z</time></trkpt><trkpt lat="53.4124028217" lon="26.4924080204"><ele>190.96</ele><time>2012-09-22T18:38:36Z</time></trkpt><trkpt lat="53.4117666353" lon="26.4928410295"><ele>190.96</ele><time>2012-09-22T18:38:52Z</time></trkpt><trkpt lat="53.4111454524" lon="26.4932664111"><ele>190.96</ele><time>2012-09-22T18:39:08Z</time></trkpt><trkpt lat="53.4106308036" lon="26.4936047047"><ele>190.48</ele><time>2012-09-22T18:39:21Z</time></trkpt><trkpt lat="53.4101118799" lon="26.4939450100"><ele>190.48</ele><time>2012-09-22T18:39:34Z</time></trkpt><trkpt lat="53.4094640426" lon="26.4943777677"><ele>190.00</ele><time>2012-09-22T18:39:50Z</time></trkpt><trkpt lat="53.4089716058" lon="26.4947021473"><ele>190.00</ele><time>2012-09-22T18:40:03Z</time></trkpt><trkpt lat="53.4084078390" lon="26.4950787462"><ele>190.00</ele><time>2012-09-22T18:40:17Z</time></trkpt><trkpt lat="53.4078238718" lon="26.4954740368"><ele>190.00</ele><time>2012-09-22T18:40:31Z</time></trkpt><trkpt lat="53.4072004259" lon="26.4958820678"><ele>189.52</ele><time>2012-09-22T18:40:46Z</time></trkpt><trkpt lat="53.4065184742" lon="26.4963445812"><ele>189.52</ele><time>2012-09-22T18:41:02Z</time></trkpt><trkpt lat="53.4062086791" lon="26.4965404663"><ele>189.04</ele><time>2012-09-22T18:41:10Z</time></trkpt><trkpt lat="53.4055067785" lon="26.4970271196"><ele>189.04</ele><time>2012-09-22T18:41:26Z</time></trkpt><trkpt lat="53.4049196262" lon="26.4974211529"><ele>188.08</ele><time>2012-09-22T18:41:40Z</time></trkpt><trkpt lat="53.4048778843" lon="26.4974494837"><ele>188.08</ele><time>2012-09-22T18:41:41Z</time></trkpt><trkpt lat="53.4048345499" lon="26.4974778984"><ele>188.08</ele><time>2012-09-22T18:41:42Z</time></trkpt><trkpt lat="53.4042143729" lon="26.4978708420"><ele>186.63</ele><time>2012-09-22T18:41:55Z</time></trkpt><trkpt lat="53.4035869874" lon="26.4982782025"><ele>186.15</ele><time>2012-09-22T18:42:09Z</time></trkpt><trkpt lat="53.4029468615" lon="26.4987008180"><ele>185.67</ele><time>2012-09-22T18:42:24Z</time></trkpt><trkpt lat="53.4022792429" lon="26.4991448913"><ele>185.67</ele><time>2012-09-22T18:42:40Z</time></trkpt><trkpt lat="53.4019818529" lon="26.4993365016"><ele>185.19</ele><time>2012-09-22T18:42:47Z</time></trkpt><trkpt lat="53.4014356043" lon="26.4996941574"><ele>185.19</ele><time>2012-09-22T18:43:00Z</time></trkpt><trkpt lat="53.4007074684" lon="26.5001770388"><ele>184.71</ele><time>2012-09-22T18:43:17Z</time></trkpt><trkpt lat="53.4002605453" lon="26.5004671365"><ele>184.23</ele><time>2012-09-22T18:43:28Z</time></trkpt><trkpt lat="53.3995835390" lon="26.5009196755"><ele>184.71</ele><time>2012-09-22T18:43:45Z</time></trkpt><trkpt lat="53.3991163317" lon="26.5012258664"><ele>184.71</ele><time>2012-09-22T18:43:57Z</time></trkpt><trkpt lat="53.3985612821" lon="26.5015797503"><ele>184.71</ele><time>2012-09-22T18:44:12Z</time></trkpt><trkpt lat="53.3979442902" lon="26.5019685868"><ele>184.23</ele><time>2012-09-22T18:44:28Z</time></trkpt><trkpt lat="53.3974980377" lon="26.5022031963"><ele>184.71</ele><time>2012-09-22T18:44:40Z</time></trkpt><trkpt lat="53.3969788626" lon="26.5024371352"><ele>184.71</ele><time>2012-09-22T18:44:55Z</time></trkpt><trkpt lat="53.3964087255" lon="26.5026530530"><ele>185.67</ele><time>2012-09-22T18:45:12Z</time></trkpt><trkpt lat="53.3958864491" lon="26.5028475132"><ele>186.63</ele><time>2012-09-22T18:45:28Z</time></trkpt><trkpt lat="53.3953350037" lon="26.5030576475"><ele>187.59</ele><time>2012-09-22T18:45:45Z</time></trkpt><trkpt lat="53.3948082011" lon="26.5032503475"><ele>188.08</ele><time>2012-09-22T18:46:01Z</time></trkpt><trkpt lat="53.3943084721" lon="26.5034065861"><ele>188.08</ele><time>2012-09-22T18:46:15Z</time></trkpt><trkpt lat="53.3938831743" lon="26.5035318956"><ele>188.08</ele><time>2012-09-22T18:46:27Z</time></trkpt><trkpt lat="53.3934096806" lon="26.5036858711"><ele>188.56</ele><time>2012-09-22T18:46:41Z</time></trkpt><trkpt lat="53.3928930201" lon="26.5038596280"><ele>188.56</ele><time>2012-09-22T18:46:56Z</time></trkpt><trkpt lat="53.3922706638" lon="26.5040607098"><ele>188.08</ele><time>2012-09-22T18:47:13Z</time></trkpt><trkpt lat="53.3917646483" lon="26.5041994303"><ele>188.08</ele><time>2012-09-22T18:47:26Z</time></trkpt><trkpt lat="53.3912892267" lon="26.5043591056"><ele>187.59</ele><time>2012-09-22T18:47:38Z</time></trkpt><trkpt lat="53.3906439040" lon="26.5045557451"><ele>187.11</ele><time>2012-09-22T18:47:54Z</time></trkpt><trkpt lat="53.3900871780" lon="26.5047318488"><ele>187.11</ele><time>2012-09-22T18:48:08Z</time></trkpt><trkpt lat="53.3894287795" lon="26.5049379598"><ele>187.59</ele><time>2012-09-22T18:48:25Z</time></trkpt><trkpt lat="53.3887172397" lon="26.5051732399"><ele>188.08</ele><time>2012-09-22T18:48:42Z</time></trkpt><trkpt lat="53.3883907646" lon="26.5052675363"><ele>188.08</ele><time>2012-09-22T18:48:50Z</time></trkpt><trkpt lat="53.3883484360" lon="26.5052817855"><ele>187.59</ele><time>2012-09-22T18:48:51Z</time></trkpt><trkpt lat="53.3878078032" lon="26.5054543689"><ele>187.59</ele><time>2012-09-22T18:49:04Z</time></trkpt><trkpt lat="53.3872374147" lon="26.5056387708"><ele>188.08</ele><time>2012-09-22T18:49:18Z</time></trkpt><trkpt lat="53.3865702152" lon="26.5058504976"><ele>188.08</ele><time>2012-09-22T18:49:35Z</time></trkpt><trkpt lat="53.3859435003" lon="26.5060452931"><ele>189.04</ele><time>2012-09-22T18:49:51Z</time></trkpt><trkpt lat="53.3853974193" lon="26.5062340535"><ele>189.04</ele><time>2012-09-22T18:50:05Z</time></trkpt><trkpt lat="53.3849364985" lon="26.5065405797"><ele>189.04</ele><time>2012-09-22T18:50:17Z</time></trkpt><trkpt lat="53.3843305707" lon="26.5070096310"><ele>188.56</ele><time>2012-09-22T18:50:33Z</time></trkpt><trkpt lat="53.3836248145" lon="26.5075546224"><ele>189.52</ele><time>2012-09-22T18:50:53Z</time></trkpt><trkpt lat="53.3832264226" lon="26.5078536887"><ele>190.96</ele><time>2012-09-22T18:51:06Z</time></trkpt><trkpt lat="53.3828151226" lon="26.5081794932"><ele>191.92</ele><time>2012-09-22T18:51:20Z</time></trkpt><trkpt lat="53.3823183272" lon="26.5085791424"><ele>193.36</ele><time>2012-09-22T18:51:36Z</time></trkpt><trkpt lat="53.3820501901" lon="26.5088116564"><ele>193.84</ele><time>2012-09-22T18:51:46Z</time></trkpt><trkpt lat="53.3816560730" lon="26.5091337729"><ele>194.32</ele><time>2012-09-22T18:51:59Z</time></trkpt><trkpt lat="53.3813030273" lon="26.5094177518"><ele>194.32</ele><time>2012-09-22T18:52:10Z</time></trkpt><trkpt lat="53.3810912166" lon="26.5095999744"><ele>194.80</ele><time>2012-09-22T18:52:16Z</time></trkpt><trkpt lat="53.3806639910" lon="26.5099492483"><ele>194.80</ele><time>2012-09-22T18:52:28Z</time></trkpt><trkpt lat="53.3805145416" lon="26.5100613981"><ele>194.80</ele><time>2012-09-22T18:52:32Z</time></trkpt><trkpt lat="53.3804355841" lon="26.5101060737"><ele>194.32</ele><time>2012-09-22T18:52:34Z</time></trkpt><trkpt lat="53.3803977817" lon="26.5101323929"><ele>194.80</ele><time>2012-09-22T18:52:35Z</time></trkpt><trkpt lat="53.3803606499" lon="26.5101569518"><ele>194.80</ele><time>2012-09-22T18:52:36Z</time></trkpt><trkpt lat="53.3803256135" lon="26.5101844445"><ele>194.80</ele><time>2012-09-22T18:52:37Z</time></trkpt><trkpt lat="53.3802897390" lon="26.5102039743"><ele>194.32</ele><time>2012-09-22T18:52:38Z</time></trkpt><trkpt lat="53.3802517690" lon="26.5102157090"><ele>194.80</ele><time>2012-09-22T18:52:39Z</time></trkpt><trkpt lat="53.3802095242" lon="26.5102276113"><ele>194.80</ele><time>2012-09-22T18:52:40Z</time></trkpt><trkpt lat="53.3801682014" lon="26.5102444589"><ele>194.80</ele><time>2012-09-22T18:52:41Z</time></trkpt><trkpt lat="53.3795939572" lon="26.5104220714"><ele>193.84</ele><time>2012-09-22T18:52:55Z</time></trkpt><trkpt lat="53.3789684158" lon="26.5104356501"><ele>193.36</ele><time>2012-09-22T18:53:09Z</time></trkpt><trkpt lat="53.3784333151" lon="26.5103195608"><ele>192.88</ele><time>2012-09-22T18:53:21Z</time></trkpt><trkpt lat="53.3779469132" lon="26.5101554431"><ele>192.40</ele><time>2012-09-22T18:53:32Z</time></trkpt><trkpt lat="53.3773248922" lon="26.5099320654"><ele>192.40</ele><time>2012-09-22T18:53:46Z</time></trkpt><trkpt lat="53.3766598720" lon="26.5097452328"><ele>191.92</ele><time>2012-09-22T18:54:01Z</time></trkpt><trkpt lat="53.3761045709" lon="26.5095646027"><ele>191.92</ele><time>2012-09-22T18:54:14Z</time></trkpt><trkpt lat="53.3755066060" lon="26.5094580688"><ele>192.40</ele><time>2012-09-22T18:54:28Z</time></trkpt><trkpt lat="53.3748932183" lon="26.5095311590"><ele>191.92</ele><time>2012-09-22T18:54:42Z</time></trkpt><trkpt lat="53.3740593027" lon="26.5098030679"><ele>190.96</ele><time>2012-09-22T18:54:59Z</time></trkpt><trkpt lat="53.3733606711" lon="26.5100210812"><ele>190.00</ele><time>2012-09-22T18:55:13Z</time></trkpt><trkpt lat="53.3726765402" lon="26.5102356579"><ele>188.08</ele><time>2012-09-22T18:55:26Z</time></trkpt><trkpt lat="53.3720938303" lon="26.5104232449"><ele>187.59</ele><time>2012-09-22T18:55:37Z</time></trkpt><trkpt lat="53.3714599907" lon="26.5106322896"><ele>186.63</ele><time>2012-09-22T18:55:50Z</time></trkpt><trkpt lat="53.3708148357" lon="26.5108252410"><ele>186.15</ele><time>2012-09-22T18:56:03Z</time></trkpt><trkpt lat="53.3701384161" lon="26.5110525582"><ele>186.15</ele><time>2012-09-22T18:56:17Z</time></trkpt><trkpt lat="53.3693865594" lon="26.5113283228"><ele>185.67</ele><time>2012-09-22T18:56:33Z</time></trkpt><trkpt lat="53.3690722380" lon="26.5114376228"><ele>186.15</ele><time>2012-09-22T18:56:40Z</time></trkpt><trkpt lat="53.3684516419" lon="26.5115944482"><ele>185.19</ele><time>2012-09-22T18:56:54Z</time></trkpt><trkpt lat="53.3678594604" lon="26.5117719769"><ele>185.67</ele><time>2012-09-22T18:57:08Z</time></trkpt><trkpt lat="53.3671788499" lon="26.5119778365"><ele>185.67</ele><time>2012-09-22T18:57:24Z</time></trkpt><trkpt lat="53.3665677253" lon="26.5121588856"><ele>186.15</ele><time>2012-09-22T18:57:39Z</time></trkpt><trkpt lat="53.3661187068" lon="26.5122996178"><ele>186.63</ele><time>2012-09-22T18:57:51Z</time></trkpt><trkpt lat="53.3655980229" lon="26.5124582034"><ele>187.59</ele><time>2012-09-22T18:58:05Z</time></trkpt><trkpt lat="53.3650925942" lon="26.5126266796"><ele>189.04</ele><time>2012-09-22T18:58:19Z</time></trkpt><trkpt lat="53.3645620197" lon="26.5127897076"><ele>189.52</ele><time>2012-09-22T18:58:34Z</time></trkpt><trkpt lat="53.3642946370" lon="26.5128723532"><ele>190.00</ele><time>2012-09-22T18:58:42Z</time></trkpt><trkpt lat="53.3639224805" lon="26.5129941422"><ele>190.48</ele><time>2012-09-22T18:58:53Z</time></trkpt><trkpt lat="53.3635964245" lon="26.5130941384"><ele>190.48</ele><time>2012-09-22T18:59:02Z</time></trkpt><trkpt lat="53.3630788419" lon="26.5132601000"><ele>190.48</ele><time>2012-09-22T18:59:17Z</time></trkpt><trkpt lat="53.3630381897" lon="26.5132709127"><ele>190.48</ele><time>2012-09-22T18:59:18Z</time></trkpt><trkpt lat="53.3629944362" lon="26.5132830665"><ele>190.48</ele><time>2012-09-22T18:59:19Z</time></trkpt><trkpt lat="53.3629516885" lon="26.5132963099"><ele>190.48</ele><time>2012-09-22T18:59:20Z</time></trkpt><trkpt lat="53.3629110362" lon="26.5133149177"><ele>190.48</ele><time>2012-09-22T18:59:21Z</time></trkpt><trkpt lat="53.3628711384" lon="26.5133321006"><ele>190.48</ele><time>2012-09-22T18:59:22Z</time></trkpt><trkpt lat="53.3628309052" lon="26.5133480262"><ele>190.96</ele><time>2012-09-22T18:59:23Z</time></trkpt><trkpt lat="53.3623874187" lon="26.5134848189"><ele>190.96</ele><time>2012-09-22T18:59:35Z</time></trkpt><trkpt lat="53.3618418407" lon="26.5136453323"><ele>190.48</ele><time>2012-09-22T18:59:49Z</time></trkpt><trkpt lat="53.3612033911" lon="26.5138511918"><ele>190.48</ele><time>2012-09-22T19:00:05Z</time></trkpt><trkpt lat="53.3607072663" lon="26.5140177403"><ele>190.48</ele><time>2012-09-22T19:00:18Z</time></trkpt><trkpt lat="53.3601215389" lon="26.5142100211"><ele>189.04</ele><time>2012-09-22T19:00:32Z</time></trkpt><trkpt lat="53.3600826468" lon="26.5142194927"><ele>189.52</ele><time>2012-09-22T19:00:33Z</time></trkpt><trkpt lat="53.3596938103" lon="26.5143491607"><ele>189.04</ele><time>2012-09-22T19:00:45Z</time></trkpt><trkpt lat="53.3592217416" lon="26.5144743863"><ele>187.59</ele><time>2012-09-22T19:00:56Z</time></trkpt><trkpt lat="53.3588836156" lon="26.5145929903"><ele>187.11</ele><time>2012-09-22T19:01:05Z</time></trkpt><trkpt lat="53.3585062623" lon="26.5147049725"><ele>187.11</ele><time>2012-09-22T19:01:15Z</time></trkpt><trkpt lat="53.3580889273" lon="26.5148571879"><ele>186.63</ele><time>2012-09-22T19:01:25Z</time></trkpt><trkpt lat="53.3575371467" lon="26.5150149353"><ele>186.63</ele><time>2012-09-22T19:01:39Z</time></trkpt><trkpt lat="53.3570283651" lon="26.5151395742"><ele>186.63</ele><time>2012-09-22T19:01:53Z</time></trkpt><trkpt lat="53.3565578889" lon="26.5152938850"><ele>187.59</ele><time>2012-09-22T19:02:06Z</time></trkpt><trkpt lat="53.3561667893" lon="26.5154215414"><ele>188.08</ele><time>2012-09-22T19:02:17Z</time></trkpt><trkpt lat="53.3557337802" lon="26.5155476052"><ele>188.56</ele><time>2012-09-22T19:02:30Z</time></trkpt><trkpt lat="53.3553337958" lon="26.5156720765"><ele>189.04</ele><time>2012-09-22T19:02:42Z</time></trkpt><trkpt lat="53.3549439535" lon="26.5157812089"><ele>189.52</ele><time>2012-09-22T19:02:55Z</time></trkpt><trkpt lat="53.3545558713" lon="26.5158880781"><ele>190.96</ele><time>2012-09-22T19:03:08Z</time></trkpt><trkpt lat="53.3543374389" lon="26.5159764234"><ele>190.96</ele><time>2012-09-22T19:03:16Z</time></trkpt><trkpt lat="53.3538260590" lon="26.5161267109"><ele>190.96</ele><time>2012-09-22T19:03:31Z</time></trkpt><trkpt lat="53.3533202112" lon="26.5162935946"><ele>190.00</ele><time>2012-09-22T19:03:44Z</time></trkpt><trkpt lat="53.3525889739" lon="26.5165239293"><ele>188.08</ele><time>2012-09-22T19:03:59Z</time></trkpt><trkpt lat="53.3518848941" lon="26.5167328063"><ele>186.15</ele><time>2012-09-22T19:04:12Z</time></trkpt><trkpt lat="53.3511348814" lon="26.5169654042"><ele>185.19</ele><time>2012-09-22T19:04:28Z</time></trkpt><trkpt lat="53.3504841942" lon="26.5171740297"><ele>185.67</ele><time>2012-09-22T19:04:44Z</time></trkpt><trkpt lat="53.3500544541" lon="26.5173016023"><ele>186.63</ele><time>2012-09-22T19:04:56Z</time></trkpt><trkpt lat="53.3495828882" lon="26.5174551588"><ele>187.59</ele><time>2012-09-22T19:05:11Z</time></trkpt><trkpt lat="53.3490712568" lon="26.5176290832"><ele>188.08</ele><time>2012-09-22T19:05:24Z</time></trkpt><trkpt lat="53.3485146146" lon="26.5178061929"><ele>187.11</ele><time>2012-09-22T19:05:38Z</time></trkpt><trkpt lat="53.3484356571" lon="26.5178349428"><ele>187.59</ele><time>2012-09-22T19:05:40Z</time></trkpt><trkpt lat="53.3478899114" lon="26.5179988928"><ele>187.11</ele><time>2012-09-22T19:05:53Z</time></trkpt><trkpt lat="53.3475106303" lon="26.5181174129"><ele>187.11</ele><time>2012-09-22T19:06:03Z</time></trkpt><trkpt lat="53.3471020125" lon="26.5182475839"><ele>187.11</ele><time>2012-09-22T19:06:15Z</time></trkpt><trkpt lat="53.3465445321" lon="26.5183916688"><ele>187.59</ele><time>2012-09-22T19:06:30Z</time></trkpt><trkpt lat="53.3460081741" lon="26.5185527690"><ele>187.59</ele><time>2012-09-22T19:06:43Z</time></trkpt><trkpt lat="53.3453955408" lon="26.5187396016"><ele>187.11</ele><time>2012-09-22T19:06:57Z</time></trkpt><trkpt lat="53.3448505495" lon="26.5189183876"><ele>187.11</ele><time>2012-09-22T19:07:10Z</time></trkpt><trkpt lat="53.3442691807" lon="26.5190966707"><ele>186.15</ele><time>2012-09-22T19:07:23Z</time></trkpt><trkpt lat="53.3436179068" lon="26.5193119179"><ele>184.71</ele><time>2012-09-22T19:07:37Z</time></trkpt><trkpt lat="53.3430470154" lon="26.5194779634"><ele>182.79</ele><time>2012-09-22T19:07:50Z</time></trkpt><trkpt lat="53.3423979208" lon="26.5196731780"><ele>181.35</ele><time>2012-09-22T19:08:04Z</time></trkpt><trkpt lat="53.3418304659" lon="26.5198522154"><ele>181.35</ele><time>2012-09-22T19:08:18Z</time></trkpt><trkpt lat="53.3412097022" lon="26.5200408921"><ele>181.83</ele><time>2012-09-22T19:08:35Z</time></trkpt><trkpt lat="53.3407077100" lon="26.5201888327"><ele>183.27</ele><time>2012-09-22T19:08:51Z</time></trkpt><trkpt lat="53.3402928896" lon="26.5203220211"><ele>184.71</ele><time>2012-09-22T19:09:06Z</time></trkpt><trkpt lat="53.3398083318" lon="26.5204809420"><ele>185.67</ele><time>2012-09-22T19:09:22Z</time></trkpt><trkpt lat="53.3393832017" lon="26.5206194110"><ele>185.67</ele><time>2012-09-22T19:09:34Z</time></trkpt><trkpt lat="53.3389439899" lon="26.5207507554"><ele>185.19</ele><time>2012-09-22T19:09:45Z</time></trkpt><trkpt lat="53.3384095598" lon="26.5209159628"><ele>184.23</ele><time>2012-09-22T19:09:58Z</time></trkpt><trkpt lat="53.3379191346" lon="26.5210713632"><ele>184.23</ele><time>2012-09-22T19:10:10Z</time></trkpt><trkpt lat="53.3374678530" lon="26.5211409330"><ele>183.75</ele><time>2012-09-22T19:10:21Z</time></trkpt><trkpt lat="53.3369857259" lon="26.5212913044"><ele>183.27</ele><time>2012-09-22T19:10:34Z</time></trkpt><trkpt lat="53.3367279824" lon="26.5213855170"><ele>182.79</ele><time>2012-09-22T19:10:44Z</time></trkpt><trkpt lat="53.3365657926" lon="26.5214881953"><ele>182.79</ele><time>2012-09-22T19:10:53Z</time></trkpt><trkpt lat="53.3362229727" lon="26.5215827432"><ele>182.31</ele><time>2012-09-22T19:11:02Z</time></trkpt><trkpt lat="53.3361404110" lon="26.5215861797"><ele>182.31</ele><time>2012-09-22T19:11:04Z</time></trkpt><trkpt lat="53.3357580286" lon="26.5215793904"><ele>182.31</ele><time>2012-09-22T19:11:14Z</time></trkpt><trkpt lat="53.3353145421" lon="26.5218279976"><ele>183.27</ele><time>2012-09-22T19:11:26Z</time></trkpt><trkpt lat="53.3348046709" lon="26.5220401436"><ele>182.31</ele><time>2012-09-22T19:11:38Z</time></trkpt><trkpt lat="53.3341977373" lon="26.5222425666"><ele>181.35</ele><time>2012-09-22T19:11:51Z</time></trkpt><trkpt lat="53.3335401770" lon="26.5224410500"><ele>180.87</ele><time>2012-09-22T19:12:05Z</time></trkpt><trkpt lat="53.3329070080" lon="26.5226379409"><ele>179.90</ele><time>2012-09-22T19:12:18Z</time></trkpt><trkpt lat="53.3327013161" lon="26.5227061696"><ele>180.38</ele><time>2012-09-22T19:12:22Z</time></trkpt><trkpt lat="53.3326512761" lon="26.5227181558"><ele>179.90</ele><time>2012-09-22T19:12:23Z</time></trkpt><trkpt lat="53.3320204541" lon="26.5229159687"><ele>178.94</ele><time>2012-09-22T19:12:37Z</time></trkpt><trkpt lat="53.3317011874" lon="26.5230143722"><ele>178.46</ele><time>2012-09-22T19:12:44Z</time></trkpt><trkpt lat="53.3311920706" lon="26.5231753048"><ele>177.98</ele><time>2012-09-22T19:12:55Z</time></trkpt><trkpt lat="53.3304868173" lon="26.5233886242"><ele>177.02</ele><time>2012-09-22T19:13:09Z</time></trkpt><trkpt lat="53.3298806380" lon="26.5237329528"><ele>177.02</ele><time>2012-09-22T19:13:22Z</time></trkpt><trkpt lat="53.3293749578" lon="26.5243026707"><ele>176.06</ele><time>2012-09-22T19:13:35Z</time></trkpt><trkpt lat="53.3289987780" lon="26.5249309782"><ele>174.62</ele><time>2012-09-22T19:13:46Z</time></trkpt><trkpt lat="53.3286143001" lon="26.5256011114"><ele>174.62</ele><time>2012-09-22T19:13:57Z</time></trkpt><trkpt lat="53.3282395452" lon="26.5262616891"><ele>173.17</ele><time>2012-09-22T19:14:08Z</time></trkpt><trkpt lat="53.3277319372" lon="26.5271646716"><ele>172.21</ele><time>2012-09-22T19:14:22Z</time></trkpt><trkpt lat="53.3272447810" lon="26.5280275047"><ele>171.25</ele><time>2012-09-22T19:14:35Z</time></trkpt><trkpt lat="53.3267701976" lon="26.5288724005"><ele>170.29</ele><time>2012-09-22T19:14:48Z</time></trkpt><trkpt lat="53.3262537885" lon="26.5298012830"><ele>169.33</ele><time>2012-09-22T19:15:03Z</time></trkpt><trkpt lat="53.3257061988" lon="26.5307616815"><ele>169.81</ele><time>2012-09-22T19:15:19Z</time></trkpt><trkpt lat="53.3252523188" lon="26.5315611474"><ele>169.33</ele><time>2012-09-22T19:15:32Z</time></trkpt><trkpt lat="53.3247836865" lon="26.5323899500"><ele>168.85</ele><time>2012-09-22T19:15:46Z</time></trkpt><trkpt lat="53.3243836183" lon="26.5330848098"><ele>168.37</ele><time>2012-09-22T19:15:59Z</time></trkpt><trkpt lat="53.3239921834" lon="26.5337938350"><ele>167.89</ele><time>2012-09-22T19:16:13Z</time></trkpt><trkpt lat="53.3238741662" lon="26.5339917317"><ele>167.41</ele><time>2012-09-22T19:16:17Z</time></trkpt><trkpt lat="53.3235574141" lon="26.5345999226"><ele>167.41</ele><time>2012-09-22T19:16:29Z</time></trkpt><trkpt lat="53.3232676517" lon="26.5353613347"><ele>166.45</ele><time>2012-09-22T19:16:43Z</time></trkpt><trkpt lat="53.3230726887" lon="26.5358732175"><ele>166.93</ele><time>2012-09-22T19:16:54Z</time></trkpt><trkpt lat="53.3228471316" lon="26.5364868566"><ele>167.41</ele><time>2012-09-22T19:17:07Z</time></trkpt><trkpt lat="53.3225867059" lon="26.5372082870"><ele>168.37</ele><time>2012-09-22T19:17:23Z</time></trkpt><trkpt lat="53.3223001286" lon="26.5379940905"><ele>169.33</ele><time>2012-09-22T19:17:41Z</time></trkpt><trkpt lat="53.3220158145" lon="26.5387195442"><ele>169.81</ele><time>2012-09-22T19:17:58Z</time></trkpt><trkpt lat="53.3217682969" lon="26.5391596779"><ele>170.29</ele><time>2012-09-22T19:18:09Z</time></trkpt><trkpt lat="53.3214451745" lon="26.5394943673"><ele>170.29</ele><time>2012-09-22T19:18:20Z</time></trkpt><trkpt lat="53.3211137541" lon="26.5397842135"><ele>170.77</ele><time>2012-09-22T19:18:32Z</time></trkpt><trkpt lat="53.3207446989" lon="26.5401231777"><ele>171.73</ele><time>2012-09-22T19:18:46Z</time></trkpt><trkpt lat="53.3203281183" lon="26.5405666642"><ele>172.69</ele><time>2012-09-22T19:19:02Z</time></trkpt><trkpt lat="53.3199644275" lon="26.5409972426"><ele>173.17</ele><time>2012-09-22T19:19:16Z</time></trkpt><trkpt lat="53.3196330909" lon="26.5414521284"><ele>174.14</ele><time>2012-09-22T19:19:30Z</time></trkpt><trkpt lat="53.3193317614" lon="26.5418954473"><ele>174.62</ele><time>2012-09-22T19:19:43Z</time></trkpt><trkpt lat="53.3191640396" lon="26.5419814456"><ele>175.10</ele><time>2012-09-22T19:19:52Z</time></trkpt><trkpt lat="53.3188524004" lon="26.5419219341"><ele>175.58</ele><time>2012-09-22T19:20:03Z</time></trkpt><trkpt lat="53.3184737060" lon="26.5417345148"><ele>175.10</ele><time>2012-09-22T19:20:15Z</time></trkpt><trkpt lat="53.3180955146" lon="26.5414445847"><ele>174.62</ele><time>2012-09-22T19:20:26Z</time></trkpt><trkpt lat="53.3177096117" lon="26.5410115756"><ele>174.62</ele><time>2012-09-22T19:20:37Z</time></trkpt><trkpt lat="53.3173149079" lon="26.5404533409"><ele>174.14</ele><time>2012-09-22T19:20:49Z</time></trkpt><trkpt lat="53.3172526304" lon="26.5403657500"><ele>174.62</ele><time>2012-09-22T19:20:51Z</time></trkpt><trkpt lat="53.3172195219" lon="26.5403224993"><ele>174.14</ele><time>2012-09-22T19:20:52Z</time></trkpt><trkpt lat="53.3168045338" lon="26.5397583134"><ele>174.62</ele><time>2012-09-22T19:21:05Z</time></trkpt><trkpt lat="53.3164431900" lon="26.5393097978"><ele>175.10</ele><time>2012-09-22T19:21:16Z</time></trkpt><trkpt lat="53.3159832750" lon="26.5387022775"><ele>175.10</ele><time>2012-09-22T19:21:29Z</time></trkpt><trkpt lat="53.3155303169" lon="26.5380974393"><ele>174.62</ele><time>2012-09-22T19:21:42Z</time></trkpt><trkpt lat="53.3152240422" lon="26.5377274621"><ele>174.62</ele><time>2012-09-22T19:21:53Z</time></trkpt><trkpt lat="53.3150318451" lon="26.5374921821"><ele>174.62</ele><time>2012-09-22T19:21:59Z</time></trkpt><trkpt lat="53.3146608621" lon="26.5370613523"><ele>174.62</ele><time>2012-09-22T19:22:10Z</time></trkpt><trkpt lat="53.3143027034" lon="26.5366048738"><ele>174.62</ele><time>2012-09-22T19:22:21Z</time></trkpt><trkpt lat="53.3138462249" lon="26.5359914023"><ele>175.58</ele><time>2012-09-22T19:22:36Z</time></trkpt><trkpt lat="53.3135834523" lon="26.5356588922"><ele>175.10</ele><time>2012-09-22T19:22:47Z</time></trkpt><trkpt lat="53.3132879063" lon="26.5353283100"><ele>175.10</ele><time>2012-09-22T19:22:58Z</time></trkpt><trkpt lat="53.3130006585" lon="26.5350147430"><ele>174.62</ele><time>2012-09-22T19:23:09Z</time></trkpt><trkpt lat="53.3126990777" lon="26.5347175207"><ele>175.10</ele><time>2012-09-22T19:23:19Z</time></trkpt><trkpt lat="53.3123192098" lon="26.5341595374"><ele>174.14</ele><time>2012-09-22T19:23:32Z</time></trkpt><trkpt lat="53.3121467941" lon="26.5340134408"><ele>174.14</ele><time>2012-09-22T19:23:38Z</time></trkpt><trkpt lat="53.3121327125" lon="26.5340210684"><ele>173.66</ele><time>2012-09-22T19:23:39Z</time></trkpt><trkpt lat="53.3121243306" lon="26.5340345632"><ele>174.14</ele><time>2012-09-22T19:23:40Z</time></trkpt><trkpt lat="53.3121205587" lon="26.5340499859"><ele>174.14</ele><time>2012-09-22T19:23:41Z</time></trkpt><trkpt lat="53.3121099137" lon="26.5340567753"><ele>174.14</ele><time>2012-09-22T19:23:52Z</time></trkpt><trkpt lat="53.3120973408" lon="26.5340700187"><ele>174.14</ele><time>2012-09-22T19:24:11Z</time></trkpt><trkpt lat="53.3120849356" lon="26.5340957511"><ele>174.14</ele><time>2012-09-22T19:24:27Z</time></trkpt><trkpt lat="53.3120778110" lon="26.5341072343"><ele>174.14</ele><time>2012-09-22T19:24:28Z</time></trkpt><trkpt lat="53.3119929861" lon="26.5343552548"><ele>174.62</ele><time>2012-09-22T19:24:42Z</time></trkpt><trkpt lat="53.3119510766" lon="26.5345245693"><ele>175.10</ele><time>2012-09-22T19:24:52Z</time></trkpt><trkpt lat="53.3119639009" lon="26.5348458476"><ele>175.58</ele><time>2012-09-22T19:24:59Z</time></trkpt><trkpt lat="53.3121576067" lon="26.5351363644"><ele>176.06</ele><time>2012-09-22T19:25:07Z</time></trkpt><trkpt lat="53.3124450222" lon="26.5354864765"><ele>177.02</ele><time>2012-09-22T19:25:17Z</time></trkpt><trkpt lat="53.3126097266" lon="26.5356785897"><ele>177.02</ele><time>2012-09-22T19:25:22Z</time></trkpt><trkpt lat="53.3129665442" lon="26.5361126885"><ele>177.02</ele><time>2012-09-22T19:25:33Z</time></trkpt><trkpt lat="53.3132165764" lon="26.5364188794"><ele>177.50</ele><time>2012-09-22T19:25:40Z</time></trkpt><trkpt lat="53.3135358430" lon="26.5368236415"><ele>177.50</ele><time>2012-09-22T19:25:51Z</time></trkpt><trkpt lat="53.3137149643" lon="26.5370802116"><ele>177.50</ele><time>2012-09-22T19:25:59Z</time></trkpt><trkpt lat="53.3138756454" lon="26.5372173395"><ele>176.06</ele><time>2012-09-22T19:26:07Z</time></trkpt><trkpt lat="53.3140955865" lon="26.5374881588"><ele>175.58</ele><time>2012-09-22T19:26:16Z</time></trkpt><trkpt lat="53.3142956626" lon="26.5378092695"><ele>175.58</ele><time>2012-09-22T19:26:25Z</time></trkpt><trkpt lat="53.3146789670" lon="26.5383240860"><ele>174.62</ele><time>2012-09-22T19:26:39Z</time></trkpt><trkpt lat="53.3147359639" lon="26.5383648220"><ele>174.62</ele><time>2012-09-22T19:26:46Z</time></trkpt><trkpt lat="53.3147374727" lon="26.5383674204"><ele>175.10</ele><time>2012-09-22T19:27:07Z</time></trkpt><trkpt lat="53.3147538174" lon="26.5383694321"><ele>174.62</ele><time>2012-09-22T19:27:32Z</time></trkpt><trkpt lat="53.3147684857" lon="26.5384199750"><ele>174.62</ele><time>2012-09-22T19:27:45Z</time></trkpt><trkpt lat="53.3147638757" lon="26.5384023730"><ele>174.62</ele><time>2012-09-22T19:28:12Z</time></trkpt><trkpt lat="53.3147628698" lon="26.5384107549"><ele>174.62</ele><time>2012-09-22T19:28:37Z</time></trkpt></trkseg></trk></gpx>